<?xml version="1.0" encoding="UTF-8" standalone="no" ?>
<gpx xmlns="http://www.topografix.com/GPX/1/1" xmlns:xsi="http://www.w3.org/2001/XMLSchema-instance" xsi:schemaLocation="http://www.topografix.com/GPX/1/1 http://www.topografix.com/GPX/1/1/gpx.xsd" version="1.1" creator="VisuGPX - https://www.visugpx.com">
  <metadata>
    <name>Causswatts 2017</name>
  </metadata>
  <trk>
    <name><![CDATA[causwatts 01-peyreleau-dourbies]]></name>
    <trkseg>
      <trkpt lat="44.17678" lon="3.2092">
        <ele>715</ele>
        <time>2017-02-27T14:44:05Z</time>
      </trkpt>
      <trkpt lat="44.1767" lon="3.20922">
        <ele>715</ele>
        <time>2017-02-27T14:46:05Z</time>
      </trkpt>
      <trkpt lat="44.17667" lon="3.20922">
        <ele>714</ele>
        <time>2017-02-27T14:48:05Z</time>
      </trkpt>
      <trkpt lat="44.17667" lon="3.20922">
        <ele>714</ele>
        <time>2017-02-27T14:50:05Z</time>
      </trkpt>
      <trkpt lat="44.17666" lon="3.20927">
        <ele>715</ele>
        <time>2017-02-27T14:52:05Z</time>
      </trkpt>
      <trkpt lat="44.17665" lon="3.20929">
        <ele>715</ele>
        <time>2017-02-27T14:54:05Z</time>
      </trkpt>
      <trkpt lat="44.17664" lon="3.20932">
        <ele>715</ele>
        <time>2017-02-27T14:56:05Z</time>
      </trkpt>
      <trkpt lat="44.17662" lon="3.20936">
        <ele>716</ele>
        <time>2017-02-27T14:58:05Z</time>
      </trkpt>
      <trkpt lat="44.17658" lon="3.20944">
        <ele>716</ele>
        <time>2017-02-27T15:00:05Z</time>
      </trkpt>
      <trkpt lat="44.17644" lon="3.20964">
        <ele>718</ele>
        <time>2017-02-27T15:02:05Z</time>
      </trkpt>
      <trkpt lat="44.17636" lon="3.20978">
        <ele>718</ele>
        <time>2017-02-27T15:04:05Z</time>
      </trkpt>
      <trkpt lat="44.1763" lon="3.20994">
        <ele>719</ele>
        <time>2017-02-27T15:06:05Z</time>
      </trkpt>
      <trkpt lat="44.17627" lon="3.21002">
        <ele>719</ele>
        <time>2017-02-27T15:08:05Z</time>
      </trkpt>
      <trkpt lat="44.1762" lon="3.21017">
        <ele>720</ele>
        <time>2017-02-27T15:10:05Z</time>
      </trkpt>
      <trkpt lat="44.17612" lon="3.2103">
        <ele>721</ele>
        <time>2017-02-27T15:12:05Z</time>
      </trkpt>
      <trkpt lat="44.17604" lon="3.21043">
        <ele>722</ele>
        <time>2017-02-27T15:14:05Z</time>
      </trkpt>
      <trkpt lat="44.17592" lon="3.21061">
        <ele>722</ele>
        <time>2017-02-27T15:16:05Z</time>
      </trkpt>
      <trkpt lat="44.1758" lon="3.21077">
        <ele>723</ele>
        <time>2017-02-27T15:18:05Z</time>
      </trkpt>
      <trkpt lat="44.17567" lon="3.21092">
        <ele>723</ele>
        <time>2017-02-27T15:20:05Z</time>
      </trkpt>
      <trkpt lat="44.1756" lon="3.21099">
        <ele>723</ele>
        <time>2017-02-27T15:22:05Z</time>
      </trkpt>
      <trkpt lat="44.17544" lon="3.21116">
        <ele>723</ele>
        <time>2017-02-27T15:24:05Z</time>
      </trkpt>
      <trkpt lat="44.17535" lon="3.21127">
        <ele>723</ele>
        <time>2017-02-27T15:26:05Z</time>
      </trkpt>
      <trkpt lat="44.17531" lon="3.21137">
        <ele>723</ele>
        <time>2017-02-27T15:28:05Z</time>
      </trkpt>
      <trkpt lat="44.17529" lon="3.21147">
        <ele>723</ele>
        <time>2017-02-27T15:30:05Z</time>
      </trkpt>
      <trkpt lat="44.17531" lon="3.21158">
        <ele>724</ele>
        <time>2017-02-27T15:32:05Z</time>
      </trkpt>
      <trkpt lat="44.17531" lon="3.21158">
        <ele>724</ele>
        <time>2017-02-27T15:34:05Z</time>
      </trkpt>
      <trkpt lat="44.17516" lon="3.21166">
        <ele>724</ele>
        <time>2017-02-27T15:36:05Z</time>
      </trkpt>
      <trkpt lat="44.17508" lon="3.21169">
        <ele>723</ele>
        <time>2017-02-27T15:38:05Z</time>
      </trkpt>
      <trkpt lat="44.17506" lon="3.21171">
        <ele>723</ele>
        <time>2017-02-27T15:40:05Z</time>
      </trkpt>
      <trkpt lat="44.17503" lon="3.21174">
        <ele>723</ele>
        <time>2017-02-27T15:42:05Z</time>
      </trkpt>
      <trkpt lat="44.17496" lon="3.21177">
        <ele>723</ele>
        <time>2017-02-27T15:44:05Z</time>
      </trkpt>
      <trkpt lat="44.17487" lon="3.21182">
        <ele>722</ele>
        <time>2017-02-27T15:46:05Z</time>
      </trkpt>
      <trkpt lat="44.17474" lon="3.21191">
        <ele>722</ele>
        <time>2017-02-27T15:48:05Z</time>
      </trkpt>
      <trkpt lat="44.17468" lon="3.21196">
        <ele>721</ele>
        <time>2017-02-27T15:50:05Z</time>
      </trkpt>
      <trkpt lat="44.17462" lon="3.21198">
        <ele>721</ele>
        <time>2017-02-27T15:52:05Z</time>
      </trkpt>
      <trkpt lat="44.17455" lon="3.21199">
        <ele>721</ele>
        <time>2017-02-27T15:54:05Z</time>
      </trkpt>
      <trkpt lat="44.17446" lon="3.21199">
        <ele>721</ele>
        <time>2017-02-27T15:56:05Z</time>
      </trkpt>
      <trkpt lat="44.17435" lon="3.21197">
        <ele>720</ele>
        <time>2017-02-27T15:58:05Z</time>
      </trkpt>
      <trkpt lat="44.17426" lon="3.21195">
        <ele>720</ele>
        <time>2017-02-27T16:00:05Z</time>
      </trkpt>
      <trkpt lat="44.17424" lon="3.21194">
        <ele>720</ele>
        <time>2017-02-27T16:02:05Z</time>
      </trkpt>
      <trkpt lat="44.17409" lon="3.21207">
        <ele>720</ele>
        <time>2017-02-27T16:04:05Z</time>
      </trkpt>
      <trkpt lat="44.17389" lon="3.21221">
        <ele>721</ele>
        <time>2017-02-27T16:06:05Z</time>
      </trkpt>
      <trkpt lat="44.17372" lon="3.21232">
        <ele>722</ele>
        <time>2017-02-27T16:08:05Z</time>
      </trkpt>
      <trkpt lat="44.17358" lon="3.21243">
        <ele>723</ele>
        <time>2017-02-27T16:10:05Z</time>
      </trkpt>
      <trkpt lat="44.17354" lon="3.21247">
        <ele>724</ele>
        <time>2017-02-27T16:12:05Z</time>
      </trkpt>
      <trkpt lat="44.17354" lon="3.21247">
        <ele>724</ele>
        <time>2017-02-27T16:14:05Z</time>
      </trkpt>
      <trkpt lat="44.17356" lon="3.21257">
        <ele>723</ele>
        <time>2017-02-27T16:16:05Z</time>
      </trkpt>
      <trkpt lat="44.17359" lon="3.2127">
        <ele>722</ele>
        <time>2017-02-27T16:18:05Z</time>
      </trkpt>
      <trkpt lat="44.17362" lon="3.21289">
        <ele>721</ele>
        <time>2017-02-27T16:20:05Z</time>
      </trkpt>
      <trkpt lat="44.17364" lon="3.21314">
        <ele>720</ele>
        <time>2017-02-27T16:22:05Z</time>
      </trkpt>
      <trkpt lat="44.17368" lon="3.21348">
        <ele>720</ele>
        <time>2017-02-27T16:24:05Z</time>
      </trkpt>
      <trkpt lat="44.17374" lon="3.21406">
        <ele>722</ele>
        <time>2017-02-27T16:26:05Z</time>
      </trkpt>
      <trkpt lat="44.17378" lon="3.21432">
        <ele>724</ele>
        <time>2017-02-27T16:28:05Z</time>
      </trkpt>
      <trkpt lat="44.17378" lon="3.21438">
        <ele>724</ele>
        <time>2017-02-27T16:30:05Z</time>
      </trkpt>
      <trkpt lat="44.17377" lon="3.21443">
        <ele>725</ele>
        <time>2017-02-27T16:32:05Z</time>
      </trkpt>
      <trkpt lat="44.17375" lon="3.21454">
        <ele>726</ele>
        <time>2017-02-27T16:34:05Z</time>
      </trkpt>
      <trkpt lat="44.17371" lon="3.21466">
        <ele>727</ele>
        <time>2017-02-27T16:36:05Z</time>
      </trkpt>
      <trkpt lat="44.17367" lon="3.21478">
        <ele>728</ele>
        <time>2017-02-27T16:38:05Z</time>
      </trkpt>
      <trkpt lat="44.17365" lon="3.21487">
        <ele>728</ele>
        <time>2017-02-27T16:40:05Z</time>
      </trkpt>
      <trkpt lat="44.17358" lon="3.21499">
        <ele>729</ele>
        <time>2017-02-27T16:42:05Z</time>
      </trkpt>
      <trkpt lat="44.17351" lon="3.21516">
        <ele>731</ele>
        <time>2017-02-27T16:44:05Z</time>
      </trkpt>
      <trkpt lat="44.17344" lon="3.2153">
        <ele>733</ele>
        <time>2017-02-27T16:46:05Z</time>
      </trkpt>
      <trkpt lat="44.17338" lon="3.21539">
        <ele>734</ele>
        <time>2017-02-27T16:48:05Z</time>
      </trkpt>
      <trkpt lat="44.17333" lon="3.21546">
        <ele>735</ele>
        <time>2017-02-27T16:50:05Z</time>
      </trkpt>
      <trkpt lat="44.17329" lon="3.21549">
        <ele>736</ele>
        <time>2017-02-27T16:52:05Z</time>
      </trkpt>
      <trkpt lat="44.17318" lon="3.21552">
        <ele>735</ele>
        <time>2017-02-27T16:54:05Z</time>
      </trkpt>
      <trkpt lat="44.1731" lon="3.21556">
        <ele>736</ele>
        <time>2017-02-27T16:56:05Z</time>
      </trkpt>
      <trkpt lat="44.173" lon="3.2156">
        <ele>735</ele>
        <time>2017-02-27T16:58:05Z</time>
      </trkpt>
      <trkpt lat="44.17292" lon="3.21568">
        <ele>736</ele>
        <time>2017-02-27T17:00:05Z</time>
      </trkpt>
      <trkpt lat="44.17284" lon="3.21578">
        <ele>737</ele>
        <time>2017-02-27T17:02:05Z</time>
      </trkpt>
      <trkpt lat="44.17273" lon="3.21587">
        <ele>737</ele>
        <time>2017-02-27T17:04:05Z</time>
      </trkpt>
      <trkpt lat="44.1726" lon="3.21597">
        <ele>738</ele>
        <time>2017-02-27T17:06:05Z</time>
      </trkpt>
      <trkpt lat="44.17255" lon="3.21602">
        <ele>739</ele>
        <time>2017-02-27T17:08:05Z</time>
      </trkpt>
      <trkpt lat="44.17252" lon="3.21609">
        <ele>741</ele>
        <time>2017-02-27T17:10:05Z</time>
      </trkpt>
      <trkpt lat="44.1724" lon="3.21617">
        <ele>743</ele>
        <time>2017-02-27T17:12:05Z</time>
      </trkpt>
      <trkpt lat="44.17226" lon="3.21627">
        <ele>745</ele>
        <time>2017-02-27T17:14:05Z</time>
      </trkpt>
      <trkpt lat="44.17212" lon="3.21635">
        <ele>746</ele>
        <time>2017-02-27T17:16:05Z</time>
      </trkpt>
      <trkpt lat="44.172" lon="3.2164">
        <ele>746</ele>
        <time>2017-02-27T17:18:05Z</time>
      </trkpt>
      <trkpt lat="44.1719" lon="3.21644">
        <ele>747</ele>
        <time>2017-02-27T17:20:05Z</time>
      </trkpt>
      <trkpt lat="44.17182" lon="3.21651">
        <ele>748</ele>
        <time>2017-02-27T17:22:05Z</time>
      </trkpt>
      <trkpt lat="44.17175" lon="3.21659">
        <ele>748</ele>
        <time>2017-02-27T17:24:05Z</time>
      </trkpt>
      <trkpt lat="44.17173" lon="3.21663">
        <ele>749</ele>
        <time>2017-02-27T17:26:05Z</time>
      </trkpt>
      <trkpt lat="44.17171" lon="3.2167">
        <ele>750</ele>
        <time>2017-02-27T17:28:05Z</time>
      </trkpt>
      <trkpt lat="44.1717" lon="3.21678">
        <ele>752</ele>
        <time>2017-02-27T17:30:05Z</time>
      </trkpt>
      <trkpt lat="44.17168" lon="3.21687">
        <ele>754</ele>
        <time>2017-02-27T17:32:05Z</time>
      </trkpt>
      <trkpt lat="44.17164" lon="3.21691">
        <ele>755</ele>
        <time>2017-02-27T17:34:05Z</time>
      </trkpt>
      <trkpt lat="44.17158" lon="3.21694">
        <ele>756</ele>
        <time>2017-02-27T17:36:05Z</time>
      </trkpt>
      <trkpt lat="44.1715" lon="3.21695">
        <ele>756</ele>
        <time>2017-02-27T17:38:05Z</time>
      </trkpt>
      <trkpt lat="44.17135" lon="3.21692">
        <ele>755</ele>
        <time>2017-02-27T17:40:05Z</time>
      </trkpt>
      <trkpt lat="44.17121" lon="3.21688">
        <ele>755</ele>
        <time>2017-02-27T17:42:05Z</time>
      </trkpt>
      <trkpt lat="44.17114" lon="3.21685">
        <ele>754</ele>
        <time>2017-02-27T17:44:05Z</time>
      </trkpt>
      <trkpt lat="44.17103" lon="3.21685">
        <ele>754</ele>
        <time>2017-02-27T17:46:05Z</time>
      </trkpt>
      <trkpt lat="44.17098" lon="3.21687">
        <ele>755</ele>
        <time>2017-02-27T17:48:05Z</time>
      </trkpt>
      <trkpt lat="44.17092" lon="3.21688">
        <ele>755</ele>
        <time>2017-02-27T17:50:05Z</time>
      </trkpt>
      <trkpt lat="44.1709" lon="3.2169">
        <ele>756</ele>
        <time>2017-02-27T17:52:05Z</time>
      </trkpt>
      <trkpt lat="44.17086" lon="3.21694">
        <ele>757</ele>
        <time>2017-02-27T17:54:05Z</time>
      </trkpt>
      <trkpt lat="44.17081" lon="3.21704">
        <ele>759</ele>
        <time>2017-02-27T17:56:05Z</time>
      </trkpt>
      <trkpt lat="44.17075" lon="3.2171">
        <ele>760</ele>
        <time>2017-02-27T17:58:05Z</time>
      </trkpt>
      <trkpt lat="44.17065" lon="3.21716">
        <ele>762</ele>
        <time>2017-02-27T18:00:05Z</time>
      </trkpt>
      <trkpt lat="44.17053" lon="3.21722">
        <ele>763</ele>
        <time>2017-02-27T18:02:05Z</time>
      </trkpt>
      <trkpt lat="44.1704" lon="3.21727">
        <ele>764</ele>
        <time>2017-02-27T18:04:05Z</time>
      </trkpt>
      <trkpt lat="44.17032" lon="3.2173">
        <ele>765</ele>
        <time>2017-02-27T18:06:05Z</time>
      </trkpt>
      <trkpt lat="44.17026" lon="3.21733">
        <ele>766</ele>
        <time>2017-02-27T18:08:05Z</time>
      </trkpt>
      <trkpt lat="44.17022" lon="3.21733">
        <ele>766</ele>
        <time>2017-02-27T18:10:05Z</time>
      </trkpt>
      <trkpt lat="44.17017" lon="3.21733">
        <ele>766</ele>
        <time>2017-02-27T18:12:05Z</time>
      </trkpt>
      <trkpt lat="44.17013" lon="3.21734">
        <ele>766</ele>
        <time>2017-02-27T18:14:05Z</time>
      </trkpt>
      <trkpt lat="44.1701" lon="3.21736">
        <ele>767</ele>
        <time>2017-02-27T18:16:05Z</time>
      </trkpt>
      <trkpt lat="44.17007" lon="3.21735">
        <ele>767</ele>
        <time>2017-02-27T18:18:05Z</time>
      </trkpt>
      <trkpt lat="44.16998" lon="3.21736">
        <ele>767</ele>
        <time>2017-02-27T18:20:05Z</time>
      </trkpt>
      <trkpt lat="44.16989" lon="3.21735">
        <ele>768</ele>
        <time>2017-02-27T18:22:05Z</time>
      </trkpt>
      <trkpt lat="44.16978" lon="3.21737">
        <ele>770</ele>
        <time>2017-02-27T18:24:05Z</time>
      </trkpt>
      <trkpt lat="44.16965" lon="3.21741">
        <ele>772</ele>
        <time>2017-02-27T18:26:05Z</time>
      </trkpt>
      <trkpt lat="44.16955" lon="3.21745">
        <ele>774</ele>
        <time>2017-02-27T18:28:05Z</time>
      </trkpt>
      <trkpt lat="44.16949" lon="3.21746">
        <ele>774</ele>
        <time>2017-02-27T18:30:05Z</time>
      </trkpt>
      <trkpt lat="44.16944" lon="3.21746">
        <ele>775</ele>
        <time>2017-02-27T18:32:05Z</time>
      </trkpt>
      <trkpt lat="44.16933" lon="3.21747">
        <ele>776</ele>
        <time>2017-02-27T18:34:05Z</time>
      </trkpt>
      <trkpt lat="44.16929" lon="3.21747">
        <ele>777</ele>
        <time>2017-02-27T18:36:05Z</time>
      </trkpt>
      <trkpt lat="44.16925" lon="3.21747">
        <ele>777</ele>
        <time>2017-02-27T18:38:05Z</time>
      </trkpt>
      <trkpt lat="44.1692" lon="3.21749">
        <ele>778</ele>
        <time>2017-02-27T18:40:05Z</time>
      </trkpt>
      <trkpt lat="44.16907" lon="3.21753">
        <ele>779</ele>
        <time>2017-02-27T18:42:05Z</time>
      </trkpt>
      <trkpt lat="44.16903" lon="3.21752">
        <ele>779</ele>
        <time>2017-02-27T18:44:05Z</time>
      </trkpt>
      <trkpt lat="44.16895" lon="3.21749">
        <ele>779</ele>
        <time>2017-02-27T18:46:05Z</time>
      </trkpt>
      <trkpt lat="44.16888" lon="3.21748">
        <ele>780</ele>
        <time>2017-02-27T18:48:05Z</time>
      </trkpt>
      <trkpt lat="44.16885" lon="3.21748">
        <ele>780</ele>
        <time>2017-02-27T18:50:05Z</time>
      </trkpt>
      <trkpt lat="44.16876" lon="3.21752">
        <ele>781</ele>
        <time>2017-02-27T18:52:05Z</time>
      </trkpt>
      <trkpt lat="44.16867" lon="3.21757">
        <ele>782</ele>
        <time>2017-02-27T18:54:05Z</time>
      </trkpt>
      <trkpt lat="44.16856" lon="3.21762">
        <ele>783</ele>
        <time>2017-02-27T18:56:05Z</time>
      </trkpt>
      <trkpt lat="44.16848" lon="3.21768">
        <ele>784</ele>
        <time>2017-02-27T18:58:05Z</time>
      </trkpt>
      <trkpt lat="44.16839" lon="3.21773">
        <ele>785</ele>
        <time>2017-02-27T19:00:05Z</time>
      </trkpt>
      <trkpt lat="44.16832" lon="3.21776">
        <ele>785</ele>
        <time>2017-02-27T19:02:05Z</time>
      </trkpt>
      <trkpt lat="44.16826" lon="3.21776">
        <ele>785</ele>
        <time>2017-02-27T19:04:05Z</time>
      </trkpt>
      <trkpt lat="44.1682" lon="3.21779">
        <ele>785</ele>
        <time>2017-02-27T19:06:05Z</time>
      </trkpt>
      <trkpt lat="44.16815" lon="3.21781">
        <ele>785</ele>
        <time>2017-02-27T19:08:05Z</time>
      </trkpt>
      <trkpt lat="44.16811" lon="3.21782">
        <ele>785</ele>
        <time>2017-02-27T19:10:05Z</time>
      </trkpt>
      <trkpt lat="44.16808" lon="3.21781">
        <ele>785</ele>
        <time>2017-02-27T19:12:05Z</time>
      </trkpt>
      <trkpt lat="44.16805" lon="3.21779">
        <ele>785</ele>
        <time>2017-02-27T19:14:05Z</time>
      </trkpt>
      <trkpt lat="44.16803" lon="3.21776">
        <ele>784</ele>
        <time>2017-02-27T19:16:05Z</time>
      </trkpt>
      <trkpt lat="44.16801" lon="3.21775">
        <ele>784</ele>
        <time>2017-02-27T19:18:05Z</time>
      </trkpt>
      <trkpt lat="44.16797" lon="3.21777">
        <ele>784</ele>
        <time>2017-02-27T19:20:05Z</time>
      </trkpt>
      <trkpt lat="44.16791" lon="3.2178">
        <ele>784</ele>
        <time>2017-02-27T19:22:05Z</time>
      </trkpt>
      <trkpt lat="44.16771" lon="3.21793">
        <ele>784</ele>
        <time>2017-02-27T19:24:05Z</time>
      </trkpt>
      <trkpt lat="44.16762" lon="3.21798">
        <ele>784</ele>
        <time>2017-02-27T19:26:05Z</time>
      </trkpt>
      <trkpt lat="44.16754" lon="3.21806">
        <ele>784</ele>
        <time>2017-02-27T19:28:05Z</time>
      </trkpt>
      <trkpt lat="44.16747" lon="3.21811">
        <ele>784</ele>
        <time>2017-02-27T19:30:05Z</time>
      </trkpt>
      <trkpt lat="44.16741" lon="3.21816">
        <ele>783</ele>
        <time>2017-02-27T19:32:05Z</time>
      </trkpt>
      <trkpt lat="44.16737" lon="3.2182">
        <ele>783</ele>
        <time>2017-02-27T19:34:05Z</time>
      </trkpt>
      <trkpt lat="44.16729" lon="3.21827">
        <ele>783</ele>
        <time>2017-02-27T19:36:05Z</time>
      </trkpt>
      <trkpt lat="44.16725" lon="3.21827">
        <ele>783</ele>
        <time>2017-02-27T19:38:05Z</time>
      </trkpt>
      <trkpt lat="44.1672" lon="3.21825">
        <ele>782</ele>
        <time>2017-02-27T19:40:05Z</time>
      </trkpt>
      <trkpt lat="44.16715" lon="3.2182">
        <ele>782</ele>
        <time>2017-02-27T19:42:05Z</time>
      </trkpt>
      <trkpt lat="44.16712" lon="3.21817">
        <ele>781</ele>
        <time>2017-02-27T19:44:05Z</time>
      </trkpt>
      <trkpt lat="44.16709" lon="3.21818">
        <ele>781</ele>
        <time>2017-02-27T19:46:05Z</time>
      </trkpt>
      <trkpt lat="44.16707" lon="3.21819">
        <ele>781</ele>
        <time>2017-02-27T19:48:05Z</time>
      </trkpt>
      <trkpt lat="44.16704" lon="3.21826">
        <ele>781</ele>
        <time>2017-02-27T19:50:05Z</time>
      </trkpt>
      <trkpt lat="44.16701" lon="3.2183">
        <ele>781</ele>
        <time>2017-02-27T19:52:05Z</time>
      </trkpt>
      <trkpt lat="44.16696" lon="3.21833">
        <ele>780</ele>
        <time>2017-02-27T19:54:05Z</time>
      </trkpt>
      <trkpt lat="44.16693" lon="3.21835">
        <ele>780</ele>
        <time>2017-02-27T19:56:05Z</time>
      </trkpt>
      <trkpt lat="44.16691" lon="3.21838">
        <ele>780</ele>
        <time>2017-02-27T19:58:05Z</time>
      </trkpt>
      <trkpt lat="44.16689" lon="3.21844">
        <ele>780</ele>
        <time>2017-02-27T20:00:05Z</time>
      </trkpt>
      <trkpt lat="44.16686" lon="3.21849">
        <ele>780</ele>
        <time>2017-02-27T20:02:05Z</time>
      </trkpt>
      <trkpt lat="44.16684" lon="3.21856">
        <ele>780</ele>
        <time>2017-02-27T20:04:05Z</time>
      </trkpt>
      <trkpt lat="44.1668" lon="3.21864">
        <ele>780</ele>
        <time>2017-02-27T20:06:05Z</time>
      </trkpt>
      <trkpt lat="44.16677" lon="3.21868">
        <ele>780</ele>
        <time>2017-02-27T20:08:05Z</time>
      </trkpt>
      <trkpt lat="44.16676" lon="3.21873">
        <ele>780</ele>
        <time>2017-02-27T20:10:05Z</time>
      </trkpt>
      <trkpt lat="44.16677" lon="3.21877">
        <ele>780</ele>
        <time>2017-02-27T20:12:05Z</time>
      </trkpt>
      <trkpt lat="44.16677" lon="3.21884">
        <ele>780</ele>
        <time>2017-02-27T20:14:05Z</time>
      </trkpt>
      <trkpt lat="44.16676" lon="3.2189">
        <ele>780</ele>
        <time>2017-02-27T20:16:05Z</time>
      </trkpt>
      <trkpt lat="44.16675" lon="3.21897">
        <ele>780</ele>
        <time>2017-02-27T20:18:05Z</time>
      </trkpt>
      <trkpt lat="44.16674" lon="3.21904">
        <ele>780</ele>
        <time>2017-02-27T20:20:05Z</time>
      </trkpt>
      <trkpt lat="44.16675" lon="3.21913">
        <ele>781</ele>
        <time>2017-02-27T20:22:05Z</time>
      </trkpt>
      <trkpt lat="44.16675" lon="3.21913">
        <ele>781</ele>
        <time>2017-02-27T20:24:05Z</time>
      </trkpt>
      <trkpt lat="44.16663" lon="3.21919">
        <ele>780</ele>
        <time>2017-02-27T20:26:05Z</time>
      </trkpt>
      <trkpt lat="44.16655" lon="3.21922">
        <ele>780</ele>
        <time>2017-02-27T20:28:05Z</time>
      </trkpt>
      <trkpt lat="44.16647" lon="3.21924">
        <ele>781</ele>
        <time>2017-02-27T20:30:05Z</time>
      </trkpt>
      <trkpt lat="44.1664" lon="3.21926">
        <ele>781</ele>
        <time>2017-02-27T20:32:05Z</time>
      </trkpt>
      <trkpt lat="44.16632" lon="3.21931">
        <ele>781</ele>
        <time>2017-02-27T20:34:05Z</time>
      </trkpt>
      <trkpt lat="44.16623" lon="3.21939">
        <ele>782</ele>
        <time>2017-02-27T20:36:05Z</time>
      </trkpt>
      <trkpt lat="44.16615" lon="3.21943">
        <ele>782</ele>
        <time>2017-02-27T20:38:05Z</time>
      </trkpt>
      <trkpt lat="44.16607" lon="3.21944">
        <ele>782</ele>
        <time>2017-02-27T20:40:05Z</time>
      </trkpt>
      <trkpt lat="44.16599" lon="3.21945">
        <ele>782</ele>
        <time>2017-02-27T20:42:05Z</time>
      </trkpt>
      <trkpt lat="44.16591" lon="3.21948">
        <ele>783</ele>
        <time>2017-02-27T20:44:05Z</time>
      </trkpt>
      <trkpt lat="44.16585" lon="3.21952">
        <ele>783</ele>
        <time>2017-02-27T20:46:05Z</time>
      </trkpt>
      <trkpt lat="44.16575" lon="3.21958">
        <ele>783</ele>
        <time>2017-02-27T20:48:05Z</time>
      </trkpt>
      <trkpt lat="44.16568" lon="3.21958">
        <ele>784</ele>
        <time>2017-02-27T20:50:05Z</time>
      </trkpt>
      <trkpt lat="44.16565" lon="3.21958">
        <ele>784</ele>
        <time>2017-02-27T20:52:05Z</time>
      </trkpt>
      <trkpt lat="44.16559" lon="3.21954">
        <ele>784</ele>
        <time>2017-02-27T20:54:05Z</time>
      </trkpt>
      <trkpt lat="44.16551" lon="3.21952">
        <ele>784</ele>
        <time>2017-02-27T20:56:05Z</time>
      </trkpt>
      <trkpt lat="44.16546" lon="3.21953">
        <ele>784</ele>
        <time>2017-02-27T20:58:05Z</time>
      </trkpt>
      <trkpt lat="44.1654" lon="3.21955">
        <ele>785</ele>
        <time>2017-02-27T21:00:05Z</time>
      </trkpt>
      <trkpt lat="44.16535" lon="3.21959">
        <ele>785</ele>
        <time>2017-02-27T21:02:05Z</time>
      </trkpt>
      <trkpt lat="44.16525" lon="3.21966">
        <ele>786</ele>
        <time>2017-02-27T21:04:05Z</time>
      </trkpt>
      <trkpt lat="44.16515" lon="3.21971">
        <ele>787</ele>
        <time>2017-02-27T21:06:05Z</time>
      </trkpt>
      <trkpt lat="44.16506" lon="3.21977">
        <ele>788</ele>
        <time>2017-02-27T21:08:05Z</time>
      </trkpt>
      <trkpt lat="44.16502" lon="3.21978">
        <ele>788</ele>
        <time>2017-02-27T21:10:05Z</time>
      </trkpt>
      <trkpt lat="44.16497" lon="3.21978">
        <ele>788</ele>
        <time>2017-02-27T21:12:05Z</time>
      </trkpt>
      <trkpt lat="44.16492" lon="3.21977">
        <ele>788</ele>
        <time>2017-02-27T21:14:05Z</time>
      </trkpt>
      <trkpt lat="44.16482" lon="3.21976">
        <ele>788</ele>
        <time>2017-02-27T21:16:05Z</time>
      </trkpt>
      <trkpt lat="44.16464" lon="3.21976">
        <ele>789</ele>
        <time>2017-02-27T21:18:05Z</time>
      </trkpt>
      <trkpt lat="44.16452" lon="3.21977">
        <ele>789</ele>
        <time>2017-02-27T21:20:05Z</time>
      </trkpt>
      <trkpt lat="44.16448" lon="3.21979">
        <ele>789</ele>
        <time>2017-02-27T21:22:05Z</time>
      </trkpt>
      <trkpt lat="44.16444" lon="3.21982">
        <ele>789</ele>
        <time>2017-02-27T21:24:05Z</time>
      </trkpt>
      <trkpt lat="44.16436" lon="3.21987">
        <ele>790</ele>
        <time>2017-02-27T21:26:05Z</time>
      </trkpt>
      <trkpt lat="44.16428" lon="3.21992">
        <ele>790</ele>
        <time>2017-02-27T21:28:05Z</time>
      </trkpt>
      <trkpt lat="44.16418" lon="3.21995">
        <ele>791</ele>
        <time>2017-02-27T21:30:05Z</time>
      </trkpt>
      <trkpt lat="44.16411" lon="3.21996">
        <ele>791</ele>
        <time>2017-02-27T21:32:05Z</time>
      </trkpt>
      <trkpt lat="44.16406" lon="3.21995">
        <ele>791</ele>
        <time>2017-02-27T21:34:05Z</time>
      </trkpt>
      <trkpt lat="44.16402" lon="3.21993">
        <ele>792</ele>
        <time>2017-02-27T21:36:05Z</time>
      </trkpt>
      <trkpt lat="44.16396" lon="3.21986">
        <ele>792</ele>
        <time>2017-02-27T21:38:05Z</time>
      </trkpt>
      <trkpt lat="44.16387" lon="3.21969">
        <ele>791</ele>
        <time>2017-02-27T21:40:05Z</time>
      </trkpt>
      <trkpt lat="44.16383" lon="3.21963">
        <ele>791</ele>
        <time>2017-02-27T21:42:05Z</time>
      </trkpt>
      <trkpt lat="44.1638" lon="3.21959">
        <ele>791</ele>
        <time>2017-02-27T21:44:05Z</time>
      </trkpt>
      <trkpt lat="44.16377" lon="3.21957">
        <ele>792</ele>
        <time>2017-02-27T21:46:05Z</time>
      </trkpt>
      <trkpt lat="44.16371" lon="3.21957">
        <ele>792</ele>
        <time>2017-02-27T21:48:05Z</time>
      </trkpt>
      <trkpt lat="44.16365" lon="3.21961">
        <ele>793</ele>
        <time>2017-02-27T21:50:05Z</time>
      </trkpt>
      <trkpt lat="44.16359" lon="3.21969">
        <ele>793</ele>
        <time>2017-02-27T21:52:05Z</time>
      </trkpt>
      <trkpt lat="44.16348" lon="3.21983">
        <ele>795</ele>
        <time>2017-02-27T21:54:05Z</time>
      </trkpt>
      <trkpt lat="44.16342" lon="3.21992">
        <ele>795</ele>
        <time>2017-02-27T21:56:05Z</time>
      </trkpt>
      <trkpt lat="44.16338" lon="3.21996">
        <ele>796</ele>
        <time>2017-02-27T21:58:05Z</time>
      </trkpt>
      <trkpt lat="44.16334" lon="3.21996">
        <ele>796</ele>
        <time>2017-02-27T22:00:05Z</time>
      </trkpt>
      <trkpt lat="44.1633" lon="3.21994">
        <ele>796</ele>
        <time>2017-02-27T22:02:05Z</time>
      </trkpt>
      <trkpt lat="44.16328" lon="3.21992">
        <ele>796</ele>
        <time>2017-02-27T22:04:05Z</time>
      </trkpt>
      <trkpt lat="44.16324" lon="3.21991">
        <ele>796</ele>
        <time>2017-02-27T22:06:05Z</time>
      </trkpt>
      <trkpt lat="44.16319" lon="3.21991">
        <ele>796</ele>
        <time>2017-02-27T22:08:05Z</time>
      </trkpt>
      <trkpt lat="44.16321" lon="3.2199">
        <ele>796</ele>
        <time>2017-02-27T22:10:05Z</time>
      </trkpt>
      <trkpt lat="44.16195" lon="3.21556">
        <ele>777</ele>
        <time>2017-02-27T22:12:05Z</time>
      </trkpt>
      <trkpt lat="44.15998" lon="3.21689">
        <ele>777</ele>
        <time>2017-02-27T22:14:05Z</time>
      </trkpt>
      <trkpt lat="44.15841" lon="3.2129">
        <ele>739</ele>
        <time>2017-02-27T22:16:05Z</time>
      </trkpt>
      <trkpt lat="44.15835" lon="3.21277">
        <ele>738</ele>
        <time>2017-02-27T22:18:05Z</time>
      </trkpt>
      <trkpt lat="44.15832" lon="3.2128">
        <ele>738</ele>
        <time>2017-02-27T22:20:05Z</time>
      </trkpt>
      <trkpt lat="44.15824" lon="3.21291">
        <ele>738</ele>
        <time>2017-02-27T22:22:05Z</time>
      </trkpt>
      <trkpt lat="44.15821" lon="3.213">
        <ele>738</ele>
        <time>2017-02-27T22:24:05Z</time>
      </trkpt>
      <trkpt lat="44.15817" lon="3.21314">
        <ele>738</ele>
        <time>2017-02-27T22:26:05Z</time>
      </trkpt>
      <trkpt lat="44.15812" lon="3.21341">
        <ele>738</ele>
        <time>2017-02-27T22:28:05Z</time>
      </trkpt>
      <trkpt lat="44.15807" lon="3.21373">
        <ele>739</ele>
        <time>2017-02-27T22:30:05Z</time>
      </trkpt>
      <trkpt lat="44.15802" lon="3.21411">
        <ele>740</ele>
        <time>2017-02-27T22:32:05Z</time>
      </trkpt>
      <trkpt lat="44.15796" lon="3.21438">
        <ele>740</ele>
        <time>2017-02-27T22:34:05Z</time>
      </trkpt>
      <trkpt lat="44.15792" lon="3.21454">
        <ele>740</ele>
        <time>2017-02-27T22:36:05Z</time>
      </trkpt>
      <trkpt lat="44.15788" lon="3.21463">
        <ele>739</ele>
        <time>2017-02-27T22:38:05Z</time>
      </trkpt>
      <trkpt lat="44.15782" lon="3.21472">
        <ele>739</ele>
        <time>2017-02-27T22:40:05Z</time>
      </trkpt>
      <trkpt lat="44.15773" lon="3.2148">
        <ele>738</ele>
        <time>2017-02-27T22:42:05Z</time>
      </trkpt>
      <trkpt lat="44.15762" lon="3.21494">
        <ele>736</ele>
        <time>2017-02-27T22:44:05Z</time>
      </trkpt>
      <trkpt lat="44.1575" lon="3.21512">
        <ele>734</ele>
        <time>2017-02-27T22:46:05Z</time>
      </trkpt>
      <trkpt lat="44.15742" lon="3.21529">
        <ele>735</ele>
        <time>2017-02-27T22:48:05Z</time>
      </trkpt>
      <trkpt lat="44.15734" lon="3.21549">
        <ele>735</ele>
        <time>2017-02-27T22:50:05Z</time>
      </trkpt>
      <trkpt lat="44.15726" lon="3.21578">
        <ele>734</ele>
        <time>2017-02-27T22:52:05Z</time>
      </trkpt>
      <trkpt lat="44.1572" lon="3.216">
        <ele>733</ele>
        <time>2017-02-27T22:54:05Z</time>
      </trkpt>
      <trkpt lat="44.15717" lon="3.2162">
        <ele>731</ele>
        <time>2017-02-27T22:56:05Z</time>
      </trkpt>
      <trkpt lat="44.15718" lon="3.21639">
        <ele>729</ele>
        <time>2017-02-27T22:58:05Z</time>
      </trkpt>
      <trkpt lat="44.15719" lon="3.21657">
        <ele>728</ele>
        <time>2017-02-27T23:00:05Z</time>
      </trkpt>
      <trkpt lat="44.15724" lon="3.21682">
        <ele>724</ele>
        <time>2017-02-27T23:02:05Z</time>
      </trkpt>
      <trkpt lat="44.15727" lon="3.217">
        <ele>722</ele>
        <time>2017-02-27T23:04:05Z</time>
      </trkpt>
      <trkpt lat="44.15729" lon="3.21713">
        <ele>721</ele>
        <time>2017-02-27T23:06:05Z</time>
      </trkpt>
      <trkpt lat="44.15729" lon="3.21721">
        <ele>720</ele>
        <time>2017-02-27T23:08:05Z</time>
      </trkpt>
      <trkpt lat="44.15727" lon="3.21728">
        <ele>719</ele>
        <time>2017-02-27T23:10:05Z</time>
      </trkpt>
      <trkpt lat="44.15723" lon="3.21732">
        <ele>718</ele>
        <time>2017-02-27T23:12:05Z</time>
      </trkpt>
      <trkpt lat="44.15717" lon="3.21736">
        <ele>717</ele>
        <time>2017-02-27T23:14:05Z</time>
      </trkpt>
      <trkpt lat="44.15707" lon="3.21738">
        <ele>717</ele>
        <time>2017-02-27T23:16:05Z</time>
      </trkpt>
      <trkpt lat="44.15695" lon="3.21739">
        <ele>716</ele>
        <time>2017-02-27T23:18:05Z</time>
      </trkpt>
      <trkpt lat="44.15681" lon="3.21741">
        <ele>715</ele>
        <time>2017-02-27T23:20:05Z</time>
      </trkpt>
      <trkpt lat="44.15672" lon="3.21744">
        <ele>714</ele>
        <time>2017-02-27T23:22:05Z</time>
      </trkpt>
      <trkpt lat="44.15657" lon="3.21752">
        <ele>712</ele>
        <time>2017-02-27T23:24:05Z</time>
      </trkpt>
      <trkpt lat="44.15645" lon="3.2176">
        <ele>712</ele>
        <time>2017-02-27T23:26:05Z</time>
      </trkpt>
      <trkpt lat="44.15633" lon="3.21764">
        <ele>711</ele>
        <time>2017-02-27T23:28:05Z</time>
      </trkpt>
      <trkpt lat="44.15633" lon="3.21764">
        <ele>711</ele>
        <time>2017-02-27T23:30:05Z</time>
      </trkpt>
      <trkpt lat="44.15637" lon="3.21767">
        <ele>711</ele>
        <time>2017-02-27T23:32:05Z</time>
      </trkpt>
      <trkpt lat="44.15642" lon="3.21768">
        <ele>711</ele>
        <time>2017-02-27T23:34:05Z</time>
      </trkpt>
      <trkpt lat="44.1565" lon="3.21767">
        <ele>711</ele>
        <time>2017-02-27T23:36:05Z</time>
      </trkpt>
      <trkpt lat="44.15663" lon="3.21765">
        <ele>711</ele>
        <time>2017-02-27T23:38:05Z</time>
      </trkpt>
      <trkpt lat="44.15676" lon="3.21763">
        <ele>712</ele>
        <time>2017-02-27T23:40:05Z</time>
      </trkpt>
      <trkpt lat="44.15684" lon="3.21761">
        <ele>713</ele>
        <time>2017-02-27T23:42:05Z</time>
      </trkpt>
      <trkpt lat="44.15691" lon="3.21761">
        <ele>714</ele>
        <time>2017-02-27T23:44:05Z</time>
      </trkpt>
      <trkpt lat="44.15696" lon="3.21762">
        <ele>714</ele>
        <time>2017-02-27T23:46:05Z</time>
      </trkpt>
      <trkpt lat="44.15701" lon="3.21765">
        <ele>714</ele>
        <time>2017-02-27T23:48:05Z</time>
      </trkpt>
      <trkpt lat="44.15707" lon="3.21769">
        <ele>715</ele>
        <time>2017-02-27T23:50:05Z</time>
      </trkpt>
      <trkpt lat="44.1571" lon="3.21776">
        <ele>715</ele>
        <time>2017-02-27T23:52:05Z</time>
      </trkpt>
      <trkpt lat="44.1571" lon="3.2178">
        <ele>715</ele>
        <time>2017-02-27T23:54:05Z</time>
      </trkpt>
      <trkpt lat="44.1571" lon="3.21784">
        <ele>715</ele>
        <time>2017-02-27T23:56:05Z</time>
      </trkpt>
      <trkpt lat="44.15707" lon="3.21791">
        <ele>714</ele>
        <time>2017-02-27T23:58:05Z</time>
      </trkpt>
      <trkpt lat="44.15701" lon="3.21799">
        <ele>714</ele>
        <time>2017-02-28T00:00:05Z</time>
      </trkpt>
      <trkpt lat="44.15692" lon="3.21812">
        <ele>712</ele>
        <time>2017-02-28T00:02:05Z</time>
      </trkpt>
      <trkpt lat="44.1569" lon="3.21817">
        <ele>712</ele>
        <time>2017-02-28T00:04:05Z</time>
      </trkpt>
      <trkpt lat="44.15689" lon="3.21823">
        <ele>712</ele>
        <time>2017-02-28T00:06:05Z</time>
      </trkpt>
      <trkpt lat="44.1569" lon="3.21833">
        <ele>712</ele>
        <time>2017-02-28T00:08:05Z</time>
      </trkpt>
      <trkpt lat="44.15695" lon="3.21846">
        <ele>714</ele>
        <time>2017-02-28T00:10:05Z</time>
      </trkpt>
      <trkpt lat="44.15703" lon="3.21864">
        <ele>717</ele>
        <time>2017-02-28T00:12:05Z</time>
      </trkpt>
      <trkpt lat="44.15713" lon="3.21883">
        <ele>720</ele>
        <time>2017-02-28T00:14:05Z</time>
      </trkpt>
      <trkpt lat="44.15719" lon="3.2189">
        <ele>721</ele>
        <time>2017-02-28T00:16:05Z</time>
      </trkpt>
      <trkpt lat="44.15733" lon="3.21905">
        <ele>721</ele>
        <time>2017-02-28T00:18:05Z</time>
      </trkpt>
      <trkpt lat="44.15743" lon="3.21915">
        <ele>721</ele>
        <time>2017-02-28T00:20:05Z</time>
      </trkpt>
      <trkpt lat="44.15752" lon="3.21924">
        <ele>721</ele>
        <time>2017-02-28T00:22:05Z</time>
      </trkpt>
      <trkpt lat="44.15756" lon="3.21932">
        <ele>723</ele>
        <time>2017-02-28T00:24:05Z</time>
      </trkpt>
      <trkpt lat="44.15758" lon="3.21939">
        <ele>724</ele>
        <time>2017-02-28T00:26:05Z</time>
      </trkpt>
      <trkpt lat="44.15759" lon="3.21944">
        <ele>725</ele>
        <time>2017-02-28T00:28:05Z</time>
      </trkpt>
      <trkpt lat="44.1576" lon="3.2195">
        <ele>725</ele>
        <time>2017-02-28T00:30:05Z</time>
      </trkpt>
      <trkpt lat="44.15759" lon="3.21955">
        <ele>725</ele>
        <time>2017-02-28T00:32:05Z</time>
      </trkpt>
      <trkpt lat="44.15757" lon="3.21957">
        <ele>725</ele>
        <time>2017-02-28T00:34:05Z</time>
      </trkpt>
      <trkpt lat="44.15757" lon="3.21957">
        <ele>725</ele>
        <time>2017-02-28T00:36:05Z</time>
      </trkpt>
      <trkpt lat="44.15755" lon="3.21956">
        <ele>725</ele>
        <time>2017-02-28T00:38:05Z</time>
      </trkpt>
      <trkpt lat="44.15753" lon="3.21954">
        <ele>724</ele>
        <time>2017-02-28T00:40:05Z</time>
      </trkpt>
      <trkpt lat="44.15747" lon="3.21945">
        <ele>723</ele>
        <time>2017-02-28T00:42:05Z</time>
      </trkpt>
      <trkpt lat="44.15743" lon="3.2194">
        <ele>723</ele>
        <time>2017-02-28T00:44:05Z</time>
      </trkpt>
      <trkpt lat="44.15738" lon="3.21935">
        <ele>724</ele>
        <time>2017-02-28T00:46:05Z</time>
      </trkpt>
      <trkpt lat="44.15732" lon="3.21931">
        <ele>724</ele>
        <time>2017-02-28T00:48:05Z</time>
      </trkpt>
      <trkpt lat="44.15722" lon="3.21924">
        <ele>724</ele>
        <time>2017-02-28T00:50:05Z</time>
      </trkpt>
      <trkpt lat="44.15712" lon="3.21917">
        <ele>724</ele>
        <time>2017-02-28T00:52:05Z</time>
      </trkpt>
      <trkpt lat="44.157" lon="3.21909">
        <ele>724</ele>
        <time>2017-02-28T00:54:05Z</time>
      </trkpt>
      <trkpt lat="44.15691" lon="3.21902">
        <ele>723</ele>
        <time>2017-02-28T00:56:05Z</time>
      </trkpt>
      <trkpt lat="44.15683" lon="3.21896">
        <ele>723</ele>
        <time>2017-02-28T00:58:05Z</time>
      </trkpt>
      <trkpt lat="44.15676" lon="3.21887">
        <ele>721</ele>
        <time>2017-02-28T01:00:05Z</time>
      </trkpt>
      <trkpt lat="44.15669" lon="3.21879">
        <ele>719</ele>
        <time>2017-02-28T01:02:05Z</time>
      </trkpt>
      <trkpt lat="44.15666" lon="3.21875">
        <ele>719</ele>
        <time>2017-02-28T01:04:05Z</time>
      </trkpt>
      <trkpt lat="44.15663" lon="3.21873">
        <ele>718</ele>
        <time>2017-02-28T01:06:05Z</time>
      </trkpt>
      <trkpt lat="44.15658" lon="3.21871">
        <ele>718</ele>
        <time>2017-02-28T01:08:05Z</time>
      </trkpt>
      <trkpt lat="44.15652" lon="3.21873">
        <ele>719</ele>
        <time>2017-02-28T01:10:05Z</time>
      </trkpt>
      <trkpt lat="44.15633" lon="3.21879">
        <ele>721</ele>
        <time>2017-02-28T01:12:05Z</time>
      </trkpt>
      <trkpt lat="44.15617" lon="3.21885">
        <ele>723</ele>
        <time>2017-02-28T01:14:05Z</time>
      </trkpt>
      <trkpt lat="44.15608" lon="3.21888">
        <ele>725</ele>
        <time>2017-02-28T01:16:05Z</time>
      </trkpt>
      <trkpt lat="44.15598" lon="3.21889">
        <ele>726</ele>
        <time>2017-02-28T01:18:05Z</time>
      </trkpt>
      <trkpt lat="44.15587" lon="3.21891">
        <ele>727</ele>
        <time>2017-02-28T01:20:05Z</time>
      </trkpt>
      <trkpt lat="44.15579" lon="3.21892">
        <ele>728</ele>
        <time>2017-02-28T01:22:05Z</time>
      </trkpt>
      <trkpt lat="44.15568" lon="3.21895">
        <ele>729</ele>
        <time>2017-02-28T01:24:05Z</time>
      </trkpt>
      <trkpt lat="44.15558" lon="3.21897">
        <ele>730</ele>
        <time>2017-02-28T01:26:05Z</time>
      </trkpt>
      <trkpt lat="44.15549" lon="3.21898">
        <ele>731</ele>
        <time>2017-02-28T01:28:05Z</time>
      </trkpt>
      <trkpt lat="44.15529" lon="3.21898">
        <ele>732</ele>
        <time>2017-02-28T01:30:05Z</time>
      </trkpt>
      <trkpt lat="44.15509" lon="3.21895">
        <ele>732</ele>
        <time>2017-02-28T01:32:05Z</time>
      </trkpt>
      <trkpt lat="44.15488" lon="3.21892">
        <ele>732</ele>
        <time>2017-02-28T01:34:05Z</time>
      </trkpt>
      <trkpt lat="44.15477" lon="3.21891">
        <ele>732</ele>
        <time>2017-02-28T01:36:05Z</time>
      </trkpt>
      <trkpt lat="44.15471" lon="3.21892">
        <ele>732</ele>
        <time>2017-02-28T01:38:05Z</time>
      </trkpt>
      <trkpt lat="44.15465" lon="3.21894">
        <ele>733</ele>
        <time>2017-02-28T01:40:05Z</time>
      </trkpt>
      <trkpt lat="44.15463" lon="3.21894">
        <ele>733</ele>
        <time>2017-02-28T01:42:05Z</time>
      </trkpt>
      <trkpt lat="44.15456" lon="3.21897">
        <ele>734</ele>
        <time>2017-02-28T01:44:05Z</time>
      </trkpt>
      <trkpt lat="44.15445" lon="3.21905">
        <ele>736</ele>
        <time>2017-02-28T01:46:05Z</time>
      </trkpt>
      <trkpt lat="44.15431" lon="3.21913">
        <ele>739</ele>
        <time>2017-02-28T01:48:05Z</time>
      </trkpt>
      <trkpt lat="44.15418" lon="3.21922">
        <ele>741</ele>
        <time>2017-02-28T01:50:05Z</time>
      </trkpt>
      <trkpt lat="44.15406" lon="3.21929">
        <ele>741</ele>
        <time>2017-02-28T01:52:05Z</time>
      </trkpt>
      <trkpt lat="44.15401" lon="3.21932">
        <ele>741</ele>
        <time>2017-02-28T01:54:05Z</time>
      </trkpt>
      <trkpt lat="44.15397" lon="3.21935">
        <ele>740</ele>
        <time>2017-02-28T01:56:05Z</time>
      </trkpt>
      <trkpt lat="44.15392" lon="3.21941">
        <ele>741</ele>
        <time>2017-02-28T01:58:05Z</time>
      </trkpt>
      <trkpt lat="44.15385" lon="3.21955">
        <ele>742</ele>
        <time>2017-02-28T02:00:05Z</time>
      </trkpt>
      <trkpt lat="44.15376" lon="3.21975">
        <ele>744</ele>
        <time>2017-02-28T02:02:05Z</time>
      </trkpt>
      <trkpt lat="44.15371" lon="3.21981">
        <ele>744</ele>
        <time>2017-02-28T02:04:05Z</time>
      </trkpt>
      <trkpt lat="44.15365" lon="3.21986">
        <ele>744</ele>
        <time>2017-02-28T02:06:05Z</time>
      </trkpt>
      <trkpt lat="44.15359" lon="3.21991">
        <ele>744</ele>
        <time>2017-02-28T02:08:05Z</time>
      </trkpt>
      <trkpt lat="44.15354" lon="3.21995">
        <ele>743</ele>
        <time>2017-02-28T02:10:05Z</time>
      </trkpt>
      <trkpt lat="44.15347" lon="3.22002">
        <ele>743</ele>
        <time>2017-02-28T02:12:05Z</time>
      </trkpt>
      <trkpt lat="44.15342" lon="3.22009">
        <ele>743</ele>
        <time>2017-02-28T02:14:05Z</time>
      </trkpt>
      <trkpt lat="44.15336" lon="3.22019">
        <ele>743</ele>
        <time>2017-02-28T02:16:05Z</time>
      </trkpt>
      <trkpt lat="44.1533" lon="3.22034">
        <ele>742</ele>
        <time>2017-02-28T02:18:05Z</time>
      </trkpt>
      <trkpt lat="44.15327" lon="3.22048">
        <ele>743</ele>
        <time>2017-02-28T02:20:05Z</time>
      </trkpt>
      <trkpt lat="44.15324" lon="3.22065">
        <ele>743</ele>
        <time>2017-02-28T02:22:05Z</time>
      </trkpt>
      <trkpt lat="44.15322" lon="3.22077">
        <ele>743</ele>
        <time>2017-02-28T02:24:05Z</time>
      </trkpt>
      <trkpt lat="44.15321" lon="3.22086">
        <ele>744</ele>
        <time>2017-02-28T02:26:05Z</time>
      </trkpt>
      <trkpt lat="44.1532" lon="3.221">
        <ele>745</ele>
        <time>2017-02-28T02:28:05Z</time>
      </trkpt>
      <trkpt lat="44.1532" lon="3.22112">
        <ele>746</ele>
        <time>2017-02-28T02:30:05Z</time>
      </trkpt>
      <trkpt lat="44.15317" lon="3.22123">
        <ele>746</ele>
        <time>2017-02-28T02:32:05Z</time>
      </trkpt>
      <trkpt lat="44.15313" lon="3.22137">
        <ele>746</ele>
        <time>2017-02-28T02:34:05Z</time>
      </trkpt>
      <trkpt lat="44.15309" lon="3.22152">
        <ele>746</ele>
        <time>2017-02-28T02:36:05Z</time>
      </trkpt>
      <trkpt lat="44.15307" lon="3.22169">
        <ele>747</ele>
        <time>2017-02-28T02:38:05Z</time>
      </trkpt>
      <trkpt lat="44.15305" lon="3.22185">
        <ele>746</ele>
        <time>2017-02-28T02:40:05Z</time>
      </trkpt>
      <trkpt lat="44.15305" lon="3.22193">
        <ele>746</ele>
        <time>2017-02-28T02:42:05Z</time>
      </trkpt>
      <trkpt lat="44.15307" lon="3.22202">
        <ele>746</ele>
        <time>2017-02-28T02:44:05Z</time>
      </trkpt>
      <trkpt lat="44.15311" lon="3.22211">
        <ele>747</ele>
        <time>2017-02-28T02:46:05Z</time>
      </trkpt>
      <trkpt lat="44.15315" lon="3.22219">
        <ele>747</ele>
        <time>2017-02-28T02:48:05Z</time>
      </trkpt>
      <trkpt lat="44.15319" lon="3.22223">
        <ele>748</ele>
        <time>2017-02-28T02:50:05Z</time>
      </trkpt>
      <trkpt lat="44.15331" lon="3.2223">
        <ele>751</ele>
        <time>2017-02-28T02:52:05Z</time>
      </trkpt>
      <trkpt lat="44.15355" lon="3.22245">
        <ele>755</ele>
        <time>2017-02-28T02:54:05Z</time>
      </trkpt>
      <trkpt lat="44.15376" lon="3.2226">
        <ele>757</ele>
        <time>2017-02-28T02:56:05Z</time>
      </trkpt>
      <trkpt lat="44.1539" lon="3.2227">
        <ele>759</ele>
        <time>2017-02-28T02:58:05Z</time>
      </trkpt>
      <trkpt lat="44.15394" lon="3.22275">
        <ele>759</ele>
        <time>2017-02-28T03:00:05Z</time>
      </trkpt>
      <trkpt lat="44.15401" lon="3.22286">
        <ele>759</ele>
        <time>2017-02-28T03:02:05Z</time>
      </trkpt>
      <trkpt lat="44.1541" lon="3.22301">
        <ele>758</ele>
        <time>2017-02-28T03:04:05Z</time>
      </trkpt>
      <trkpt lat="44.15417" lon="3.22311">
        <ele>759</ele>
        <time>2017-02-28T03:06:05Z</time>
      </trkpt>
      <trkpt lat="44.15422" lon="3.22317">
        <ele>759</ele>
        <time>2017-02-28T03:08:05Z</time>
      </trkpt>
      <trkpt lat="44.15431" lon="3.22324">
        <ele>760</ele>
        <time>2017-02-28T03:10:05Z</time>
      </trkpt>
      <trkpt lat="44.15446" lon="3.22335">
        <ele>761</ele>
        <time>2017-02-28T03:12:05Z</time>
      </trkpt>
      <trkpt lat="44.15458" lon="3.22344">
        <ele>762</ele>
        <time>2017-02-28T03:14:05Z</time>
      </trkpt>
      <trkpt lat="44.15465" lon="3.22348">
        <ele>763</ele>
        <time>2017-02-28T03:16:05Z</time>
      </trkpt>
      <trkpt lat="44.15477" lon="3.22353">
        <ele>765</ele>
        <time>2017-02-28T03:18:05Z</time>
      </trkpt>
      <trkpt lat="44.15489" lon="3.22358">
        <ele>767</ele>
        <time>2017-02-28T03:20:05Z</time>
      </trkpt>
      <trkpt lat="44.155" lon="3.22364">
        <ele>769</ele>
        <time>2017-02-28T03:22:05Z</time>
      </trkpt>
      <trkpt lat="44.15508" lon="3.22369">
        <ele>770</ele>
        <time>2017-02-28T03:24:05Z</time>
      </trkpt>
      <trkpt lat="44.15512" lon="3.22374">
        <ele>771</ele>
        <time>2017-02-28T03:26:05Z</time>
      </trkpt>
      <trkpt lat="44.15522" lon="3.22387">
        <ele>771</ele>
        <time>2017-02-28T03:28:05Z</time>
      </trkpt>
      <trkpt lat="44.15536" lon="3.22408">
        <ele>773</ele>
        <time>2017-02-28T03:30:05Z</time>
      </trkpt>
      <trkpt lat="44.15549" lon="3.22426">
        <ele>775</ele>
        <time>2017-02-28T03:32:05Z</time>
      </trkpt>
      <trkpt lat="44.15565" lon="3.22445">
        <ele>777</ele>
        <time>2017-02-28T03:34:05Z</time>
      </trkpt>
      <trkpt lat="44.15573" lon="3.22457">
        <ele>779</ele>
        <time>2017-02-28T03:36:05Z</time>
      </trkpt>
      <trkpt lat="44.15576" lon="3.22463">
        <ele>779</ele>
        <time>2017-02-28T03:38:05Z</time>
      </trkpt>
      <trkpt lat="44.1558" lon="3.22475">
        <ele>779</ele>
        <time>2017-02-28T03:40:05Z</time>
      </trkpt>
      <trkpt lat="44.15586" lon="3.22489">
        <ele>780</ele>
        <time>2017-02-28T03:42:05Z</time>
      </trkpt>
      <trkpt lat="44.15594" lon="3.22503">
        <ele>780</ele>
        <time>2017-02-28T03:44:05Z</time>
      </trkpt>
      <trkpt lat="44.15601" lon="3.22517">
        <ele>780</ele>
        <time>2017-02-28T03:46:05Z</time>
      </trkpt>
      <trkpt lat="44.15612" lon="3.22534">
        <ele>780</ele>
        <time>2017-02-28T03:48:05Z</time>
      </trkpt>
      <trkpt lat="44.15622" lon="3.22548">
        <ele>781</ele>
        <time>2017-02-28T03:50:05Z</time>
      </trkpt>
      <trkpt lat="44.15631" lon="3.22563">
        <ele>781</ele>
        <time>2017-02-28T03:52:05Z</time>
      </trkpt>
      <trkpt lat="44.15636" lon="3.22571">
        <ele>781</ele>
        <time>2017-02-28T03:54:05Z</time>
      </trkpt>
      <trkpt lat="44.15641" lon="3.22576">
        <ele>782</ele>
        <time>2017-02-28T03:56:05Z</time>
      </trkpt>
      <trkpt lat="44.15647" lon="3.2258">
        <ele>784</ele>
        <time>2017-02-28T03:58:05Z</time>
      </trkpt>
      <trkpt lat="44.15653" lon="3.22601">
        <ele>783</ele>
        <time>2017-02-28T04:00:05Z</time>
      </trkpt>
      <trkpt lat="44.15661" lon="3.22625">
        <ele>783</ele>
        <time>2017-02-28T04:02:05Z</time>
      </trkpt>
      <trkpt lat="44.15667" lon="3.22649">
        <ele>783</ele>
        <time>2017-02-28T04:04:05Z</time>
      </trkpt>
      <trkpt lat="44.15669" lon="3.22661">
        <ele>782</ele>
        <time>2017-02-28T04:06:05Z</time>
      </trkpt>
      <trkpt lat="44.15669" lon="3.22672">
        <ele>781</ele>
        <time>2017-02-28T04:08:05Z</time>
      </trkpt>
      <trkpt lat="44.15666" lon="3.22682">
        <ele>781</ele>
        <time>2017-02-28T04:10:05Z</time>
      </trkpt>
      <trkpt lat="44.15664" lon="3.22687">
        <ele>780</ele>
        <time>2017-02-28T04:12:05Z</time>
      </trkpt>
      <trkpt lat="44.15659" lon="3.22694">
        <ele>779</ele>
        <time>2017-02-28T04:14:05Z</time>
      </trkpt>
      <trkpt lat="44.15648" lon="3.22709">
        <ele>776</ele>
        <time>2017-02-28T04:16:05Z</time>
      </trkpt>
      <trkpt lat="44.15641" lon="3.2272">
        <ele>775</ele>
        <time>2017-02-28T04:18:05Z</time>
      </trkpt>
      <trkpt lat="44.15637" lon="3.22727">
        <ele>774</ele>
        <time>2017-02-28T04:20:05Z</time>
      </trkpt>
      <trkpt lat="44.15635" lon="3.22732">
        <ele>774</ele>
        <time>2017-02-28T04:22:05Z</time>
      </trkpt>
      <trkpt lat="44.15633" lon="3.22743">
        <ele>773</ele>
        <time>2017-02-28T04:24:05Z</time>
      </trkpt>
      <trkpt lat="44.15628" lon="3.22764">
        <ele>772</ele>
        <time>2017-02-28T04:26:05Z</time>
      </trkpt>
      <trkpt lat="44.15621" lon="3.22788">
        <ele>771</ele>
        <time>2017-02-28T04:28:05Z</time>
      </trkpt>
      <trkpt lat="44.15616" lon="3.22804">
        <ele>770</ele>
        <time>2017-02-28T04:30:05Z</time>
      </trkpt>
      <trkpt lat="44.15612" lon="3.22816">
        <ele>770</ele>
        <time>2017-02-28T04:32:05Z</time>
      </trkpt>
      <trkpt lat="44.15603" lon="3.22835">
        <ele>768</ele>
        <time>2017-02-28T04:34:05Z</time>
      </trkpt>
      <trkpt lat="44.15595" lon="3.22854">
        <ele>766</ele>
        <time>2017-02-28T04:36:05Z</time>
      </trkpt>
      <trkpt lat="44.15591" lon="3.22868">
        <ele>766</ele>
        <time>2017-02-28T04:38:05Z</time>
      </trkpt>
      <trkpt lat="44.15588" lon="3.22881">
        <ele>765</ele>
        <time>2017-02-28T04:40:05Z</time>
      </trkpt>
      <trkpt lat="44.15587" lon="3.22895">
        <ele>765</ele>
        <time>2017-02-28T04:42:05Z</time>
      </trkpt>
      <trkpt lat="44.15589" lon="3.22907">
        <ele>765</ele>
        <time>2017-02-28T04:44:05Z</time>
      </trkpt>
      <trkpt lat="44.15592" lon="3.22919">
        <ele>766</ele>
        <time>2017-02-28T04:46:05Z</time>
      </trkpt>
      <trkpt lat="44.15595" lon="3.2293">
        <ele>766</ele>
        <time>2017-02-28T04:48:05Z</time>
      </trkpt>
      <trkpt lat="44.15597" lon="3.22941">
        <ele>766</ele>
        <time>2017-02-28T04:50:05Z</time>
      </trkpt>
      <trkpt lat="44.15599" lon="3.22956">
        <ele>766</ele>
        <time>2017-02-28T04:52:05Z</time>
      </trkpt>
      <trkpt lat="44.15598" lon="3.2297">
        <ele>766</ele>
        <time>2017-02-28T04:54:05Z</time>
      </trkpt>
      <trkpt lat="44.15596" lon="3.22979">
        <ele>766</ele>
        <time>2017-02-28T04:56:05Z</time>
      </trkpt>
      <trkpt lat="44.15593" lon="3.22989">
        <ele>766</ele>
        <time>2017-02-28T04:58:05Z</time>
      </trkpt>
      <trkpt lat="44.15587" lon="3.22999">
        <ele>766</ele>
        <time>2017-02-28T05:00:05Z</time>
      </trkpt>
      <trkpt lat="44.15578" lon="3.23013">
        <ele>766</ele>
        <time>2017-02-28T05:02:05Z</time>
      </trkpt>
      <trkpt lat="44.15573" lon="3.23022">
        <ele>767</ele>
        <time>2017-02-28T05:04:05Z</time>
      </trkpt>
      <trkpt lat="44.1557" lon="3.23029">
        <ele>767</ele>
        <time>2017-02-28T05:06:05Z</time>
      </trkpt>
      <trkpt lat="44.15567" lon="3.2304">
        <ele>767</ele>
        <time>2017-02-28T05:08:05Z</time>
      </trkpt>
      <trkpt lat="44.15563" lon="3.23048">
        <ele>768</ele>
        <time>2017-02-28T05:10:05Z</time>
      </trkpt>
      <trkpt lat="44.15558" lon="3.23055">
        <ele>768</ele>
        <time>2017-02-28T05:12:05Z</time>
      </trkpt>
      <trkpt lat="44.15552" lon="3.23058">
        <ele>768</ele>
        <time>2017-02-28T05:14:05Z</time>
      </trkpt>
      <trkpt lat="44.15548" lon="3.23059">
        <ele>768</ele>
        <time>2017-02-28T05:16:05Z</time>
      </trkpt>
      <trkpt lat="44.1554" lon="3.23061">
        <ele>769</ele>
        <time>2017-02-28T05:18:05Z</time>
      </trkpt>
      <trkpt lat="44.15529" lon="3.23061">
        <ele>769</ele>
        <time>2017-02-28T05:20:05Z</time>
      </trkpt>
      <trkpt lat="44.15514" lon="3.2306">
        <ele>770</ele>
        <time>2017-02-28T05:22:05Z</time>
      </trkpt>
      <trkpt lat="44.15498" lon="3.23058">
        <ele>771</ele>
        <time>2017-02-28T05:24:05Z</time>
      </trkpt>
      <trkpt lat="44.15485" lon="3.23057">
        <ele>770</ele>
        <time>2017-02-28T05:26:05Z</time>
      </trkpt>
      <trkpt lat="44.15474" lon="3.23057">
        <ele>770</ele>
        <time>2017-02-28T05:28:05Z</time>
      </trkpt>
      <trkpt lat="44.15463" lon="3.23059">
        <ele>770</ele>
        <time>2017-02-28T05:30:05Z</time>
      </trkpt>
      <trkpt lat="44.15452" lon="3.23061">
        <ele>770</ele>
        <time>2017-02-28T05:32:05Z</time>
      </trkpt>
      <trkpt lat="44.15442" lon="3.23065">
        <ele>770</ele>
        <time>2017-02-28T05:34:05Z</time>
      </trkpt>
      <trkpt lat="44.15434" lon="3.23068">
        <ele>770</ele>
        <time>2017-02-28T05:36:05Z</time>
      </trkpt>
      <trkpt lat="44.15427" lon="3.23068">
        <ele>770</ele>
        <time>2017-02-28T05:38:05Z</time>
      </trkpt>
      <trkpt lat="44.15419" lon="3.23067">
        <ele>770</ele>
        <time>2017-02-28T05:40:05Z</time>
      </trkpt>
      <trkpt lat="44.15411" lon="3.23067">
        <ele>769</ele>
        <time>2017-02-28T05:42:05Z</time>
      </trkpt>
      <trkpt lat="44.15405" lon="3.23068">
        <ele>769</ele>
        <time>2017-02-28T05:44:05Z</time>
      </trkpt>
      <trkpt lat="44.15394" lon="3.23071">
        <ele>769</ele>
        <time>2017-02-28T05:46:05Z</time>
      </trkpt>
      <trkpt lat="44.15387" lon="3.23072">
        <ele>768</ele>
        <time>2017-02-28T05:48:05Z</time>
      </trkpt>
      <trkpt lat="44.15366" lon="3.23071">
        <ele>767</ele>
        <time>2017-02-28T05:50:05Z</time>
      </trkpt>
      <trkpt lat="44.15346" lon="3.23071">
        <ele>766</ele>
        <time>2017-02-28T05:52:05Z</time>
      </trkpt>
      <trkpt lat="44.15324" lon="3.2307">
        <ele>765</ele>
        <time>2017-02-28T05:54:05Z</time>
      </trkpt>
      <trkpt lat="44.15313" lon="3.23069">
        <ele>764</ele>
        <time>2017-02-28T05:56:05Z</time>
      </trkpt>
      <trkpt lat="44.15306" lon="3.23071">
        <ele>764</ele>
        <time>2017-02-28T05:58:05Z</time>
      </trkpt>
      <trkpt lat="44.153" lon="3.23074">
        <ele>764</ele>
        <time>2017-02-28T06:00:05Z</time>
      </trkpt>
      <trkpt lat="44.15291" lon="3.23081">
        <ele>763</ele>
        <time>2017-02-28T06:02:05Z</time>
      </trkpt>
      <trkpt lat="44.1528" lon="3.23091">
        <ele>763</ele>
        <time>2017-02-28T06:04:05Z</time>
      </trkpt>
      <trkpt lat="44.15272" lon="3.23099">
        <ele>762</ele>
        <time>2017-02-28T06:06:05Z</time>
      </trkpt>
      <trkpt lat="44.15264" lon="3.23106">
        <ele>762</ele>
        <time>2017-02-28T06:08:05Z</time>
      </trkpt>
      <trkpt lat="44.15253" lon="3.23114">
        <ele>762</ele>
        <time>2017-02-28T06:10:05Z</time>
      </trkpt>
      <trkpt lat="44.1524" lon="3.23123">
        <ele>761</ele>
        <time>2017-02-28T06:12:05Z</time>
      </trkpt>
      <trkpt lat="44.15228" lon="3.23133">
        <ele>761</ele>
        <time>2017-02-28T06:14:05Z</time>
      </trkpt>
      <trkpt lat="44.15213" lon="3.23146">
        <ele>760</ele>
        <time>2017-02-28T06:16:05Z</time>
      </trkpt>
      <trkpt lat="44.15191" lon="3.23163">
        <ele>758</ele>
        <time>2017-02-28T06:18:05Z</time>
      </trkpt>
      <trkpt lat="44.15177" lon="3.23177">
        <ele>757</ele>
        <time>2017-02-28T06:20:05Z</time>
      </trkpt>
      <trkpt lat="44.15169" lon="3.23187">
        <ele>757</ele>
        <time>2017-02-28T06:22:05Z</time>
      </trkpt>
      <trkpt lat="44.15157" lon="3.23205">
        <ele>757</ele>
        <time>2017-02-28T06:24:05Z</time>
      </trkpt>
      <trkpt lat="44.15145" lon="3.23223">
        <ele>757</ele>
        <time>2017-02-28T06:26:05Z</time>
      </trkpt>
      <trkpt lat="44.15135" lon="3.2324">
        <ele>757</ele>
        <time>2017-02-28T06:28:05Z</time>
      </trkpt>
      <trkpt lat="44.15122" lon="3.23266">
        <ele>757</ele>
        <time>2017-02-28T06:30:05Z</time>
      </trkpt>
      <trkpt lat="44.15113" lon="3.23285">
        <ele>756</ele>
        <time>2017-02-28T06:32:05Z</time>
      </trkpt>
      <trkpt lat="44.15108" lon="3.23295">
        <ele>756</ele>
        <time>2017-02-28T06:34:05Z</time>
      </trkpt>
      <trkpt lat="44.15102" lon="3.23305">
        <ele>755</ele>
        <time>2017-02-28T06:36:05Z</time>
      </trkpt>
      <trkpt lat="44.15095" lon="3.2332">
        <ele>754</ele>
        <time>2017-02-28T06:38:05Z</time>
      </trkpt>
      <trkpt lat="44.1509" lon="3.23337">
        <ele>754</ele>
        <time>2017-02-28T06:40:05Z</time>
      </trkpt>
      <trkpt lat="44.15085" lon="3.23354">
        <ele>753</ele>
        <time>2017-02-28T06:42:05Z</time>
      </trkpt>
      <trkpt lat="44.15082" lon="3.23363">
        <ele>753</ele>
        <time>2017-02-28T06:44:05Z</time>
      </trkpt>
      <trkpt lat="44.15082" lon="3.23366">
        <ele>754</ele>
        <time>2017-02-28T06:46:05Z</time>
      </trkpt>
      <trkpt lat="44.1508" lon="3.23374">
        <ele>754</ele>
        <time>2017-02-28T06:48:05Z</time>
      </trkpt>
      <trkpt lat="44.15078" lon="3.23384">
        <ele>755</ele>
        <time>2017-02-28T06:50:05Z</time>
      </trkpt>
      <trkpt lat="44.15077" lon="3.23396">
        <ele>756</ele>
        <time>2017-02-28T06:52:05Z</time>
      </trkpt>
      <trkpt lat="44.15078" lon="3.23411">
        <ele>756</ele>
        <time>2017-02-28T06:54:05Z</time>
      </trkpt>
      <trkpt lat="44.15081" lon="3.23426">
        <ele>757</ele>
        <time>2017-02-28T06:56:05Z</time>
      </trkpt>
      <trkpt lat="44.15082" lon="3.23431">
        <ele>758</ele>
        <time>2017-02-28T06:58:05Z</time>
      </trkpt>
      <trkpt lat="44.15083" lon="3.23434">
        <ele>758</ele>
        <time>2017-02-28T07:00:05Z</time>
      </trkpt>
      <trkpt lat="44.15085" lon="3.2344">
        <ele>759</ele>
        <time>2017-02-28T07:02:05Z</time>
      </trkpt>
      <trkpt lat="44.15087" lon="3.23447">
        <ele>760</ele>
        <time>2017-02-28T07:04:05Z</time>
      </trkpt>
      <trkpt lat="44.15089" lon="3.23456">
        <ele>762</ele>
        <time>2017-02-28T07:06:05Z</time>
      </trkpt>
      <trkpt lat="44.15089" lon="3.23467">
        <ele>763</ele>
        <time>2017-02-28T07:08:05Z</time>
      </trkpt>
      <trkpt lat="44.15088" lon="3.23473">
        <ele>763</ele>
        <time>2017-02-28T07:10:05Z</time>
      </trkpt>
      <trkpt lat="44.15087" lon="3.23481">
        <ele>764</ele>
        <time>2017-02-28T07:12:05Z</time>
      </trkpt>
      <trkpt lat="44.15083" lon="3.23493">
        <ele>764</ele>
        <time>2017-02-28T07:14:05Z</time>
      </trkpt>
      <trkpt lat="44.15081" lon="3.23505">
        <ele>766</ele>
        <time>2017-02-28T07:16:05Z</time>
      </trkpt>
      <trkpt lat="44.1508" lon="3.23518">
        <ele>766</ele>
        <time>2017-02-28T07:18:05Z</time>
      </trkpt>
      <trkpt lat="44.1508" lon="3.23534">
        <ele>767</ele>
        <time>2017-02-28T07:20:05Z</time>
      </trkpt>
      <trkpt lat="44.1508" lon="3.23546">
        <ele>767</ele>
        <time>2017-02-28T07:22:05Z</time>
      </trkpt>
      <trkpt lat="44.1508" lon="3.2356">
        <ele>768</ele>
        <time>2017-02-28T07:24:05Z</time>
      </trkpt>
      <trkpt lat="44.15079" lon="3.23573">
        <ele>768</ele>
        <time>2017-02-28T07:26:05Z</time>
      </trkpt>
      <trkpt lat="44.15078" lon="3.23582">
        <ele>769</ele>
        <time>2017-02-28T07:28:05Z</time>
      </trkpt>
      <trkpt lat="44.15072" lon="3.23604">
        <ele>771</ele>
        <time>2017-02-28T07:30:05Z</time>
      </trkpt>
      <trkpt lat="44.15066" lon="3.23626">
        <ele>773</ele>
        <time>2017-02-28T07:32:05Z</time>
      </trkpt>
      <trkpt lat="44.15061" lon="3.23643">
        <ele>775</ele>
        <time>2017-02-28T07:34:05Z</time>
      </trkpt>
      <trkpt lat="44.15055" lon="3.23669">
        <ele>776</ele>
        <time>2017-02-28T07:36:05Z</time>
      </trkpt>
      <trkpt lat="44.15049" lon="3.23689">
        <ele>778</ele>
        <time>2017-02-28T07:38:05Z</time>
      </trkpt>
      <trkpt lat="44.15045" lon="3.23703">
        <ele>778</ele>
        <time>2017-02-28T07:40:05Z</time>
      </trkpt>
      <trkpt lat="44.15043" lon="3.23718">
        <ele>779</ele>
        <time>2017-02-28T07:42:05Z</time>
      </trkpt>
      <trkpt lat="44.15042" lon="3.23732">
        <ele>779</ele>
        <time>2017-02-28T07:44:05Z</time>
      </trkpt>
      <trkpt lat="44.15042" lon="3.23743">
        <ele>779</ele>
        <time>2017-02-28T07:46:05Z</time>
      </trkpt>
      <trkpt lat="44.15043" lon="3.23756">
        <ele>779</ele>
        <time>2017-02-28T07:48:05Z</time>
      </trkpt>
      <trkpt lat="44.15045" lon="3.23764">
        <ele>779</ele>
        <time>2017-02-28T07:50:05Z</time>
      </trkpt>
      <trkpt lat="44.1505" lon="3.23774">
        <ele>778</ele>
        <time>2017-02-28T07:52:05Z</time>
      </trkpt>
      <trkpt lat="44.15054" lon="3.23781">
        <ele>778</ele>
        <time>2017-02-28T07:54:05Z</time>
      </trkpt>
      <trkpt lat="44.15055" lon="3.23789">
        <ele>778</ele>
        <time>2017-02-28T07:56:05Z</time>
      </trkpt>
      <trkpt lat="44.15054" lon="3.23795">
        <ele>778</ele>
        <time>2017-02-28T07:58:05Z</time>
      </trkpt>
      <trkpt lat="44.15051" lon="3.23801">
        <ele>778</ele>
        <time>2017-02-28T08:00:05Z</time>
      </trkpt>
      <trkpt lat="44.15046" lon="3.23809">
        <ele>778</ele>
        <time>2017-02-28T08:02:05Z</time>
      </trkpt>
      <trkpt lat="44.15045" lon="3.2381">
        <ele>778</ele>
        <time>2017-02-28T08:04:05Z</time>
      </trkpt>
      <trkpt lat="44.15046" lon="3.23812">
        <ele>778</ele>
        <time>2017-02-28T08:06:05Z</time>
      </trkpt>
      <trkpt lat="44.14956" lon="3.23516">
        <ele>792</ele>
        <time>2017-02-28T08:08:05Z</time>
      </trkpt>
      <trkpt lat="44.14954" lon="3.23516">
        <ele>792</ele>
        <time>2017-02-28T08:10:05Z</time>
      </trkpt>
      <trkpt lat="44.14953" lon="3.2351">
        <ele>792</ele>
        <time>2017-02-28T08:12:05Z</time>
      </trkpt>
      <trkpt lat="44.14897" lon="3.23519">
        <ele>805</ele>
        <time>2017-02-28T08:14:05Z</time>
      </trkpt>
      <trkpt lat="44.14842" lon="3.23522">
        <ele>812</ele>
        <time>2017-02-28T08:16:05Z</time>
      </trkpt>
      <trkpt lat="44.14797" lon="3.2349">
        <ele>818</ele>
        <time>2017-02-28T08:18:05Z</time>
      </trkpt>
      <trkpt lat="44.14714" lon="3.23476">
        <ele>827</ele>
        <time>2017-02-28T08:20:05Z</time>
      </trkpt>
      <trkpt lat="44.1458" lon="3.23582">
        <ele>833</ele>
        <time>2017-02-28T08:22:05Z</time>
      </trkpt>
      <trkpt lat="44.14142" lon="3.23492">
        <ele>830</ele>
        <time>2017-02-28T08:24:05Z</time>
      </trkpt>
      <trkpt lat="44.14143" lon="3.2349">
        <ele>830</ele>
        <time>2017-02-28T08:26:05Z</time>
      </trkpt>
      <trkpt lat="44.14136" lon="3.23486">
        <ele>830</ele>
        <time>2017-02-28T08:28:05Z</time>
      </trkpt>
      <trkpt lat="44.14126" lon="3.23481">
        <ele>829</ele>
        <time>2017-02-28T08:30:05Z</time>
      </trkpt>
      <trkpt lat="44.14125" lon="3.2348">
        <ele>829</ele>
        <time>2017-02-28T08:32:05Z</time>
      </trkpt>
      <trkpt lat="44.14116" lon="3.23474">
        <ele>829</ele>
        <time>2017-02-28T08:34:05Z</time>
      </trkpt>
      <trkpt lat="44.1411" lon="3.2347">
        <ele>829</ele>
        <time>2017-02-28T08:36:05Z</time>
      </trkpt>
      <trkpt lat="44.14105" lon="3.23468">
        <ele>829</ele>
        <time>2017-02-28T08:38:05Z</time>
      </trkpt>
      <trkpt lat="44.14102" lon="3.23468">
        <ele>829</ele>
        <time>2017-02-28T08:40:05Z</time>
      </trkpt>
      <trkpt lat="44.14098" lon="3.23468">
        <ele>830</ele>
        <time>2017-02-28T08:42:05Z</time>
      </trkpt>
      <trkpt lat="44.14091" lon="3.23468">
        <ele>830</ele>
        <time>2017-02-28T08:44:05Z</time>
      </trkpt>
      <trkpt lat="44.14082" lon="3.23469">
        <ele>830</ele>
        <time>2017-02-28T08:46:05Z</time>
      </trkpt>
      <trkpt lat="44.14073" lon="3.23468">
        <ele>830</ele>
        <time>2017-02-28T08:48:05Z</time>
      </trkpt>
      <trkpt lat="44.14065" lon="3.23466">
        <ele>830</ele>
        <time>2017-02-28T08:50:05Z</time>
      </trkpt>
      <trkpt lat="44.14056" lon="3.23463">
        <ele>830</ele>
        <time>2017-02-28T08:52:05Z</time>
      </trkpt>
      <trkpt lat="44.14049" lon="3.23461">
        <ele>830</ele>
        <time>2017-02-28T08:54:05Z</time>
      </trkpt>
      <trkpt lat="44.14041" lon="3.2346">
        <ele>830</ele>
        <time>2017-02-28T08:56:05Z</time>
      </trkpt>
      <trkpt lat="44.14033" lon="3.2346">
        <ele>830</ele>
        <time>2017-02-28T08:58:05Z</time>
      </trkpt>
      <trkpt lat="44.14023" lon="3.23459">
        <ele>831</ele>
        <time>2017-02-28T09:00:05Z</time>
      </trkpt>
      <trkpt lat="44.14017" lon="3.23458">
        <ele>831</ele>
        <time>2017-02-28T09:02:05Z</time>
      </trkpt>
      <trkpt lat="44.14011" lon="3.23457">
        <ele>831</ele>
        <time>2017-02-28T09:04:05Z</time>
      </trkpt>
      <trkpt lat="44.14004" lon="3.23455">
        <ele>831</ele>
        <time>2017-02-28T09:06:05Z</time>
      </trkpt>
      <trkpt lat="44.13999" lon="3.23454">
        <ele>831</ele>
        <time>2017-02-28T09:08:05Z</time>
      </trkpt>
      <trkpt lat="44.13995" lon="3.23454">
        <ele>831</ele>
        <time>2017-02-28T09:10:05Z</time>
      </trkpt>
      <trkpt lat="44.13988" lon="3.23454">
        <ele>831</ele>
        <time>2017-02-28T09:12:05Z</time>
      </trkpt>
      <trkpt lat="44.13978" lon="3.23455">
        <ele>830</ele>
        <time>2017-02-28T09:14:05Z</time>
      </trkpt>
      <trkpt lat="44.13968" lon="3.23456">
        <ele>829</ele>
        <time>2017-02-28T09:16:05Z</time>
      </trkpt>
      <trkpt lat="44.13958" lon="3.23457">
        <ele>829</ele>
        <time>2017-02-28T09:18:05Z</time>
      </trkpt>
      <trkpt lat="44.13951" lon="3.23457">
        <ele>828</ele>
        <time>2017-02-28T09:20:05Z</time>
      </trkpt>
      <trkpt lat="44.13946" lon="3.23457">
        <ele>828</ele>
        <time>2017-02-28T09:22:05Z</time>
      </trkpt>
      <trkpt lat="44.13943" lon="3.23456">
        <ele>828</ele>
        <time>2017-02-28T09:24:05Z</time>
      </trkpt>
      <trkpt lat="44.13941" lon="3.23454">
        <ele>828</ele>
        <time>2017-02-28T09:26:05Z</time>
      </trkpt>
      <trkpt lat="44.13939" lon="3.23453">
        <ele>828</ele>
        <time>2017-02-28T09:28:05Z</time>
      </trkpt>
      <trkpt lat="44.13937" lon="3.23449">
        <ele>829</ele>
        <time>2017-02-28T09:30:05Z</time>
      </trkpt>
      <trkpt lat="44.13935" lon="3.23444">
        <ele>829</ele>
        <time>2017-02-28T09:32:05Z</time>
      </trkpt>
      <trkpt lat="44.13935" lon="3.23439">
        <ele>830</ele>
        <time>2017-02-28T09:34:05Z</time>
      </trkpt>
      <trkpt lat="44.13935" lon="3.23432">
        <ele>831</ele>
        <time>2017-02-28T09:36:05Z</time>
      </trkpt>
      <trkpt lat="44.13935" lon="3.23425">
        <ele>832</ele>
        <time>2017-02-28T09:38:05Z</time>
      </trkpt>
      <trkpt lat="44.13936" lon="3.23413">
        <ele>834</ele>
        <time>2017-02-28T09:40:05Z</time>
      </trkpt>
      <trkpt lat="44.13938" lon="3.23397">
        <ele>834</ele>
        <time>2017-02-28T09:42:05Z</time>
      </trkpt>
      <trkpt lat="44.1394" lon="3.23386">
        <ele>834</ele>
        <time>2017-02-28T09:44:05Z</time>
      </trkpt>
      <trkpt lat="44.13941" lon="3.23379">
        <ele>834</ele>
        <time>2017-02-28T09:46:05Z</time>
      </trkpt>
      <trkpt lat="44.13941" lon="3.23374">
        <ele>834</ele>
        <time>2017-02-28T09:48:05Z</time>
      </trkpt>
      <trkpt lat="44.1394" lon="3.23371">
        <ele>834</ele>
        <time>2017-02-28T09:50:05Z</time>
      </trkpt>
      <trkpt lat="44.13937" lon="3.23367">
        <ele>834</ele>
        <time>2017-02-28T09:52:05Z</time>
      </trkpt>
      <trkpt lat="44.13935" lon="3.23364">
        <ele>834</ele>
        <time>2017-02-28T09:54:05Z</time>
      </trkpt>
      <trkpt lat="44.13932" lon="3.23362">
        <ele>834</ele>
        <time>2017-02-28T09:56:05Z</time>
      </trkpt>
      <trkpt lat="44.13928" lon="3.23359">
        <ele>834</ele>
        <time>2017-02-28T09:58:05Z</time>
      </trkpt>
      <trkpt lat="44.13924" lon="3.23357">
        <ele>835</ele>
        <time>2017-02-28T10:00:05Z</time>
      </trkpt>
      <trkpt lat="44.13921" lon="3.23354">
        <ele>835</ele>
        <time>2017-02-28T10:02:05Z</time>
      </trkpt>
      <trkpt lat="44.1392" lon="3.23351">
        <ele>835</ele>
        <time>2017-02-28T10:04:05Z</time>
      </trkpt>
      <trkpt lat="44.13919" lon="3.23347">
        <ele>835</ele>
        <time>2017-02-28T10:06:05Z</time>
      </trkpt>
      <trkpt lat="44.13919" lon="3.23345">
        <ele>835</ele>
        <time>2017-02-28T10:08:05Z</time>
      </trkpt>
      <trkpt lat="44.1392" lon="3.23341">
        <ele>835</ele>
        <time>2017-02-28T10:10:05Z</time>
      </trkpt>
      <trkpt lat="44.13922" lon="3.23336">
        <ele>835</ele>
        <time>2017-02-28T10:12:05Z</time>
      </trkpt>
      <trkpt lat="44.13925" lon="3.23329">
        <ele>835</ele>
        <time>2017-02-28T10:14:05Z</time>
      </trkpt>
      <trkpt lat="44.13927" lon="3.23321">
        <ele>835</ele>
        <time>2017-02-28T10:16:05Z</time>
      </trkpt>
      <trkpt lat="44.1393" lon="3.2331">
        <ele>835</ele>
        <time>2017-02-28T10:18:05Z</time>
      </trkpt>
      <trkpt lat="44.13931" lon="3.23299">
        <ele>835</ele>
        <time>2017-02-28T10:20:05Z</time>
      </trkpt>
      <trkpt lat="44.13932" lon="3.23288">
        <ele>835</ele>
        <time>2017-02-28T10:22:05Z</time>
      </trkpt>
      <trkpt lat="44.13932" lon="3.23276">
        <ele>835</ele>
        <time>2017-02-28T10:24:05Z</time>
      </trkpt>
      <trkpt lat="44.13932" lon="3.23267">
        <ele>836</ele>
        <time>2017-02-28T10:26:05Z</time>
      </trkpt>
      <trkpt lat="44.13933" lon="3.23263">
        <ele>835</ele>
        <time>2017-02-28T10:28:05Z</time>
      </trkpt>
      <trkpt lat="44.13935" lon="3.23257">
        <ele>835</ele>
        <time>2017-02-28T10:30:05Z</time>
      </trkpt>
      <trkpt lat="44.13937" lon="3.23253">
        <ele>835</ele>
        <time>2017-02-28T10:32:05Z</time>
      </trkpt>
      <trkpt lat="44.13944" lon="3.23241">
        <ele>834</ele>
        <time>2017-02-28T10:34:05Z</time>
      </trkpt>
      <trkpt lat="44.13955" lon="3.23223">
        <ele>833</ele>
        <time>2017-02-28T10:36:05Z</time>
      </trkpt>
      <trkpt lat="44.13962" lon="3.23212">
        <ele>833</ele>
        <time>2017-02-28T10:38:05Z</time>
      </trkpt>
      <trkpt lat="44.13969" lon="3.23201">
        <ele>833</ele>
        <time>2017-02-28T10:40:05Z</time>
      </trkpt>
      <trkpt lat="44.13977" lon="3.23193">
        <ele>832</ele>
        <time>2017-02-28T10:42:05Z</time>
      </trkpt>
      <trkpt lat="44.13985" lon="3.23182">
        <ele>832</ele>
        <time>2017-02-28T10:44:05Z</time>
      </trkpt>
      <trkpt lat="44.13992" lon="3.23171">
        <ele>832</ele>
        <time>2017-02-28T10:46:05Z</time>
      </trkpt>
      <trkpt lat="44.13999" lon="3.23158">
        <ele>831</ele>
        <time>2017-02-28T10:48:05Z</time>
      </trkpt>
      <trkpt lat="44.14003" lon="3.23148">
        <ele>830</ele>
        <time>2017-02-28T10:50:05Z</time>
      </trkpt>
      <trkpt lat="44.14005" lon="3.23142">
        <ele>830</ele>
        <time>2017-02-28T10:52:05Z</time>
      </trkpt>
      <trkpt lat="44.14006" lon="3.23137">
        <ele>829</ele>
        <time>2017-02-28T10:54:05Z</time>
      </trkpt>
      <trkpt lat="44.14005" lon="3.23131">
        <ele>830</ele>
        <time>2017-02-28T10:56:05Z</time>
      </trkpt>
      <trkpt lat="44.14005" lon="3.23127">
        <ele>830</ele>
        <time>2017-02-28T10:58:05Z</time>
      </trkpt>
      <trkpt lat="44.14003" lon="3.23117">
        <ele>830</ele>
        <time>2017-02-28T11:00:05Z</time>
      </trkpt>
      <trkpt lat="44.13999" lon="3.23104">
        <ele>831</ele>
        <time>2017-02-28T11:02:05Z</time>
      </trkpt>
      <trkpt lat="44.13997" lon="3.23091">
        <ele>831</ele>
        <time>2017-02-28T11:04:05Z</time>
      </trkpt>
      <trkpt lat="44.13995" lon="3.23077">
        <ele>832</ele>
        <time>2017-02-28T11:06:05Z</time>
      </trkpt>
      <trkpt lat="44.13992" lon="3.23065">
        <ele>832</ele>
        <time>2017-02-28T11:08:05Z</time>
      </trkpt>
      <trkpt lat="44.13989" lon="3.23055">
        <ele>832</ele>
        <time>2017-02-28T11:10:05Z</time>
      </trkpt>
      <trkpt lat="44.13985" lon="3.23044">
        <ele>833</ele>
        <time>2017-02-28T11:12:05Z</time>
      </trkpt>
      <trkpt lat="44.13982" lon="3.23037">
        <ele>833</ele>
        <time>2017-02-28T11:14:05Z</time>
      </trkpt>
      <trkpt lat="44.13982" lon="3.23033">
        <ele>833</ele>
        <time>2017-02-28T11:16:05Z</time>
      </trkpt>
      <trkpt lat="44.13981" lon="3.23028">
        <ele>833</ele>
        <time>2017-02-28T11:18:05Z</time>
      </trkpt>
      <trkpt lat="44.13981" lon="3.2302">
        <ele>833</ele>
        <time>2017-02-28T11:20:05Z</time>
      </trkpt>
      <trkpt lat="44.13981" lon="3.23017">
        <ele>833</ele>
        <time>2017-02-28T11:22:05Z</time>
      </trkpt>
      <trkpt lat="44.13983" lon="3.23012">
        <ele>833</ele>
        <time>2017-02-28T11:24:05Z</time>
      </trkpt>
      <trkpt lat="44.13985" lon="3.23007">
        <ele>833</ele>
        <time>2017-02-28T11:26:05Z</time>
      </trkpt>
      <trkpt lat="44.13989" lon="3.23">
        <ele>832</ele>
        <time>2017-02-28T11:28:05Z</time>
      </trkpt>
      <trkpt lat="44.13996" lon="3.22988">
        <ele>832</ele>
        <time>2017-02-28T11:30:05Z</time>
      </trkpt>
      <trkpt lat="44.13999" lon="3.22982">
        <ele>832</ele>
        <time>2017-02-28T11:32:05Z</time>
      </trkpt>
      <trkpt lat="44.14002" lon="3.22976">
        <ele>832</ele>
        <time>2017-02-28T11:34:05Z</time>
      </trkpt>
      <trkpt lat="44.14003" lon="3.22974">
        <ele>832</ele>
        <time>2017-02-28T11:36:05Z</time>
      </trkpt>
      <trkpt lat="44.14006" lon="3.22974">
        <ele>832</ele>
        <time>2017-02-28T11:38:05Z</time>
      </trkpt>
      <trkpt lat="44.14006" lon="3.22974">
        <ele>832</ele>
        <time>2017-02-28T11:40:05Z</time>
      </trkpt>
      <trkpt lat="44.14005" lon="3.22968">
        <ele>832</ele>
        <time>2017-02-28T11:42:05Z</time>
      </trkpt>
      <trkpt lat="44.14003" lon="3.22964">
        <ele>833</ele>
        <time>2017-02-28T11:44:05Z</time>
      </trkpt>
      <trkpt lat="44.14002" lon="3.22962">
        <ele>833</ele>
        <time>2017-02-28T11:46:05Z</time>
      </trkpt>
      <trkpt lat="44.14001" lon="3.22961">
        <ele>833</ele>
        <time>2017-02-28T11:48:05Z</time>
      </trkpt>
      <trkpt lat="44.13999" lon="3.22964">
        <ele>833</ele>
        <time>2017-02-28T11:50:05Z</time>
      </trkpt>
      <trkpt lat="44.13953" lon="3.22949">
        <ele>834</ele>
        <time>2017-02-28T11:52:05Z</time>
      </trkpt>
      <trkpt lat="44.13935" lon="3.22895">
        <ele>833</ele>
        <time>2017-02-28T11:54:05Z</time>
      </trkpt>
      <trkpt lat="44.13776" lon="3.23014">
        <ele>838</ele>
        <time>2017-02-28T11:56:05Z</time>
      </trkpt>
      <trkpt lat="44.13745" lon="3.23155">
        <ele>838</ele>
        <time>2017-02-28T11:58:05Z</time>
      </trkpt>
      <trkpt lat="44.13673" lon="3.23217">
        <ele>834</ele>
        <time>2017-02-28T12:00:05Z</time>
      </trkpt>
      <trkpt lat="44.13597" lon="3.23297">
        <ele>830</ele>
        <time>2017-02-28T12:02:05Z</time>
      </trkpt>
      <trkpt lat="44.13543" lon="3.23374">
        <ele>823</ele>
        <time>2017-02-28T12:04:05Z</time>
      </trkpt>
      <trkpt lat="44.13537" lon="3.23462">
        <ele>815</ele>
        <time>2017-02-28T12:06:05Z</time>
      </trkpt>
      <trkpt lat="44.13511" lon="3.23531">
        <ele>808</ele>
        <time>2017-02-28T12:08:05Z</time>
      </trkpt>
      <trkpt lat="44.13479" lon="3.23541">
        <ele>806</ele>
        <time>2017-02-28T12:10:05Z</time>
      </trkpt>
      <trkpt lat="44.13465" lon="3.23629">
        <ele>798</ele>
        <time>2017-02-28T12:12:05Z</time>
      </trkpt>
      <trkpt lat="44.13391" lon="3.23668">
        <ele>794</ele>
        <time>2017-02-28T12:14:05Z</time>
      </trkpt>
      <trkpt lat="44.13373" lon="3.23633">
        <ele>796</ele>
        <time>2017-02-28T12:16:05Z</time>
      </trkpt>
      <trkpt lat="44.13311" lon="3.23623">
        <ele>794</ele>
        <time>2017-02-28T12:18:05Z</time>
      </trkpt>
      <trkpt lat="44.13298" lon="3.23698">
        <ele>787</ele>
        <time>2017-02-28T12:20:05Z</time>
      </trkpt>
      <trkpt lat="44.13292" lon="3.2375">
        <ele>782</ele>
        <time>2017-02-28T12:22:05Z</time>
      </trkpt>
      <trkpt lat="44.13343" lon="3.2382">
        <ele>780</ele>
        <time>2017-02-28T12:24:05Z</time>
      </trkpt>
      <trkpt lat="44.13353" lon="3.23992">
        <ele>767</ele>
        <time>2017-02-28T12:26:05Z</time>
      </trkpt>
      <trkpt lat="44.13279" lon="3.24129">
        <ele>763</ele>
        <time>2017-02-28T12:28:05Z</time>
      </trkpt>
      <trkpt lat="44.13334" lon="3.24209">
        <ele>760</ele>
        <time>2017-02-28T12:30:05Z</time>
      </trkpt>
      <trkpt lat="44.13292" lon="3.24247">
        <ele>751</ele>
        <time>2017-02-28T12:32:05Z</time>
      </trkpt>
      <trkpt lat="44.13248" lon="3.24258">
        <ele>746</ele>
        <time>2017-02-28T12:34:05Z</time>
      </trkpt>
      <trkpt lat="44.13166" lon="3.24295">
        <ele>732</ele>
        <time>2017-02-28T12:36:05Z</time>
      </trkpt>
      <trkpt lat="44.13115" lon="3.24306">
        <ele>721</ele>
        <time>2017-02-28T12:38:05Z</time>
      </trkpt>
      <trkpt lat="44.13152" lon="3.24346">
        <ele>721</ele>
        <time>2017-02-28T12:40:05Z</time>
      </trkpt>
      <trkpt lat="44.13149" lon="3.24337">
        <ele>719</ele>
        <time>2017-02-28T12:42:05Z</time>
      </trkpt>
      <trkpt lat="44.13147" lon="3.24338">
        <ele>719</ele>
        <time>2017-02-28T12:44:05Z</time>
      </trkpt>
      <trkpt lat="44.13142" lon="3.24342">
        <ele>719</ele>
        <time>2017-02-28T12:46:05Z</time>
      </trkpt>
      <trkpt lat="44.13138" lon="3.24346">
        <ele>718</ele>
        <time>2017-02-28T12:48:05Z</time>
      </trkpt>
      <trkpt lat="44.13133" lon="3.24354">
        <ele>718</ele>
        <time>2017-02-28T12:50:05Z</time>
      </trkpt>
      <trkpt lat="44.13128" lon="3.24365">
        <ele>718</ele>
        <time>2017-02-28T12:52:05Z</time>
      </trkpt>
      <trkpt lat="44.13122" lon="3.24378">
        <ele>717</ele>
        <time>2017-02-28T12:54:05Z</time>
      </trkpt>
      <trkpt lat="44.13118" lon="3.24386">
        <ele>717</ele>
        <time>2017-02-28T12:56:05Z</time>
      </trkpt>
      <trkpt lat="44.13114" lon="3.24396">
        <ele>716</ele>
        <time>2017-02-28T12:58:05Z</time>
      </trkpt>
      <trkpt lat="44.13112" lon="3.24402">
        <ele>715</ele>
        <time>2017-02-28T13:00:05Z</time>
      </trkpt>
      <trkpt lat="44.1311" lon="3.24406">
        <ele>715</ele>
        <time>2017-02-28T13:02:05Z</time>
      </trkpt>
      <trkpt lat="44.13108" lon="3.24408">
        <ele>714</ele>
        <time>2017-02-28T13:04:05Z</time>
      </trkpt>
      <trkpt lat="44.13107" lon="3.24409">
        <ele>714</ele>
        <time>2017-02-28T13:06:05Z</time>
      </trkpt>
      <trkpt lat="44.13104" lon="3.24413">
        <ele>713</ele>
        <time>2017-02-28T13:08:05Z</time>
      </trkpt>
      <trkpt lat="44.13102" lon="3.24415">
        <ele>712</ele>
        <time>2017-02-28T13:10:05Z</time>
      </trkpt>
      <trkpt lat="44.13096" lon="3.24418">
        <ele>711</ele>
        <time>2017-02-28T13:12:05Z</time>
      </trkpt>
      <trkpt lat="44.13093" lon="3.24423">
        <ele>711</ele>
        <time>2017-02-28T13:14:05Z</time>
      </trkpt>
      <trkpt lat="44.13087" lon="3.24428">
        <ele>710</ele>
        <time>2017-02-28T13:16:05Z</time>
      </trkpt>
      <trkpt lat="44.13082" lon="3.24434">
        <ele>710</ele>
        <time>2017-02-28T13:18:05Z</time>
      </trkpt>
      <trkpt lat="44.13078" lon="3.24438">
        <ele>710</ele>
        <time>2017-02-28T13:20:05Z</time>
      </trkpt>
      <trkpt lat="44.13074" lon="3.24442">
        <ele>709</ele>
        <time>2017-02-28T13:22:05Z</time>
      </trkpt>
      <trkpt lat="44.13068" lon="3.2445">
        <ele>709</ele>
        <time>2017-02-28T13:24:05Z</time>
      </trkpt>
      <trkpt lat="44.13063" lon="3.24453">
        <ele>708</ele>
        <time>2017-02-28T13:26:05Z</time>
      </trkpt>
      <trkpt lat="44.1306" lon="3.24456">
        <ele>708</ele>
        <time>2017-02-28T13:28:05Z</time>
      </trkpt>
      <trkpt lat="44.13057" lon="3.24457">
        <ele>707</ele>
        <time>2017-02-28T13:30:05Z</time>
      </trkpt>
      <trkpt lat="44.13054" lon="3.24459">
        <ele>706</ele>
        <time>2017-02-28T13:32:05Z</time>
      </trkpt>
      <trkpt lat="44.1305" lon="3.2446">
        <ele>705</ele>
        <time>2017-02-28T13:34:05Z</time>
      </trkpt>
      <trkpt lat="44.13044" lon="3.24464">
        <ele>704</ele>
        <time>2017-02-28T13:36:05Z</time>
      </trkpt>
      <trkpt lat="44.13039" lon="3.24468">
        <ele>703</ele>
        <time>2017-02-28T13:38:05Z</time>
      </trkpt>
      <trkpt lat="44.13033" lon="3.24474">
        <ele>703</ele>
        <time>2017-02-28T13:40:05Z</time>
      </trkpt>
      <trkpt lat="44.13029" lon="3.24477">
        <ele>703</ele>
        <time>2017-02-28T13:42:05Z</time>
      </trkpt>
      <trkpt lat="44.13026" lon="3.2448">
        <ele>703</ele>
        <time>2017-02-28T13:44:05Z</time>
      </trkpt>
      <trkpt lat="44.13025" lon="3.24481">
        <ele>703</ele>
        <time>2017-02-28T13:46:05Z</time>
      </trkpt>
      <trkpt lat="44.13023" lon="3.24482">
        <ele>702</ele>
        <time>2017-02-28T13:48:05Z</time>
      </trkpt>
      <trkpt lat="44.13016" lon="3.24486">
        <ele>701</ele>
        <time>2017-02-28T13:50:05Z</time>
      </trkpt>
      <trkpt lat="44.13013" lon="3.24488">
        <ele>701</ele>
        <time>2017-02-28T13:52:05Z</time>
      </trkpt>
      <trkpt lat="44.13005" lon="3.24491">
        <ele>699</ele>
        <time>2017-02-28T13:54:05Z</time>
      </trkpt>
      <trkpt lat="44.12997" lon="3.24494">
        <ele>698</ele>
        <time>2017-02-28T13:56:05Z</time>
      </trkpt>
      <trkpt lat="44.12989" lon="3.24496">
        <ele>696</ele>
        <time>2017-02-28T13:58:05Z</time>
      </trkpt>
      <trkpt lat="44.12982" lon="3.24497">
        <ele>694</ele>
        <time>2017-02-28T14:00:05Z</time>
      </trkpt>
      <trkpt lat="44.12978" lon="3.24499">
        <ele>693</ele>
        <time>2017-02-28T14:02:05Z</time>
      </trkpt>
      <trkpt lat="44.12971" lon="3.24501">
        <ele>692</ele>
        <time>2017-02-28T14:04:05Z</time>
      </trkpt>
      <trkpt lat="44.12966" lon="3.24502">
        <ele>690</ele>
        <time>2017-02-28T14:06:05Z</time>
      </trkpt>
      <trkpt lat="44.12961" lon="3.24504">
        <ele>689</ele>
        <time>2017-02-28T14:08:05Z</time>
      </trkpt>
      <trkpt lat="44.12957" lon="3.24507">
        <ele>689</ele>
        <time>2017-02-28T14:10:05Z</time>
      </trkpt>
      <trkpt lat="44.12951" lon="3.24511">
        <ele>688</ele>
        <time>2017-02-28T14:12:05Z</time>
      </trkpt>
      <trkpt lat="44.12947" lon="3.24515">
        <ele>687</ele>
        <time>2017-02-28T14:14:05Z</time>
      </trkpt>
      <trkpt lat="44.12942" lon="3.24518">
        <ele>686</ele>
        <time>2017-02-28T14:16:05Z</time>
      </trkpt>
      <trkpt lat="44.12939" lon="3.24519">
        <ele>686</ele>
        <time>2017-02-28T14:18:05Z</time>
      </trkpt>
      <trkpt lat="44.12935" lon="3.2452">
        <ele>685</ele>
        <time>2017-02-28T14:20:05Z</time>
      </trkpt>
      <trkpt lat="44.12932" lon="3.24521">
        <ele>684</ele>
        <time>2017-02-28T14:22:05Z</time>
      </trkpt>
      <trkpt lat="44.1293" lon="3.24522">
        <ele>683</ele>
        <time>2017-02-28T14:24:05Z</time>
      </trkpt>
      <trkpt lat="44.12928" lon="3.24522">
        <ele>683</ele>
        <time>2017-02-28T14:26:05Z</time>
      </trkpt>
      <trkpt lat="44.12927" lon="3.24521">
        <ele>682</ele>
        <time>2017-02-28T14:28:05Z</time>
      </trkpt>
      <trkpt lat="44.12923" lon="3.24518">
        <ele>680</ele>
        <time>2017-02-28T14:30:05Z</time>
      </trkpt>
      <trkpt lat="44.12923" lon="3.24518">
        <ele>680</ele>
        <time>2017-02-28T14:32:05Z</time>
      </trkpt>
      <trkpt lat="44.12921" lon="3.24507">
        <ele>677</ele>
        <time>2017-02-28T14:34:05Z</time>
      </trkpt>
      <trkpt lat="44.12922" lon="3.24504">
        <ele>677</ele>
        <time>2017-02-28T14:36:05Z</time>
      </trkpt>
      <trkpt lat="44.12922" lon="3.24501">
        <ele>676</ele>
        <time>2017-02-28T14:38:05Z</time>
      </trkpt>
      <trkpt lat="44.12924" lon="3.245">
        <ele>676</ele>
        <time>2017-02-28T14:40:05Z</time>
      </trkpt>
      <trkpt lat="44.12926" lon="3.24499">
        <ele>677</ele>
        <time>2017-02-28T14:42:05Z</time>
      </trkpt>
      <trkpt lat="44.12928" lon="3.24499">
        <ele>677</ele>
        <time>2017-02-28T14:44:05Z</time>
      </trkpt>
      <trkpt lat="44.12929" lon="3.24499">
        <ele>678</ele>
        <time>2017-02-28T14:46:05Z</time>
      </trkpt>
      <trkpt lat="44.12931" lon="3.24498">
        <ele>678</ele>
        <time>2017-02-28T14:48:05Z</time>
      </trkpt>
      <trkpt lat="44.12932" lon="3.24496">
        <ele>677</ele>
        <time>2017-02-28T14:50:05Z</time>
      </trkpt>
      <trkpt lat="44.12932" lon="3.24495">
        <ele>677</ele>
        <time>2017-02-28T14:52:05Z</time>
      </trkpt>
      <trkpt lat="44.1293" lon="3.24492">
        <ele>675</ele>
        <time>2017-02-28T14:54:05Z</time>
      </trkpt>
      <trkpt lat="44.12928" lon="3.2449">
        <ele>673</ele>
        <time>2017-02-28T14:56:05Z</time>
      </trkpt>
      <trkpt lat="44.12926" lon="3.24489">
        <ele>672</ele>
        <time>2017-02-28T14:58:05Z</time>
      </trkpt>
      <trkpt lat="44.12923" lon="3.24489">
        <ele>671</ele>
        <time>2017-02-28T15:00:05Z</time>
      </trkpt>
      <trkpt lat="44.12915" lon="3.24489">
        <ele>669</ele>
        <time>2017-02-28T15:02:05Z</time>
      </trkpt>
      <trkpt lat="44.129" lon="3.24491">
        <ele>665</ele>
        <time>2017-02-28T15:04:05Z</time>
      </trkpt>
      <trkpt lat="44.12891" lon="3.24493">
        <ele>663</ele>
        <time>2017-02-28T15:06:05Z</time>
      </trkpt>
      <trkpt lat="44.12886" lon="3.24496">
        <ele>663</ele>
        <time>2017-02-28T15:08:05Z</time>
      </trkpt>
      <trkpt lat="44.12882" lon="3.24496">
        <ele>662</ele>
        <time>2017-02-28T15:10:05Z</time>
      </trkpt>
      <trkpt lat="44.12879" lon="3.24496">
        <ele>661</ele>
        <time>2017-02-28T15:12:05Z</time>
      </trkpt>
      <trkpt lat="44.12876" lon="3.24495">
        <ele>660</ele>
        <time>2017-02-28T15:14:05Z</time>
      </trkpt>
      <trkpt lat="44.12873" lon="3.24492">
        <ele>658</ele>
        <time>2017-02-28T15:16:05Z</time>
      </trkpt>
      <trkpt lat="44.12871" lon="3.24487">
        <ele>655</ele>
        <time>2017-02-28T15:18:05Z</time>
      </trkpt>
      <trkpt lat="44.12871" lon="3.24487">
        <ele>655</ele>
        <time>2017-02-28T15:20:05Z</time>
      </trkpt>
      <trkpt lat="44.12874" lon="3.24484">
        <ele>655</ele>
        <time>2017-02-28T15:22:05Z</time>
      </trkpt>
      <trkpt lat="44.12877" lon="3.24482">
        <ele>655</ele>
        <time>2017-02-28T15:24:05Z</time>
      </trkpt>
      <trkpt lat="44.12878" lon="3.2448">
        <ele>655</ele>
        <time>2017-02-28T15:26:05Z</time>
      </trkpt>
      <trkpt lat="44.12881" lon="3.24478">
        <ele>655</ele>
        <time>2017-02-28T15:28:05Z</time>
      </trkpt>
      <trkpt lat="44.12885" lon="3.24477">
        <ele>655</ele>
        <time>2017-02-28T15:30:05Z</time>
      </trkpt>
      <trkpt lat="44.1289" lon="3.24474">
        <ele>656</ele>
        <time>2017-02-28T15:32:05Z</time>
      </trkpt>
      <trkpt lat="44.12893" lon="3.24473">
        <ele>656</ele>
        <time>2017-02-28T15:34:05Z</time>
      </trkpt>
      <trkpt lat="44.12896" lon="3.24471">
        <ele>656</ele>
        <time>2017-02-28T15:36:05Z</time>
      </trkpt>
      <trkpt lat="44.12897" lon="3.24471">
        <ele>656</ele>
        <time>2017-02-28T15:38:05Z</time>
      </trkpt>
      <trkpt lat="44.129" lon="3.2447">
        <ele>657</ele>
        <time>2017-02-28T15:40:05Z</time>
      </trkpt>
      <trkpt lat="44.12904" lon="3.2447">
        <ele>658</ele>
        <time>2017-02-28T15:42:05Z</time>
      </trkpt>
      <trkpt lat="44.12909" lon="3.2447">
        <ele>659</ele>
        <time>2017-02-28T15:44:05Z</time>
      </trkpt>
      <trkpt lat="44.12916" lon="3.24468">
        <ele>660</ele>
        <time>2017-02-28T15:46:05Z</time>
      </trkpt>
      <trkpt lat="44.12922" lon="3.24466">
        <ele>661</ele>
        <time>2017-02-28T15:48:05Z</time>
      </trkpt>
      <trkpt lat="44.12924" lon="3.24465">
        <ele>661</ele>
        <time>2017-02-28T15:50:05Z</time>
      </trkpt>
      <trkpt lat="44.12928" lon="3.24463">
        <ele>662</ele>
        <time>2017-02-28T15:52:05Z</time>
      </trkpt>
      <trkpt lat="44.12936" lon="3.2446">
        <ele>663</ele>
        <time>2017-02-28T15:54:05Z</time>
      </trkpt>
      <trkpt lat="44.12943" lon="3.24456">
        <ele>664</ele>
        <time>2017-02-28T15:56:05Z</time>
      </trkpt>
      <trkpt lat="44.12952" lon="3.24449">
        <ele>664</ele>
        <time>2017-02-28T15:58:05Z</time>
      </trkpt>
      <trkpt lat="44.1296" lon="3.24442">
        <ele>664</ele>
        <time>2017-02-28T16:00:05Z</time>
      </trkpt>
      <trkpt lat="44.12968" lon="3.24433">
        <ele>663</ele>
        <time>2017-02-28T16:02:05Z</time>
      </trkpt>
      <trkpt lat="44.12974" lon="3.24426">
        <ele>662</ele>
        <time>2017-02-28T16:04:05Z</time>
      </trkpt>
      <trkpt lat="44.12979" lon="3.24422">
        <ele>662</ele>
        <time>2017-02-28T16:06:05Z</time>
      </trkpt>
      <trkpt lat="44.12986" lon="3.24413">
        <ele>662</ele>
        <time>2017-02-28T16:08:05Z</time>
      </trkpt>
      <trkpt lat="44.12992" lon="3.24406">
        <ele>665</ele>
        <time>2017-02-28T16:10:05Z</time>
      </trkpt>
      <trkpt lat="44.12998" lon="3.24398">
        <ele>669</ele>
        <time>2017-02-28T16:12:05Z</time>
      </trkpt>
      <trkpt lat="44.13004" lon="3.24391">
        <ele>672</ele>
        <time>2017-02-28T16:14:05Z</time>
      </trkpt>
      <trkpt lat="44.13008" lon="3.24385">
        <ele>675</ele>
        <time>2017-02-28T16:16:05Z</time>
      </trkpt>
      <trkpt lat="44.13011" lon="3.2438">
        <ele>676</ele>
        <time>2017-02-28T16:18:05Z</time>
      </trkpt>
      <trkpt lat="44.13011" lon="3.24377">
        <ele>677</ele>
        <time>2017-02-28T16:20:05Z</time>
      </trkpt>
      <trkpt lat="44.13011" lon="3.24375">
        <ele>677</ele>
        <time>2017-02-28T16:22:05Z</time>
      </trkpt>
      <trkpt lat="44.1301" lon="3.24372">
        <ele>677</ele>
        <time>2017-02-28T16:24:05Z</time>
      </trkpt>
      <trkpt lat="44.13006" lon="3.24369">
        <ele>676</ele>
        <time>2017-02-28T16:26:05Z</time>
      </trkpt>
      <trkpt lat="44.12999" lon="3.24367">
        <ele>673</ele>
        <time>2017-02-28T16:28:05Z</time>
      </trkpt>
      <trkpt lat="44.12989" lon="3.24367">
        <ele>668</ele>
        <time>2017-02-28T16:30:05Z</time>
      </trkpt>
      <trkpt lat="44.12982" lon="3.24365">
        <ele>665</ele>
        <time>2017-02-28T16:32:05Z</time>
      </trkpt>
      <trkpt lat="44.12975" lon="3.24363">
        <ele>662</ele>
        <time>2017-02-28T16:34:05Z</time>
      </trkpt>
      <trkpt lat="44.12972" lon="3.24362">
        <ele>660</ele>
        <time>2017-02-28T16:36:05Z</time>
      </trkpt>
      <trkpt lat="44.12968" lon="3.24359">
        <ele>658</ele>
        <time>2017-02-28T16:38:05Z</time>
      </trkpt>
      <trkpt lat="44.12965" lon="3.24357">
        <ele>657</ele>
        <time>2017-02-28T16:40:05Z</time>
      </trkpt>
      <trkpt lat="44.12962" lon="3.24353">
        <ele>656</ele>
        <time>2017-02-28T16:42:05Z</time>
      </trkpt>
      <trkpt lat="44.12956" lon="3.24345">
        <ele>653</ele>
        <time>2017-02-28T16:44:05Z</time>
      </trkpt>
      <trkpt lat="44.12945" lon="3.24333">
        <ele>646</ele>
        <time>2017-02-28T16:46:05Z</time>
      </trkpt>
      <trkpt lat="44.12936" lon="3.2432">
        <ele>644</ele>
        <time>2017-02-28T16:48:05Z</time>
      </trkpt>
      <trkpt lat="44.12929" lon="3.24309">
        <ele>642</ele>
        <time>2017-02-28T16:50:05Z</time>
      </trkpt>
      <trkpt lat="44.12923" lon="3.24302">
        <ele>640</ele>
        <time>2017-02-28T16:52:05Z</time>
      </trkpt>
      <trkpt lat="44.12918" lon="3.24296">
        <ele>638</ele>
        <time>2017-02-28T16:54:05Z</time>
      </trkpt>
      <trkpt lat="44.12916" lon="3.24292">
        <ele>637</ele>
        <time>2017-02-28T16:56:05Z</time>
      </trkpt>
      <trkpt lat="44.12913" lon="3.24287">
        <ele>636</ele>
        <time>2017-02-28T16:58:05Z</time>
      </trkpt>
      <trkpt lat="44.1291" lon="3.24276">
        <ele>636</ele>
        <time>2017-02-28T17:00:05Z</time>
      </trkpt>
      <trkpt lat="44.12909" lon="3.24264">
        <ele>638</ele>
        <time>2017-02-28T17:02:05Z</time>
      </trkpt>
      <trkpt lat="44.12908" lon="3.24259">
        <ele>638</ele>
        <time>2017-02-28T17:04:05Z</time>
      </trkpt>
      <trkpt lat="44.12909" lon="3.2425">
        <ele>640</ele>
        <time>2017-02-28T17:06:05Z</time>
      </trkpt>
      <trkpt lat="44.1291" lon="3.24239">
        <ele>640</ele>
        <time>2017-02-28T17:08:05Z</time>
      </trkpt>
      <trkpt lat="44.12913" lon="3.2422">
        <ele>640</ele>
        <time>2017-02-28T17:10:05Z</time>
      </trkpt>
      <trkpt lat="44.12915" lon="3.242">
        <ele>639</ele>
        <time>2017-02-28T17:12:05Z</time>
      </trkpt>
      <trkpt lat="44.12919" lon="3.24179">
        <ele>640</ele>
        <time>2017-02-28T17:14:05Z</time>
      </trkpt>
      <trkpt lat="44.12921" lon="3.24163">
        <ele>640</ele>
        <time>2017-02-28T17:16:05Z</time>
      </trkpt>
      <trkpt lat="44.12923" lon="3.24156">
        <ele>643</ele>
        <time>2017-02-28T17:18:05Z</time>
      </trkpt>
      <trkpt lat="44.12923" lon="3.24148">
        <ele>645</ele>
        <time>2017-02-28T17:20:05Z</time>
      </trkpt>
      <trkpt lat="44.12924" lon="3.2414">
        <ele>647</ele>
        <time>2017-02-28T17:22:05Z</time>
      </trkpt>
      <trkpt lat="44.12925" lon="3.24133">
        <ele>649</ele>
        <time>2017-02-28T17:24:05Z</time>
      </trkpt>
      <trkpt lat="44.12927" lon="3.24123">
        <ele>652</ele>
        <time>2017-02-28T17:26:05Z</time>
      </trkpt>
      <trkpt lat="44.12929" lon="3.24116">
        <ele>654</ele>
        <time>2017-02-28T17:28:05Z</time>
      </trkpt>
      <trkpt lat="44.1293" lon="3.24114">
        <ele>655</ele>
        <time>2017-02-28T17:30:05Z</time>
      </trkpt>
      <trkpt lat="44.12934" lon="3.24108">
        <ele>657</ele>
        <time>2017-02-28T17:32:05Z</time>
      </trkpt>
      <trkpt lat="44.12937" lon="3.24105">
        <ele>659</ele>
        <time>2017-02-28T17:34:05Z</time>
      </trkpt>
      <trkpt lat="44.12939" lon="3.24102">
        <ele>660</ele>
        <time>2017-02-28T17:36:05Z</time>
      </trkpt>
      <trkpt lat="44.1294" lon="3.24099">
        <ele>660</ele>
        <time>2017-02-28T17:38:05Z</time>
      </trkpt>
      <trkpt lat="44.1294" lon="3.24094">
        <ele>661</ele>
        <time>2017-02-28T17:40:05Z</time>
      </trkpt>
      <trkpt lat="44.12939" lon="3.24091">
        <ele>661</ele>
        <time>2017-02-28T17:42:05Z</time>
      </trkpt>
      <trkpt lat="44.12936" lon="3.24088">
        <ele>661</ele>
        <time>2017-02-28T17:44:05Z</time>
      </trkpt>
      <trkpt lat="44.12932" lon="3.24086">
        <ele>660</ele>
        <time>2017-02-28T17:46:05Z</time>
      </trkpt>
      <trkpt lat="44.1293" lon="3.24086">
        <ele>660</ele>
        <time>2017-02-28T17:48:05Z</time>
      </trkpt>
      <trkpt lat="44.12928" lon="3.24084">
        <ele>660</ele>
        <time>2017-02-28T17:50:05Z</time>
      </trkpt>
      <trkpt lat="44.12925" lon="3.24081">
        <ele>660</ele>
        <time>2017-02-28T17:52:05Z</time>
      </trkpt>
      <trkpt lat="44.12922" lon="3.24079">
        <ele>660</ele>
        <time>2017-02-28T17:54:05Z</time>
      </trkpt>
      <trkpt lat="44.1292" lon="3.24077">
        <ele>661</ele>
        <time>2017-02-28T17:56:05Z</time>
      </trkpt>
      <trkpt lat="44.12917" lon="3.24074">
        <ele>661</ele>
        <time>2017-02-28T17:58:05Z</time>
      </trkpt>
      <trkpt lat="44.12915" lon="3.24071">
        <ele>662</ele>
        <time>2017-02-28T18:00:05Z</time>
      </trkpt>
      <trkpt lat="44.12912" lon="3.24066">
        <ele>665</ele>
        <time>2017-02-28T18:02:05Z</time>
      </trkpt>
      <trkpt lat="44.12911" lon="3.24064">
        <ele>666</ele>
        <time>2017-02-28T18:04:05Z</time>
      </trkpt>
      <trkpt lat="44.12908" lon="3.24063">
        <ele>666</ele>
        <time>2017-02-28T18:06:05Z</time>
      </trkpt>
      <trkpt lat="44.12905" lon="3.24062">
        <ele>667</ele>
        <time>2017-02-28T18:08:05Z</time>
      </trkpt>
      <trkpt lat="44.12903" lon="3.24062">
        <ele>667</ele>
        <time>2017-02-28T18:10:05Z</time>
      </trkpt>
      <trkpt lat="44.129" lon="3.24063">
        <ele>667</ele>
        <time>2017-02-28T18:12:05Z</time>
      </trkpt>
      <trkpt lat="44.12894" lon="3.24068">
        <ele>664</ele>
        <time>2017-02-28T18:14:05Z</time>
      </trkpt>
      <trkpt lat="44.12888" lon="3.24075">
        <ele>661</ele>
        <time>2017-02-28T18:16:05Z</time>
      </trkpt>
      <trkpt lat="44.12881" lon="3.24081">
        <ele>658</ele>
        <time>2017-02-28T18:18:05Z</time>
      </trkpt>
      <trkpt lat="44.12875" lon="3.24086">
        <ele>655</ele>
        <time>2017-02-28T18:20:05Z</time>
      </trkpt>
      <trkpt lat="44.12872" lon="3.2409">
        <ele>654</ele>
        <time>2017-02-28T18:22:05Z</time>
      </trkpt>
      <trkpt lat="44.12867" lon="3.24094">
        <ele>652</ele>
        <time>2017-02-28T18:24:05Z</time>
      </trkpt>
      <trkpt lat="44.12863" lon="3.24097">
        <ele>650</ele>
        <time>2017-02-28T18:26:05Z</time>
      </trkpt>
      <trkpt lat="44.12857" lon="3.24099">
        <ele>649</ele>
        <time>2017-02-28T18:28:05Z</time>
      </trkpt>
      <trkpt lat="44.12852" lon="3.24099">
        <ele>648</ele>
        <time>2017-02-28T18:30:05Z</time>
      </trkpt>
      <trkpt lat="44.12847" lon="3.241">
        <ele>647</ele>
        <time>2017-02-28T18:32:05Z</time>
      </trkpt>
      <trkpt lat="44.12842" lon="3.24101">
        <ele>646</ele>
        <time>2017-02-28T18:34:05Z</time>
      </trkpt>
      <trkpt lat="44.12833" lon="3.24104">
        <ele>644</ele>
        <time>2017-02-28T18:36:05Z</time>
      </trkpt>
      <trkpt lat="44.1282" lon="3.24111">
        <ele>641</ele>
        <time>2017-02-28T18:38:05Z</time>
      </trkpt>
      <trkpt lat="44.12798" lon="3.24121">
        <ele>638</ele>
        <time>2017-02-28T18:40:05Z</time>
      </trkpt>
      <trkpt lat="44.12796" lon="3.24123">
        <ele>637</ele>
        <time>2017-02-28T18:42:05Z</time>
      </trkpt>
      <trkpt lat="44.12796" lon="3.24123">
        <ele>637</ele>
        <time>2017-02-28T18:44:05Z</time>
      </trkpt>
      <trkpt lat="44.1279" lon="3.24126">
        <ele>636</ele>
        <time>2017-02-28T18:46:05Z</time>
      </trkpt>
      <trkpt lat="44.12786" lon="3.24129">
        <ele>635</ele>
        <time>2017-02-28T18:48:05Z</time>
      </trkpt>
      <trkpt lat="44.12781" lon="3.24136">
        <ele>632</ele>
        <time>2017-02-28T18:50:05Z</time>
      </trkpt>
      <trkpt lat="44.12772" lon="3.24147">
        <ele>627</ele>
        <time>2017-02-28T18:52:05Z</time>
      </trkpt>
      <trkpt lat="44.12763" lon="3.24158">
        <ele>623</ele>
        <time>2017-02-28T18:54:05Z</time>
      </trkpt>
      <trkpt lat="44.12754" lon="3.24167">
        <ele>619</ele>
        <time>2017-02-28T18:56:05Z</time>
      </trkpt>
      <trkpt lat="44.12752" lon="3.2417">
        <ele>618</ele>
        <time>2017-02-28T18:58:05Z</time>
      </trkpt>
      <trkpt lat="44.12748" lon="3.24174">
        <ele>616</ele>
        <time>2017-02-28T19:00:05Z</time>
      </trkpt>
      <trkpt lat="44.12745" lon="3.24176">
        <ele>615</ele>
        <time>2017-02-28T19:02:05Z</time>
      </trkpt>
      <trkpt lat="44.12743" lon="3.24176">
        <ele>615</ele>
        <time>2017-02-28T19:04:05Z</time>
      </trkpt>
      <trkpt lat="44.12733" lon="3.24175">
        <ele>614</ele>
        <time>2017-02-28T19:06:05Z</time>
      </trkpt>
      <trkpt lat="44.12725" lon="3.24173">
        <ele>614</ele>
        <time>2017-02-28T19:08:05Z</time>
      </trkpt>
      <trkpt lat="44.12716" lon="3.24171">
        <ele>614</ele>
        <time>2017-02-28T19:10:05Z</time>
      </trkpt>
      <trkpt lat="44.12703" lon="3.2417">
        <ele>612</ele>
        <time>2017-02-28T19:12:05Z</time>
      </trkpt>
      <trkpt lat="44.1269" lon="3.24169">
        <ele>611</ele>
        <time>2017-02-28T19:14:05Z</time>
      </trkpt>
      <trkpt lat="44.12675" lon="3.24166">
        <ele>610</ele>
        <time>2017-02-28T19:16:05Z</time>
      </trkpt>
      <trkpt lat="44.12668" lon="3.24162">
        <ele>611</ele>
        <time>2017-02-28T19:18:05Z</time>
      </trkpt>
      <trkpt lat="44.12661" lon="3.24161">
        <ele>609</ele>
        <time>2017-02-28T19:20:05Z</time>
      </trkpt>
      <trkpt lat="44.12657" lon="3.24159">
        <ele>608</ele>
        <time>2017-02-28T19:22:05Z</time>
      </trkpt>
      <trkpt lat="44.12652" lon="3.24156">
        <ele>607</ele>
        <time>2017-02-28T19:24:05Z</time>
      </trkpt>
      <trkpt lat="44.12649" lon="3.24152">
        <ele>607</ele>
        <time>2017-02-28T19:26:05Z</time>
      </trkpt>
      <trkpt lat="44.12646" lon="3.24145">
        <ele>608</ele>
        <time>2017-02-28T19:28:05Z</time>
      </trkpt>
      <trkpt lat="44.12644" lon="3.24128">
        <ele>614</ele>
        <time>2017-02-28T19:30:05Z</time>
      </trkpt>
      <trkpt lat="44.12644" lon="3.24121">
        <ele>616</ele>
        <time>2017-02-28T19:32:05Z</time>
      </trkpt>
      <trkpt lat="44.12645" lon="3.24114">
        <ele>619</ele>
        <time>2017-02-28T19:34:05Z</time>
      </trkpt>
      <trkpt lat="44.12646" lon="3.24108">
        <ele>621</ele>
        <time>2017-02-28T19:36:05Z</time>
      </trkpt>
      <trkpt lat="44.12647" lon="3.24101">
        <ele>624</ele>
        <time>2017-02-28T19:38:05Z</time>
      </trkpt>
      <trkpt lat="44.12646" lon="3.24096">
        <ele>625</ele>
        <time>2017-02-28T19:40:05Z</time>
      </trkpt>
      <trkpt lat="44.12646" lon="3.24091">
        <ele>627</ele>
        <time>2017-02-28T19:42:05Z</time>
      </trkpt>
      <trkpt lat="44.12645" lon="3.24088">
        <ele>628</ele>
        <time>2017-02-28T19:44:05Z</time>
      </trkpt>
      <trkpt lat="44.12643" lon="3.24086">
        <ele>628</ele>
        <time>2017-02-28T19:46:05Z</time>
      </trkpt>
      <trkpt lat="44.12641" lon="3.24084">
        <ele>628</ele>
        <time>2017-02-28T19:48:05Z</time>
      </trkpt>
      <trkpt lat="44.12634" lon="3.24081">
        <ele>627</ele>
        <time>2017-02-28T19:50:05Z</time>
      </trkpt>
      <trkpt lat="44.12623" lon="3.24078">
        <ele>626</ele>
        <time>2017-02-28T19:52:05Z</time>
      </trkpt>
      <trkpt lat="44.12612" lon="3.24075">
        <ele>624</ele>
        <time>2017-02-28T19:54:05Z</time>
      </trkpt>
      <trkpt lat="44.12609" lon="3.24074">
        <ele>624</ele>
        <time>2017-02-28T19:56:05Z</time>
      </trkpt>
      <trkpt lat="44.12605" lon="3.24074">
        <ele>623</ele>
        <time>2017-02-28T19:58:05Z</time>
      </trkpt>
      <trkpt lat="44.12603" lon="3.24075">
        <ele>622</ele>
        <time>2017-02-28T20:00:05Z</time>
      </trkpt>
      <trkpt lat="44.126" lon="3.24077">
        <ele>620</ele>
        <time>2017-02-28T20:02:05Z</time>
      </trkpt>
      <trkpt lat="44.12597" lon="3.24078">
        <ele>619</ele>
        <time>2017-02-28T20:04:05Z</time>
      </trkpt>
      <trkpt lat="44.12592" lon="3.24079">
        <ele>617</ele>
        <time>2017-02-28T20:06:05Z</time>
      </trkpt>
      <trkpt lat="44.12583" lon="3.24079">
        <ele>615</ele>
        <time>2017-02-28T20:08:05Z</time>
      </trkpt>
      <trkpt lat="44.12572" lon="3.24077">
        <ele>616</ele>
        <time>2017-02-28T20:10:05Z</time>
      </trkpt>
      <trkpt lat="44.12564" lon="3.24077">
        <ele>616</ele>
        <time>2017-02-28T20:12:05Z</time>
      </trkpt>
      <trkpt lat="44.12557" lon="3.24079">
        <ele>615</ele>
        <time>2017-02-28T20:14:05Z</time>
      </trkpt>
      <trkpt lat="44.12546" lon="3.24082">
        <ele>613</ele>
        <time>2017-02-28T20:16:05Z</time>
      </trkpt>
      <trkpt lat="44.12527" lon="3.24087">
        <ele>610</ele>
        <time>2017-02-28T20:18:05Z</time>
      </trkpt>
      <trkpt lat="44.12519" lon="3.24089">
        <ele>609</ele>
        <time>2017-02-28T20:20:05Z</time>
      </trkpt>
      <trkpt lat="44.12512" lon="3.24092">
        <ele>608</ele>
        <time>2017-02-28T20:22:05Z</time>
      </trkpt>
      <trkpt lat="44.12507" lon="3.24094">
        <ele>606</ele>
        <time>2017-02-28T20:24:05Z</time>
      </trkpt>
      <trkpt lat="44.12503" lon="3.24095">
        <ele>606</ele>
        <time>2017-02-28T20:26:05Z</time>
      </trkpt>
      <trkpt lat="44.12498" lon="3.24096">
        <ele>605</ele>
        <time>2017-02-28T20:28:05Z</time>
      </trkpt>
      <trkpt lat="44.12494" lon="3.24097">
        <ele>604</ele>
        <time>2017-02-28T20:30:05Z</time>
      </trkpt>
      <trkpt lat="44.12489" lon="3.24098">
        <ele>603</ele>
        <time>2017-02-28T20:32:05Z</time>
      </trkpt>
      <trkpt lat="44.12483" lon="3.24098">
        <ele>603</ele>
        <time>2017-02-28T20:34:05Z</time>
      </trkpt>
      <trkpt lat="44.12477" lon="3.24098">
        <ele>602</ele>
        <time>2017-02-28T20:36:05Z</time>
      </trkpt>
      <trkpt lat="44.1247" lon="3.24097">
        <ele>602</ele>
        <time>2017-02-28T20:38:05Z</time>
      </trkpt>
      <trkpt lat="44.12456" lon="3.24097">
        <ele>601</ele>
        <time>2017-02-28T20:40:05Z</time>
      </trkpt>
      <trkpt lat="44.12451" lon="3.24098">
        <ele>600</ele>
        <time>2017-02-28T20:42:05Z</time>
      </trkpt>
      <trkpt lat="44.12442" lon="3.24099">
        <ele>599</ele>
        <time>2017-02-28T20:44:05Z</time>
      </trkpt>
      <trkpt lat="44.12441" lon="3.24099">
        <ele>599</ele>
        <time>2017-02-28T20:46:05Z</time>
      </trkpt>
      <trkpt lat="44.12431" lon="3.24101">
        <ele>597</ele>
        <time>2017-02-28T20:48:05Z</time>
      </trkpt>
      <trkpt lat="44.12425" lon="3.24102">
        <ele>596</ele>
        <time>2017-02-28T20:50:05Z</time>
      </trkpt>
      <trkpt lat="44.12416" lon="3.24102">
        <ele>595</ele>
        <time>2017-02-28T20:52:05Z</time>
      </trkpt>
      <trkpt lat="44.12408" lon="3.24101">
        <ele>594</ele>
        <time>2017-02-28T20:54:05Z</time>
      </trkpt>
      <trkpt lat="44.12399" lon="3.24099">
        <ele>592</ele>
        <time>2017-02-28T20:56:05Z</time>
      </trkpt>
      <trkpt lat="44.12394" lon="3.24098">
        <ele>591</ele>
        <time>2017-02-28T20:58:05Z</time>
      </trkpt>
      <trkpt lat="44.1239" lon="3.24094">
        <ele>592</ele>
        <time>2017-02-28T21:00:05Z</time>
      </trkpt>
      <trkpt lat="44.12382" lon="3.24086">
        <ele>593</ele>
        <time>2017-02-28T21:02:05Z</time>
      </trkpt>
      <trkpt lat="44.12371" lon="3.24075">
        <ele>593</ele>
        <time>2017-02-28T21:04:05Z</time>
      </trkpt>
      <trkpt lat="44.12355" lon="3.24059">
        <ele>591</ele>
        <time>2017-02-28T21:06:05Z</time>
      </trkpt>
      <trkpt lat="44.12346" lon="3.2405">
        <ele>590</ele>
        <time>2017-02-28T21:08:05Z</time>
      </trkpt>
      <trkpt lat="44.1234" lon="3.24043">
        <ele>589</ele>
        <time>2017-02-28T21:10:05Z</time>
      </trkpt>
      <trkpt lat="44.12338" lon="3.24039">
        <ele>589</ele>
        <time>2017-02-28T21:12:05Z</time>
      </trkpt>
      <trkpt lat="44.12336" lon="3.24033">
        <ele>590</ele>
        <time>2017-02-28T21:14:05Z</time>
      </trkpt>
      <trkpt lat="44.12334" lon="3.24028">
        <ele>590</ele>
        <time>2017-02-28T21:16:05Z</time>
      </trkpt>
      <trkpt lat="44.12331" lon="3.2402">
        <ele>590</ele>
        <time>2017-02-28T21:18:05Z</time>
      </trkpt>
      <trkpt lat="44.12329" lon="3.24013">
        <ele>591</ele>
        <time>2017-02-28T21:20:05Z</time>
      </trkpt>
      <trkpt lat="44.12328" lon="3.24002">
        <ele>593</ele>
        <time>2017-02-28T21:22:05Z</time>
      </trkpt>
      <trkpt lat="44.12327" lon="3.23995">
        <ele>593</ele>
        <time>2017-02-28T21:24:05Z</time>
      </trkpt>
      <trkpt lat="44.12327" lon="3.23984">
        <ele>594</ele>
        <time>2017-02-28T21:26:05Z</time>
      </trkpt>
      <trkpt lat="44.12326" lon="3.23974">
        <ele>594</ele>
        <time>2017-02-28T21:28:05Z</time>
      </trkpt>
      <trkpt lat="44.12326" lon="3.23961">
        <ele>595</ele>
        <time>2017-02-28T21:30:05Z</time>
      </trkpt>
      <trkpt lat="44.12324" lon="3.23946">
        <ele>596</ele>
        <time>2017-02-28T21:32:05Z</time>
      </trkpt>
      <trkpt lat="44.12322" lon="3.23931">
        <ele>596</ele>
        <time>2017-02-28T21:34:05Z</time>
      </trkpt>
      <trkpt lat="44.12317" lon="3.239">
        <ele>595</ele>
        <time>2017-02-28T21:36:05Z</time>
      </trkpt>
      <trkpt lat="44.12316" lon="3.2389">
        <ele>594</ele>
        <time>2017-02-28T21:38:05Z</time>
      </trkpt>
      <trkpt lat="44.12314" lon="3.23873">
        <ele>593</ele>
        <time>2017-02-28T21:40:05Z</time>
      </trkpt>
      <trkpt lat="44.12314" lon="3.23868">
        <ele>593</ele>
        <time>2017-02-28T21:42:05Z</time>
      </trkpt>
      <trkpt lat="44.12314" lon="3.23862">
        <ele>593</ele>
        <time>2017-02-28T21:44:05Z</time>
      </trkpt>
      <trkpt lat="44.12313" lon="3.23856">
        <ele>593</ele>
        <time>2017-02-28T21:46:05Z</time>
      </trkpt>
      <trkpt lat="44.12312" lon="3.23849">
        <ele>592</ele>
        <time>2017-02-28T21:48:05Z</time>
      </trkpt>
      <trkpt lat="44.12311" lon="3.23844">
        <ele>592</ele>
        <time>2017-02-28T21:50:05Z</time>
      </trkpt>
      <trkpt lat="44.12311" lon="3.23831">
        <ele>591</ele>
        <time>2017-02-28T21:52:05Z</time>
      </trkpt>
      <trkpt lat="44.12313" lon="3.2382">
        <ele>592</ele>
        <time>2017-02-28T21:54:05Z</time>
      </trkpt>
      <trkpt lat="44.12314" lon="3.23808">
        <ele>591</ele>
        <time>2017-02-28T21:56:05Z</time>
      </trkpt>
      <trkpt lat="44.12315" lon="3.23799">
        <ele>591</ele>
        <time>2017-02-28T21:58:05Z</time>
      </trkpt>
      <trkpt lat="44.12316" lon="3.23792">
        <ele>592</ele>
        <time>2017-02-28T22:00:05Z</time>
      </trkpt>
      <trkpt lat="44.12318" lon="3.23787">
        <ele>592</ele>
        <time>2017-02-28T22:02:05Z</time>
      </trkpt>
      <trkpt lat="44.12319" lon="3.23783">
        <ele>592</ele>
        <time>2017-02-28T22:04:05Z</time>
      </trkpt>
      <trkpt lat="44.12319" lon="3.23781">
        <ele>592</ele>
        <time>2017-02-28T22:06:05Z</time>
      </trkpt>
      <trkpt lat="44.12317" lon="3.23773">
        <ele>591</ele>
        <time>2017-02-28T22:08:05Z</time>
      </trkpt>
      <trkpt lat="44.12315" lon="3.23764">
        <ele>590</ele>
        <time>2017-02-28T22:10:05Z</time>
      </trkpt>
      <trkpt lat="44.12313" lon="3.23754">
        <ele>589</ele>
        <time>2017-02-28T22:12:05Z</time>
      </trkpt>
      <trkpt lat="44.12311" lon="3.23747">
        <ele>588</ele>
        <time>2017-02-28T22:14:05Z</time>
      </trkpt>
      <trkpt lat="44.12308" lon="3.2374">
        <ele>587</ele>
        <time>2017-02-28T22:16:05Z</time>
      </trkpt>
      <trkpt lat="44.12306" lon="3.23732">
        <ele>586</ele>
        <time>2017-02-28T22:18:05Z</time>
      </trkpt>
      <trkpt lat="44.12305" lon="3.23722">
        <ele>585</ele>
        <time>2017-02-28T22:20:05Z</time>
      </trkpt>
      <trkpt lat="44.12303" lon="3.23713">
        <ele>584</ele>
        <time>2017-02-28T22:22:05Z</time>
      </trkpt>
      <trkpt lat="44.12299" lon="3.23704">
        <ele>582</ele>
        <time>2017-02-28T22:24:05Z</time>
      </trkpt>
      <trkpt lat="44.12298" lon="3.237">
        <ele>582</ele>
        <time>2017-02-28T22:26:05Z</time>
      </trkpt>
      <trkpt lat="44.12297" lon="3.23698">
        <ele>581</ele>
        <time>2017-02-28T22:28:05Z</time>
      </trkpt>
      <trkpt lat="44.12295" lon="3.23691">
        <ele>580</ele>
        <time>2017-02-28T22:30:05Z</time>
      </trkpt>
      <trkpt lat="44.12295" lon="3.23678">
        <ele>580</ele>
        <time>2017-02-28T22:32:05Z</time>
      </trkpt>
      <trkpt lat="44.12294" lon="3.23664">
        <ele>579</ele>
        <time>2017-02-28T22:34:05Z</time>
      </trkpt>
      <trkpt lat="44.12293" lon="3.23643">
        <ele>578</ele>
        <time>2017-02-28T22:36:05Z</time>
      </trkpt>
      <trkpt lat="44.12293" lon="3.23627">
        <ele>577</ele>
        <time>2017-02-28T22:38:05Z</time>
      </trkpt>
      <trkpt lat="44.12293" lon="3.23607">
        <ele>577</ele>
        <time>2017-02-28T22:40:05Z</time>
      </trkpt>
      <trkpt lat="44.12293" lon="3.2359">
        <ele>576</ele>
        <time>2017-02-28T22:42:05Z</time>
      </trkpt>
      <trkpt lat="44.12293" lon="3.23575">
        <ele>575</ele>
        <time>2017-02-28T22:44:05Z</time>
      </trkpt>
      <trkpt lat="44.12293" lon="3.23569">
        <ele>575</ele>
        <time>2017-02-28T22:46:05Z</time>
      </trkpt>
      <trkpt lat="44.12294" lon="3.23566">
        <ele>575</ele>
        <time>2017-02-28T22:48:05Z</time>
      </trkpt>
      <trkpt lat="44.12295" lon="3.23562">
        <ele>575</ele>
        <time>2017-02-28T22:50:05Z</time>
      </trkpt>
      <trkpt lat="44.12297" lon="3.23559">
        <ele>576</ele>
        <time>2017-02-28T22:52:05Z</time>
      </trkpt>
      <trkpt lat="44.12299" lon="3.23554">
        <ele>576</ele>
        <time>2017-02-28T22:54:05Z</time>
      </trkpt>
      <trkpt lat="44.123" lon="3.23551">
        <ele>576</ele>
        <time>2017-02-28T22:56:05Z</time>
      </trkpt>
      <trkpt lat="44.12302" lon="3.23543">
        <ele>576</ele>
        <time>2017-02-28T22:58:05Z</time>
      </trkpt>
      <trkpt lat="44.12307" lon="3.23522">
        <ele>576</ele>
        <time>2017-02-28T23:00:05Z</time>
      </trkpt>
      <trkpt lat="44.12312" lon="3.23505">
        <ele>576</ele>
        <time>2017-02-28T23:02:05Z</time>
      </trkpt>
      <trkpt lat="44.12318" lon="3.23476">
        <ele>576</ele>
        <time>2017-02-28T23:04:05Z</time>
      </trkpt>
      <trkpt lat="44.1232" lon="3.23464">
        <ele>576</ele>
        <time>2017-02-28T23:06:05Z</time>
      </trkpt>
      <trkpt lat="44.12321" lon="3.23456">
        <ele>575</ele>
        <time>2017-02-28T23:08:05Z</time>
      </trkpt>
      <trkpt lat="44.12323" lon="3.23446">
        <ele>575</ele>
        <time>2017-02-28T23:10:05Z</time>
      </trkpt>
      <trkpt lat="44.12324" lon="3.23438">
        <ele>575</ele>
        <time>2017-02-28T23:12:05Z</time>
      </trkpt>
      <trkpt lat="44.12324" lon="3.23425">
        <ele>574</ele>
        <time>2017-02-28T23:14:05Z</time>
      </trkpt>
      <trkpt lat="44.12324" lon="3.2342">
        <ele>574</ele>
        <time>2017-02-28T23:16:05Z</time>
      </trkpt>
      <trkpt lat="44.12324" lon="3.23415">
        <ele>574</ele>
        <time>2017-02-28T23:18:05Z</time>
      </trkpt>
      <trkpt lat="44.12328" lon="3.23394">
        <ele>574</ele>
        <time>2017-02-28T23:20:05Z</time>
      </trkpt>
      <trkpt lat="44.12332" lon="3.23376">
        <ele>575</ele>
        <time>2017-02-28T23:22:05Z</time>
      </trkpt>
      <trkpt lat="44.12336" lon="3.23365">
        <ele>575</ele>
        <time>2017-02-28T23:24:05Z</time>
      </trkpt>
      <trkpt lat="44.12338" lon="3.23359">
        <ele>576</ele>
        <time>2017-02-28T23:26:05Z</time>
      </trkpt>
      <trkpt lat="44.12342" lon="3.23351">
        <ele>576</ele>
        <time>2017-02-28T23:28:05Z</time>
      </trkpt>
      <trkpt lat="44.12345" lon="3.23344">
        <ele>576</ele>
        <time>2017-02-28T23:30:05Z</time>
      </trkpt>
      <trkpt lat="44.12356" lon="3.23329">
        <ele>576</ele>
        <time>2017-02-28T23:32:05Z</time>
      </trkpt>
      <trkpt lat="44.12362" lon="3.23319">
        <ele>574</ele>
        <time>2017-02-28T23:34:05Z</time>
      </trkpt>
      <trkpt lat="44.12367" lon="3.23311">
        <ele>573</ele>
        <time>2017-02-28T23:36:05Z</time>
      </trkpt>
      <trkpt lat="44.1237" lon="3.23305">
        <ele>571</ele>
        <time>2017-02-28T23:38:05Z</time>
      </trkpt>
      <trkpt lat="44.12372" lon="3.23299">
        <ele>570</ele>
        <time>2017-02-28T23:40:05Z</time>
      </trkpt>
      <trkpt lat="44.12375" lon="3.23293">
        <ele>569</ele>
        <time>2017-02-28T23:42:05Z</time>
      </trkpt>
      <trkpt lat="44.12376" lon="3.23289">
        <ele>568</ele>
        <time>2017-02-28T23:44:05Z</time>
      </trkpt>
      <trkpt lat="44.12379" lon="3.23285">
        <ele>567</ele>
        <time>2017-02-28T23:46:05Z</time>
      </trkpt>
      <trkpt lat="44.12382" lon="3.23283">
        <ele>566</ele>
        <time>2017-02-28T23:48:05Z</time>
      </trkpt>
      <trkpt lat="44.12388" lon="3.23277">
        <ele>565</ele>
        <time>2017-02-28T23:50:05Z</time>
      </trkpt>
      <trkpt lat="44.12391" lon="3.23272">
        <ele>564</ele>
        <time>2017-02-28T23:52:05Z</time>
      </trkpt>
      <trkpt lat="44.12395" lon="3.23265">
        <ele>562</ele>
        <time>2017-02-28T23:54:05Z</time>
      </trkpt>
      <trkpt lat="44.124" lon="3.23257">
        <ele>560</ele>
        <time>2017-02-28T23:56:05Z</time>
      </trkpt>
      <trkpt lat="44.12403" lon="3.23254">
        <ele>559</ele>
        <time>2017-02-28T23:58:05Z</time>
      </trkpt>
      <trkpt lat="44.12406" lon="3.23252">
        <ele>559</ele>
        <time>2017-03-01T00:00:05Z</time>
      </trkpt>
      <trkpt lat="44.1241" lon="3.23251">
        <ele>558</ele>
        <time>2017-03-01T00:02:05Z</time>
      </trkpt>
      <trkpt lat="44.12419" lon="3.23249">
        <ele>558</ele>
        <time>2017-03-01T00:04:05Z</time>
      </trkpt>
      <trkpt lat="44.12429" lon="3.23247">
        <ele>559</ele>
        <time>2017-03-01T00:06:05Z</time>
      </trkpt>
      <trkpt lat="44.12432" lon="3.23245">
        <ele>559</ele>
        <time>2017-03-01T00:08:05Z</time>
      </trkpt>
      <trkpt lat="44.12433" lon="3.23238">
        <ele>556</ele>
        <time>2017-03-01T00:10:05Z</time>
      </trkpt>
      <trkpt lat="44.12434" lon="3.23231">
        <ele>554</ele>
        <time>2017-03-01T00:12:05Z</time>
      </trkpt>
      <trkpt lat="44.12437" lon="3.23222">
        <ele>550</ele>
        <time>2017-03-01T00:14:05Z</time>
      </trkpt>
      <trkpt lat="44.12439" lon="3.23219">
        <ele>550</ele>
        <time>2017-03-01T00:16:05Z</time>
      </trkpt>
      <trkpt lat="44.12442" lon="3.23214">
        <ele>548</ele>
        <time>2017-03-01T00:18:05Z</time>
      </trkpt>
      <trkpt lat="44.12444" lon="3.23213">
        <ele>548</ele>
        <time>2017-03-01T00:20:05Z</time>
      </trkpt>
      <trkpt lat="44.12446" lon="3.23211">
        <ele>548</ele>
        <time>2017-03-01T00:22:05Z</time>
      </trkpt>
      <trkpt lat="44.12453" lon="3.23206">
        <ele>548</ele>
        <time>2017-03-01T00:24:05Z</time>
      </trkpt>
      <trkpt lat="44.12454" lon="3.23202">
        <ele>546</ele>
        <time>2017-03-01T00:26:05Z</time>
      </trkpt>
      <trkpt lat="44.12456" lon="3.23198">
        <ele>545</ele>
        <time>2017-03-01T00:28:05Z</time>
      </trkpt>
      <trkpt lat="44.12458" lon="3.23195">
        <ele>544</ele>
        <time>2017-03-01T00:30:05Z</time>
      </trkpt>
      <trkpt lat="44.12462" lon="3.23191">
        <ele>544</ele>
        <time>2017-03-01T00:32:05Z</time>
      </trkpt>
      <trkpt lat="44.12465" lon="3.2319">
        <ele>544</ele>
        <time>2017-03-01T00:34:05Z</time>
      </trkpt>
      <trkpt lat="44.12469" lon="3.2319">
        <ele>545</ele>
        <time>2017-03-01T00:36:05Z</time>
      </trkpt>
      <trkpt lat="44.12472" lon="3.23189">
        <ele>545</ele>
        <time>2017-03-01T00:38:05Z</time>
      </trkpt>
      <trkpt lat="44.12474" lon="3.23187">
        <ele>545</ele>
        <time>2017-03-01T00:40:05Z</time>
      </trkpt>
      <trkpt lat="44.12479" lon="3.2318">
        <ele>544</ele>
        <time>2017-03-01T00:42:05Z</time>
      </trkpt>
      <trkpt lat="44.12484" lon="3.23175">
        <ele>543</ele>
        <time>2017-03-01T00:44:05Z</time>
      </trkpt>
      <trkpt lat="44.12486" lon="3.23171">
        <ele>542</ele>
        <time>2017-03-01T00:46:05Z</time>
      </trkpt>
      <trkpt lat="44.1249" lon="3.23166">
        <ele>541</ele>
        <time>2017-03-01T00:48:05Z</time>
      </trkpt>
      <trkpt lat="44.12494" lon="3.23159">
        <ele>540</ele>
        <time>2017-03-01T00:50:05Z</time>
      </trkpt>
      <trkpt lat="44.12498" lon="3.23152">
        <ele>539</ele>
        <time>2017-03-01T00:52:05Z</time>
      </trkpt>
      <trkpt lat="44.12502" lon="3.23144">
        <ele>537</ele>
        <time>2017-03-01T00:54:05Z</time>
      </trkpt>
      <trkpt lat="44.12504" lon="3.23138">
        <ele>537</ele>
        <time>2017-03-01T00:56:05Z</time>
      </trkpt>
      <trkpt lat="44.12506" lon="3.23135">
        <ele>537</ele>
        <time>2017-03-01T00:58:05Z</time>
      </trkpt>
      <trkpt lat="44.12506" lon="3.23134">
        <ele>536</ele>
        <time>2017-03-01T01:00:05Z</time>
      </trkpt>
      <trkpt lat="44.12504" lon="3.23132">
        <ele>535</ele>
        <time>2017-03-01T01:02:05Z</time>
      </trkpt>
      <trkpt lat="44.12502" lon="3.23129">
        <ele>532</ele>
        <time>2017-03-01T01:04:05Z</time>
      </trkpt>
      <trkpt lat="44.12499" lon="3.23128">
        <ele>531</ele>
        <time>2017-03-01T01:06:05Z</time>
      </trkpt>
      <trkpt lat="44.12496" lon="3.23127">
        <ele>529</ele>
        <time>2017-03-01T01:08:05Z</time>
      </trkpt>
      <trkpt lat="44.12491" lon="3.23127">
        <ele>528</ele>
        <time>2017-03-01T01:10:05Z</time>
      </trkpt>
      <trkpt lat="44.12485" lon="3.23128">
        <ele>526</ele>
        <time>2017-03-01T01:12:05Z</time>
      </trkpt>
      <trkpt lat="44.12479" lon="3.23129">
        <ele>525</ele>
        <time>2017-03-01T01:14:05Z</time>
      </trkpt>
      <trkpt lat="44.12477" lon="3.23129">
        <ele>524</ele>
        <time>2017-03-01T01:16:05Z</time>
      </trkpt>
      <trkpt lat="44.12475" lon="3.23126">
        <ele>522</ele>
        <time>2017-03-01T01:18:05Z</time>
      </trkpt>
      <trkpt lat="44.12474" lon="3.23122">
        <ele>520</ele>
        <time>2017-03-01T01:20:05Z</time>
      </trkpt>
      <trkpt lat="44.12473" lon="3.23113">
        <ele>517</ele>
        <time>2017-03-01T01:22:05Z</time>
      </trkpt>
      <trkpt lat="44.12472" lon="3.2311">
        <ele>515</ele>
        <time>2017-03-01T01:24:05Z</time>
      </trkpt>
      <trkpt lat="44.12473" lon="3.23107">
        <ele>515</ele>
        <time>2017-03-01T01:26:05Z</time>
      </trkpt>
      <trkpt lat="44.12474" lon="3.23104">
        <ele>514</ele>
        <time>2017-03-01T01:28:05Z</time>
      </trkpt>
      <trkpt lat="44.12476" lon="3.23097">
        <ele>512</ele>
        <time>2017-03-01T01:30:05Z</time>
      </trkpt>
      <trkpt lat="44.12478" lon="3.23094">
        <ele>511</ele>
        <time>2017-03-01T01:32:05Z</time>
      </trkpt>
      <trkpt lat="44.12478" lon="3.2309">
        <ele>510</ele>
        <time>2017-03-01T01:34:05Z</time>
      </trkpt>
      <trkpt lat="44.12476" lon="3.23088">
        <ele>509</ele>
        <time>2017-03-01T01:36:05Z</time>
      </trkpt>
      <trkpt lat="44.12474" lon="3.23086">
        <ele>507</ele>
        <time>2017-03-01T01:38:05Z</time>
      </trkpt>
      <trkpt lat="44.1247" lon="3.23086">
        <ele>505</ele>
        <time>2017-03-01T01:40:05Z</time>
      </trkpt>
      <trkpt lat="44.12468" lon="3.23086">
        <ele>505</ele>
        <time>2017-03-01T01:42:05Z</time>
      </trkpt>
      <trkpt lat="44.12463" lon="3.23087">
        <ele>503</ele>
        <time>2017-03-01T01:44:05Z</time>
      </trkpt>
      <trkpt lat="44.12458" lon="3.23087">
        <ele>501</ele>
        <time>2017-03-01T01:46:05Z</time>
      </trkpt>
      <trkpt lat="44.12454" lon="3.23086">
        <ele>499</ele>
        <time>2017-03-01T01:48:05Z</time>
      </trkpt>
      <trkpt lat="44.12454" lon="3.23084">
        <ele>499</ele>
        <time>2017-03-01T01:50:05Z</time>
      </trkpt>
      <trkpt lat="44.12453" lon="3.23082">
        <ele>497</ele>
        <time>2017-03-01T01:52:05Z</time>
      </trkpt>
      <trkpt lat="44.12453" lon="3.23079">
        <ele>496</ele>
        <time>2017-03-01T01:54:05Z</time>
      </trkpt>
      <trkpt lat="44.12453" lon="3.23075">
        <ele>495</ele>
        <time>2017-03-01T01:56:05Z</time>
      </trkpt>
      <trkpt lat="44.12453" lon="3.2307">
        <ele>493</ele>
        <time>2017-03-01T01:58:05Z</time>
      </trkpt>
      <trkpt lat="44.12454" lon="3.23064">
        <ele>491</ele>
        <time>2017-03-01T02:00:05Z</time>
      </trkpt>
      <trkpt lat="44.12456" lon="3.23057">
        <ele>489</ele>
        <time>2017-03-01T02:02:05Z</time>
      </trkpt>
      <trkpt lat="44.12457" lon="3.23053">
        <ele>488</ele>
        <time>2017-03-01T02:04:05Z</time>
      </trkpt>
      <trkpt lat="44.12458" lon="3.23049">
        <ele>487</ele>
        <time>2017-03-01T02:06:05Z</time>
      </trkpt>
      <trkpt lat="44.12462" lon="3.23043">
        <ele>486</ele>
        <time>2017-03-01T02:08:05Z</time>
      </trkpt>
      <trkpt lat="44.12464" lon="3.23039">
        <ele>485</ele>
        <time>2017-03-01T02:10:05Z</time>
      </trkpt>
      <trkpt lat="44.12466" lon="3.23034">
        <ele>484</ele>
        <time>2017-03-01T02:12:05Z</time>
      </trkpt>
      <trkpt lat="44.12467" lon="3.2303">
        <ele>483</ele>
        <time>2017-03-01T02:14:05Z</time>
      </trkpt>
      <trkpt lat="44.12468" lon="3.23028">
        <ele>482</ele>
        <time>2017-03-01T02:16:05Z</time>
      </trkpt>
      <trkpt lat="44.12469" lon="3.23024">
        <ele>481</ele>
        <time>2017-03-01T02:18:05Z</time>
      </trkpt>
      <trkpt lat="44.12473" lon="3.23019">
        <ele>480</ele>
        <time>2017-03-01T02:20:05Z</time>
      </trkpt>
      <trkpt lat="44.12479" lon="3.23014">
        <ele>480</ele>
        <time>2017-03-01T02:22:05Z</time>
      </trkpt>
      <trkpt lat="44.12487" lon="3.23006">
        <ele>480</ele>
        <time>2017-03-01T02:24:05Z</time>
      </trkpt>
      <trkpt lat="44.12496" lon="3.22998">
        <ele>480</ele>
        <time>2017-03-01T02:26:05Z</time>
      </trkpt>
      <trkpt lat="44.12501" lon="3.22994">
        <ele>481</ele>
        <time>2017-03-01T02:28:05Z</time>
      </trkpt>
      <trkpt lat="44.12504" lon="3.22991">
        <ele>481</ele>
        <time>2017-03-01T02:30:05Z</time>
      </trkpt>
      <trkpt lat="44.12507" lon="3.22988">
        <ele>482</ele>
        <time>2017-03-01T02:32:05Z</time>
      </trkpt>
      <trkpt lat="44.12509" lon="3.22984">
        <ele>482</ele>
        <time>2017-03-01T02:34:05Z</time>
      </trkpt>
      <trkpt lat="44.12509" lon="3.2298">
        <ele>480</ele>
        <time>2017-03-01T02:36:05Z</time>
      </trkpt>
      <trkpt lat="44.12509" lon="3.22978">
        <ele>480</ele>
        <time>2017-03-01T02:38:05Z</time>
      </trkpt>
      <trkpt lat="44.12507" lon="3.22975">
        <ele>478</ele>
        <time>2017-03-01T02:40:05Z</time>
      </trkpt>
      <trkpt lat="44.12502" lon="3.22973">
        <ele>475</ele>
        <time>2017-03-01T02:42:05Z</time>
      </trkpt>
      <trkpt lat="44.12497" lon="3.22971">
        <ele>472</ele>
        <time>2017-03-01T02:44:05Z</time>
      </trkpt>
      <trkpt lat="44.12491" lon="3.2297">
        <ele>470</ele>
        <time>2017-03-01T02:46:05Z</time>
      </trkpt>
      <trkpt lat="44.12484" lon="3.22968">
        <ele>467</ele>
        <time>2017-03-01T02:48:05Z</time>
      </trkpt>
      <trkpt lat="44.12476" lon="3.22967">
        <ele>463</ele>
        <time>2017-03-01T02:50:05Z</time>
      </trkpt>
      <trkpt lat="44.12474" lon="3.22965">
        <ele>462</ele>
        <time>2017-03-01T02:52:05Z</time>
      </trkpt>
      <trkpt lat="44.12474" lon="3.22964">
        <ele>462</ele>
        <time>2017-03-01T02:54:05Z</time>
      </trkpt>
      <trkpt lat="44.12474" lon="3.22961">
        <ele>461</ele>
        <time>2017-03-01T02:56:05Z</time>
      </trkpt>
      <trkpt lat="44.12476" lon="3.22958">
        <ele>460</ele>
        <time>2017-03-01T02:58:05Z</time>
      </trkpt>
      <trkpt lat="44.1248" lon="3.22952">
        <ele>460</ele>
        <time>2017-03-01T03:00:05Z</time>
      </trkpt>
      <trkpt lat="44.12486" lon="3.22942">
        <ele>459</ele>
        <time>2017-03-01T03:02:05Z</time>
      </trkpt>
      <trkpt lat="44.12491" lon="3.22934">
        <ele>459</ele>
        <time>2017-03-01T03:04:05Z</time>
      </trkpt>
      <trkpt lat="44.12493" lon="3.22928">
        <ele>458</ele>
        <time>2017-03-01T03:06:05Z</time>
      </trkpt>
      <trkpt lat="44.12493" lon="3.22922">
        <ele>456</ele>
        <time>2017-03-01T03:08:05Z</time>
      </trkpt>
      <trkpt lat="44.12494" lon="3.22915">
        <ele>454</ele>
        <time>2017-03-01T03:10:05Z</time>
      </trkpt>
      <trkpt lat="44.12495" lon="3.22906">
        <ele>451</ele>
        <time>2017-03-01T03:12:05Z</time>
      </trkpt>
      <trkpt lat="44.12496" lon="3.22894">
        <ele>448</ele>
        <time>2017-03-01T03:14:05Z</time>
      </trkpt>
      <trkpt lat="44.12498" lon="3.22886">
        <ele>446</ele>
        <time>2017-03-01T03:16:05Z</time>
      </trkpt>
      <trkpt lat="44.12498" lon="3.2288">
        <ele>444</ele>
        <time>2017-03-01T03:18:05Z</time>
      </trkpt>
      <trkpt lat="44.12496" lon="3.22877">
        <ele>442</ele>
        <time>2017-03-01T03:20:05Z</time>
      </trkpt>
      <trkpt lat="44.12494" lon="3.22876">
        <ele>441</ele>
        <time>2017-03-01T03:22:05Z</time>
      </trkpt>
      <trkpt lat="44.12491" lon="3.22877">
        <ele>441</ele>
        <time>2017-03-01T03:24:05Z</time>
      </trkpt>
      <trkpt lat="44.12486" lon="3.2288">
        <ele>440</ele>
        <time>2017-03-01T03:26:05Z</time>
      </trkpt>
      <trkpt lat="44.12478" lon="3.22886">
        <ele>439</ele>
        <time>2017-03-01T03:28:05Z</time>
      </trkpt>
      <trkpt lat="44.12469" lon="3.22893">
        <ele>438</ele>
        <time>2017-03-01T03:30:05Z</time>
      </trkpt>
      <trkpt lat="44.12459" lon="3.229">
        <ele>436</ele>
        <time>2017-03-01T03:32:05Z</time>
      </trkpt>
      <trkpt lat="44.12449" lon="3.22906">
        <ele>433</ele>
        <time>2017-03-01T03:34:05Z</time>
      </trkpt>
      <trkpt lat="44.12448" lon="3.22907">
        <ele>433</ele>
        <time>2017-03-01T03:36:05Z</time>
      </trkpt>
      <trkpt lat="44.12447" lon="3.22907">
        <ele>433</ele>
        <time>2017-03-01T03:38:05Z</time>
      </trkpt>
      <trkpt lat="44.12446" lon="3.22906">
        <ele>432</ele>
        <time>2017-03-01T03:40:05Z</time>
      </trkpt>
      <trkpt lat="44.12446" lon="3.22904">
        <ele>431</ele>
        <time>2017-03-01T03:42:05Z</time>
      </trkpt>
      <trkpt lat="44.12447" lon="3.22902">
        <ele>431</ele>
        <time>2017-03-01T03:44:05Z</time>
      </trkpt>
      <trkpt lat="44.1245" lon="3.22897">
        <ele>431</ele>
        <time>2017-03-01T03:46:05Z</time>
      </trkpt>
      <trkpt lat="44.12456" lon="3.22891">
        <ele>432</ele>
        <time>2017-03-01T03:48:05Z</time>
      </trkpt>
      <trkpt lat="44.1246" lon="3.22889">
        <ele>433</ele>
        <time>2017-03-01T03:50:05Z</time>
      </trkpt>
      <trkpt lat="44.12463" lon="3.22885">
        <ele>433</ele>
        <time>2017-03-01T03:52:05Z</time>
      </trkpt>
      <trkpt lat="44.12466" lon="3.22879">
        <ele>433</ele>
        <time>2017-03-01T03:54:05Z</time>
      </trkpt>
      <trkpt lat="44.12476" lon="3.22864">
        <ele>432</ele>
        <time>2017-03-01T03:56:05Z</time>
      </trkpt>
      <trkpt lat="44.12484" lon="3.22852">
        <ele>431</ele>
        <time>2017-03-01T03:58:05Z</time>
      </trkpt>
      <trkpt lat="44.12488" lon="3.22844">
        <ele>429</ele>
        <time>2017-03-01T04:00:05Z</time>
      </trkpt>
      <trkpt lat="44.12492" lon="3.22839">
        <ele>429</ele>
        <time>2017-03-01T04:02:05Z</time>
      </trkpt>
      <trkpt lat="44.12493" lon="3.2284">
        <ele>429</ele>
        <time>2017-03-01T04:04:05Z</time>
      </trkpt>
      <trkpt lat="44.12497" lon="3.22838">
        <ele>430</ele>
        <time>2017-03-01T04:06:05Z</time>
      </trkpt>
      <trkpt lat="44.12498" lon="3.22837">
        <ele>430</ele>
        <time>2017-03-01T04:08:05Z</time>
      </trkpt>
      <trkpt lat="44.12499" lon="3.22836">
        <ele>430</ele>
        <time>2017-03-01T04:10:05Z</time>
      </trkpt>
      <trkpt lat="44.12501" lon="3.22833">
        <ele>429</ele>
        <time>2017-03-01T04:12:05Z</time>
      </trkpt>
      <trkpt lat="44.12501" lon="3.22832">
        <ele>429</ele>
        <time>2017-03-01T04:14:05Z</time>
      </trkpt>
      <trkpt lat="44.12502" lon="3.22827">
        <ele>429</ele>
        <time>2017-03-01T04:16:05Z</time>
      </trkpt>
      <trkpt lat="44.12502" lon="3.22824">
        <ele>428</ele>
        <time>2017-03-01T04:18:05Z</time>
      </trkpt>
      <trkpt lat="44.12501" lon="3.2282">
        <ele>427</ele>
        <time>2017-03-01T04:20:05Z</time>
      </trkpt>
      <trkpt lat="44.12501" lon="3.22817">
        <ele>426</ele>
        <time>2017-03-01T04:22:05Z</time>
      </trkpt>
      <trkpt lat="44.12501" lon="3.22815">
        <ele>426</ele>
        <time>2017-03-01T04:24:05Z</time>
      </trkpt>
      <trkpt lat="44.125" lon="3.22814">
        <ele>425</ele>
        <time>2017-03-01T04:26:05Z</time>
      </trkpt>
      <trkpt lat="44.12496" lon="3.22811">
        <ele>423</ele>
        <time>2017-03-01T04:28:05Z</time>
      </trkpt>
      <trkpt lat="44.12496" lon="3.22811">
        <ele>423</ele>
        <time>2017-03-01T04:30:05Z</time>
      </trkpt>
      <trkpt lat="44.12497" lon="3.22807">
        <ele>423</ele>
        <time>2017-03-01T04:32:05Z</time>
      </trkpt>
      <trkpt lat="44.12498" lon="3.22802">
        <ele>422</ele>
        <time>2017-03-01T04:34:05Z</time>
      </trkpt>
      <trkpt lat="44.12499" lon="3.22795">
        <ele>421</ele>
        <time>2017-03-01T04:36:05Z</time>
      </trkpt>
      <trkpt lat="44.12501" lon="3.22785">
        <ele>419</ele>
        <time>2017-03-01T04:38:05Z</time>
      </trkpt>
      <trkpt lat="44.12502" lon="3.22781">
        <ele>419</ele>
        <time>2017-03-01T04:40:05Z</time>
      </trkpt>
      <trkpt lat="44.12508" lon="3.22759">
        <ele>416</ele>
        <time>2017-03-01T04:42:05Z</time>
      </trkpt>
      <trkpt lat="44.12516" lon="3.22729">
        <ele>416</ele>
        <time>2017-03-01T04:44:05Z</time>
      </trkpt>
      <trkpt lat="44.12522" lon="3.22703">
        <ele>416</ele>
        <time>2017-03-01T04:46:05Z</time>
      </trkpt>
      <trkpt lat="44.12522" lon="3.22699">
        <ele>416</ele>
        <time>2017-03-01T04:48:05Z</time>
      </trkpt>
      <trkpt lat="44.12521" lon="3.22695">
        <ele>415</ele>
        <time>2017-03-01T04:50:05Z</time>
      </trkpt>
      <trkpt lat="44.1252" lon="3.22692">
        <ele>414</ele>
        <time>2017-03-01T04:52:05Z</time>
      </trkpt>
      <trkpt lat="44.12518" lon="3.22689">
        <ele>414</ele>
        <time>2017-03-01T04:54:05Z</time>
      </trkpt>
      <trkpt lat="44.12518" lon="3.22689">
        <ele>414</ele>
        <time>2017-03-01T04:56:05Z</time>
      </trkpt>
      <trkpt lat="44.12519" lon="3.22683">
        <ele>413</ele>
        <time>2017-03-01T04:58:05Z</time>
      </trkpt>
      <trkpt lat="44.1252" lon="3.22675">
        <ele>413</ele>
        <time>2017-03-01T05:00:05Z</time>
      </trkpt>
      <trkpt lat="44.12521" lon="3.22666">
        <ele>413</ele>
        <time>2017-03-01T05:02:05Z</time>
      </trkpt>
      <trkpt lat="44.12521" lon="3.22657">
        <ele>413</ele>
        <time>2017-03-01T05:04:05Z</time>
      </trkpt>
      <trkpt lat="44.12521" lon="3.22652">
        <ele>413</ele>
        <time>2017-03-01T05:06:05Z</time>
      </trkpt>
      <trkpt lat="44.12521" lon="3.22635">
        <ele>414</ele>
        <time>2017-03-01T05:08:05Z</time>
      </trkpt>
      <trkpt lat="44.1252" lon="3.2262">
        <ele>414</ele>
        <time>2017-03-01T05:10:05Z</time>
      </trkpt>
      <trkpt lat="44.1252" lon="3.226">
        <ele>414</ele>
        <time>2017-03-01T05:12:05Z</time>
      </trkpt>
      <trkpt lat="44.12517" lon="3.22542">
        <ele>413</ele>
        <time>2017-03-01T05:14:05Z</time>
      </trkpt>
      <trkpt lat="44.12515" lon="3.22504">
        <ele>412</ele>
        <time>2017-03-01T05:16:05Z</time>
      </trkpt>
      <trkpt lat="44.12515" lon="3.22489">
        <ele>413</ele>
        <time>2017-03-01T05:18:05Z</time>
      </trkpt>
      <trkpt lat="44.12514" lon="3.22479">
        <ele>413</ele>
        <time>2017-03-01T05:20:05Z</time>
      </trkpt>
      <trkpt lat="44.12513" lon="3.22464">
        <ele>413</ele>
        <time>2017-03-01T05:22:05Z</time>
      </trkpt>
      <trkpt lat="44.12512" lon="3.22445">
        <ele>414</ele>
        <time>2017-03-01T05:24:05Z</time>
      </trkpt>
      <trkpt lat="44.12512" lon="3.22438">
        <ele>414</ele>
        <time>2017-03-01T05:26:05Z</time>
      </trkpt>
      <trkpt lat="44.1251" lon="3.22429">
        <ele>414</ele>
        <time>2017-03-01T05:28:05Z</time>
      </trkpt>
      <trkpt lat="44.12509" lon="3.22423">
        <ele>414</ele>
        <time>2017-03-01T05:30:05Z</time>
      </trkpt>
      <trkpt lat="44.12508" lon="3.22418">
        <ele>413</ele>
        <time>2017-03-01T05:32:05Z</time>
      </trkpt>
      <trkpt lat="44.12506" lon="3.2241">
        <ele>413</ele>
        <time>2017-03-01T05:34:05Z</time>
      </trkpt>
      <trkpt lat="44.12504" lon="3.22403">
        <ele>412</ele>
        <time>2017-03-01T05:36:05Z</time>
      </trkpt>
      <trkpt lat="44.12501" lon="3.22395">
        <ele>411</ele>
        <time>2017-03-01T05:38:05Z</time>
      </trkpt>
      <trkpt lat="44.12497" lon="3.22385">
        <ele>411</ele>
        <time>2017-03-01T05:40:05Z</time>
      </trkpt>
      <trkpt lat="44.12492" lon="3.22374">
        <ele>411</ele>
        <time>2017-03-01T05:42:05Z</time>
      </trkpt>
      <trkpt lat="44.12488" lon="3.22368">
        <ele>411</ele>
        <time>2017-03-01T05:44:05Z</time>
      </trkpt>
      <trkpt lat="44.12482" lon="3.22359">
        <ele>411</ele>
        <time>2017-03-01T05:46:05Z</time>
      </trkpt>
      <trkpt lat="44.12476" lon="3.2235">
        <ele>410</ele>
        <time>2017-03-01T05:48:05Z</time>
      </trkpt>
      <trkpt lat="44.12469" lon="3.22339">
        <ele>410</ele>
        <time>2017-03-01T05:50:05Z</time>
      </trkpt>
      <trkpt lat="44.12462" lon="3.2233">
        <ele>410</ele>
        <time>2017-03-01T05:52:05Z</time>
      </trkpt>
      <trkpt lat="44.12454" lon="3.22318">
        <ele>409</ele>
        <time>2017-03-01T05:54:05Z</time>
      </trkpt>
      <trkpt lat="44.12452" lon="3.22314">
        <ele>409</ele>
        <time>2017-03-01T05:56:05Z</time>
      </trkpt>
      <trkpt lat="44.12449" lon="3.22309">
        <ele>409</ele>
        <time>2017-03-01T05:58:05Z</time>
      </trkpt>
      <trkpt lat="44.12447" lon="3.22304">
        <ele>409</ele>
        <time>2017-03-01T06:00:05Z</time>
      </trkpt>
      <trkpt lat="44.12445" lon="3.22299">
        <ele>409</ele>
        <time>2017-03-01T06:02:05Z</time>
      </trkpt>
      <trkpt lat="44.12444" lon="3.22295">
        <ele>409</ele>
        <time>2017-03-01T06:04:05Z</time>
      </trkpt>
      <trkpt lat="44.12443" lon="3.22291">
        <ele>409</ele>
        <time>2017-03-01T06:06:05Z</time>
      </trkpt>
      <trkpt lat="44.12442" lon="3.22289">
        <ele>409</ele>
        <time>2017-03-01T06:08:05Z</time>
      </trkpt>
      <trkpt lat="44.12439" lon="3.22281">
        <ele>409</ele>
        <time>2017-03-01T06:10:05Z</time>
      </trkpt>
      <trkpt lat="44.12438" lon="3.22279">
        <ele>409</ele>
        <time>2017-03-01T06:12:05Z</time>
      </trkpt>
      <trkpt lat="44.12437" lon="3.22277">
        <ele>409</ele>
        <time>2017-03-01T06:14:05Z</time>
      </trkpt>
      <trkpt lat="44.12435" lon="3.22273">
        <ele>409</ele>
        <time>2017-03-01T06:16:05Z</time>
      </trkpt>
      <trkpt lat="44.12433" lon="3.2227">
        <ele>409</ele>
        <time>2017-03-01T06:18:05Z</time>
      </trkpt>
      <trkpt lat="44.12429" lon="3.22267">
        <ele>408</ele>
        <time>2017-03-01T06:20:05Z</time>
      </trkpt>
      <trkpt lat="44.12426" lon="3.22265">
        <ele>408</ele>
        <time>2017-03-01T06:22:05Z</time>
      </trkpt>
      <trkpt lat="44.12421" lon="3.22264">
        <ele>408</ele>
        <time>2017-03-01T06:24:05Z</time>
      </trkpt>
      <trkpt lat="44.12417" lon="3.22263">
        <ele>407</ele>
        <time>2017-03-01T06:26:05Z</time>
      </trkpt>
      <trkpt lat="44.12412" lon="3.22262">
        <ele>407</ele>
        <time>2017-03-01T06:28:05Z</time>
      </trkpt>
      <trkpt lat="44.12405" lon="3.22261">
        <ele>407</ele>
        <time>2017-03-01T06:30:05Z</time>
      </trkpt>
      <trkpt lat="44.12394" lon="3.22258">
        <ele>406</ele>
        <time>2017-03-01T06:32:05Z</time>
      </trkpt>
      <trkpt lat="44.12387" lon="3.22256">
        <ele>406</ele>
        <time>2017-03-01T06:34:05Z</time>
      </trkpt>
      <trkpt lat="44.12376" lon="3.22251">
        <ele>405</ele>
        <time>2017-03-01T06:36:05Z</time>
      </trkpt>
      <trkpt lat="44.12371" lon="3.22247">
        <ele>404</ele>
        <time>2017-03-01T06:38:05Z</time>
      </trkpt>
      <trkpt lat="44.12366" lon="3.22243">
        <ele>404</ele>
        <time>2017-03-01T06:40:05Z</time>
      </trkpt>
      <trkpt lat="44.12361" lon="3.22236">
        <ele>404</ele>
        <time>2017-03-01T06:42:05Z</time>
      </trkpt>
      <trkpt lat="44.12355" lon="3.22226">
        <ele>404</ele>
        <time>2017-03-01T06:44:05Z</time>
      </trkpt>
      <trkpt lat="44.12353" lon="3.22221">
        <ele>404</ele>
        <time>2017-03-01T06:46:05Z</time>
      </trkpt>
      <trkpt lat="44.1235" lon="3.22216">
        <ele>404</ele>
        <time>2017-03-01T06:48:05Z</time>
      </trkpt>
      <trkpt lat="44.12346" lon="3.22206">
        <ele>404</ele>
        <time>2017-03-01T06:50:05Z</time>
      </trkpt>
      <trkpt lat="44.12343" lon="3.22195">
        <ele>404</ele>
        <time>2017-03-01T06:52:05Z</time>
      </trkpt>
      <trkpt lat="44.12336" lon="3.22179">
        <ele>404</ele>
        <time>2017-03-01T06:54:05Z</time>
      </trkpt>
      <trkpt lat="44.12331" lon="3.22166">
        <ele>404</ele>
        <time>2017-03-01T06:56:05Z</time>
      </trkpt>
      <trkpt lat="44.12331" lon="3.22166">
        <ele>404</ele>
        <time>2017-03-01T06:58:05Z</time>
      </trkpt>
      <trkpt lat="44.12326" lon="3.22169">
        <ele>405</ele>
        <time>2017-03-01T07:00:05Z</time>
      </trkpt>
      <trkpt lat="44.12324" lon="3.22169">
        <ele>405</ele>
        <time>2017-03-01T07:02:05Z</time>
      </trkpt>
      <trkpt lat="44.12323" lon="3.2217">
        <ele>406</ele>
        <time>2017-03-01T07:04:05Z</time>
      </trkpt>
      <trkpt lat="44.12317" lon="3.22171">
        <ele>407</ele>
        <time>2017-03-01T07:06:05Z</time>
      </trkpt>
      <trkpt lat="44.12307" lon="3.22171">
        <ele>408</ele>
        <time>2017-03-01T07:08:05Z</time>
      </trkpt>
      <trkpt lat="44.12299" lon="3.22171">
        <ele>410</ele>
        <time>2017-03-01T07:10:05Z</time>
      </trkpt>
      <trkpt lat="44.1228" lon="3.22171">
        <ele>413</ele>
        <time>2017-03-01T07:12:05Z</time>
      </trkpt>
      <trkpt lat="44.12265" lon="3.22171">
        <ele>415</ele>
        <time>2017-03-01T07:14:05Z</time>
      </trkpt>
      <trkpt lat="44.12259" lon="3.22171">
        <ele>416</ele>
        <time>2017-03-01T07:16:05Z</time>
      </trkpt>
      <trkpt lat="44.12257" lon="3.22171">
        <ele>417</ele>
        <time>2017-03-01T07:18:05Z</time>
      </trkpt>
      <trkpt lat="44.12254" lon="3.2217">
        <ele>417</ele>
        <time>2017-03-01T07:20:05Z</time>
      </trkpt>
      <trkpt lat="44.12252" lon="3.22168">
        <ele>417</ele>
        <time>2017-03-01T07:22:05Z</time>
      </trkpt>
      <trkpt lat="44.12249" lon="3.22166">
        <ele>418</ele>
        <time>2017-03-01T07:24:05Z</time>
      </trkpt>
      <trkpt lat="44.12248" lon="3.22164">
        <ele>419</ele>
        <time>2017-03-01T07:26:05Z</time>
      </trkpt>
      <trkpt lat="44.12247" lon="3.22162">
        <ele>419</ele>
        <time>2017-03-01T07:28:05Z</time>
      </trkpt>
      <trkpt lat="44.12247" lon="3.22162">
        <ele>419</ele>
        <time>2017-03-01T07:30:05Z</time>
      </trkpt>
      <trkpt lat="44.12246" lon="3.22152">
        <ele>419</ele>
        <time>2017-03-01T07:32:05Z</time>
      </trkpt>
      <trkpt lat="44.12245" lon="3.22148">
        <ele>420</ele>
        <time>2017-03-01T07:34:05Z</time>
      </trkpt>
      <trkpt lat="44.12245" lon="3.22143">
        <ele>419</ele>
        <time>2017-03-01T07:36:05Z</time>
      </trkpt>
      <trkpt lat="44.12244" lon="3.22138">
        <ele>419</ele>
        <time>2017-03-01T07:38:05Z</time>
      </trkpt>
      <trkpt lat="44.12242" lon="3.22123">
        <ele>419</ele>
        <time>2017-03-01T07:40:05Z</time>
      </trkpt>
      <trkpt lat="44.12241" lon="3.22118">
        <ele>420</ele>
        <time>2017-03-01T07:42:05Z</time>
      </trkpt>
      <trkpt lat="44.1224" lon="3.22107">
        <ele>419</ele>
        <time>2017-03-01T07:44:05Z</time>
      </trkpt>
      <trkpt lat="44.12237" lon="3.2209">
        <ele>419</ele>
        <time>2017-03-01T07:46:05Z</time>
      </trkpt>
      <trkpt lat="44.12236" lon="3.22078">
        <ele>419</ele>
        <time>2017-03-01T07:48:05Z</time>
      </trkpt>
      <trkpt lat="44.12235" lon="3.22072">
        <ele>418</ele>
        <time>2017-03-01T07:50:05Z</time>
      </trkpt>
      <trkpt lat="44.12233" lon="3.22059">
        <ele>418</ele>
        <time>2017-03-01T07:52:05Z</time>
      </trkpt>
      <trkpt lat="44.12231" lon="3.2204">
        <ele>417</ele>
        <time>2017-03-01T07:54:05Z</time>
      </trkpt>
      <trkpt lat="44.12228" lon="3.22016">
        <ele>415</ele>
        <time>2017-03-01T07:56:05Z</time>
      </trkpt>
      <trkpt lat="44.12227" lon="3.22006">
        <ele>414</ele>
        <time>2017-03-01T07:58:05Z</time>
      </trkpt>
      <trkpt lat="44.12226" lon="3.22001">
        <ele>414</ele>
        <time>2017-03-01T08:00:05Z</time>
      </trkpt>
      <trkpt lat="44.12225" lon="3.21996">
        <ele>414</ele>
        <time>2017-03-01T08:02:05Z</time>
      </trkpt>
      <trkpt lat="44.12224" lon="3.21992">
        <ele>414</ele>
        <time>2017-03-01T08:04:05Z</time>
      </trkpt>
      <trkpt lat="44.12223" lon="3.21987">
        <ele>414</ele>
        <time>2017-03-01T08:06:05Z</time>
      </trkpt>
      <trkpt lat="44.12221" lon="3.21983">
        <ele>415</ele>
        <time>2017-03-01T08:08:05Z</time>
      </trkpt>
      <trkpt lat="44.12218" lon="3.21979">
        <ele>416</ele>
        <time>2017-03-01T08:10:05Z</time>
      </trkpt>
      <trkpt lat="44.12214" lon="3.21971">
        <ele>417</ele>
        <time>2017-03-01T08:12:05Z</time>
      </trkpt>
      <trkpt lat="44.12209" lon="3.21963">
        <ele>419</ele>
        <time>2017-03-01T08:14:05Z</time>
      </trkpt>
      <trkpt lat="44.12202" lon="3.21952">
        <ele>420</ele>
        <time>2017-03-01T08:16:05Z</time>
      </trkpt>
      <trkpt lat="44.12191" lon="3.21934">
        <ele>421</ele>
        <time>2017-03-01T08:18:05Z</time>
      </trkpt>
      <trkpt lat="44.12183" lon="3.21921">
        <ele>420</ele>
        <time>2017-03-01T08:20:05Z</time>
      </trkpt>
      <trkpt lat="44.12178" lon="3.21911">
        <ele>419</ele>
        <time>2017-03-01T08:22:05Z</time>
      </trkpt>
      <trkpt lat="44.12174" lon="3.21901">
        <ele>418</ele>
        <time>2017-03-01T08:24:05Z</time>
      </trkpt>
      <trkpt lat="44.12168" lon="3.2189">
        <ele>417</ele>
        <time>2017-03-01T08:26:05Z</time>
      </trkpt>
      <trkpt lat="44.12166" lon="3.21884">
        <ele>417</ele>
        <time>2017-03-01T08:28:05Z</time>
      </trkpt>
      <trkpt lat="44.12163" lon="3.21879">
        <ele>417</ele>
        <time>2017-03-01T08:30:05Z</time>
      </trkpt>
      <trkpt lat="44.1216" lon="3.21874">
        <ele>417</ele>
        <time>2017-03-01T08:32:05Z</time>
      </trkpt>
      <trkpt lat="44.12157" lon="3.21869">
        <ele>417</ele>
        <time>2017-03-01T08:34:05Z</time>
      </trkpt>
      <trkpt lat="44.12154" lon="3.21864">
        <ele>417</ele>
        <time>2017-03-01T08:36:05Z</time>
      </trkpt>
      <trkpt lat="44.12147" lon="3.21855">
        <ele>418</ele>
        <time>2017-03-01T08:38:05Z</time>
      </trkpt>
      <trkpt lat="44.12127" lon="3.21833">
        <ele>419</ele>
        <time>2017-03-01T08:40:05Z</time>
      </trkpt>
      <trkpt lat="44.12112" lon="3.21816">
        <ele>420</ele>
        <time>2017-03-01T08:42:05Z</time>
      </trkpt>
      <trkpt lat="44.12099" lon="3.21801">
        <ele>420</ele>
        <time>2017-03-01T08:44:05Z</time>
      </trkpt>
      <trkpt lat="44.12085" lon="3.21786">
        <ele>418</ele>
        <time>2017-03-01T08:46:05Z</time>
      </trkpt>
      <trkpt lat="44.12077" lon="3.21776">
        <ele>417</ele>
        <time>2017-03-01T08:48:05Z</time>
      </trkpt>
      <trkpt lat="44.12062" lon="3.21759">
        <ele>416</ele>
        <time>2017-03-01T08:50:05Z</time>
      </trkpt>
      <trkpt lat="44.12058" lon="3.21756">
        <ele>416</ele>
        <time>2017-03-01T08:52:05Z</time>
      </trkpt>
      <trkpt lat="44.12055" lon="3.21754">
        <ele>416</ele>
        <time>2017-03-01T08:54:05Z</time>
      </trkpt>
      <trkpt lat="44.12051" lon="3.21752">
        <ele>416</ele>
        <time>2017-03-01T08:56:05Z</time>
      </trkpt>
      <trkpt lat="44.12048" lon="3.21751">
        <ele>417</ele>
        <time>2017-03-01T08:58:05Z</time>
      </trkpt>
      <trkpt lat="44.12044" lon="3.21751">
        <ele>418</ele>
        <time>2017-03-01T09:00:05Z</time>
      </trkpt>
      <trkpt lat="44.12041" lon="3.21752">
        <ele>419</ele>
        <time>2017-03-01T09:02:05Z</time>
      </trkpt>
      <trkpt lat="44.12038" lon="3.21754">
        <ele>420</ele>
        <time>2017-03-01T09:04:05Z</time>
      </trkpt>
      <trkpt lat="44.12034" lon="3.21756">
        <ele>422</ele>
        <time>2017-03-01T09:06:05Z</time>
      </trkpt>
      <trkpt lat="44.12031" lon="3.21758">
        <ele>423</ele>
        <time>2017-03-01T09:08:05Z</time>
      </trkpt>
      <trkpt lat="44.12024" lon="3.21764">
        <ele>426</ele>
        <time>2017-03-01T09:10:05Z</time>
      </trkpt>
      <trkpt lat="44.12021" lon="3.21767">
        <ele>428</ele>
        <time>2017-03-01T09:12:05Z</time>
      </trkpt>
      <trkpt lat="44.12015" lon="3.21771">
        <ele>430</ele>
        <time>2017-03-01T09:14:05Z</time>
      </trkpt>
      <trkpt lat="44.12008" lon="3.21775">
        <ele>433</ele>
        <time>2017-03-01T09:16:05Z</time>
      </trkpt>
      <trkpt lat="44.12001" lon="3.21779">
        <ele>435</ele>
        <time>2017-03-01T09:18:05Z</time>
      </trkpt>
      <trkpt lat="44.11998" lon="3.2178">
        <ele>436</ele>
        <time>2017-03-01T09:20:05Z</time>
      </trkpt>
      <trkpt lat="44.11995" lon="3.21781">
        <ele>437</ele>
        <time>2017-03-01T09:22:05Z</time>
      </trkpt>
      <trkpt lat="44.11991" lon="3.21782">
        <ele>438</ele>
        <time>2017-03-01T09:24:05Z</time>
      </trkpt>
      <trkpt lat="44.11988" lon="3.21783">
        <ele>439</ele>
        <time>2017-03-01T09:26:05Z</time>
      </trkpt>
      <trkpt lat="44.11985" lon="3.21782">
        <ele>439</ele>
        <time>2017-03-01T09:28:05Z</time>
      </trkpt>
      <trkpt lat="44.11982" lon="3.21782">
        <ele>440</ele>
        <time>2017-03-01T09:30:05Z</time>
      </trkpt>
      <trkpt lat="44.1198" lon="3.21781">
        <ele>440</ele>
        <time>2017-03-01T09:32:05Z</time>
      </trkpt>
      <trkpt lat="44.11977" lon="3.21779">
        <ele>440</ele>
        <time>2017-03-01T09:34:05Z</time>
      </trkpt>
      <trkpt lat="44.11975" lon="3.21777">
        <ele>440</ele>
        <time>2017-03-01T09:36:05Z</time>
      </trkpt>
      <trkpt lat="44.11973" lon="3.21773">
        <ele>440</ele>
        <time>2017-03-01T09:38:05Z</time>
      </trkpt>
      <trkpt lat="44.11972" lon="3.2177">
        <ele>440</ele>
        <time>2017-03-01T09:40:05Z</time>
      </trkpt>
      <trkpt lat="44.11971" lon="3.21766">
        <ele>439</ele>
        <time>2017-03-01T09:42:05Z</time>
      </trkpt>
      <trkpt lat="44.11971" lon="3.21762">
        <ele>438</ele>
        <time>2017-03-01T09:44:05Z</time>
      </trkpt>
      <trkpt lat="44.11971" lon="3.21758">
        <ele>438</ele>
        <time>2017-03-01T09:46:05Z</time>
      </trkpt>
      <trkpt lat="44.11971" lon="3.21754">
        <ele>437</ele>
        <time>2017-03-01T09:48:05Z</time>
      </trkpt>
      <trkpt lat="44.11973" lon="3.21749">
        <ele>435</ele>
        <time>2017-03-01T09:50:05Z</time>
      </trkpt>
      <trkpt lat="44.11974" lon="3.21745">
        <ele>434</ele>
        <time>2017-03-01T09:52:05Z</time>
      </trkpt>
      <trkpt lat="44.11976" lon="3.2174">
        <ele>433</ele>
        <time>2017-03-01T09:54:05Z</time>
      </trkpt>
      <trkpt lat="44.11982" lon="3.21728">
        <ele>430</ele>
        <time>2017-03-01T09:56:05Z</time>
      </trkpt>
      <trkpt lat="44.11984" lon="3.21725">
        <ele>428</ele>
        <time>2017-03-01T09:58:05Z</time>
      </trkpt>
      <trkpt lat="44.11985" lon="3.21721">
        <ele>428</ele>
        <time>2017-03-01T10:00:05Z</time>
      </trkpt>
      <trkpt lat="44.11986" lon="3.21717">
        <ele>427</ele>
        <time>2017-03-01T10:02:05Z</time>
      </trkpt>
      <trkpt lat="44.11987" lon="3.21713">
        <ele>426</ele>
        <time>2017-03-01T10:04:05Z</time>
      </trkpt>
      <trkpt lat="44.11987" lon="3.21708">
        <ele>425</ele>
        <time>2017-03-01T10:06:05Z</time>
      </trkpt>
      <trkpt lat="44.11986" lon="3.21704">
        <ele>425</ele>
        <time>2017-03-01T10:08:05Z</time>
      </trkpt>
      <trkpt lat="44.11985" lon="3.217">
        <ele>424</ele>
        <time>2017-03-01T10:10:05Z</time>
      </trkpt>
      <trkpt lat="44.11983" lon="3.21696">
        <ele>424</ele>
        <time>2017-03-01T10:12:05Z</time>
      </trkpt>
      <trkpt lat="44.11981" lon="3.21693">
        <ele>425</ele>
        <time>2017-03-01T10:14:05Z</time>
      </trkpt>
      <trkpt lat="44.11979" lon="3.21689">
        <ele>425</ele>
        <time>2017-03-01T10:16:05Z</time>
      </trkpt>
      <trkpt lat="44.11976" lon="3.21685">
        <ele>425</ele>
        <time>2017-03-01T10:18:05Z</time>
      </trkpt>
      <trkpt lat="44.11974" lon="3.21682">
        <ele>425</ele>
        <time>2017-03-01T10:20:05Z</time>
      </trkpt>
      <trkpt lat="44.11971" lon="3.21678">
        <ele>426</ele>
        <time>2017-03-01T10:22:05Z</time>
      </trkpt>
      <trkpt lat="44.11968" lon="3.21676">
        <ele>427</ele>
        <time>2017-03-01T10:24:05Z</time>
      </trkpt>
      <trkpt lat="44.11965" lon="3.21673">
        <ele>428</ele>
        <time>2017-03-01T10:26:05Z</time>
      </trkpt>
      <trkpt lat="44.11962" lon="3.21672">
        <ele>429</ele>
        <time>2017-03-01T10:28:05Z</time>
      </trkpt>
      <trkpt lat="44.11959" lon="3.21672">
        <ele>430</ele>
        <time>2017-03-01T10:30:05Z</time>
      </trkpt>
      <trkpt lat="44.11956" lon="3.21672">
        <ele>431</ele>
        <time>2017-03-01T10:32:05Z</time>
      </trkpt>
      <trkpt lat="44.11948" lon="3.21674">
        <ele>434</ele>
        <time>2017-03-01T10:34:05Z</time>
      </trkpt>
      <trkpt lat="44.11946" lon="3.21675">
        <ele>435</ele>
        <time>2017-03-01T10:36:05Z</time>
      </trkpt>
      <trkpt lat="44.11943" lon="3.21675">
        <ele>436</ele>
        <time>2017-03-01T10:38:05Z</time>
      </trkpt>
      <trkpt lat="44.1194" lon="3.21674">
        <ele>437</ele>
        <time>2017-03-01T10:40:05Z</time>
      </trkpt>
      <trkpt lat="44.11938" lon="3.21672">
        <ele>438</ele>
        <time>2017-03-01T10:42:05Z</time>
      </trkpt>
      <trkpt lat="44.11935" lon="3.2167">
        <ele>439</ele>
        <time>2017-03-01T10:44:05Z</time>
      </trkpt>
      <trkpt lat="44.11934" lon="3.21667">
        <ele>439</ele>
        <time>2017-03-01T10:46:05Z</time>
      </trkpt>
      <trkpt lat="44.11932" lon="3.21663">
        <ele>439</ele>
        <time>2017-03-01T10:48:05Z</time>
      </trkpt>
      <trkpt lat="44.11931" lon="3.21659">
        <ele>439</ele>
        <time>2017-03-01T10:50:05Z</time>
      </trkpt>
      <trkpt lat="44.1193" lon="3.21655">
        <ele>439</ele>
        <time>2017-03-01T10:52:05Z</time>
      </trkpt>
      <trkpt lat="44.11929" lon="3.21645">
        <ele>438</ele>
        <time>2017-03-01T10:54:05Z</time>
      </trkpt>
      <trkpt lat="44.11928" lon="3.21641">
        <ele>438</ele>
        <time>2017-03-01T10:56:05Z</time>
      </trkpt>
      <trkpt lat="44.11926" lon="3.21636">
        <ele>438</ele>
        <time>2017-03-01T10:58:05Z</time>
      </trkpt>
      <trkpt lat="44.11925" lon="3.21631">
        <ele>438</ele>
        <time>2017-03-01T11:00:05Z</time>
      </trkpt>
      <trkpt lat="44.11923" lon="3.21626">
        <ele>438</ele>
        <time>2017-03-01T11:02:05Z</time>
      </trkpt>
      <trkpt lat="44.11922" lon="3.21622">
        <ele>438</ele>
        <time>2017-03-01T11:04:05Z</time>
      </trkpt>
      <trkpt lat="44.1192" lon="3.21617">
        <ele>438</ele>
        <time>2017-03-01T11:06:05Z</time>
      </trkpt>
      <trkpt lat="44.11918" lon="3.21611">
        <ele>438</ele>
        <time>2017-03-01T11:08:05Z</time>
      </trkpt>
      <trkpt lat="44.11916" lon="3.21607">
        <ele>438</ele>
        <time>2017-03-01T11:10:05Z</time>
      </trkpt>
      <trkpt lat="44.11914" lon="3.21601">
        <ele>439</ele>
        <time>2017-03-01T11:12:05Z</time>
      </trkpt>
      <trkpt lat="44.11911" lon="3.21596">
        <ele>440</ele>
        <time>2017-03-01T11:14:05Z</time>
      </trkpt>
      <trkpt lat="44.11905" lon="3.21587">
        <ele>442</ele>
        <time>2017-03-01T11:16:05Z</time>
      </trkpt>
      <trkpt lat="44.119" lon="3.21577">
        <ele>443</ele>
        <time>2017-03-01T11:18:05Z</time>
      </trkpt>
      <trkpt lat="44.11894" lon="3.21567">
        <ele>445</ele>
        <time>2017-03-01T11:20:05Z</time>
      </trkpt>
      <trkpt lat="44.11886" lon="3.21551">
        <ele>448</ele>
        <time>2017-03-01T11:22:05Z</time>
      </trkpt>
      <trkpt lat="44.11875" lon="3.21528">
        <ele>450</ele>
        <time>2017-03-01T11:24:05Z</time>
      </trkpt>
      <trkpt lat="44.11868" lon="3.21513">
        <ele>452</ele>
        <time>2017-03-01T11:26:05Z</time>
      </trkpt>
      <trkpt lat="44.11864" lon="3.21501">
        <ele>452</ele>
        <time>2017-03-01T11:28:05Z</time>
      </trkpt>
      <trkpt lat="44.11859" lon="3.2149">
        <ele>455</ele>
        <time>2017-03-01T11:30:05Z</time>
      </trkpt>
      <trkpt lat="44.11857" lon="3.21484">
        <ele>456</ele>
        <time>2017-03-01T11:32:05Z</time>
      </trkpt>
      <trkpt lat="44.11851" lon="3.21473">
        <ele>458</ele>
        <time>2017-03-01T11:34:05Z</time>
      </trkpt>
      <trkpt lat="44.11836" lon="3.21448">
        <ele>465</ele>
        <time>2017-03-01T11:36:05Z</time>
      </trkpt>
      <trkpt lat="44.11834" lon="3.21444">
        <ele>466</ele>
        <time>2017-03-01T11:38:05Z</time>
      </trkpt>
      <trkpt lat="44.11833" lon="3.21439">
        <ele>467</ele>
        <time>2017-03-01T11:40:05Z</time>
      </trkpt>
      <trkpt lat="44.11832" lon="3.21434">
        <ele>467</ele>
        <time>2017-03-01T11:42:05Z</time>
      </trkpt>
      <trkpt lat="44.11832" lon="3.21428">
        <ele>467</ele>
        <time>2017-03-01T11:44:05Z</time>
      </trkpt>
      <trkpt lat="44.11832" lon="3.21423">
        <ele>467</ele>
        <time>2017-03-01T11:46:05Z</time>
      </trkpt>
      <trkpt lat="44.11833" lon="3.21418">
        <ele>466</ele>
        <time>2017-03-01T11:48:05Z</time>
      </trkpt>
      <trkpt lat="44.11836" lon="3.21413">
        <ele>465</ele>
        <time>2017-03-01T11:50:05Z</time>
      </trkpt>
      <trkpt lat="44.11841" lon="3.21406">
        <ele>464</ele>
        <time>2017-03-01T11:52:05Z</time>
      </trkpt>
      <trkpt lat="44.11843" lon="3.21402">
        <ele>463</ele>
        <time>2017-03-01T11:54:05Z</time>
      </trkpt>
      <trkpt lat="44.11845" lon="3.21399">
        <ele>463</ele>
        <time>2017-03-01T11:56:05Z</time>
      </trkpt>
      <trkpt lat="44.11846" lon="3.21395">
        <ele>463</ele>
        <time>2017-03-01T11:58:05Z</time>
      </trkpt>
      <trkpt lat="44.11847" lon="3.21392">
        <ele>463</ele>
        <time>2017-03-01T12:00:05Z</time>
      </trkpt>
      <trkpt lat="44.11848" lon="3.21388">
        <ele>463</ele>
        <time>2017-03-01T12:02:05Z</time>
      </trkpt>
      <trkpt lat="44.11849" lon="3.21385">
        <ele>463</ele>
        <time>2017-03-01T12:04:05Z</time>
      </trkpt>
      <trkpt lat="44.1185" lon="3.21377">
        <ele>463</ele>
        <time>2017-03-01T12:06:05Z</time>
      </trkpt>
      <trkpt lat="44.11851" lon="3.2137">
        <ele>464</ele>
        <time>2017-03-01T12:08:05Z</time>
      </trkpt>
      <trkpt lat="44.11852" lon="3.21362">
        <ele>464</ele>
        <time>2017-03-01T12:10:05Z</time>
      </trkpt>
      <trkpt lat="44.11854" lon="3.21349">
        <ele>465</ele>
        <time>2017-03-01T12:12:05Z</time>
      </trkpt>
      <trkpt lat="44.11854" lon="3.21345">
        <ele>466</ele>
        <time>2017-03-01T12:14:05Z</time>
      </trkpt>
      <trkpt lat="44.11856" lon="3.21332">
        <ele>466</ele>
        <time>2017-03-01T12:16:05Z</time>
      </trkpt>
      <trkpt lat="44.11856" lon="3.21327">
        <ele>468</ele>
        <time>2017-03-01T12:18:05Z</time>
      </trkpt>
      <trkpt lat="44.11858" lon="3.21323">
        <ele>468</ele>
        <time>2017-03-01T12:20:05Z</time>
      </trkpt>
      <trkpt lat="44.11861" lon="3.21314">
        <ele>469</ele>
        <time>2017-03-01T12:22:05Z</time>
      </trkpt>
      <trkpt lat="44.11863" lon="3.21311">
        <ele>468</ele>
        <time>2017-03-01T12:24:05Z</time>
      </trkpt>
      <trkpt lat="44.11866" lon="3.21308">
        <ele>467</ele>
        <time>2017-03-01T12:26:05Z</time>
      </trkpt>
      <trkpt lat="44.11872" lon="3.21302">
        <ele>466</ele>
        <time>2017-03-01T12:28:05Z</time>
      </trkpt>
      <trkpt lat="44.11877" lon="3.21297">
        <ele>464</ele>
        <time>2017-03-01T12:30:05Z</time>
      </trkpt>
      <trkpt lat="44.11879" lon="3.21295">
        <ele>464</ele>
        <time>2017-03-01T12:32:05Z</time>
      </trkpt>
      <trkpt lat="44.11881" lon="3.21292">
        <ele>463</ele>
        <time>2017-03-01T12:34:05Z</time>
      </trkpt>
      <trkpt lat="44.11883" lon="3.2129">
        <ele>463</ele>
        <time>2017-03-01T12:36:05Z</time>
      </trkpt>
      <trkpt lat="44.11883" lon="3.21288">
        <ele>463</ele>
        <time>2017-03-01T12:38:05Z</time>
      </trkpt>
      <trkpt lat="44.11883" lon="3.21287">
        <ele>464</ele>
        <time>2017-03-01T12:40:05Z</time>
      </trkpt>
      <trkpt lat="44.11884" lon="3.21286">
        <ele>463</ele>
        <time>2017-03-01T12:42:05Z</time>
      </trkpt>
      <trkpt lat="44.11884" lon="3.21284">
        <ele>464</ele>
        <time>2017-03-01T12:44:05Z</time>
      </trkpt>
      <trkpt lat="44.11884" lon="3.21283">
        <ele>464</ele>
        <time>2017-03-01T12:46:05Z</time>
      </trkpt>
      <trkpt lat="44.11883" lon="3.21281">
        <ele>465</ele>
        <time>2017-03-01T12:48:05Z</time>
      </trkpt>
      <trkpt lat="44.11883" lon="3.2128">
        <ele>466</ele>
        <time>2017-03-01T12:50:05Z</time>
      </trkpt>
      <trkpt lat="44.11882" lon="3.21279">
        <ele>467</ele>
        <time>2017-03-01T12:52:05Z</time>
      </trkpt>
      <trkpt lat="44.11882" lon="3.21278">
        <ele>467</ele>
        <time>2017-03-01T12:54:05Z</time>
      </trkpt>
      <trkpt lat="44.11881" lon="3.21277">
        <ele>468</ele>
        <time>2017-03-01T12:56:05Z</time>
      </trkpt>
      <trkpt lat="44.11879" lon="3.21276">
        <ele>469</ele>
        <time>2017-03-01T12:58:05Z</time>
      </trkpt>
      <trkpt lat="44.11878" lon="3.21276">
        <ele>470</ele>
        <time>2017-03-01T13:00:05Z</time>
      </trkpt>
      <trkpt lat="44.11877" lon="3.21276">
        <ele>471</ele>
        <time>2017-03-01T13:02:05Z</time>
      </trkpt>
      <trkpt lat="44.11876" lon="3.21277">
        <ele>471</ele>
        <time>2017-03-01T13:04:05Z</time>
      </trkpt>
      <trkpt lat="44.11875" lon="3.21277">
        <ele>472</ele>
        <time>2017-03-01T13:06:05Z</time>
      </trkpt>
      <trkpt lat="44.11874" lon="3.21278">
        <ele>472</ele>
        <time>2017-03-01T13:08:05Z</time>
      </trkpt>
      <trkpt lat="44.11873" lon="3.2128">
        <ele>472</ele>
        <time>2017-03-01T13:10:05Z</time>
      </trkpt>
      <trkpt lat="44.11872" lon="3.21281">
        <ele>472</ele>
        <time>2017-03-01T13:12:05Z</time>
      </trkpt>
      <trkpt lat="44.11871" lon="3.21284">
        <ele>472</ele>
        <time>2017-03-01T13:14:05Z</time>
      </trkpt>
      <trkpt lat="44.11869" lon="3.21287">
        <ele>472</ele>
        <time>2017-03-01T13:16:05Z</time>
      </trkpt>
      <trkpt lat="44.11867" lon="3.21291">
        <ele>472</ele>
        <time>2017-03-01T13:18:05Z</time>
      </trkpt>
      <trkpt lat="44.11865" lon="3.21294">
        <ele>472</ele>
        <time>2017-03-01T13:20:05Z</time>
      </trkpt>
      <trkpt lat="44.11862" lon="3.21297">
        <ele>473</ele>
        <time>2017-03-01T13:22:05Z</time>
      </trkpt>
      <trkpt lat="44.1186" lon="3.213">
        <ele>474</ele>
        <time>2017-03-01T13:24:05Z</time>
      </trkpt>
      <trkpt lat="44.11856" lon="3.21303">
        <ele>475</ele>
        <time>2017-03-01T13:26:05Z</time>
      </trkpt>
      <trkpt lat="44.11853" lon="3.21306">
        <ele>476</ele>
        <time>2017-03-01T13:28:05Z</time>
      </trkpt>
      <trkpt lat="44.1185" lon="3.2131">
        <ele>477</ele>
        <time>2017-03-01T13:30:05Z</time>
      </trkpt>
      <trkpt lat="44.11847" lon="3.21314">
        <ele>477</ele>
        <time>2017-03-01T13:32:05Z</time>
      </trkpt>
      <trkpt lat="44.11844" lon="3.21319">
        <ele>478</ele>
        <time>2017-03-01T13:34:05Z</time>
      </trkpt>
      <trkpt lat="44.11842" lon="3.21324">
        <ele>477</ele>
        <time>2017-03-01T13:36:05Z</time>
      </trkpt>
      <trkpt lat="44.11839" lon="3.21335">
        <ele>476</ele>
        <time>2017-03-01T13:38:05Z</time>
      </trkpt>
      <trkpt lat="44.11838" lon="3.2134">
        <ele>476</ele>
        <time>2017-03-01T13:40:05Z</time>
      </trkpt>
      <trkpt lat="44.11834" lon="3.21351">
        <ele>477</ele>
        <time>2017-03-01T13:42:05Z</time>
      </trkpt>
      <trkpt lat="44.11832" lon="3.21357">
        <ele>477</ele>
        <time>2017-03-01T13:44:05Z</time>
      </trkpt>
      <trkpt lat="44.11829" lon="3.21362">
        <ele>478</ele>
        <time>2017-03-01T13:46:05Z</time>
      </trkpt>
      <trkpt lat="44.11826" lon="3.21366">
        <ele>479</ele>
        <time>2017-03-01T13:48:05Z</time>
      </trkpt>
      <trkpt lat="44.11823" lon="3.21372">
        <ele>479</ele>
        <time>2017-03-01T13:50:05Z</time>
      </trkpt>
      <trkpt lat="44.1182" lon="3.21376">
        <ele>480</ele>
        <time>2017-03-01T13:52:05Z</time>
      </trkpt>
      <trkpt lat="44.11817" lon="3.2138">
        <ele>481</ele>
        <time>2017-03-01T13:54:05Z</time>
      </trkpt>
      <trkpt lat="44.11814" lon="3.21384">
        <ele>482</ele>
        <time>2017-03-01T13:56:05Z</time>
      </trkpt>
      <trkpt lat="44.1181" lon="3.21388">
        <ele>484</ele>
        <time>2017-03-01T13:58:05Z</time>
      </trkpt>
      <trkpt lat="44.11803" lon="3.21396">
        <ele>486</ele>
        <time>2017-03-01T14:00:05Z</time>
      </trkpt>
      <trkpt lat="44.11796" lon="3.21404">
        <ele>489</ele>
        <time>2017-03-01T14:02:05Z</time>
      </trkpt>
      <trkpt lat="44.11793" lon="3.21408">
        <ele>490</ele>
        <time>2017-03-01T14:04:05Z</time>
      </trkpt>
      <trkpt lat="44.11791" lon="3.21413">
        <ele>490</ele>
        <time>2017-03-01T14:06:05Z</time>
      </trkpt>
      <trkpt lat="44.11788" lon="3.21417">
        <ele>491</ele>
        <time>2017-03-01T14:08:05Z</time>
      </trkpt>
      <trkpt lat="44.11787" lon="3.21423">
        <ele>492</ele>
        <time>2017-03-01T14:10:05Z</time>
      </trkpt>
      <trkpt lat="44.11786" lon="3.21428">
        <ele>493</ele>
        <time>2017-03-01T14:12:05Z</time>
      </trkpt>
      <trkpt lat="44.11786" lon="3.21434">
        <ele>493</ele>
        <time>2017-03-01T14:14:05Z</time>
      </trkpt>
      <trkpt lat="44.11787" lon="3.21441">
        <ele>493</ele>
        <time>2017-03-01T14:16:05Z</time>
      </trkpt>
      <trkpt lat="44.11788" lon="3.21446">
        <ele>492</ele>
        <time>2017-03-01T14:18:05Z</time>
      </trkpt>
      <trkpt lat="44.1179" lon="3.21452">
        <ele>491</ele>
        <time>2017-03-01T14:20:05Z</time>
      </trkpt>
      <trkpt lat="44.11794" lon="3.21463">
        <ele>490</ele>
        <time>2017-03-01T14:22:05Z</time>
      </trkpt>
      <trkpt lat="44.11796" lon="3.21469">
        <ele>489</ele>
        <time>2017-03-01T14:24:05Z</time>
      </trkpt>
      <trkpt lat="44.11797" lon="3.21475">
        <ele>488</ele>
        <time>2017-03-01T14:26:05Z</time>
      </trkpt>
      <trkpt lat="44.11799" lon="3.21482">
        <ele>487</ele>
        <time>2017-03-01T14:28:05Z</time>
      </trkpt>
      <trkpt lat="44.118" lon="3.21487">
        <ele>487</ele>
        <time>2017-03-01T14:30:05Z</time>
      </trkpt>
      <trkpt lat="44.11801" lon="3.21495">
        <ele>487</ele>
        <time>2017-03-01T14:32:05Z</time>
      </trkpt>
      <trkpt lat="44.11802" lon="3.21516">
        <ele>489</ele>
        <time>2017-03-01T14:34:05Z</time>
      </trkpt>
      <trkpt lat="44.11803" lon="3.21531">
        <ele>491</ele>
        <time>2017-03-01T14:36:05Z</time>
      </trkpt>
      <trkpt lat="44.11804" lon="3.21546">
        <ele>492</ele>
        <time>2017-03-01T14:38:05Z</time>
      </trkpt>
      <trkpt lat="44.11807" lon="3.21575">
        <ele>495</ele>
        <time>2017-03-01T14:40:05Z</time>
      </trkpt>
      <trkpt lat="44.11809" lon="3.2159">
        <ele>496</ele>
        <time>2017-03-01T14:42:05Z</time>
      </trkpt>
      <trkpt lat="44.11811" lon="3.21597">
        <ele>496</ele>
        <time>2017-03-01T14:44:05Z</time>
      </trkpt>
      <trkpt lat="44.11812" lon="3.21604">
        <ele>496</ele>
        <time>2017-03-01T14:46:05Z</time>
      </trkpt>
      <trkpt lat="44.11814" lon="3.21611">
        <ele>496</ele>
        <time>2017-03-01T14:48:05Z</time>
      </trkpt>
      <trkpt lat="44.11818" lon="3.21625">
        <ele>496</ele>
        <time>2017-03-01T14:50:05Z</time>
      </trkpt>
      <trkpt lat="44.11823" lon="3.21638">
        <ele>494</ele>
        <time>2017-03-01T14:52:05Z</time>
      </trkpt>
      <trkpt lat="44.11825" lon="3.21645">
        <ele>494</ele>
        <time>2017-03-01T14:54:05Z</time>
      </trkpt>
      <trkpt lat="44.11827" lon="3.21652">
        <ele>494</ele>
        <time>2017-03-01T14:56:05Z</time>
      </trkpt>
      <trkpt lat="44.11828" lon="3.21659">
        <ele>494</ele>
        <time>2017-03-01T14:58:05Z</time>
      </trkpt>
      <trkpt lat="44.11829" lon="3.21665">
        <ele>494</ele>
        <time>2017-03-01T15:00:05Z</time>
      </trkpt>
      <trkpt lat="44.11831" lon="3.21672">
        <ele>493</ele>
        <time>2017-03-01T15:02:05Z</time>
      </trkpt>
      <trkpt lat="44.11831" lon="3.21678">
        <ele>494</ele>
        <time>2017-03-01T15:04:05Z</time>
      </trkpt>
      <trkpt lat="44.11832" lon="3.21685">
        <ele>493</ele>
        <time>2017-03-01T15:06:05Z</time>
      </trkpt>
      <trkpt lat="44.11833" lon="3.2169">
        <ele>493</ele>
        <time>2017-03-01T15:08:05Z</time>
      </trkpt>
      <trkpt lat="44.11833" lon="3.21696">
        <ele>493</ele>
        <time>2017-03-01T15:10:05Z</time>
      </trkpt>
      <trkpt lat="44.11833" lon="3.21702">
        <ele>493</ele>
        <time>2017-03-01T15:12:05Z</time>
      </trkpt>
      <trkpt lat="44.11832" lon="3.21707">
        <ele>494</ele>
        <time>2017-03-01T15:14:05Z</time>
      </trkpt>
      <trkpt lat="44.11831" lon="3.21713">
        <ele>494</ele>
        <time>2017-03-01T15:16:05Z</time>
      </trkpt>
      <trkpt lat="44.11829" lon="3.21718">
        <ele>496</ele>
        <time>2017-03-01T15:18:05Z</time>
      </trkpt>
      <trkpt lat="44.11826" lon="3.21723">
        <ele>498</ele>
        <time>2017-03-01T15:20:05Z</time>
      </trkpt>
      <trkpt lat="44.11822" lon="3.21733">
        <ele>500</ele>
        <time>2017-03-01T15:22:05Z</time>
      </trkpt>
      <trkpt lat="44.11819" lon="3.21738">
        <ele>502</ele>
        <time>2017-03-01T15:24:05Z</time>
      </trkpt>
      <trkpt lat="44.11817" lon="3.21744">
        <ele>503</ele>
        <time>2017-03-01T15:26:05Z</time>
      </trkpt>
      <trkpt lat="44.11816" lon="3.21749">
        <ele>504</ele>
        <time>2017-03-01T15:28:05Z</time>
      </trkpt>
      <trkpt lat="44.11815" lon="3.21755">
        <ele>505</ele>
        <time>2017-03-01T15:30:05Z</time>
      </trkpt>
      <trkpt lat="44.11815" lon="3.21761">
        <ele>504</ele>
        <time>2017-03-01T15:32:05Z</time>
      </trkpt>
      <trkpt lat="44.11815" lon="3.21767">
        <ele>504</ele>
        <time>2017-03-01T15:34:05Z</time>
      </trkpt>
      <trkpt lat="44.11817" lon="3.21773">
        <ele>503</ele>
        <time>2017-03-01T15:36:05Z</time>
      </trkpt>
      <trkpt lat="44.11818" lon="3.21778">
        <ele>503</ele>
        <time>2017-03-01T15:38:05Z</time>
      </trkpt>
      <trkpt lat="44.1182" lon="3.21783">
        <ele>501</ele>
        <time>2017-03-01T15:40:05Z</time>
      </trkpt>
      <trkpt lat="44.11822" lon="3.21789">
        <ele>500</ele>
        <time>2017-03-01T15:42:05Z</time>
      </trkpt>
      <trkpt lat="44.11823" lon="3.21794">
        <ele>500</ele>
        <time>2017-03-01T15:44:05Z</time>
      </trkpt>
      <trkpt lat="44.11823" lon="3.21799">
        <ele>500</ele>
        <time>2017-03-01T15:46:05Z</time>
      </trkpt>
      <trkpt lat="44.11823" lon="3.21805">
        <ele>499</ele>
        <time>2017-03-01T15:48:05Z</time>
      </trkpt>
      <trkpt lat="44.11823" lon="3.21811">
        <ele>499</ele>
        <time>2017-03-01T15:50:05Z</time>
      </trkpt>
      <trkpt lat="44.11822" lon="3.21817">
        <ele>500</ele>
        <time>2017-03-01T15:52:05Z</time>
      </trkpt>
      <trkpt lat="44.11821" lon="3.21823">
        <ele>500</ele>
        <time>2017-03-01T15:54:05Z</time>
      </trkpt>
      <trkpt lat="44.11819" lon="3.21829">
        <ele>502</ele>
        <time>2017-03-01T15:56:05Z</time>
      </trkpt>
      <trkpt lat="44.11816" lon="3.21841">
        <ele>503</ele>
        <time>2017-03-01T15:58:05Z</time>
      </trkpt>
      <trkpt lat="44.11813" lon="3.21854">
        <ele>504</ele>
        <time>2017-03-01T16:00:05Z</time>
      </trkpt>
      <trkpt lat="44.11811" lon="3.2186">
        <ele>505</ele>
        <time>2017-03-01T16:02:05Z</time>
      </trkpt>
      <trkpt lat="44.11808" lon="3.21872">
        <ele>506</ele>
        <time>2017-03-01T16:04:05Z</time>
      </trkpt>
      <trkpt lat="44.11804" lon="3.21883">
        <ele>507</ele>
        <time>2017-03-01T16:06:05Z</time>
      </trkpt>
      <trkpt lat="44.11802" lon="3.21888">
        <ele>508</ele>
        <time>2017-03-01T16:08:05Z</time>
      </trkpt>
      <trkpt lat="44.118" lon="3.21893">
        <ele>509</ele>
        <time>2017-03-01T16:10:05Z</time>
      </trkpt>
      <trkpt lat="44.11797" lon="3.21897">
        <ele>510</ele>
        <time>2017-03-01T16:12:05Z</time>
      </trkpt>
      <trkpt lat="44.11794" lon="3.21901">
        <ele>511</ele>
        <time>2017-03-01T16:14:05Z</time>
      </trkpt>
      <trkpt lat="44.11792" lon="3.21905">
        <ele>512</ele>
        <time>2017-03-01T16:16:05Z</time>
      </trkpt>
      <trkpt lat="44.11788" lon="3.21908">
        <ele>513</ele>
        <time>2017-03-01T16:18:05Z</time>
      </trkpt>
      <trkpt lat="44.1178" lon="3.21912">
        <ele>517</ele>
        <time>2017-03-01T16:20:05Z</time>
      </trkpt>
      <trkpt lat="44.11768" lon="3.21918">
        <ele>522</ele>
        <time>2017-03-01T16:22:05Z</time>
      </trkpt>
      <trkpt lat="44.11765" lon="3.2192">
        <ele>523</ele>
        <time>2017-03-01T16:24:05Z</time>
      </trkpt>
      <trkpt lat="44.11761" lon="3.21922">
        <ele>525</ele>
        <time>2017-03-01T16:26:05Z</time>
      </trkpt>
      <trkpt lat="44.11758" lon="3.21925">
        <ele>526</ele>
        <time>2017-03-01T16:28:05Z</time>
      </trkpt>
      <trkpt lat="44.11755" lon="3.21928">
        <ele>528</ele>
        <time>2017-03-01T16:30:05Z</time>
      </trkpt>
      <trkpt lat="44.11753" lon="3.21932">
        <ele>528</ele>
        <time>2017-03-01T16:32:05Z</time>
      </trkpt>
      <trkpt lat="44.11752" lon="3.21937">
        <ele>529</ele>
        <time>2017-03-01T16:34:05Z</time>
      </trkpt>
      <trkpt lat="44.11751" lon="3.21942">
        <ele>529</ele>
        <time>2017-03-01T16:36:05Z</time>
      </trkpt>
      <trkpt lat="44.11751" lon="3.21947">
        <ele>529</ele>
        <time>2017-03-01T16:38:05Z</time>
      </trkpt>
      <trkpt lat="44.11752" lon="3.21953">
        <ele>528</ele>
        <time>2017-03-01T16:40:05Z</time>
      </trkpt>
      <trkpt lat="44.11753" lon="3.21958">
        <ele>528</ele>
        <time>2017-03-01T16:42:05Z</time>
      </trkpt>
      <trkpt lat="44.11757" lon="3.21974">
        <ele>526</ele>
        <time>2017-03-01T16:44:05Z</time>
      </trkpt>
      <trkpt lat="44.11758" lon="3.2198">
        <ele>526</ele>
        <time>2017-03-01T16:46:05Z</time>
      </trkpt>
      <trkpt lat="44.11759" lon="3.21986">
        <ele>526</ele>
        <time>2017-03-01T16:48:05Z</time>
      </trkpt>
      <trkpt lat="44.11759" lon="3.21992">
        <ele>526</ele>
        <time>2017-03-01T16:50:05Z</time>
      </trkpt>
      <trkpt lat="44.11759" lon="3.21998">
        <ele>526</ele>
        <time>2017-03-01T16:52:05Z</time>
      </trkpt>
      <trkpt lat="44.11759" lon="3.22005">
        <ele>527</ele>
        <time>2017-03-01T16:54:05Z</time>
      </trkpt>
      <trkpt lat="44.11759" lon="3.22017">
        <ele>528</ele>
        <time>2017-03-01T16:56:05Z</time>
      </trkpt>
      <trkpt lat="44.11757" lon="3.2203">
        <ele>531</ele>
        <time>2017-03-01T16:58:05Z</time>
      </trkpt>
      <trkpt lat="44.11756" lon="3.22049">
        <ele>534</ele>
        <time>2017-03-01T17:00:05Z</time>
      </trkpt>
      <trkpt lat="44.11755" lon="3.22055">
        <ele>535</ele>
        <time>2017-03-01T17:02:05Z</time>
      </trkpt>
      <trkpt lat="44.11755" lon="3.22061">
        <ele>536</ele>
        <time>2017-03-01T17:04:05Z</time>
      </trkpt>
      <trkpt lat="44.11755" lon="3.22067">
        <ele>537</ele>
        <time>2017-03-01T17:06:05Z</time>
      </trkpt>
      <trkpt lat="44.11755" lon="3.22073">
        <ele>537</ele>
        <time>2017-03-01T17:08:05Z</time>
      </trkpt>
      <trkpt lat="44.11756" lon="3.22079">
        <ele>538</ele>
        <time>2017-03-01T17:10:05Z</time>
      </trkpt>
      <trkpt lat="44.11757" lon="3.22084">
        <ele>539</ele>
        <time>2017-03-01T17:12:05Z</time>
      </trkpt>
      <trkpt lat="44.11759" lon="3.22089">
        <ele>540</ele>
        <time>2017-03-01T17:14:05Z</time>
      </trkpt>
      <trkpt lat="44.11761" lon="3.22093">
        <ele>542</ele>
        <time>2017-03-01T17:16:05Z</time>
      </trkpt>
      <trkpt lat="44.11764" lon="3.22096">
        <ele>543</ele>
        <time>2017-03-01T17:18:05Z</time>
      </trkpt>
      <trkpt lat="44.11768" lon="3.22098">
        <ele>543</ele>
        <time>2017-03-01T17:20:05Z</time>
      </trkpt>
      <trkpt lat="44.11772" lon="3.221">
        <ele>544</ele>
        <time>2017-03-01T17:22:05Z</time>
      </trkpt>
      <trkpt lat="44.11776" lon="3.221">
        <ele>544</ele>
        <time>2017-03-01T17:24:05Z</time>
      </trkpt>
      <trkpt lat="44.1178" lon="3.22099">
        <ele>544</ele>
        <time>2017-03-01T17:26:05Z</time>
      </trkpt>
      <trkpt lat="44.11785" lon="3.22099">
        <ele>544</ele>
        <time>2017-03-01T17:28:05Z</time>
      </trkpt>
      <trkpt lat="44.1179" lon="3.22098">
        <ele>543</ele>
        <time>2017-03-01T17:30:05Z</time>
      </trkpt>
      <trkpt lat="44.11794" lon="3.22096">
        <ele>543</ele>
        <time>2017-03-01T17:32:05Z</time>
      </trkpt>
      <trkpt lat="44.11799" lon="3.22094">
        <ele>542</ele>
        <time>2017-03-01T17:34:05Z</time>
      </trkpt>
      <trkpt lat="44.11804" lon="3.22092">
        <ele>542</ele>
        <time>2017-03-01T17:36:05Z</time>
      </trkpt>
      <trkpt lat="44.11808" lon="3.2209">
        <ele>541</ele>
        <time>2017-03-01T17:38:05Z</time>
      </trkpt>
      <trkpt lat="44.11812" lon="3.22087">
        <ele>540</ele>
        <time>2017-03-01T17:40:05Z</time>
      </trkpt>
      <trkpt lat="44.11817" lon="3.22084">
        <ele>538</ele>
        <time>2017-03-01T17:42:05Z</time>
      </trkpt>
      <trkpt lat="44.11826" lon="3.22078">
        <ele>536</ele>
        <time>2017-03-01T17:44:05Z</time>
      </trkpt>
      <trkpt lat="44.1183" lon="3.22076">
        <ele>535</ele>
        <time>2017-03-01T17:46:05Z</time>
      </trkpt>
      <trkpt lat="44.11834" lon="3.22074">
        <ele>535</ele>
        <time>2017-03-01T17:48:05Z</time>
      </trkpt>
      <trkpt lat="44.11839" lon="3.22073">
        <ele>535</ele>
        <time>2017-03-01T17:50:05Z</time>
      </trkpt>
      <trkpt lat="44.11844" lon="3.22072">
        <ele>535</ele>
        <time>2017-03-01T17:52:05Z</time>
      </trkpt>
      <trkpt lat="44.11848" lon="3.22072">
        <ele>536</ele>
        <time>2017-03-01T17:54:05Z</time>
      </trkpt>
      <trkpt lat="44.11852" lon="3.22072">
        <ele>536</ele>
        <time>2017-03-01T17:56:05Z</time>
      </trkpt>
      <trkpt lat="44.11857" lon="3.22072">
        <ele>537</ele>
        <time>2017-03-01T17:58:05Z</time>
      </trkpt>
      <trkpt lat="44.11861" lon="3.22073">
        <ele>538</ele>
        <time>2017-03-01T18:00:05Z</time>
      </trkpt>
      <trkpt lat="44.11865" lon="3.22075">
        <ele>540</ele>
        <time>2017-03-01T18:02:05Z</time>
      </trkpt>
      <trkpt lat="44.11869" lon="3.22076">
        <ele>541</ele>
        <time>2017-03-01T18:04:05Z</time>
      </trkpt>
      <trkpt lat="44.11874" lon="3.22078">
        <ele>542</ele>
        <time>2017-03-01T18:06:05Z</time>
      </trkpt>
      <trkpt lat="44.11878" lon="3.22078">
        <ele>543</ele>
        <time>2017-03-01T18:08:05Z</time>
      </trkpt>
      <trkpt lat="44.11882" lon="3.22079">
        <ele>544</ele>
        <time>2017-03-01T18:10:05Z</time>
      </trkpt>
      <trkpt lat="44.11887" lon="3.22077">
        <ele>544</ele>
        <time>2017-03-01T18:12:05Z</time>
      </trkpt>
      <trkpt lat="44.11891" lon="3.22075">
        <ele>543</ele>
        <time>2017-03-01T18:14:05Z</time>
      </trkpt>
      <trkpt lat="44.11903" lon="3.22066">
        <ele>541</ele>
        <time>2017-03-01T18:16:05Z</time>
      </trkpt>
      <trkpt lat="44.11912" lon="3.2206">
        <ele>539</ele>
        <time>2017-03-01T18:18:05Z</time>
      </trkpt>
      <trkpt lat="44.1192" lon="3.22055">
        <ele>538</ele>
        <time>2017-03-01T18:20:05Z</time>
      </trkpt>
      <trkpt lat="44.11924" lon="3.22053">
        <ele>537</ele>
        <time>2017-03-01T18:22:05Z</time>
      </trkpt>
      <trkpt lat="44.11929" lon="3.22051">
        <ele>536</ele>
        <time>2017-03-01T18:24:05Z</time>
      </trkpt>
      <trkpt lat="44.11933" lon="3.2205">
        <ele>535</ele>
        <time>2017-03-01T18:26:05Z</time>
      </trkpt>
      <trkpt lat="44.11936" lon="3.22049">
        <ele>535</ele>
        <time>2017-03-01T18:28:05Z</time>
      </trkpt>
      <trkpt lat="44.11939" lon="3.22048">
        <ele>535</ele>
        <time>2017-03-01T18:30:05Z</time>
      </trkpt>
      <trkpt lat="44.11942" lon="3.22048">
        <ele>535</ele>
        <time>2017-03-01T18:32:05Z</time>
      </trkpt>
      <trkpt lat="44.11944" lon="3.22049">
        <ele>535</ele>
        <time>2017-03-01T18:34:05Z</time>
      </trkpt>
      <trkpt lat="44.11946" lon="3.2205">
        <ele>535</ele>
        <time>2017-03-01T18:36:05Z</time>
      </trkpt>
      <trkpt lat="44.11947" lon="3.22052">
        <ele>536</ele>
        <time>2017-03-01T18:38:05Z</time>
      </trkpt>
      <trkpt lat="44.11948" lon="3.22055">
        <ele>538</ele>
        <time>2017-03-01T18:40:05Z</time>
      </trkpt>
      <trkpt lat="44.11948" lon="3.22057">
        <ele>538</ele>
        <time>2017-03-01T18:42:05Z</time>
      </trkpt>
      <trkpt lat="44.11947" lon="3.2206">
        <ele>540</ele>
        <time>2017-03-01T18:44:05Z</time>
      </trkpt>
      <trkpt lat="44.11946" lon="3.22062">
        <ele>541</ele>
        <time>2017-03-01T18:46:05Z</time>
      </trkpt>
      <trkpt lat="44.11944" lon="3.22064">
        <ele>541</ele>
        <time>2017-03-01T18:48:05Z</time>
      </trkpt>
      <trkpt lat="44.11941" lon="3.22065">
        <ele>542</ele>
        <time>2017-03-01T18:50:05Z</time>
      </trkpt>
      <trkpt lat="44.11938" lon="3.22066">
        <ele>542</ele>
        <time>2017-03-01T18:52:05Z</time>
      </trkpt>
      <trkpt lat="44.11932" lon="3.22067">
        <ele>543</ele>
        <time>2017-03-01T18:54:05Z</time>
      </trkpt>
      <trkpt lat="44.11928" lon="3.22067">
        <ele>543</ele>
        <time>2017-03-01T18:56:05Z</time>
      </trkpt>
      <trkpt lat="44.11925" lon="3.22067">
        <ele>543</ele>
        <time>2017-03-01T18:58:05Z</time>
      </trkpt>
      <trkpt lat="44.11921" lon="3.22068">
        <ele>544</ele>
        <time>2017-03-01T19:00:05Z</time>
      </trkpt>
      <trkpt lat="44.11918" lon="3.22069">
        <ele>544</ele>
        <time>2017-03-01T19:02:05Z</time>
      </trkpt>
      <trkpt lat="44.11914" lon="3.22071">
        <ele>545</ele>
        <time>2017-03-01T19:04:05Z</time>
      </trkpt>
      <trkpt lat="44.11911" lon="3.22074">
        <ele>546</ele>
        <time>2017-03-01T19:06:05Z</time>
      </trkpt>
      <trkpt lat="44.11907" lon="3.22077">
        <ele>547</ele>
        <time>2017-03-01T19:08:05Z</time>
      </trkpt>
      <trkpt lat="44.11899" lon="3.22084">
        <ele>549</ele>
        <time>2017-03-01T19:10:05Z</time>
      </trkpt>
      <trkpt lat="44.11895" lon="3.22088">
        <ele>549</ele>
        <time>2017-03-01T19:12:05Z</time>
      </trkpt>
      <trkpt lat="44.11891" lon="3.22091">
        <ele>550</ele>
        <time>2017-03-01T19:14:05Z</time>
      </trkpt>
      <trkpt lat="44.11887" lon="3.22094">
        <ele>551</ele>
        <time>2017-03-01T19:16:05Z</time>
      </trkpt>
      <trkpt lat="44.11883" lon="3.22096">
        <ele>551</ele>
        <time>2017-03-01T19:18:05Z</time>
      </trkpt>
      <trkpt lat="44.11879" lon="3.22098">
        <ele>551</ele>
        <time>2017-03-01T19:20:05Z</time>
      </trkpt>
      <trkpt lat="44.11874" lon="3.22098">
        <ele>550</ele>
        <time>2017-03-01T19:22:05Z</time>
      </trkpt>
      <trkpt lat="44.11865" lon="3.22098">
        <ele>549</ele>
        <time>2017-03-01T19:24:05Z</time>
      </trkpt>
      <trkpt lat="44.11861" lon="3.22099">
        <ele>549</ele>
        <time>2017-03-01T19:26:05Z</time>
      </trkpt>
      <trkpt lat="44.11857" lon="3.221">
        <ele>549</ele>
        <time>2017-03-01T19:28:05Z</time>
      </trkpt>
      <trkpt lat="44.11852" lon="3.22101">
        <ele>548</ele>
        <time>2017-03-01T19:30:05Z</time>
      </trkpt>
      <trkpt lat="44.11848" lon="3.22103">
        <ele>548</ele>
        <time>2017-03-01T19:32:05Z</time>
      </trkpt>
      <trkpt lat="44.11844" lon="3.22106">
        <ele>549</ele>
        <time>2017-03-01T19:34:05Z</time>
      </trkpt>
      <trkpt lat="44.1184" lon="3.22109">
        <ele>550</ele>
        <time>2017-03-01T19:36:05Z</time>
      </trkpt>
      <trkpt lat="44.11828" lon="3.22118">
        <ele>552</ele>
        <time>2017-03-01T19:38:05Z</time>
      </trkpt>
      <trkpt lat="44.1182" lon="3.22124">
        <ele>554</ele>
        <time>2017-03-01T19:40:05Z</time>
      </trkpt>
      <trkpt lat="44.11812" lon="3.22132">
        <ele>557</ele>
        <time>2017-03-01T19:42:05Z</time>
      </trkpt>
      <trkpt lat="44.11789" lon="3.22152">
        <ele>562</ele>
        <time>2017-03-01T19:44:05Z</time>
      </trkpt>
      <trkpt lat="44.11778" lon="3.22162">
        <ele>564</ele>
        <time>2017-03-01T19:46:05Z</time>
      </trkpt>
      <trkpt lat="44.1177" lon="3.22168">
        <ele>564</ele>
        <time>2017-03-01T19:48:05Z</time>
      </trkpt>
      <trkpt lat="44.11762" lon="3.22174">
        <ele>566</ele>
        <time>2017-03-01T19:50:05Z</time>
      </trkpt>
      <trkpt lat="44.11758" lon="3.22177">
        <ele>566</ele>
        <time>2017-03-01T19:52:05Z</time>
      </trkpt>
      <trkpt lat="44.11754" lon="3.2218">
        <ele>567</ele>
        <time>2017-03-01T19:54:05Z</time>
      </trkpt>
      <trkpt lat="44.1175" lon="3.22182">
        <ele>567</ele>
        <time>2017-03-01T19:56:05Z</time>
      </trkpt>
      <trkpt lat="44.11747" lon="3.22184">
        <ele>568</ele>
        <time>2017-03-01T19:58:05Z</time>
      </trkpt>
      <trkpt lat="44.11743" lon="3.22185">
        <ele>570</ele>
        <time>2017-03-01T20:00:05Z</time>
      </trkpt>
      <trkpt lat="44.11739" lon="3.22186">
        <ele>571</ele>
        <time>2017-03-01T20:02:05Z</time>
      </trkpt>
      <trkpt lat="44.11735" lon="3.22187">
        <ele>572</ele>
        <time>2017-03-01T20:04:05Z</time>
      </trkpt>
      <trkpt lat="44.11732" lon="3.22186">
        <ele>572</ele>
        <time>2017-03-01T20:06:05Z</time>
      </trkpt>
      <trkpt lat="44.11728" lon="3.22186">
        <ele>573</ele>
        <time>2017-03-01T20:08:05Z</time>
      </trkpt>
      <trkpt lat="44.11724" lon="3.22184">
        <ele>573</ele>
        <time>2017-03-01T20:10:05Z</time>
      </trkpt>
      <trkpt lat="44.1172" lon="3.22182">
        <ele>573</ele>
        <time>2017-03-01T20:12:05Z</time>
      </trkpt>
      <trkpt lat="44.11715" lon="3.22179">
        <ele>573</ele>
        <time>2017-03-01T20:14:05Z</time>
      </trkpt>
      <trkpt lat="44.11705" lon="3.22172">
        <ele>573</ele>
        <time>2017-03-01T20:16:05Z</time>
      </trkpt>
      <trkpt lat="44.11702" lon="3.2217">
        <ele>573</ele>
        <time>2017-03-01T20:18:05Z</time>
      </trkpt>
      <trkpt lat="44.11698" lon="3.22167">
        <ele>573</ele>
        <time>2017-03-01T20:20:05Z</time>
      </trkpt>
      <trkpt lat="44.11695" lon="3.22163">
        <ele>573</ele>
        <time>2017-03-01T20:22:05Z</time>
      </trkpt>
      <trkpt lat="44.11693" lon="3.22158">
        <ele>573</ele>
        <time>2017-03-01T20:24:05Z</time>
      </trkpt>
      <trkpt lat="44.11688" lon="3.22149">
        <ele>573</ele>
        <time>2017-03-01T20:26:05Z</time>
      </trkpt>
      <trkpt lat="44.11685" lon="3.22144">
        <ele>573</ele>
        <time>2017-03-01T20:28:05Z</time>
      </trkpt>
      <trkpt lat="44.11682" lon="3.2214">
        <ele>574</ele>
        <time>2017-03-01T20:30:05Z</time>
      </trkpt>
      <trkpt lat="44.11679" lon="3.22136">
        <ele>574</ele>
        <time>2017-03-01T20:32:05Z</time>
      </trkpt>
      <trkpt lat="44.11669" lon="3.22126">
        <ele>577</ele>
        <time>2017-03-01T20:34:05Z</time>
      </trkpt>
      <trkpt lat="44.11667" lon="3.22122">
        <ele>577</ele>
        <time>2017-03-01T20:36:05Z</time>
      </trkpt>
      <trkpt lat="44.11665" lon="3.22118">
        <ele>578</ele>
        <time>2017-03-01T20:38:05Z</time>
      </trkpt>
      <trkpt lat="44.11664" lon="3.22114">
        <ele>578</ele>
        <time>2017-03-01T20:40:05Z</time>
      </trkpt>
      <trkpt lat="44.11663" lon="3.2211">
        <ele>578</ele>
        <time>2017-03-01T20:42:05Z</time>
      </trkpt>
      <trkpt lat="44.11664" lon="3.22106">
        <ele>578</ele>
        <time>2017-03-01T20:44:05Z</time>
      </trkpt>
      <trkpt lat="44.11665" lon="3.22102">
        <ele>577</ele>
        <time>2017-03-01T20:46:05Z</time>
      </trkpt>
      <trkpt lat="44.11667" lon="3.22098">
        <ele>576</ele>
        <time>2017-03-01T20:48:05Z</time>
      </trkpt>
      <trkpt lat="44.11669" lon="3.22094">
        <ele>575</ele>
        <time>2017-03-01T20:50:05Z</time>
      </trkpt>
      <trkpt lat="44.11672" lon="3.22091">
        <ele>573</ele>
        <time>2017-03-01T20:52:05Z</time>
      </trkpt>
      <trkpt lat="44.11675" lon="3.22088">
        <ele>572</ele>
        <time>2017-03-01T20:54:05Z</time>
      </trkpt>
      <trkpt lat="44.11678" lon="3.22084">
        <ele>570</ele>
        <time>2017-03-01T20:56:05Z</time>
      </trkpt>
      <trkpt lat="44.11681" lon="3.2208">
        <ele>569</ele>
        <time>2017-03-01T20:58:05Z</time>
      </trkpt>
      <trkpt lat="44.11683" lon="3.22075">
        <ele>567</ele>
        <time>2017-03-01T21:00:05Z</time>
      </trkpt>
      <trkpt lat="44.11684" lon="3.2207">
        <ele>567</ele>
        <time>2017-03-01T21:02:05Z</time>
      </trkpt>
      <trkpt lat="44.11685" lon="3.22065">
        <ele>566</ele>
        <time>2017-03-01T21:04:05Z</time>
      </trkpt>
      <trkpt lat="44.11685" lon="3.22059">
        <ele>565</ele>
        <time>2017-03-01T21:06:05Z</time>
      </trkpt>
      <trkpt lat="44.11685" lon="3.22053">
        <ele>565</ele>
        <time>2017-03-01T21:08:05Z</time>
      </trkpt>
      <trkpt lat="44.11684" lon="3.22047">
        <ele>565</ele>
        <time>2017-03-01T21:10:05Z</time>
      </trkpt>
      <trkpt lat="44.11684" lon="3.22041">
        <ele>565</ele>
        <time>2017-03-01T21:12:05Z</time>
      </trkpt>
      <trkpt lat="44.11683" lon="3.22035">
        <ele>565</ele>
        <time>2017-03-01T21:14:05Z</time>
      </trkpt>
      <trkpt lat="44.11681" lon="3.22029">
        <ele>565</ele>
        <time>2017-03-01T21:16:05Z</time>
      </trkpt>
      <trkpt lat="44.11679" lon="3.22023">
        <ele>566</ele>
        <time>2017-03-01T21:18:05Z</time>
      </trkpt>
      <trkpt lat="44.11677" lon="3.22017">
        <ele>567</ele>
        <time>2017-03-01T21:20:05Z</time>
      </trkpt>
      <trkpt lat="44.11675" lon="3.22012">
        <ele>567</ele>
        <time>2017-03-01T21:22:05Z</time>
      </trkpt>
      <trkpt lat="44.11672" lon="3.22007">
        <ele>569</ele>
        <time>2017-03-01T21:24:05Z</time>
      </trkpt>
      <trkpt lat="44.11669" lon="3.22002">
        <ele>570</ele>
        <time>2017-03-01T21:26:05Z</time>
      </trkpt>
      <trkpt lat="44.11666" lon="3.21997">
        <ele>571</ele>
        <time>2017-03-01T21:28:05Z</time>
      </trkpt>
      <trkpt lat="44.11662" lon="3.21993">
        <ele>573</ele>
        <time>2017-03-01T21:30:05Z</time>
      </trkpt>
      <trkpt lat="44.11655" lon="3.21984">
        <ele>576</ele>
        <time>2017-03-01T21:32:05Z</time>
      </trkpt>
      <trkpt lat="44.11651" lon="3.2198">
        <ele>578</ele>
        <time>2017-03-01T21:34:05Z</time>
      </trkpt>
      <trkpt lat="44.11644" lon="3.21974">
        <ele>581</ele>
        <time>2017-03-01T21:36:05Z</time>
      </trkpt>
      <trkpt lat="44.1164" lon="3.21969">
        <ele>583</ele>
        <time>2017-03-01T21:38:05Z</time>
      </trkpt>
      <trkpt lat="44.11636" lon="3.21965">
        <ele>585</ele>
        <time>2017-03-01T21:40:05Z</time>
      </trkpt>
      <trkpt lat="44.11633" lon="3.21961">
        <ele>586</ele>
        <time>2017-03-01T21:42:05Z</time>
      </trkpt>
      <trkpt lat="44.1163" lon="3.21957">
        <ele>588</ele>
        <time>2017-03-01T21:44:05Z</time>
      </trkpt>
      <trkpt lat="44.11627" lon="3.21952">
        <ele>589</ele>
        <time>2017-03-01T21:46:05Z</time>
      </trkpt>
      <trkpt lat="44.11624" lon="3.21947">
        <ele>591</ele>
        <time>2017-03-01T21:48:05Z</time>
      </trkpt>
      <trkpt lat="44.11622" lon="3.21942">
        <ele>592</ele>
        <time>2017-03-01T21:50:05Z</time>
      </trkpt>
      <trkpt lat="44.11621" lon="3.21937">
        <ele>592</ele>
        <time>2017-03-01T21:52:05Z</time>
      </trkpt>
      <trkpt lat="44.1162" lon="3.21931">
        <ele>593</ele>
        <time>2017-03-01T21:54:05Z</time>
      </trkpt>
      <trkpt lat="44.11621" lon="3.21925">
        <ele>592</ele>
        <time>2017-03-01T21:56:05Z</time>
      </trkpt>
      <trkpt lat="44.11621" lon="3.2192">
        <ele>592</ele>
        <time>2017-03-01T21:58:05Z</time>
      </trkpt>
      <trkpt lat="44.11623" lon="3.21914">
        <ele>591</ele>
        <time>2017-03-01T22:00:05Z</time>
      </trkpt>
      <trkpt lat="44.11626" lon="3.21909">
        <ele>591</ele>
        <time>2017-03-01T22:02:05Z</time>
      </trkpt>
      <trkpt lat="44.11631" lon="3.21899">
        <ele>590</ele>
        <time>2017-03-01T22:04:05Z</time>
      </trkpt>
      <trkpt lat="44.11638" lon="3.21888">
        <ele>589</ele>
        <time>2017-03-01T22:06:05Z</time>
      </trkpt>
      <trkpt lat="44.11648" lon="3.21874">
        <ele>586</ele>
        <time>2017-03-01T22:08:05Z</time>
      </trkpt>
      <trkpt lat="44.11654" lon="3.21865">
        <ele>585</ele>
        <time>2017-03-01T22:10:05Z</time>
      </trkpt>
      <trkpt lat="44.11659" lon="3.21857">
        <ele>583</ele>
        <time>2017-03-01T22:12:05Z</time>
      </trkpt>
      <trkpt lat="44.11662" lon="3.21853">
        <ele>582</ele>
        <time>2017-03-01T22:14:05Z</time>
      </trkpt>
      <trkpt lat="44.11664" lon="3.21849">
        <ele>582</ele>
        <time>2017-03-01T22:16:05Z</time>
      </trkpt>
      <trkpt lat="44.11666" lon="3.21846">
        <ele>581</ele>
        <time>2017-03-01T22:18:05Z</time>
      </trkpt>
      <trkpt lat="44.11667" lon="3.21842">
        <ele>581</ele>
        <time>2017-03-01T22:20:05Z</time>
      </trkpt>
      <trkpt lat="44.11669" lon="3.21838">
        <ele>581</ele>
        <time>2017-03-01T22:22:05Z</time>
      </trkpt>
      <trkpt lat="44.1167" lon="3.21834">
        <ele>581</ele>
        <time>2017-03-01T22:24:05Z</time>
      </trkpt>
      <trkpt lat="44.11671" lon="3.21829">
        <ele>582</ele>
        <time>2017-03-01T22:26:05Z</time>
      </trkpt>
      <trkpt lat="44.11671" lon="3.21824">
        <ele>582</ele>
        <time>2017-03-01T22:28:05Z</time>
      </trkpt>
      <trkpt lat="44.1167" lon="3.21817">
        <ele>584</ele>
        <time>2017-03-01T22:30:05Z</time>
      </trkpt>
      <trkpt lat="44.11667" lon="3.21809">
        <ele>587</ele>
        <time>2017-03-01T22:32:05Z</time>
      </trkpt>
      <trkpt lat="44.11665" lon="3.21798">
        <ele>590</ele>
        <time>2017-03-01T22:34:05Z</time>
      </trkpt>
      <trkpt lat="44.11664" lon="3.21793">
        <ele>592</ele>
        <time>2017-03-01T22:36:05Z</time>
      </trkpt>
      <trkpt lat="44.11663" lon="3.21787">
        <ele>593</ele>
        <time>2017-03-01T22:38:05Z</time>
      </trkpt>
      <trkpt lat="44.11663" lon="3.21781">
        <ele>594</ele>
        <time>2017-03-01T22:40:05Z</time>
      </trkpt>
      <trkpt lat="44.11664" lon="3.21775">
        <ele>595</ele>
        <time>2017-03-01T22:42:05Z</time>
      </trkpt>
      <trkpt lat="44.11665" lon="3.21769">
        <ele>595</ele>
        <time>2017-03-01T22:44:05Z</time>
      </trkpt>
      <trkpt lat="44.11667" lon="3.21757">
        <ele>596</ele>
        <time>2017-03-01T22:46:05Z</time>
      </trkpt>
      <trkpt lat="44.11669" lon="3.21745">
        <ele>595</ele>
        <time>2017-03-01T22:48:05Z</time>
      </trkpt>
      <trkpt lat="44.11672" lon="3.21727">
        <ele>592</ele>
        <time>2017-03-01T22:50:05Z</time>
      </trkpt>
      <trkpt lat="44.11673" lon="3.21722">
        <ele>592</ele>
        <time>2017-03-01T22:52:05Z</time>
      </trkpt>
      <trkpt lat="44.11673" lon="3.21716">
        <ele>591</ele>
        <time>2017-03-01T22:54:05Z</time>
      </trkpt>
      <trkpt lat="44.11673" lon="3.21709">
        <ele>591</ele>
        <time>2017-03-01T22:56:05Z</time>
      </trkpt>
      <trkpt lat="44.11673" lon="3.21703">
        <ele>591</ele>
        <time>2017-03-01T22:58:05Z</time>
      </trkpt>
      <trkpt lat="44.11672" lon="3.21696">
        <ele>591</ele>
        <time>2017-03-01T23:00:05Z</time>
      </trkpt>
      <trkpt lat="44.11671" lon="3.2169">
        <ele>591</ele>
        <time>2017-03-01T23:02:05Z</time>
      </trkpt>
      <trkpt lat="44.1167" lon="3.21683">
        <ele>592</ele>
        <time>2017-03-01T23:04:05Z</time>
      </trkpt>
      <trkpt lat="44.11668" lon="3.21676">
        <ele>593</ele>
        <time>2017-03-01T23:06:05Z</time>
      </trkpt>
      <trkpt lat="44.1166" lon="3.21648">
        <ele>598</ele>
        <time>2017-03-01T23:08:05Z</time>
      </trkpt>
      <trkpt lat="44.11659" lon="3.2164">
        <ele>598</ele>
        <time>2017-03-01T23:10:05Z</time>
      </trkpt>
      <trkpt lat="44.11655" lon="3.21625">
        <ele>600</ele>
        <time>2017-03-01T23:12:05Z</time>
      </trkpt>
      <trkpt lat="44.11654" lon="3.21617">
        <ele>601</ele>
        <time>2017-03-01T23:14:05Z</time>
      </trkpt>
      <trkpt lat="44.11651" lon="3.21602">
        <ele>602</ele>
        <time>2017-03-01T23:16:05Z</time>
      </trkpt>
      <trkpt lat="44.11648" lon="3.21587">
        <ele>604</ele>
        <time>2017-03-01T23:18:05Z</time>
      </trkpt>
      <trkpt lat="44.11646" lon="3.21579">
        <ele>606</ele>
        <time>2017-03-01T23:20:05Z</time>
      </trkpt>
      <trkpt lat="44.11641" lon="3.21556">
        <ele>609</ele>
        <time>2017-03-01T23:22:05Z</time>
      </trkpt>
      <trkpt lat="44.11636" lon="3.21529">
        <ele>611</ele>
        <time>2017-03-01T23:24:05Z</time>
      </trkpt>
      <trkpt lat="44.11635" lon="3.21523">
        <ele>611</ele>
        <time>2017-03-01T23:26:05Z</time>
      </trkpt>
      <trkpt lat="44.11634" lon="3.21517">
        <ele>611</ele>
        <time>2017-03-01T23:28:05Z</time>
      </trkpt>
      <trkpt lat="44.11633" lon="3.21512">
        <ele>611</ele>
        <time>2017-03-01T23:30:05Z</time>
      </trkpt>
      <trkpt lat="44.11633" lon="3.21507">
        <ele>611</ele>
        <time>2017-03-01T23:32:05Z</time>
      </trkpt>
      <trkpt lat="44.11632" lon="3.21498">
        <ele>610</ele>
        <time>2017-03-01T23:34:05Z</time>
      </trkpt>
      <trkpt lat="44.11631" lon="3.21492">
        <ele>610</ele>
        <time>2017-03-01T23:36:05Z</time>
      </trkpt>
      <trkpt lat="44.11631" lon="3.2149">
        <ele>610</ele>
        <time>2017-03-01T23:38:05Z</time>
      </trkpt>
      <trkpt lat="44.1163" lon="3.21487">
        <ele>610</ele>
        <time>2017-03-01T23:40:05Z</time>
      </trkpt>
      <trkpt lat="44.11629" lon="3.21484">
        <ele>611</ele>
        <time>2017-03-01T23:42:05Z</time>
      </trkpt>
      <trkpt lat="44.11627" lon="3.2148">
        <ele>612</ele>
        <time>2017-03-01T23:44:05Z</time>
      </trkpt>
      <trkpt lat="44.11618" lon="3.21466">
        <ele>617</ele>
        <time>2017-03-01T23:46:05Z</time>
      </trkpt>
      <trkpt lat="44.11606" lon="3.21444">
        <ele>622</ele>
        <time>2017-03-01T23:48:05Z</time>
      </trkpt>
      <trkpt lat="44.116" lon="3.21436">
        <ele>625</ele>
        <time>2017-03-01T23:50:05Z</time>
      </trkpt>
      <trkpt lat="44.11594" lon="3.21427">
        <ele>628</ele>
        <time>2017-03-01T23:52:05Z</time>
      </trkpt>
      <trkpt lat="44.11588" lon="3.21419">
        <ele>630</ele>
        <time>2017-03-01T23:54:05Z</time>
      </trkpt>
      <trkpt lat="44.11586" lon="3.21414">
        <ele>631</ele>
        <time>2017-03-01T23:56:05Z</time>
      </trkpt>
      <trkpt lat="44.11584" lon="3.2141">
        <ele>632</ele>
        <time>2017-03-01T23:58:05Z</time>
      </trkpt>
      <trkpt lat="44.11582" lon="3.21405">
        <ele>632</ele>
        <time>2017-03-02T00:00:05Z</time>
      </trkpt>
      <trkpt lat="44.11581" lon="3.214">
        <ele>632</ele>
        <time>2017-03-02T00:02:05Z</time>
      </trkpt>
      <trkpt lat="44.1158" lon="3.21394">
        <ele>632</ele>
        <time>2017-03-02T00:04:05Z</time>
      </trkpt>
      <trkpt lat="44.1158" lon="3.21388">
        <ele>631</ele>
        <time>2017-03-02T00:06:05Z</time>
      </trkpt>
      <trkpt lat="44.11581" lon="3.21382">
        <ele>630</ele>
        <time>2017-03-02T00:08:05Z</time>
      </trkpt>
      <trkpt lat="44.11581" lon="3.21376">
        <ele>629</ele>
        <time>2017-03-02T00:10:05Z</time>
      </trkpt>
      <trkpt lat="44.11584" lon="3.21353">
        <ele>625</ele>
        <time>2017-03-02T00:12:05Z</time>
      </trkpt>
      <trkpt lat="44.11585" lon="3.21345">
        <ele>623</ele>
        <time>2017-03-02T00:14:05Z</time>
      </trkpt>
      <trkpt lat="44.11586" lon="3.21339">
        <ele>622</ele>
        <time>2017-03-02T00:16:05Z</time>
      </trkpt>
      <trkpt lat="44.11588" lon="3.21334">
        <ele>621</ele>
        <time>2017-03-02T00:18:05Z</time>
      </trkpt>
      <trkpt lat="44.1159" lon="3.21328">
        <ele>620</ele>
        <time>2017-03-02T00:20:05Z</time>
      </trkpt>
      <trkpt lat="44.11592" lon="3.21322">
        <ele>619</ele>
        <time>2017-03-02T00:22:05Z</time>
      </trkpt>
      <trkpt lat="44.11597" lon="3.2131">
        <ele>618</ele>
        <time>2017-03-02T00:24:05Z</time>
      </trkpt>
      <trkpt lat="44.11604" lon="3.21295">
        <ele>617</ele>
        <time>2017-03-02T00:26:05Z</time>
      </trkpt>
      <trkpt lat="44.1161" lon="3.21282">
        <ele>616</ele>
        <time>2017-03-02T00:28:05Z</time>
      </trkpt>
      <trkpt lat="44.11616" lon="3.21273">
        <ele>614</ele>
        <time>2017-03-02T00:30:05Z</time>
      </trkpt>
      <trkpt lat="44.11632" lon="3.21248">
        <ele>612</ele>
        <time>2017-03-02T00:32:05Z</time>
      </trkpt>
      <trkpt lat="44.11634" lon="3.21244">
        <ele>612</ele>
        <time>2017-03-02T00:34:05Z</time>
      </trkpt>
      <trkpt lat="44.11636" lon="3.21242">
        <ele>611</ele>
        <time>2017-03-02T00:36:05Z</time>
      </trkpt>
      <trkpt lat="44.1164" lon="3.21233">
        <ele>611</ele>
        <time>2017-03-02T00:38:05Z</time>
      </trkpt>
      <trkpt lat="44.11642" lon="3.2123">
        <ele>611</ele>
        <time>2017-03-02T00:40:05Z</time>
      </trkpt>
      <trkpt lat="44.11646" lon="3.21223">
        <ele>611</ele>
        <time>2017-03-02T00:42:05Z</time>
      </trkpt>
      <trkpt lat="44.11647" lon="3.21219">
        <ele>611</ele>
        <time>2017-03-02T00:44:05Z</time>
      </trkpt>
      <trkpt lat="44.11649" lon="3.21215">
        <ele>611</ele>
        <time>2017-03-02T00:46:05Z</time>
      </trkpt>
      <trkpt lat="44.1165" lon="3.21211">
        <ele>611</ele>
        <time>2017-03-02T00:48:05Z</time>
      </trkpt>
      <trkpt lat="44.11651" lon="3.21206">
        <ele>612</ele>
        <time>2017-03-02T00:50:05Z</time>
      </trkpt>
      <trkpt lat="44.11653" lon="3.21201">
        <ele>612</ele>
        <time>2017-03-02T00:52:05Z</time>
      </trkpt>
      <trkpt lat="44.11655" lon="3.2119">
        <ele>614</ele>
        <time>2017-03-02T00:54:05Z</time>
      </trkpt>
      <trkpt lat="44.11656" lon="3.21185">
        <ele>614</ele>
        <time>2017-03-02T00:56:05Z</time>
      </trkpt>
      <trkpt lat="44.11657" lon="3.21179">
        <ele>615</ele>
        <time>2017-03-02T00:58:05Z</time>
      </trkpt>
      <trkpt lat="44.11658" lon="3.21177">
        <ele>615</ele>
        <time>2017-03-02T01:00:05Z</time>
      </trkpt>
      <trkpt lat="44.11659" lon="3.21174">
        <ele>616</ele>
        <time>2017-03-02T01:02:05Z</time>
      </trkpt>
      <trkpt lat="44.11661" lon="3.21169">
        <ele>617</ele>
        <time>2017-03-02T01:04:05Z</time>
      </trkpt>
      <trkpt lat="44.11663" lon="3.21164">
        <ele>617</ele>
        <time>2017-03-02T01:06:05Z</time>
      </trkpt>
      <trkpt lat="44.11669" lon="3.21151">
        <ele>613</ele>
        <time>2017-03-02T01:08:05Z</time>
      </trkpt>
      <trkpt lat="44.11671" lon="3.21145">
        <ele>611</ele>
        <time>2017-03-02T01:10:05Z</time>
      </trkpt>
      <trkpt lat="44.11673" lon="3.21139">
        <ele>610</ele>
        <time>2017-03-02T01:12:05Z</time>
      </trkpt>
      <trkpt lat="44.11673" lon="3.21136">
        <ele>609</ele>
        <time>2017-03-02T01:14:05Z</time>
      </trkpt>
      <trkpt lat="44.11673" lon="3.21135">
        <ele>609</ele>
        <time>2017-03-02T01:16:05Z</time>
      </trkpt>
      <trkpt lat="44.11673" lon="3.21133">
        <ele>609</ele>
        <time>2017-03-02T01:18:05Z</time>
      </trkpt>
      <trkpt lat="44.11673" lon="3.21131">
        <ele>608</ele>
        <time>2017-03-02T01:20:05Z</time>
      </trkpt>
      <trkpt lat="44.11673" lon="3.2113">
        <ele>608</ele>
        <time>2017-03-02T01:22:05Z</time>
      </trkpt>
      <trkpt lat="44.11672" lon="3.21128">
        <ele>608</ele>
        <time>2017-03-02T01:24:05Z</time>
      </trkpt>
      <trkpt lat="44.11671" lon="3.21127">
        <ele>608</ele>
        <time>2017-03-02T01:26:05Z</time>
      </trkpt>
      <trkpt lat="44.1167" lon="3.21126">
        <ele>609</ele>
        <time>2017-03-02T01:28:05Z</time>
      </trkpt>
      <trkpt lat="44.11669" lon="3.21126">
        <ele>609</ele>
        <time>2017-03-02T01:30:05Z</time>
      </trkpt>
      <trkpt lat="44.11668" lon="3.21125">
        <ele>609</ele>
        <time>2017-03-02T01:32:05Z</time>
      </trkpt>
      <trkpt lat="44.11667" lon="3.21125">
        <ele>609</ele>
        <time>2017-03-02T01:34:05Z</time>
      </trkpt>
      <trkpt lat="44.11666" lon="3.21125">
        <ele>609</ele>
        <time>2017-03-02T01:36:05Z</time>
      </trkpt>
      <trkpt lat="44.11665" lon="3.21126">
        <ele>610</ele>
        <time>2017-03-02T01:38:05Z</time>
      </trkpt>
      <trkpt lat="44.11664" lon="3.21126">
        <ele>610</ele>
        <time>2017-03-02T01:40:05Z</time>
      </trkpt>
      <trkpt lat="44.11662" lon="3.21127">
        <ele>610</ele>
        <time>2017-03-02T01:42:05Z</time>
      </trkpt>
      <trkpt lat="44.11661" lon="3.21127">
        <ele>610</ele>
        <time>2017-03-02T01:44:05Z</time>
      </trkpt>
      <trkpt lat="44.1166" lon="3.21129">
        <ele>610</ele>
        <time>2017-03-02T01:46:05Z</time>
      </trkpt>
      <trkpt lat="44.11658" lon="3.21131">
        <ele>610</ele>
        <time>2017-03-02T01:48:05Z</time>
      </trkpt>
      <trkpt lat="44.11656" lon="3.21135">
        <ele>611</ele>
        <time>2017-03-02T01:50:05Z</time>
      </trkpt>
      <trkpt lat="44.11652" lon="3.21142">
        <ele>612</ele>
        <time>2017-03-02T01:52:05Z</time>
      </trkpt>
      <trkpt lat="44.11649" lon="3.21146">
        <ele>613</ele>
        <time>2017-03-02T01:54:05Z</time>
      </trkpt>
      <trkpt lat="44.11647" lon="3.2115">
        <ele>614</ele>
        <time>2017-03-02T01:56:05Z</time>
      </trkpt>
      <trkpt lat="44.11644" lon="3.21154">
        <ele>615</ele>
        <time>2017-03-02T01:58:05Z</time>
      </trkpt>
      <trkpt lat="44.11641" lon="3.21158">
        <ele>616</ele>
        <time>2017-03-02T02:00:05Z</time>
      </trkpt>
      <trkpt lat="44.11635" lon="3.21165">
        <ele>617</ele>
        <time>2017-03-02T02:02:05Z</time>
      </trkpt>
      <trkpt lat="44.11632" lon="3.21168">
        <ele>618</ele>
        <time>2017-03-02T02:04:05Z</time>
      </trkpt>
      <trkpt lat="44.11628" lon="3.21171">
        <ele>618</ele>
        <time>2017-03-02T02:06:05Z</time>
      </trkpt>
      <trkpt lat="44.11618" lon="3.21179">
        <ele>618</ele>
        <time>2017-03-02T02:08:05Z</time>
      </trkpt>
      <trkpt lat="44.11611" lon="3.21185">
        <ele>619</ele>
        <time>2017-03-02T02:10:05Z</time>
      </trkpt>
      <trkpt lat="44.11607" lon="3.21188">
        <ele>619</ele>
        <time>2017-03-02T02:12:05Z</time>
      </trkpt>
      <trkpt lat="44.11605" lon="3.21192">
        <ele>619</ele>
        <time>2017-03-02T02:14:05Z</time>
      </trkpt>
      <trkpt lat="44.11602" lon="3.21197">
        <ele>620</ele>
        <time>2017-03-02T02:16:05Z</time>
      </trkpt>
      <trkpt lat="44.11599" lon="3.21202">
        <ele>621</ele>
        <time>2017-03-02T02:18:05Z</time>
      </trkpt>
      <trkpt lat="44.11596" lon="3.21211">
        <ele>622</ele>
        <time>2017-03-02T02:20:05Z</time>
      </trkpt>
      <trkpt lat="44.11588" lon="3.21231">
        <ele>625</ele>
        <time>2017-03-02T02:22:05Z</time>
      </trkpt>
      <trkpt lat="44.11583" lon="3.21244">
        <ele>628</ele>
        <time>2017-03-02T02:24:05Z</time>
      </trkpt>
      <trkpt lat="44.11582" lon="3.21247">
        <ele>629</ele>
        <time>2017-03-02T02:26:05Z</time>
      </trkpt>
      <trkpt lat="44.11579" lon="3.21252">
        <ele>629</ele>
        <time>2017-03-02T02:28:05Z</time>
      </trkpt>
      <trkpt lat="44.11577" lon="3.21257">
        <ele>629</ele>
        <time>2017-03-02T02:30:05Z</time>
      </trkpt>
      <trkpt lat="44.11574" lon="3.21261">
        <ele>629</ele>
        <time>2017-03-02T02:32:05Z</time>
      </trkpt>
      <trkpt lat="44.1157" lon="3.21264">
        <ele>629</ele>
        <time>2017-03-02T02:34:05Z</time>
      </trkpt>
      <trkpt lat="44.11567" lon="3.21268">
        <ele>630</ele>
        <time>2017-03-02T02:36:05Z</time>
      </trkpt>
      <trkpt lat="44.11562" lon="3.2127">
        <ele>630</ele>
        <time>2017-03-02T02:38:05Z</time>
      </trkpt>
      <trkpt lat="44.11558" lon="3.21273">
        <ele>631</ele>
        <time>2017-03-02T02:40:05Z</time>
      </trkpt>
      <trkpt lat="44.11554" lon="3.21275">
        <ele>632</ele>
        <time>2017-03-02T02:42:05Z</time>
      </trkpt>
      <trkpt lat="44.11549" lon="3.21276">
        <ele>632</ele>
        <time>2017-03-02T02:44:05Z</time>
      </trkpt>
      <trkpt lat="44.11545" lon="3.21278">
        <ele>633</ele>
        <time>2017-03-02T02:46:05Z</time>
      </trkpt>
      <trkpt lat="44.1154" lon="3.21279">
        <ele>634</ele>
        <time>2017-03-02T02:48:05Z</time>
      </trkpt>
      <trkpt lat="44.11536" lon="3.2128">
        <ele>635</ele>
        <time>2017-03-02T02:50:05Z</time>
      </trkpt>
      <trkpt lat="44.11531" lon="3.21279">
        <ele>636</ele>
        <time>2017-03-02T02:52:05Z</time>
      </trkpt>
      <trkpt lat="44.11527" lon="3.21279">
        <ele>636</ele>
        <time>2017-03-02T02:54:05Z</time>
      </trkpt>
      <trkpt lat="44.11523" lon="3.21278">
        <ele>637</ele>
        <time>2017-03-02T02:56:05Z</time>
      </trkpt>
      <trkpt lat="44.11519" lon="3.21276">
        <ele>637</ele>
        <time>2017-03-02T02:58:05Z</time>
      </trkpt>
      <trkpt lat="44.11515" lon="3.21275">
        <ele>638</ele>
        <time>2017-03-02T03:00:05Z</time>
      </trkpt>
      <trkpt lat="44.11512" lon="3.21274">
        <ele>638</ele>
        <time>2017-03-02T03:02:05Z</time>
      </trkpt>
      <trkpt lat="44.11508" lon="3.21274">
        <ele>638</ele>
        <time>2017-03-02T03:04:05Z</time>
      </trkpt>
      <trkpt lat="44.11505" lon="3.21275">
        <ele>639</ele>
        <time>2017-03-02T03:06:05Z</time>
      </trkpt>
      <trkpt lat="44.11501" lon="3.21276">
        <ele>640</ele>
        <time>2017-03-02T03:08:05Z</time>
      </trkpt>
      <trkpt lat="44.11498" lon="3.21278">
        <ele>640</ele>
        <time>2017-03-02T03:10:05Z</time>
      </trkpt>
      <trkpt lat="44.11494" lon="3.21281">
        <ele>641</ele>
        <time>2017-03-02T03:12:05Z</time>
      </trkpt>
      <trkpt lat="44.11491" lon="3.21284">
        <ele>641</ele>
        <time>2017-03-02T03:14:05Z</time>
      </trkpt>
      <trkpt lat="44.11487" lon="3.21288">
        <ele>642</ele>
        <time>2017-03-02T03:16:05Z</time>
      </trkpt>
      <trkpt lat="44.11484" lon="3.21291">
        <ele>643</ele>
        <time>2017-03-02T03:18:05Z</time>
      </trkpt>
      <trkpt lat="44.1148" lon="3.21295">
        <ele>644</ele>
        <time>2017-03-02T03:20:05Z</time>
      </trkpt>
      <trkpt lat="44.11476" lon="3.21298">
        <ele>644</ele>
        <time>2017-03-02T03:22:05Z</time>
      </trkpt>
      <trkpt lat="44.11472" lon="3.21302">
        <ele>645</ele>
        <time>2017-03-02T03:24:05Z</time>
      </trkpt>
      <trkpt lat="44.11467" lon="3.21305">
        <ele>646</ele>
        <time>2017-03-02T03:26:05Z</time>
      </trkpt>
      <trkpt lat="44.11463" lon="3.21308">
        <ele>647</ele>
        <time>2017-03-02T03:28:05Z</time>
      </trkpt>
      <trkpt lat="44.11453" lon="3.21314">
        <ele>648</ele>
        <time>2017-03-02T03:30:05Z</time>
      </trkpt>
      <trkpt lat="44.11438" lon="3.21323">
        <ele>650</ele>
        <time>2017-03-02T03:32:05Z</time>
      </trkpt>
      <trkpt lat="44.11423" lon="3.21331">
        <ele>652</ele>
        <time>2017-03-02T03:34:05Z</time>
      </trkpt>
      <trkpt lat="44.11413" lon="3.21337">
        <ele>654</ele>
        <time>2017-03-02T03:36:05Z</time>
      </trkpt>
      <trkpt lat="44.11408" lon="3.2134">
        <ele>655</ele>
        <time>2017-03-02T03:38:05Z</time>
      </trkpt>
      <trkpt lat="44.11403" lon="3.21343">
        <ele>656</ele>
        <time>2017-03-02T03:40:05Z</time>
      </trkpt>
      <trkpt lat="44.11397" lon="3.21345">
        <ele>656</ele>
        <time>2017-03-02T03:42:05Z</time>
      </trkpt>
      <trkpt lat="44.11392" lon="3.21346">
        <ele>656</ele>
        <time>2017-03-02T03:44:05Z</time>
      </trkpt>
      <trkpt lat="44.1138" lon="3.21348">
        <ele>656</ele>
        <time>2017-03-02T03:46:05Z</time>
      </trkpt>
      <trkpt lat="44.11374" lon="3.21348">
        <ele>656</ele>
        <time>2017-03-02T03:48:05Z</time>
      </trkpt>
      <trkpt lat="44.11356" lon="3.21351">
        <ele>655</ele>
        <time>2017-03-02T03:50:05Z</time>
      </trkpt>
      <trkpt lat="44.11349" lon="3.21351">
        <ele>655</ele>
        <time>2017-03-02T03:52:05Z</time>
      </trkpt>
      <trkpt lat="44.11344" lon="3.21352">
        <ele>655</ele>
        <time>2017-03-02T03:54:05Z</time>
      </trkpt>
      <trkpt lat="44.11337" lon="3.21354">
        <ele>655</ele>
        <time>2017-03-02T03:56:05Z</time>
      </trkpt>
      <trkpt lat="44.11331" lon="3.21356">
        <ele>655</ele>
        <time>2017-03-02T03:58:05Z</time>
      </trkpt>
      <trkpt lat="44.11319" lon="3.21362">
        <ele>657</ele>
        <time>2017-03-02T04:00:05Z</time>
      </trkpt>
      <trkpt lat="44.11314" lon="3.21363">
        <ele>657</ele>
        <time>2017-03-02T04:02:05Z</time>
      </trkpt>
      <trkpt lat="44.11308" lon="3.21364">
        <ele>657</ele>
        <time>2017-03-02T04:04:05Z</time>
      </trkpt>
      <trkpt lat="44.11303" lon="3.21365">
        <ele>658</ele>
        <time>2017-03-02T04:06:05Z</time>
      </trkpt>
      <trkpt lat="44.11292" lon="3.21367">
        <ele>658</ele>
        <time>2017-03-02T04:08:05Z</time>
      </trkpt>
      <trkpt lat="44.11286" lon="3.21369">
        <ele>658</ele>
        <time>2017-03-02T04:10:05Z</time>
      </trkpt>
      <trkpt lat="44.11281" lon="3.2137">
        <ele>658</ele>
        <time>2017-03-02T04:12:05Z</time>
      </trkpt>
      <trkpt lat="44.11275" lon="3.21371">
        <ele>658</ele>
        <time>2017-03-02T04:14:05Z</time>
      </trkpt>
      <trkpt lat="44.1127" lon="3.21371">
        <ele>658</ele>
        <time>2017-03-02T04:16:05Z</time>
      </trkpt>
      <trkpt lat="44.11259" lon="3.21372">
        <ele>658</ele>
        <time>2017-03-02T04:18:05Z</time>
      </trkpt>
      <trkpt lat="44.11254" lon="3.21372">
        <ele>658</ele>
        <time>2017-03-02T04:20:05Z</time>
      </trkpt>
      <trkpt lat="44.11248" lon="3.21373">
        <ele>658</ele>
        <time>2017-03-02T04:22:05Z</time>
      </trkpt>
      <trkpt lat="44.11242" lon="3.21375">
        <ele>658</ele>
        <time>2017-03-02T04:24:05Z</time>
      </trkpt>
      <trkpt lat="44.11237" lon="3.21376">
        <ele>659</ele>
        <time>2017-03-02T04:26:05Z</time>
      </trkpt>
      <trkpt lat="44.11231" lon="3.21378">
        <ele>659</ele>
        <time>2017-03-02T04:28:05Z</time>
      </trkpt>
      <trkpt lat="44.1122" lon="3.21381">
        <ele>660</ele>
        <time>2017-03-02T04:30:05Z</time>
      </trkpt>
      <trkpt lat="44.11214" lon="3.21383">
        <ele>660</ele>
        <time>2017-03-02T04:32:05Z</time>
      </trkpt>
      <trkpt lat="44.11209" lon="3.21386">
        <ele>661</ele>
        <time>2017-03-02T04:34:05Z</time>
      </trkpt>
      <trkpt lat="44.11198" lon="3.21391">
        <ele>662</ele>
        <time>2017-03-02T04:36:05Z</time>
      </trkpt>
      <trkpt lat="44.11192" lon="3.21393">
        <ele>662</ele>
        <time>2017-03-02T04:38:05Z</time>
      </trkpt>
      <trkpt lat="44.11186" lon="3.21395">
        <ele>662</ele>
        <time>2017-03-02T04:40:05Z</time>
      </trkpt>
      <trkpt lat="44.1118" lon="3.21397">
        <ele>662</ele>
        <time>2017-03-02T04:42:05Z</time>
      </trkpt>
      <trkpt lat="44.11169" lon="3.214">
        <ele>663</ele>
        <time>2017-03-02T04:44:05Z</time>
      </trkpt>
      <trkpt lat="44.11157" lon="3.21402">
        <ele>663</ele>
        <time>2017-03-02T04:46:05Z</time>
      </trkpt>
      <trkpt lat="44.11151" lon="3.21403">
        <ele>663</ele>
        <time>2017-03-02T04:48:05Z</time>
      </trkpt>
      <trkpt lat="44.11146" lon="3.21405">
        <ele>663</ele>
        <time>2017-03-02T04:50:05Z</time>
      </trkpt>
      <trkpt lat="44.1114" lon="3.21407">
        <ele>663</ele>
        <time>2017-03-02T04:52:05Z</time>
      </trkpt>
      <trkpt lat="44.11135" lon="3.2141">
        <ele>663</ele>
        <time>2017-03-02T04:54:05Z</time>
      </trkpt>
      <trkpt lat="44.1113" lon="3.21412">
        <ele>664</ele>
        <time>2017-03-02T04:56:05Z</time>
      </trkpt>
      <trkpt lat="44.11124" lon="3.21414">
        <ele>664</ele>
        <time>2017-03-02T04:58:05Z</time>
      </trkpt>
      <trkpt lat="44.11119" lon="3.21414">
        <ele>663</ele>
        <time>2017-03-02T05:00:05Z</time>
      </trkpt>
      <trkpt lat="44.11113" lon="3.21414">
        <ele>663</ele>
        <time>2017-03-02T05:02:05Z</time>
      </trkpt>
      <trkpt lat="44.11108" lon="3.21413">
        <ele>663</ele>
        <time>2017-03-02T05:04:05Z</time>
      </trkpt>
      <trkpt lat="44.11103" lon="3.21412">
        <ele>662</ele>
        <time>2017-03-02T05:06:05Z</time>
      </trkpt>
      <trkpt lat="44.11098" lon="3.2141">
        <ele>662</ele>
        <time>2017-03-02T05:08:05Z</time>
      </trkpt>
      <trkpt lat="44.11093" lon="3.2141">
        <ele>662</ele>
        <time>2017-03-02T05:10:05Z</time>
      </trkpt>
      <trkpt lat="44.11089" lon="3.2141">
        <ele>662</ele>
        <time>2017-03-02T05:12:05Z</time>
      </trkpt>
      <trkpt lat="44.11084" lon="3.2141">
        <ele>661</ele>
        <time>2017-03-02T05:14:05Z</time>
      </trkpt>
      <trkpt lat="44.11075" lon="3.21413">
        <ele>662</ele>
        <time>2017-03-02T05:16:05Z</time>
      </trkpt>
      <trkpt lat="44.11063" lon="3.21418">
        <ele>662</ele>
        <time>2017-03-02T05:18:05Z</time>
      </trkpt>
      <trkpt lat="44.11062" lon="3.21419">
        <ele>662</ele>
        <time>2017-03-02T05:20:05Z</time>
      </trkpt>
      <trkpt lat="44.11058" lon="3.21421">
        <ele>662</ele>
        <time>2017-03-02T05:22:05Z</time>
      </trkpt>
      <trkpt lat="44.11056" lon="3.21424">
        <ele>663</ele>
        <time>2017-03-02T05:24:05Z</time>
      </trkpt>
      <trkpt lat="44.11055" lon="3.21425">
        <ele>663</ele>
        <time>2017-03-02T05:26:05Z</time>
      </trkpt>
      <trkpt lat="44.11051" lon="3.21428">
        <ele>663</ele>
        <time>2017-03-02T05:28:05Z</time>
      </trkpt>
      <trkpt lat="44.11048" lon="3.21433">
        <ele>664</ele>
        <time>2017-03-02T05:30:05Z</time>
      </trkpt>
      <trkpt lat="44.11045" lon="3.21437">
        <ele>664</ele>
        <time>2017-03-02T05:32:05Z</time>
      </trkpt>
      <trkpt lat="44.11041" lon="3.21442">
        <ele>665</ele>
        <time>2017-03-02T05:34:05Z</time>
      </trkpt>
      <trkpt lat="44.11038" lon="3.21447">
        <ele>665</ele>
        <time>2017-03-02T05:36:05Z</time>
      </trkpt>
      <trkpt lat="44.11028" lon="3.21464">
        <ele>667</ele>
        <time>2017-03-02T05:38:05Z</time>
      </trkpt>
      <trkpt lat="44.11021" lon="3.21476">
        <ele>668</ele>
        <time>2017-03-02T05:40:05Z</time>
      </trkpt>
      <trkpt lat="44.11018" lon="3.21482">
        <ele>668</ele>
        <time>2017-03-02T05:42:05Z</time>
      </trkpt>
      <trkpt lat="44.11014" lon="3.21487">
        <ele>669</ele>
        <time>2017-03-02T05:44:05Z</time>
      </trkpt>
      <trkpt lat="44.1101" lon="3.21493">
        <ele>669</ele>
        <time>2017-03-02T05:46:05Z</time>
      </trkpt>
      <trkpt lat="44.11007" lon="3.21498">
        <ele>669</ele>
        <time>2017-03-02T05:48:05Z</time>
      </trkpt>
      <trkpt lat="44.10998" lon="3.21508">
        <ele>670</ele>
        <time>2017-03-02T05:50:05Z</time>
      </trkpt>
      <trkpt lat="44.1099" lon="3.21519">
        <ele>672</ele>
        <time>2017-03-02T05:52:05Z</time>
      </trkpt>
      <trkpt lat="44.10986" lon="3.21524">
        <ele>673</ele>
        <time>2017-03-02T05:54:05Z</time>
      </trkpt>
      <trkpt lat="44.10978" lon="3.21535">
        <ele>674</ele>
        <time>2017-03-02T05:56:05Z</time>
      </trkpt>
      <trkpt lat="44.10966" lon="3.21553">
        <ele>677</ele>
        <time>2017-03-02T05:58:05Z</time>
      </trkpt>
      <trkpt lat="44.10957" lon="3.21563">
        <ele>677</ele>
        <time>2017-03-02T06:00:05Z</time>
      </trkpt>
      <trkpt lat="44.10948" lon="3.21573">
        <ele>678</ele>
        <time>2017-03-02T06:02:05Z</time>
      </trkpt>
      <trkpt lat="44.10944" lon="3.21578">
        <ele>679</ele>
        <time>2017-03-02T06:04:05Z</time>
      </trkpt>
      <trkpt lat="44.10936" lon="3.21588">
        <ele>679</ele>
        <time>2017-03-02T06:06:05Z</time>
      </trkpt>
      <trkpt lat="44.10918" lon="3.21609">
        <ele>681</ele>
        <time>2017-03-02T06:08:05Z</time>
      </trkpt>
      <trkpt lat="44.109" lon="3.21629">
        <ele>683</ele>
        <time>2017-03-02T06:10:05Z</time>
      </trkpt>
      <trkpt lat="44.10892" lon="3.21638">
        <ele>684</ele>
        <time>2017-03-02T06:12:05Z</time>
      </trkpt>
      <trkpt lat="44.10887" lon="3.21643">
        <ele>685</ele>
        <time>2017-03-02T06:14:05Z</time>
      </trkpt>
      <trkpt lat="44.10883" lon="3.21647">
        <ele>686</ele>
        <time>2017-03-02T06:16:05Z</time>
      </trkpt>
      <trkpt lat="44.10874" lon="3.21654">
        <ele>686</ele>
        <time>2017-03-02T06:18:05Z</time>
      </trkpt>
      <trkpt lat="44.10856" lon="3.21668">
        <ele>688</ele>
        <time>2017-03-02T06:20:05Z</time>
      </trkpt>
      <trkpt lat="44.10846" lon="3.21675">
        <ele>688</ele>
        <time>2017-03-02T06:22:05Z</time>
      </trkpt>
      <trkpt lat="44.10837" lon="3.2168">
        <ele>688</ele>
        <time>2017-03-02T06:24:05Z</time>
      </trkpt>
      <trkpt lat="44.10824" lon="3.21691">
        <ele>689</ele>
        <time>2017-03-02T06:26:05Z</time>
      </trkpt>
      <trkpt lat="44.10807" lon="3.21704">
        <ele>690</ele>
        <time>2017-03-02T06:28:05Z</time>
      </trkpt>
      <trkpt lat="44.108" lon="3.21709">
        <ele>690</ele>
        <time>2017-03-02T06:30:05Z</time>
      </trkpt>
      <trkpt lat="44.10797" lon="3.21711">
        <ele>690</ele>
        <time>2017-03-02T06:32:05Z</time>
      </trkpt>
      <trkpt lat="44.10794" lon="3.21712">
        <ele>690</ele>
        <time>2017-03-02T06:34:05Z</time>
      </trkpt>
      <trkpt lat="44.10791" lon="3.21713">
        <ele>690</ele>
        <time>2017-03-02T06:36:05Z</time>
      </trkpt>
      <trkpt lat="44.10787" lon="3.21714">
        <ele>690</ele>
        <time>2017-03-02T06:38:05Z</time>
      </trkpt>
      <trkpt lat="44.10784" lon="3.21714">
        <ele>690</ele>
        <time>2017-03-02T06:40:05Z</time>
      </trkpt>
      <trkpt lat="44.10781" lon="3.21714">
        <ele>690</ele>
        <time>2017-03-02T06:42:05Z</time>
      </trkpt>
      <trkpt lat="44.10781" lon="3.21714">
        <ele>690</ele>
        <time>2017-03-02T06:44:05Z</time>
      </trkpt>
      <trkpt lat="44.10784" lon="3.21747">
        <ele>692</ele>
        <time>2017-03-02T06:46:05Z</time>
      </trkpt>
      <trkpt lat="44.10784" lon="3.21747">
        <ele>692</ele>
        <time>2017-03-02T06:48:05Z</time>
      </trkpt>
      <trkpt lat="44.10789" lon="3.21748">
        <ele>692</ele>
        <time>2017-03-02T06:50:05Z</time>
      </trkpt>
      <trkpt lat="44.10791" lon="3.21749">
        <ele>692</ele>
        <time>2017-03-02T06:52:05Z</time>
      </trkpt>
      <trkpt lat="44.10793" lon="3.2175">
        <ele>693</ele>
        <time>2017-03-02T06:54:05Z</time>
      </trkpt>
      <trkpt lat="44.10797" lon="3.21752">
        <ele>692</ele>
        <time>2017-03-02T06:56:05Z</time>
      </trkpt>
      <trkpt lat="44.10798" lon="3.21752">
        <ele>692</ele>
        <time>2017-03-02T06:58:05Z</time>
      </trkpt>
      <trkpt lat="44.10798" lon="3.21752">
        <ele>692</ele>
        <time>2017-03-02T07:00:05Z</time>
      </trkpt>
      <trkpt lat="44.10799" lon="3.21764">
        <ele>692</ele>
        <time>2017-03-02T07:02:05Z</time>
      </trkpt>
      <trkpt lat="44.108" lon="3.21776">
        <ele>691</ele>
        <time>2017-03-02T07:04:05Z</time>
      </trkpt>
      <trkpt lat="44.108" lon="3.21785">
        <ele>691</ele>
        <time>2017-03-02T07:06:05Z</time>
      </trkpt>
      <trkpt lat="44.10801" lon="3.2179">
        <ele>691</ele>
        <time>2017-03-02T07:08:05Z</time>
      </trkpt>
      <trkpt lat="44.10803" lon="3.21795">
        <ele>690</ele>
        <time>2017-03-02T07:10:05Z</time>
      </trkpt>
      <trkpt lat="44.10805" lon="3.21798">
        <ele>690</ele>
        <time>2017-03-02T07:12:05Z</time>
      </trkpt>
      <trkpt lat="44.10809" lon="3.21801">
        <ele>690</ele>
        <time>2017-03-02T07:14:05Z</time>
      </trkpt>
      <trkpt lat="44.10809" lon="3.21801">
        <ele>690</ele>
        <time>2017-03-02T07:16:05Z</time>
      </trkpt>
      <trkpt lat="44.10811" lon="3.21803">
        <ele>690</ele>
        <time>2017-03-02T07:18:05Z</time>
      </trkpt>
      <trkpt lat="44.10814" lon="3.21807">
        <ele>690</ele>
        <time>2017-03-02T07:20:05Z</time>
      </trkpt>
      <trkpt lat="44.10817" lon="3.21811">
        <ele>689</ele>
        <time>2017-03-02T07:22:05Z</time>
      </trkpt>
      <trkpt lat="44.10827" lon="3.21822">
        <ele>689</ele>
        <time>2017-03-02T07:24:05Z</time>
      </trkpt>
      <trkpt lat="44.1083" lon="3.2183">
        <ele>688</ele>
        <time>2017-03-02T07:26:05Z</time>
      </trkpt>
      <trkpt lat="44.10834" lon="3.21832">
        <ele>688</ele>
        <time>2017-03-02T07:28:05Z</time>
      </trkpt>
      <trkpt lat="44.10839" lon="3.21836">
        <ele>688</ele>
        <time>2017-03-02T07:30:05Z</time>
      </trkpt>
      <trkpt lat="44.10845" lon="3.21841">
        <ele>688</ele>
        <time>2017-03-02T07:32:05Z</time>
      </trkpt>
      <trkpt lat="44.1085" lon="3.21844">
        <ele>689</ele>
        <time>2017-03-02T07:34:05Z</time>
      </trkpt>
      <trkpt lat="44.10855" lon="3.21846">
        <ele>689</ele>
        <time>2017-03-02T07:36:05Z</time>
      </trkpt>
      <trkpt lat="44.10862" lon="3.21849">
        <ele>689</ele>
        <time>2017-03-02T07:38:05Z</time>
      </trkpt>
      <trkpt lat="44.10865" lon="3.21852">
        <ele>689</ele>
        <time>2017-03-02T07:40:05Z</time>
      </trkpt>
      <trkpt lat="44.10868" lon="3.21856">
        <ele>689</ele>
        <time>2017-03-02T07:42:05Z</time>
      </trkpt>
      <trkpt lat="44.10871" lon="3.21864">
        <ele>689</ele>
        <time>2017-03-02T07:44:05Z</time>
      </trkpt>
      <trkpt lat="44.10877" lon="3.21873">
        <ele>689</ele>
        <time>2017-03-02T07:46:05Z</time>
      </trkpt>
      <trkpt lat="44.10882" lon="3.21878">
        <ele>689</ele>
        <time>2017-03-02T07:48:05Z</time>
      </trkpt>
      <trkpt lat="44.10885" lon="3.21882">
        <ele>690</ele>
        <time>2017-03-02T07:50:05Z</time>
      </trkpt>
      <trkpt lat="44.10888" lon="3.21886">
        <ele>690</ele>
        <time>2017-03-02T07:52:05Z</time>
      </trkpt>
      <trkpt lat="44.10891" lon="3.21893">
        <ele>690</ele>
        <time>2017-03-02T07:54:05Z</time>
      </trkpt>
      <trkpt lat="44.10894" lon="3.21899">
        <ele>690</ele>
        <time>2017-03-02T07:56:05Z</time>
      </trkpt>
      <trkpt lat="44.10901" lon="3.21914">
        <ele>690</ele>
        <time>2017-03-02T07:58:05Z</time>
      </trkpt>
      <trkpt lat="44.10901" lon="3.21915">
        <ele>690</ele>
        <time>2017-03-02T08:00:05Z</time>
      </trkpt>
      <trkpt lat="44.10901" lon="3.21916">
        <ele>690</ele>
        <time>2017-03-02T08:02:05Z</time>
      </trkpt>
      <trkpt lat="44.10902" lon="3.21919">
        <ele>690</ele>
        <time>2017-03-02T08:04:05Z</time>
      </trkpt>
      <trkpt lat="44.10915" lon="3.21929">
        <ele>691</ele>
        <time>2017-03-02T08:06:05Z</time>
      </trkpt>
      <trkpt lat="44.10916" lon="3.2193">
        <ele>691</ele>
        <time>2017-03-02T08:08:05Z</time>
      </trkpt>
      <trkpt lat="44.10918" lon="3.21932">
        <ele>691</ele>
        <time>2017-03-02T08:10:05Z</time>
      </trkpt>
      <trkpt lat="44.10919" lon="3.21934">
        <ele>691</ele>
        <time>2017-03-02T08:12:05Z</time>
      </trkpt>
      <trkpt lat="44.10922" lon="3.21936">
        <ele>692</ele>
        <time>2017-03-02T08:14:05Z</time>
      </trkpt>
      <trkpt lat="44.10925" lon="3.21942">
        <ele>692</ele>
        <time>2017-03-02T08:16:05Z</time>
      </trkpt>
      <trkpt lat="44.10929" lon="3.21948">
        <ele>692</ele>
        <time>2017-03-02T08:18:05Z</time>
      </trkpt>
      <trkpt lat="44.10933" lon="3.21955">
        <ele>693</ele>
        <time>2017-03-02T08:20:05Z</time>
      </trkpt>
      <trkpt lat="44.10937" lon="3.21961">
        <ele>693</ele>
        <time>2017-03-02T08:22:05Z</time>
      </trkpt>
      <trkpt lat="44.10941" lon="3.21967">
        <ele>694</ele>
        <time>2017-03-02T08:24:05Z</time>
      </trkpt>
      <trkpt lat="44.10947" lon="3.21974">
        <ele>695</ele>
        <time>2017-03-02T08:26:05Z</time>
      </trkpt>
      <trkpt lat="44.10952" lon="3.21981">
        <ele>695</ele>
        <time>2017-03-02T08:28:05Z</time>
      </trkpt>
      <trkpt lat="44.10957" lon="3.21987">
        <ele>695</ele>
        <time>2017-03-02T08:30:05Z</time>
      </trkpt>
      <trkpt lat="44.10959" lon="3.21991">
        <ele>696</ele>
        <time>2017-03-02T08:32:05Z</time>
      </trkpt>
      <trkpt lat="44.10961" lon="3.21994">
        <ele>696</ele>
        <time>2017-03-02T08:34:05Z</time>
      </trkpt>
      <trkpt lat="44.10962" lon="3.21997">
        <ele>696</ele>
        <time>2017-03-02T08:36:05Z</time>
      </trkpt>
      <trkpt lat="44.10964" lon="3.22001">
        <ele>696</ele>
        <time>2017-03-02T08:38:05Z</time>
      </trkpt>
      <trkpt lat="44.10968" lon="3.22011">
        <ele>696</ele>
        <time>2017-03-02T08:40:05Z</time>
      </trkpt>
      <trkpt lat="44.10972" lon="3.2202">
        <ele>696</ele>
        <time>2017-03-02T08:42:05Z</time>
      </trkpt>
      <trkpt lat="44.10974" lon="3.22023">
        <ele>696</ele>
        <time>2017-03-02T08:44:05Z</time>
      </trkpt>
      <trkpt lat="44.10976" lon="3.22027">
        <ele>696</ele>
        <time>2017-03-02T08:46:05Z</time>
      </trkpt>
      <trkpt lat="44.10979" lon="3.2203">
        <ele>697</ele>
        <time>2017-03-02T08:48:05Z</time>
      </trkpt>
      <trkpt lat="44.10983" lon="3.22033">
        <ele>697</ele>
        <time>2017-03-02T08:50:05Z</time>
      </trkpt>
      <trkpt lat="44.10986" lon="3.22035">
        <ele>697</ele>
        <time>2017-03-02T08:52:05Z</time>
      </trkpt>
      <trkpt lat="44.10996" lon="3.2204">
        <ele>699</ele>
        <time>2017-03-02T08:54:05Z</time>
      </trkpt>
      <trkpt lat="44.11003" lon="3.22045">
        <ele>699</ele>
        <time>2017-03-02T08:56:05Z</time>
      </trkpt>
      <trkpt lat="44.11008" lon="3.22048">
        <ele>700</ele>
        <time>2017-03-02T08:58:05Z</time>
      </trkpt>
      <trkpt lat="44.11016" lon="3.22054">
        <ele>701</ele>
        <time>2017-03-02T09:00:05Z</time>
      </trkpt>
      <trkpt lat="44.11018" lon="3.22057">
        <ele>701</ele>
        <time>2017-03-02T09:02:05Z</time>
      </trkpt>
      <trkpt lat="44.11021" lon="3.2206">
        <ele>701</ele>
        <time>2017-03-02T09:04:05Z</time>
      </trkpt>
      <trkpt lat="44.11024" lon="3.22063">
        <ele>701</ele>
        <time>2017-03-02T09:06:05Z</time>
      </trkpt>
      <trkpt lat="44.11026" lon="3.22066">
        <ele>702</ele>
        <time>2017-03-02T09:08:05Z</time>
      </trkpt>
      <trkpt lat="44.11028" lon="3.2207">
        <ele>702</ele>
        <time>2017-03-02T09:10:05Z</time>
      </trkpt>
      <trkpt lat="44.11029" lon="3.22075">
        <ele>701</ele>
        <time>2017-03-02T09:12:05Z</time>
      </trkpt>
      <trkpt lat="44.1103" lon="3.22079">
        <ele>701</ele>
        <time>2017-03-02T09:14:05Z</time>
      </trkpt>
      <trkpt lat="44.1103" lon="3.22085">
        <ele>701</ele>
        <time>2017-03-02T09:16:05Z</time>
      </trkpt>
      <trkpt lat="44.11031" lon="3.2209">
        <ele>701</ele>
        <time>2017-03-02T09:18:05Z</time>
      </trkpt>
      <trkpt lat="44.11031" lon="3.22094">
        <ele>701</ele>
        <time>2017-03-02T09:20:05Z</time>
      </trkpt>
      <trkpt lat="44.11031" lon="3.22096">
        <ele>701</ele>
        <time>2017-03-02T09:22:05Z</time>
      </trkpt>
      <trkpt lat="44.1103" lon="3.22098">
        <ele>701</ele>
        <time>2017-03-02T09:24:05Z</time>
      </trkpt>
      <trkpt lat="44.1103" lon="3.22101">
        <ele>701</ele>
        <time>2017-03-02T09:26:05Z</time>
      </trkpt>
      <trkpt lat="44.11028" lon="3.2211">
        <ele>701</ele>
        <time>2017-03-02T09:28:05Z</time>
      </trkpt>
      <trkpt lat="44.11024" lon="3.2212">
        <ele>701</ele>
        <time>2017-03-02T09:30:05Z</time>
      </trkpt>
      <trkpt lat="44.11023" lon="3.22124">
        <ele>701</ele>
        <time>2017-03-02T09:32:05Z</time>
      </trkpt>
      <trkpt lat="44.11023" lon="3.22126">
        <ele>701</ele>
        <time>2017-03-02T09:34:05Z</time>
      </trkpt>
      <trkpt lat="44.11022" lon="3.22129">
        <ele>701</ele>
        <time>2017-03-02T09:36:05Z</time>
      </trkpt>
      <trkpt lat="44.11022" lon="3.22132">
        <ele>701</ele>
        <time>2017-03-02T09:38:05Z</time>
      </trkpt>
      <trkpt lat="44.11022" lon="3.22135">
        <ele>701</ele>
        <time>2017-03-02T09:40:05Z</time>
      </trkpt>
      <trkpt lat="44.11021" lon="3.22155">
        <ele>701</ele>
        <time>2017-03-02T09:42:05Z</time>
      </trkpt>
      <trkpt lat="44.1102" lon="3.2217">
        <ele>702</ele>
        <time>2017-03-02T09:44:05Z</time>
      </trkpt>
      <trkpt lat="44.11019" lon="3.22175">
        <ele>702</ele>
        <time>2017-03-02T09:46:05Z</time>
      </trkpt>
      <trkpt lat="44.11016" lon="3.22195">
        <ele>704</ele>
        <time>2017-03-02T09:48:05Z</time>
      </trkpt>
      <trkpt lat="44.11015" lon="3.22208">
        <ele>706</ele>
        <time>2017-03-02T09:50:05Z</time>
      </trkpt>
      <trkpt lat="44.11014" lon="3.22224">
        <ele>707</ele>
        <time>2017-03-02T09:52:05Z</time>
      </trkpt>
      <trkpt lat="44.11012" lon="3.22241">
        <ele>709</ele>
        <time>2017-03-02T09:54:05Z</time>
      </trkpt>
      <trkpt lat="44.1101" lon="3.22264">
        <ele>711</ele>
        <time>2017-03-02T09:56:05Z</time>
      </trkpt>
      <trkpt lat="44.11009" lon="3.2227">
        <ele>711</ele>
        <time>2017-03-02T09:58:05Z</time>
      </trkpt>
      <trkpt lat="44.11006" lon="3.2229">
        <ele>713</ele>
        <time>2017-03-02T10:00:05Z</time>
      </trkpt>
      <trkpt lat="44.11005" lon="3.22298">
        <ele>713</ele>
        <time>2017-03-02T10:02:05Z</time>
      </trkpt>
      <trkpt lat="44.11005" lon="3.22308">
        <ele>714</ele>
        <time>2017-03-02T10:04:05Z</time>
      </trkpt>
      <trkpt lat="44.11003" lon="3.22323">
        <ele>715</ele>
        <time>2017-03-02T10:06:05Z</time>
      </trkpt>
      <trkpt lat="44.11003" lon="3.22341">
        <ele>716</ele>
        <time>2017-03-02T10:08:05Z</time>
      </trkpt>
      <trkpt lat="44.11002" lon="3.22343">
        <ele>716</ele>
        <time>2017-03-02T10:10:05Z</time>
      </trkpt>
      <trkpt lat="44.11002" lon="3.22345">
        <ele>716</ele>
        <time>2017-03-02T10:12:05Z</time>
      </trkpt>
      <trkpt lat="44.11001" lon="3.22353">
        <ele>717</ele>
        <time>2017-03-02T10:14:05Z</time>
      </trkpt>
      <trkpt lat="44.11" lon="3.22357">
        <ele>717</ele>
        <time>2017-03-02T10:16:05Z</time>
      </trkpt>
      <trkpt lat="44.10998" lon="3.22363">
        <ele>717</ele>
        <time>2017-03-02T10:18:05Z</time>
      </trkpt>
      <trkpt lat="44.10997" lon="3.22369">
        <ele>717</ele>
        <time>2017-03-02T10:20:05Z</time>
      </trkpt>
      <trkpt lat="44.10997" lon="3.22379">
        <ele>718</ele>
        <time>2017-03-02T10:22:05Z</time>
      </trkpt>
      <trkpt lat="44.10996" lon="3.22393">
        <ele>719</ele>
        <time>2017-03-02T10:24:05Z</time>
      </trkpt>
      <trkpt lat="44.10996" lon="3.22397">
        <ele>720</ele>
        <time>2017-03-02T10:26:05Z</time>
      </trkpt>
      <trkpt lat="44.1099" lon="3.22437">
        <ele>723</ele>
        <time>2017-03-02T10:28:05Z</time>
      </trkpt>
      <trkpt lat="44.10988" lon="3.22458">
        <ele>725</ele>
        <time>2017-03-02T10:30:05Z</time>
      </trkpt>
      <trkpt lat="44.10988" lon="3.22473">
        <ele>727</ele>
        <time>2017-03-02T10:32:05Z</time>
      </trkpt>
      <trkpt lat="44.10987" lon="3.22489">
        <ele>729</ele>
        <time>2017-03-02T10:34:05Z</time>
      </trkpt>
      <trkpt lat="44.10986" lon="3.2252">
        <ele>731</ele>
        <time>2017-03-02T10:36:05Z</time>
      </trkpt>
      <trkpt lat="44.10986" lon="3.22526">
        <ele>731</ele>
        <time>2017-03-02T10:38:05Z</time>
      </trkpt>
      <trkpt lat="44.10986" lon="3.22529">
        <ele>732</ele>
        <time>2017-03-02T10:40:05Z</time>
      </trkpt>
      <trkpt lat="44.10987" lon="3.22532">
        <ele>732</ele>
        <time>2017-03-02T10:42:05Z</time>
      </trkpt>
      <trkpt lat="44.10988" lon="3.22533">
        <ele>732</ele>
        <time>2017-03-02T10:44:05Z</time>
      </trkpt>
      <trkpt lat="44.10988" lon="3.22535">
        <ele>732</ele>
        <time>2017-03-02T10:46:05Z</time>
      </trkpt>
      <trkpt lat="44.1099" lon="3.22536">
        <ele>732</ele>
        <time>2017-03-02T10:48:05Z</time>
      </trkpt>
      <trkpt lat="44.1099" lon="3.22536">
        <ele>732</ele>
        <time>2017-03-02T10:50:05Z</time>
      </trkpt>
      <trkpt lat="44.10989" lon="3.22538">
        <ele>732</ele>
        <time>2017-03-02T10:52:05Z</time>
      </trkpt>
      <trkpt lat="44.10988" lon="3.22539">
        <ele>732</ele>
        <time>2017-03-02T10:54:05Z</time>
      </trkpt>
      <trkpt lat="44.10987" lon="3.2254">
        <ele>732</ele>
        <time>2017-03-02T10:56:05Z</time>
      </trkpt>
      <trkpt lat="44.10987" lon="3.22544">
        <ele>732</ele>
        <time>2017-03-02T10:58:05Z</time>
      </trkpt>
      <trkpt lat="44.10986" lon="3.22552">
        <ele>733</ele>
        <time>2017-03-02T11:00:05Z</time>
      </trkpt>
      <trkpt lat="44.10986" lon="3.22558">
        <ele>733</ele>
        <time>2017-03-02T11:02:05Z</time>
      </trkpt>
      <trkpt lat="44.10985" lon="3.22563">
        <ele>733</ele>
        <time>2017-03-02T11:04:05Z</time>
      </trkpt>
      <trkpt lat="44.10984" lon="3.2257">
        <ele>734</ele>
        <time>2017-03-02T11:06:05Z</time>
      </trkpt>
      <trkpt lat="44.10981" lon="3.22583">
        <ele>735</ele>
        <time>2017-03-02T11:08:05Z</time>
      </trkpt>
      <trkpt lat="44.10977" lon="3.22596">
        <ele>736</ele>
        <time>2017-03-02T11:10:05Z</time>
      </trkpt>
      <trkpt lat="44.10972" lon="3.22609">
        <ele>736</ele>
        <time>2017-03-02T11:12:05Z</time>
      </trkpt>
      <trkpt lat="44.10969" lon="3.22623">
        <ele>737</ele>
        <time>2017-03-02T11:14:05Z</time>
      </trkpt>
      <trkpt lat="44.10968" lon="3.2263">
        <ele>737</ele>
        <time>2017-03-02T11:16:05Z</time>
      </trkpt>
      <trkpt lat="44.10967" lon="3.22637">
        <ele>737</ele>
        <time>2017-03-02T11:18:05Z</time>
      </trkpt>
      <trkpt lat="44.10967" lon="3.22666">
        <ele>738</ele>
        <time>2017-03-02T11:20:05Z</time>
      </trkpt>
      <trkpt lat="44.10967" lon="3.22669">
        <ele>737</ele>
        <time>2017-03-02T11:22:05Z</time>
      </trkpt>
      <trkpt lat="44.10967" lon="3.22672">
        <ele>737</ele>
        <time>2017-03-02T11:24:05Z</time>
      </trkpt>
      <trkpt lat="44.10967" lon="3.22677">
        <ele>737</ele>
        <time>2017-03-02T11:26:05Z</time>
      </trkpt>
      <trkpt lat="44.10966" lon="3.22682">
        <ele>737</ele>
        <time>2017-03-02T11:28:05Z</time>
      </trkpt>
      <trkpt lat="44.10964" lon="3.22693">
        <ele>737</ele>
        <time>2017-03-02T11:30:05Z</time>
      </trkpt>
      <trkpt lat="44.10962" lon="3.22698">
        <ele>737</ele>
        <time>2017-03-02T11:32:05Z</time>
      </trkpt>
      <trkpt lat="44.10957" lon="3.22708">
        <ele>738</ele>
        <time>2017-03-02T11:34:05Z</time>
      </trkpt>
      <trkpt lat="44.10948" lon="3.2272">
        <ele>739</ele>
        <time>2017-03-02T11:36:05Z</time>
      </trkpt>
      <trkpt lat="44.10936" lon="3.22735">
        <ele>740</ele>
        <time>2017-03-02T11:38:05Z</time>
      </trkpt>
      <trkpt lat="44.10923" lon="3.2275">
        <ele>742</ele>
        <time>2017-03-02T11:40:05Z</time>
      </trkpt>
      <trkpt lat="44.1091" lon="3.22764">
        <ele>742</ele>
        <time>2017-03-02T11:42:05Z</time>
      </trkpt>
      <trkpt lat="44.10901" lon="3.22771">
        <ele>742</ele>
        <time>2017-03-02T11:44:05Z</time>
      </trkpt>
      <trkpt lat="44.10896" lon="3.22775">
        <ele>742</ele>
        <time>2017-03-02T11:46:05Z</time>
      </trkpt>
      <trkpt lat="44.10894" lon="3.22778">
        <ele>742</ele>
        <time>2017-03-02T11:48:05Z</time>
      </trkpt>
      <trkpt lat="44.10893" lon="3.22779">
        <ele>742</ele>
        <time>2017-03-02T11:50:05Z</time>
      </trkpt>
      <trkpt lat="44.1089" lon="3.22786">
        <ele>742</ele>
        <time>2017-03-02T11:52:05Z</time>
      </trkpt>
      <trkpt lat="44.10884" lon="3.22797">
        <ele>742</ele>
        <time>2017-03-02T11:54:05Z</time>
      </trkpt>
      <trkpt lat="44.10877" lon="3.22809">
        <ele>741</ele>
        <time>2017-03-02T11:56:05Z</time>
      </trkpt>
      <trkpt lat="44.1087" lon="3.22824">
        <ele>741</ele>
        <time>2017-03-02T11:58:05Z</time>
      </trkpt>
      <trkpt lat="44.10864" lon="3.2284">
        <ele>741</ele>
        <time>2017-03-02T12:00:05Z</time>
      </trkpt>
      <trkpt lat="44.10858" lon="3.22853">
        <ele>741</ele>
        <time>2017-03-02T12:02:05Z</time>
      </trkpt>
      <trkpt lat="44.10854" lon="3.22864">
        <ele>741</ele>
        <time>2017-03-02T12:04:05Z</time>
      </trkpt>
      <trkpt lat="44.1085" lon="3.22881">
        <ele>740</ele>
        <time>2017-03-02T12:06:05Z</time>
      </trkpt>
      <trkpt lat="44.10849" lon="3.22886">
        <ele>740</ele>
        <time>2017-03-02T12:08:05Z</time>
      </trkpt>
      <trkpt lat="44.10849" lon="3.22894">
        <ele>740</ele>
        <time>2017-03-02T12:10:05Z</time>
      </trkpt>
      <trkpt lat="44.1085" lon="3.22915">
        <ele>739</ele>
        <time>2017-03-02T12:12:05Z</time>
      </trkpt>
      <trkpt lat="44.1085" lon="3.22944">
        <ele>739</ele>
        <time>2017-03-02T12:14:05Z</time>
      </trkpt>
      <trkpt lat="44.10851" lon="3.22961">
        <ele>738</ele>
        <time>2017-03-02T12:16:05Z</time>
      </trkpt>
      <trkpt lat="44.10851" lon="3.22974">
        <ele>738</ele>
        <time>2017-03-02T12:18:05Z</time>
      </trkpt>
      <trkpt lat="44.10852" lon="3.22983">
        <ele>738</ele>
        <time>2017-03-02T12:20:05Z</time>
      </trkpt>
      <trkpt lat="44.10853" lon="3.2299">
        <ele>738</ele>
        <time>2017-03-02T12:22:05Z</time>
      </trkpt>
      <trkpt lat="44.10853" lon="3.22995">
        <ele>738</ele>
        <time>2017-03-02T12:24:05Z</time>
      </trkpt>
      <trkpt lat="44.10853" lon="3.22999">
        <ele>738</ele>
        <time>2017-03-02T12:26:05Z</time>
      </trkpt>
      <trkpt lat="44.10852" lon="3.23003">
        <ele>738</ele>
        <time>2017-03-02T12:28:05Z</time>
      </trkpt>
      <trkpt lat="44.10852" lon="3.23004">
        <ele>738</ele>
        <time>2017-03-02T12:30:05Z</time>
      </trkpt>
      <trkpt lat="44.1085" lon="3.23009">
        <ele>739</ele>
        <time>2017-03-02T12:32:05Z</time>
      </trkpt>
      <trkpt lat="44.10849" lon="3.2301">
        <ele>739</ele>
        <time>2017-03-02T12:34:05Z</time>
      </trkpt>
      <trkpt lat="44.10848" lon="3.23012">
        <ele>739</ele>
        <time>2017-03-02T12:36:05Z</time>
      </trkpt>
      <trkpt lat="44.10845" lon="3.23016">
        <ele>740</ele>
        <time>2017-03-02T12:38:05Z</time>
      </trkpt>
      <trkpt lat="44.10844" lon="3.23018">
        <ele>740</ele>
        <time>2017-03-02T12:40:05Z</time>
      </trkpt>
      <trkpt lat="44.10843" lon="3.23021">
        <ele>740</ele>
        <time>2017-03-02T12:42:05Z</time>
      </trkpt>
      <trkpt lat="44.10841" lon="3.23027">
        <ele>740</ele>
        <time>2017-03-02T12:44:05Z</time>
      </trkpt>
      <trkpt lat="44.10838" lon="3.2304">
        <ele>741</ele>
        <time>2017-03-02T12:46:05Z</time>
      </trkpt>
      <trkpt lat="44.10837" lon="3.23053">
        <ele>741</ele>
        <time>2017-03-02T12:48:05Z</time>
      </trkpt>
      <trkpt lat="44.10835" lon="3.23061">
        <ele>742</ele>
        <time>2017-03-02T12:50:05Z</time>
      </trkpt>
      <trkpt lat="44.1083" lon="3.23076">
        <ele>742</ele>
        <time>2017-03-02T12:52:05Z</time>
      </trkpt>
      <trkpt lat="44.10826" lon="3.23089">
        <ele>743</ele>
        <time>2017-03-02T12:54:05Z</time>
      </trkpt>
      <trkpt lat="44.10823" lon="3.231">
        <ele>744</ele>
        <time>2017-03-02T12:56:05Z</time>
      </trkpt>
      <trkpt lat="44.1082" lon="3.23106">
        <ele>745</ele>
        <time>2017-03-02T12:58:05Z</time>
      </trkpt>
      <trkpt lat="44.10819" lon="3.23112">
        <ele>745</ele>
        <time>2017-03-02T13:00:05Z</time>
      </trkpt>
      <trkpt lat="44.10818" lon="3.23118">
        <ele>746</ele>
        <time>2017-03-02T13:02:05Z</time>
      </trkpt>
      <trkpt lat="44.10817" lon="3.23128">
        <ele>747</ele>
        <time>2017-03-02T13:04:05Z</time>
      </trkpt>
      <trkpt lat="44.10815" lon="3.23142">
        <ele>748</ele>
        <time>2017-03-02T13:06:05Z</time>
      </trkpt>
      <trkpt lat="44.10812" lon="3.23164">
        <ele>750</ele>
        <time>2017-03-02T13:08:05Z</time>
      </trkpt>
      <trkpt lat="44.10809" lon="3.23184">
        <ele>753</ele>
        <time>2017-03-02T13:10:05Z</time>
      </trkpt>
      <trkpt lat="44.10807" lon="3.23201">
        <ele>755</ele>
        <time>2017-03-02T13:12:05Z</time>
      </trkpt>
      <trkpt lat="44.10804" lon="3.23219">
        <ele>757</ele>
        <time>2017-03-02T13:14:05Z</time>
      </trkpt>
      <trkpt lat="44.10802" lon="3.23232">
        <ele>758</ele>
        <time>2017-03-02T13:16:05Z</time>
      </trkpt>
      <trkpt lat="44.10799" lon="3.23247">
        <ele>760</ele>
        <time>2017-03-02T13:18:05Z</time>
      </trkpt>
      <trkpt lat="44.10798" lon="3.23257">
        <ele>761</ele>
        <time>2017-03-02T13:20:05Z</time>
      </trkpt>
      <trkpt lat="44.10796" lon="3.23263">
        <ele>761</ele>
        <time>2017-03-02T13:22:05Z</time>
      </trkpt>
      <trkpt lat="44.10796" lon="3.23269">
        <ele>762</ele>
        <time>2017-03-02T13:24:05Z</time>
      </trkpt>
      <trkpt lat="44.10796" lon="3.23275">
        <ele>763</ele>
        <time>2017-03-02T13:26:05Z</time>
      </trkpt>
      <trkpt lat="44.10797" lon="3.23291">
        <ele>764</ele>
        <time>2017-03-02T13:28:05Z</time>
      </trkpt>
      <trkpt lat="44.10798" lon="3.23297">
        <ele>765</ele>
        <time>2017-03-02T13:30:05Z</time>
      </trkpt>
      <trkpt lat="44.10799" lon="3.23312">
        <ele>767</ele>
        <time>2017-03-02T13:32:05Z</time>
      </trkpt>
      <trkpt lat="44.108" lon="3.23322">
        <ele>768</ele>
        <time>2017-03-02T13:34:05Z</time>
      </trkpt>
      <trkpt lat="44.10801" lon="3.23335">
        <ele>769</ele>
        <time>2017-03-02T13:36:05Z</time>
      </trkpt>
      <trkpt lat="44.10801" lon="3.23343">
        <ele>770</ele>
        <time>2017-03-02T13:38:05Z</time>
      </trkpt>
      <trkpt lat="44.108" lon="3.23352">
        <ele>771</ele>
        <time>2017-03-02T13:40:05Z</time>
      </trkpt>
      <trkpt lat="44.10801" lon="3.23395">
        <ele>774</ele>
        <time>2017-03-02T13:42:05Z</time>
      </trkpt>
      <trkpt lat="44.10801" lon="3.23402">
        <ele>774</ele>
        <time>2017-03-02T13:44:05Z</time>
      </trkpt>
      <trkpt lat="44.10801" lon="3.23408">
        <ele>775</ele>
        <time>2017-03-02T13:46:05Z</time>
      </trkpt>
      <trkpt lat="44.108" lon="3.23414">
        <ele>775</ele>
        <time>2017-03-02T13:48:05Z</time>
      </trkpt>
      <trkpt lat="44.108" lon="3.23421">
        <ele>776</ele>
        <time>2017-03-02T13:50:05Z</time>
      </trkpt>
      <trkpt lat="44.108" lon="3.23429">
        <ele>776</ele>
        <time>2017-03-02T13:52:05Z</time>
      </trkpt>
      <trkpt lat="44.10801" lon="3.23438">
        <ele>776</ele>
        <time>2017-03-02T13:54:05Z</time>
      </trkpt>
      <trkpt lat="44.10801" lon="3.23446">
        <ele>777</ele>
        <time>2017-03-02T13:56:05Z</time>
      </trkpt>
      <trkpt lat="44.108" lon="3.23454">
        <ele>777</ele>
        <time>2017-03-02T13:58:05Z</time>
      </trkpt>
      <trkpt lat="44.108" lon="3.23469">
        <ele>777</ele>
        <time>2017-03-02T14:00:05Z</time>
      </trkpt>
      <trkpt lat="44.108" lon="3.23472">
        <ele>778</ele>
        <time>2017-03-02T14:02:05Z</time>
      </trkpt>
      <trkpt lat="44.108" lon="3.23474">
        <ele>778</ele>
        <time>2017-03-02T14:04:05Z</time>
      </trkpt>
      <trkpt lat="44.10801" lon="3.23479">
        <ele>778</ele>
        <time>2017-03-02T14:06:05Z</time>
      </trkpt>
      <trkpt lat="44.10805" lon="3.23493">
        <ele>778</ele>
        <time>2017-03-02T14:08:05Z</time>
      </trkpt>
      <trkpt lat="44.10805" lon="3.23493">
        <ele>778</ele>
        <time>2017-03-02T14:10:05Z</time>
      </trkpt>
      <trkpt lat="44.10818" lon="3.23492">
        <ele>778</ele>
        <time>2017-03-02T14:12:05Z</time>
      </trkpt>
      <trkpt lat="44.10822" lon="3.23493">
        <ele>777</ele>
        <time>2017-03-02T14:14:05Z</time>
      </trkpt>
      <trkpt lat="44.10822" lon="3.23493">
        <ele>777</ele>
        <time>2017-03-02T14:16:05Z</time>
      </trkpt>
      <trkpt lat="44.10827" lon="3.23494">
        <ele>777</ele>
        <time>2017-03-02T14:18:05Z</time>
      </trkpt>
      <trkpt lat="44.10831" lon="3.23497">
        <ele>777</ele>
        <time>2017-03-02T14:20:05Z</time>
      </trkpt>
      <trkpt lat="44.10836" lon="3.23503">
        <ele>777</ele>
        <time>2017-03-02T14:22:05Z</time>
      </trkpt>
      <trkpt lat="44.10839" lon="3.23509">
        <ele>776</ele>
        <time>2017-03-02T14:24:05Z</time>
      </trkpt>
      <trkpt lat="44.10845" lon="3.23519">
        <ele>776</ele>
        <time>2017-03-02T14:26:05Z</time>
      </trkpt>
      <trkpt lat="44.10851" lon="3.23529">
        <ele>775</ele>
        <time>2017-03-02T14:28:05Z</time>
      </trkpt>
      <trkpt lat="44.10853" lon="3.23531">
        <ele>775</ele>
        <time>2017-03-02T14:30:05Z</time>
      </trkpt>
      <trkpt lat="44.10855" lon="3.23533">
        <ele>775</ele>
        <time>2017-03-02T14:32:05Z</time>
      </trkpt>
      <trkpt lat="44.10857" lon="3.23534">
        <ele>774</ele>
        <time>2017-03-02T14:34:05Z</time>
      </trkpt>
      <trkpt lat="44.1086" lon="3.23534">
        <ele>774</ele>
        <time>2017-03-02T14:36:05Z</time>
      </trkpt>
      <trkpt lat="44.10864" lon="3.23534">
        <ele>774</ele>
        <time>2017-03-02T14:38:05Z</time>
      </trkpt>
      <trkpt lat="44.10868" lon="3.23534">
        <ele>774</ele>
        <time>2017-03-02T14:40:05Z</time>
      </trkpt>
      <trkpt lat="44.10874" lon="3.23532">
        <ele>774</ele>
        <time>2017-03-02T14:42:05Z</time>
      </trkpt>
      <trkpt lat="44.10874" lon="3.23532">
        <ele>774</ele>
        <time>2017-03-02T14:44:05Z</time>
      </trkpt>
      <trkpt lat="44.10878" lon="3.23531">
        <ele>773</ele>
        <time>2017-03-02T14:46:05Z</time>
      </trkpt>
      <trkpt lat="44.10885" lon="3.23528">
        <ele>773</ele>
        <time>2017-03-02T14:48:05Z</time>
      </trkpt>
      <trkpt lat="44.1089" lon="3.23525">
        <ele>773</ele>
        <time>2017-03-02T14:50:05Z</time>
      </trkpt>
      <trkpt lat="44.10897" lon="3.23522">
        <ele>773</ele>
        <time>2017-03-02T14:52:05Z</time>
      </trkpt>
      <trkpt lat="44.10906" lon="3.23518">
        <ele>772</ele>
        <time>2017-03-02T14:54:05Z</time>
      </trkpt>
      <trkpt lat="44.10915" lon="3.23514">
        <ele>772</ele>
        <time>2017-03-02T14:56:05Z</time>
      </trkpt>
      <trkpt lat="44.10916" lon="3.23514">
        <ele>772</ele>
        <time>2017-03-02T14:58:05Z</time>
      </trkpt>
      <trkpt lat="44.10928" lon="3.23556">
        <ele>769</ele>
        <time>2017-03-02T15:00:05Z</time>
      </trkpt>
      <trkpt lat="44.109" lon="3.24282">
        <ele>765</ele>
        <time>2017-03-02T15:02:05Z</time>
      </trkpt>
      <trkpt lat="44.11316" lon="3.24209">
        <ele>723</ele>
        <time>2017-03-02T15:04:05Z</time>
      </trkpt>
      <trkpt lat="44.11317" lon="3.24205">
        <ele>723</ele>
        <time>2017-03-02T15:06:05Z</time>
      </trkpt>
      <trkpt lat="44.11323" lon="3.24207">
        <ele>721</ele>
        <time>2017-03-02T15:08:05Z</time>
      </trkpt>
      <trkpt lat="44.11332" lon="3.24208">
        <ele>717</ele>
        <time>2017-03-02T15:10:05Z</time>
      </trkpt>
      <trkpt lat="44.1134" lon="3.24207">
        <ele>712</ele>
        <time>2017-03-02T15:12:05Z</time>
      </trkpt>
      <trkpt lat="44.11346" lon="3.24204">
        <ele>709</ele>
        <time>2017-03-02T15:14:05Z</time>
      </trkpt>
      <trkpt lat="44.11352" lon="3.24199">
        <ele>705</ele>
        <time>2017-03-02T15:16:05Z</time>
      </trkpt>
      <trkpt lat="44.11356" lon="3.24192">
        <ele>703</ele>
        <time>2017-03-02T15:18:05Z</time>
      </trkpt>
      <trkpt lat="44.1136" lon="3.24187">
        <ele>701</ele>
        <time>2017-03-02T15:20:05Z</time>
      </trkpt>
      <trkpt lat="44.11361" lon="3.24185">
        <ele>701</ele>
        <time>2017-03-02T15:22:05Z</time>
      </trkpt>
      <trkpt lat="44.11363" lon="3.24182">
        <ele>699</ele>
        <time>2017-03-02T15:24:05Z</time>
      </trkpt>
      <trkpt lat="44.11366" lon="3.24183">
        <ele>697</ele>
        <time>2017-03-02T15:26:05Z</time>
      </trkpt>
      <trkpt lat="44.1137" lon="3.24186">
        <ele>694</ele>
        <time>2017-03-02T15:28:05Z</time>
      </trkpt>
      <trkpt lat="44.11375" lon="3.24188">
        <ele>690</ele>
        <time>2017-03-02T15:30:05Z</time>
      </trkpt>
      <trkpt lat="44.11377" lon="3.24188">
        <ele>689</ele>
        <time>2017-03-02T15:32:05Z</time>
      </trkpt>
      <trkpt lat="44.1138" lon="3.24186">
        <ele>687</ele>
        <time>2017-03-02T15:34:05Z</time>
      </trkpt>
      <trkpt lat="44.11382" lon="3.24181">
        <ele>686</ele>
        <time>2017-03-02T15:36:05Z</time>
      </trkpt>
      <trkpt lat="44.11385" lon="3.24173">
        <ele>684</ele>
        <time>2017-03-02T15:38:05Z</time>
      </trkpt>
      <trkpt lat="44.11386" lon="3.24169">
        <ele>684</ele>
        <time>2017-03-02T15:40:05Z</time>
      </trkpt>
      <trkpt lat="44.11389" lon="3.24168">
        <ele>682</ele>
        <time>2017-03-02T15:42:05Z</time>
      </trkpt>
      <trkpt lat="44.11394" lon="3.24169">
        <ele>678</ele>
        <time>2017-03-02T15:44:05Z</time>
      </trkpt>
      <trkpt lat="44.11399" lon="3.24173">
        <ele>674</ele>
        <time>2017-03-02T15:46:05Z</time>
      </trkpt>
      <trkpt lat="44.11405" lon="3.24189">
        <ele>669</ele>
        <time>2017-03-02T15:48:05Z</time>
      </trkpt>
      <trkpt lat="44.11408" lon="3.24196">
        <ele>667</ele>
        <time>2017-03-02T15:50:05Z</time>
      </trkpt>
      <trkpt lat="44.11412" lon="3.24198">
        <ele>665</ele>
        <time>2017-03-02T15:52:05Z</time>
      </trkpt>
      <trkpt lat="44.11415" lon="3.24198">
        <ele>663</ele>
        <time>2017-03-02T15:54:05Z</time>
      </trkpt>
      <trkpt lat="44.11417" lon="3.24196">
        <ele>661</ele>
        <time>2017-03-02T15:56:05Z</time>
      </trkpt>
      <trkpt lat="44.11418" lon="3.24194">
        <ele>660</ele>
        <time>2017-03-02T15:58:05Z</time>
      </trkpt>
      <trkpt lat="44.1142" lon="3.24191">
        <ele>659</ele>
        <time>2017-03-02T16:00:05Z</time>
      </trkpt>
      <trkpt lat="44.11422" lon="3.24187">
        <ele>658</ele>
        <time>2017-03-02T16:02:05Z</time>
      </trkpt>
      <trkpt lat="44.11424" lon="3.24182">
        <ele>656</ele>
        <time>2017-03-02T16:04:05Z</time>
      </trkpt>
      <trkpt lat="44.11427" lon="3.24178">
        <ele>654</ele>
        <time>2017-03-02T16:06:05Z</time>
      </trkpt>
      <trkpt lat="44.11431" lon="3.24174">
        <ele>652</ele>
        <time>2017-03-02T16:08:05Z</time>
      </trkpt>
      <trkpt lat="44.11435" lon="3.24175">
        <ele>649</ele>
        <time>2017-03-02T16:10:05Z</time>
      </trkpt>
      <trkpt lat="44.11438" lon="3.24176">
        <ele>647</ele>
        <time>2017-03-02T16:12:05Z</time>
      </trkpt>
      <trkpt lat="44.11445" lon="3.24178">
        <ele>642</ele>
        <time>2017-03-02T16:14:05Z</time>
      </trkpt>
      <trkpt lat="44.11452" lon="3.24181">
        <ele>638</ele>
        <time>2017-03-02T16:16:05Z</time>
      </trkpt>
      <trkpt lat="44.11455" lon="3.24188">
        <ele>636</ele>
        <time>2017-03-02T16:18:05Z</time>
      </trkpt>
      <trkpt lat="44.11455" lon="3.24196">
        <ele>637</ele>
        <time>2017-03-02T16:20:05Z</time>
      </trkpt>
      <trkpt lat="44.11451" lon="3.24207">
        <ele>640</ele>
        <time>2017-03-02T16:22:05Z</time>
      </trkpt>
      <trkpt lat="44.11449" lon="3.24221">
        <ele>642</ele>
        <time>2017-03-02T16:24:05Z</time>
      </trkpt>
      <trkpt lat="44.11448" lon="3.24234">
        <ele>643</ele>
        <time>2017-03-02T16:26:05Z</time>
      </trkpt>
      <trkpt lat="44.11449" lon="3.24252">
        <ele>643</ele>
        <time>2017-03-02T16:28:05Z</time>
      </trkpt>
      <trkpt lat="44.11449" lon="3.24262">
        <ele>641</ele>
        <time>2017-03-02T16:30:05Z</time>
      </trkpt>
      <trkpt lat="44.1145" lon="3.2427">
        <ele>638</ele>
        <time>2017-03-02T16:32:05Z</time>
      </trkpt>
      <trkpt lat="44.11452" lon="3.24274">
        <ele>636</ele>
        <time>2017-03-02T16:34:05Z</time>
      </trkpt>
      <trkpt lat="44.11457" lon="3.24273">
        <ele>634</ele>
        <time>2017-03-02T16:36:05Z</time>
      </trkpt>
      <trkpt lat="44.11463" lon="3.24272">
        <ele>630</ele>
        <time>2017-03-02T16:38:05Z</time>
      </trkpt>
      <trkpt lat="44.11468" lon="3.24267">
        <ele>628</ele>
        <time>2017-03-02T16:40:05Z</time>
      </trkpt>
      <trkpt lat="44.11471" lon="3.24262">
        <ele>628</ele>
        <time>2017-03-02T16:42:05Z</time>
      </trkpt>
      <trkpt lat="44.11473" lon="3.24256">
        <ele>628</ele>
        <time>2017-03-02T16:44:05Z</time>
      </trkpt>
      <trkpt lat="44.11477" lon="3.24252">
        <ele>626</ele>
        <time>2017-03-02T16:46:05Z</time>
      </trkpt>
      <trkpt lat="44.11481" lon="3.24248">
        <ele>624</ele>
        <time>2017-03-02T16:48:05Z</time>
      </trkpt>
      <trkpt lat="44.11487" lon="3.24244">
        <ele>620</ele>
        <time>2017-03-02T16:50:05Z</time>
      </trkpt>
      <trkpt lat="44.11491" lon="3.24246">
        <ele>618</ele>
        <time>2017-03-02T16:52:05Z</time>
      </trkpt>
      <trkpt lat="44.11493" lon="3.24248">
        <ele>617</ele>
        <time>2017-03-02T16:54:05Z</time>
      </trkpt>
      <trkpt lat="44.11495" lon="3.24252">
        <ele>616</ele>
        <time>2017-03-02T16:56:05Z</time>
      </trkpt>
      <trkpt lat="44.11499" lon="3.24261">
        <ele>611</ele>
        <time>2017-03-02T16:58:05Z</time>
      </trkpt>
      <trkpt lat="44.11501" lon="3.24264">
        <ele>610</ele>
        <time>2017-03-02T17:00:05Z</time>
      </trkpt>
      <trkpt lat="44.11505" lon="3.24263">
        <ele>608</ele>
        <time>2017-03-02T17:02:05Z</time>
      </trkpt>
      <trkpt lat="44.11508" lon="3.2426">
        <ele>608</ele>
        <time>2017-03-02T17:04:05Z</time>
      </trkpt>
      <trkpt lat="44.11508" lon="3.24258">
        <ele>608</ele>
        <time>2017-03-02T17:06:05Z</time>
      </trkpt>
      <trkpt lat="44.11509" lon="3.24255">
        <ele>608</ele>
        <time>2017-03-02T17:08:05Z</time>
      </trkpt>
      <trkpt lat="44.11508" lon="3.24245">
        <ele>609</ele>
        <time>2017-03-02T17:10:05Z</time>
      </trkpt>
      <trkpt lat="44.11512" lon="3.24242">
        <ele>607</ele>
        <time>2017-03-02T17:12:05Z</time>
      </trkpt>
      <trkpt lat="44.11515" lon="3.24243">
        <ele>605</ele>
        <time>2017-03-02T17:14:05Z</time>
      </trkpt>
      <trkpt lat="44.11518" lon="3.24244">
        <ele>604</ele>
        <time>2017-03-02T17:16:05Z</time>
      </trkpt>
      <trkpt lat="44.1152" lon="3.24249">
        <ele>604</ele>
        <time>2017-03-02T17:18:05Z</time>
      </trkpt>
      <trkpt lat="44.11522" lon="3.24259">
        <ele>601</ele>
        <time>2017-03-02T17:20:05Z</time>
      </trkpt>
      <trkpt lat="44.11524" lon="3.24277">
        <ele>598</ele>
        <time>2017-03-02T17:22:05Z</time>
      </trkpt>
      <trkpt lat="44.11527" lon="3.24282">
        <ele>596</ele>
        <time>2017-03-02T17:24:05Z</time>
      </trkpt>
      <trkpt lat="44.1153" lon="3.24284">
        <ele>594</ele>
        <time>2017-03-02T17:26:05Z</time>
      </trkpt>
      <trkpt lat="44.11535" lon="3.24287">
        <ele>591</ele>
        <time>2017-03-02T17:28:05Z</time>
      </trkpt>
      <trkpt lat="44.1154" lon="3.24287">
        <ele>589</ele>
        <time>2017-03-02T17:30:05Z</time>
      </trkpt>
      <trkpt lat="44.11549" lon="3.24284">
        <ele>586</ele>
        <time>2017-03-02T17:32:05Z</time>
      </trkpt>
      <trkpt lat="44.11562" lon="3.24276">
        <ele>582</ele>
        <time>2017-03-02T17:34:05Z</time>
      </trkpt>
      <trkpt lat="44.11576" lon="3.2427">
        <ele>576</ele>
        <time>2017-03-02T17:36:05Z</time>
      </trkpt>
      <trkpt lat="44.11582" lon="3.24267">
        <ele>574</ele>
        <time>2017-03-02T17:38:05Z</time>
      </trkpt>
      <trkpt lat="44.11589" lon="3.24264">
        <ele>571</ele>
        <time>2017-03-02T17:40:05Z</time>
      </trkpt>
      <trkpt lat="44.11595" lon="3.24265">
        <ele>568</ele>
        <time>2017-03-02T17:42:05Z</time>
      </trkpt>
      <trkpt lat="44.116" lon="3.24266">
        <ele>566</ele>
        <time>2017-03-02T17:44:05Z</time>
      </trkpt>
      <trkpt lat="44.11605" lon="3.24273">
        <ele>564</ele>
        <time>2017-03-02T17:46:05Z</time>
      </trkpt>
      <trkpt lat="44.11608" lon="3.2428">
        <ele>562</ele>
        <time>2017-03-02T17:48:05Z</time>
      </trkpt>
      <trkpt lat="44.1161" lon="3.24288">
        <ele>561</ele>
        <time>2017-03-02T17:50:05Z</time>
      </trkpt>
      <trkpt lat="44.11615" lon="3.24302">
        <ele>559</ele>
        <time>2017-03-02T17:52:05Z</time>
      </trkpt>
      <trkpt lat="44.1162" lon="3.24314">
        <ele>558</ele>
        <time>2017-03-02T17:54:05Z</time>
      </trkpt>
      <trkpt lat="44.11626" lon="3.24323">
        <ele>556</ele>
        <time>2017-03-02T17:56:05Z</time>
      </trkpt>
      <trkpt lat="44.11636" lon="3.24327">
        <ele>553</ele>
        <time>2017-03-02T17:58:05Z</time>
      </trkpt>
      <trkpt lat="44.11645" lon="3.24329">
        <ele>551</ele>
        <time>2017-03-02T18:00:05Z</time>
      </trkpt>
      <trkpt lat="44.11665" lon="3.24337">
        <ele>545</ele>
        <time>2017-03-02T18:02:05Z</time>
      </trkpt>
      <trkpt lat="44.11674" lon="3.24346">
        <ele>538</ele>
        <time>2017-03-02T18:04:05Z</time>
      </trkpt>
      <trkpt lat="44.11678" lon="3.24353">
        <ele>534</ele>
        <time>2017-03-02T18:06:05Z</time>
      </trkpt>
      <trkpt lat="44.11682" lon="3.24367">
        <ele>527</ele>
        <time>2017-03-02T18:08:05Z</time>
      </trkpt>
      <trkpt lat="44.11685" lon="3.24377">
        <ele>522</ele>
        <time>2017-03-02T18:10:05Z</time>
      </trkpt>
      <trkpt lat="44.11688" lon="3.2438">
        <ele>520</ele>
        <time>2017-03-02T18:12:05Z</time>
      </trkpt>
      <trkpt lat="44.11693" lon="3.24382">
        <ele>518</ele>
        <time>2017-03-02T18:14:05Z</time>
      </trkpt>
      <trkpt lat="44.11699" lon="3.24381">
        <ele>516</ele>
        <time>2017-03-02T18:16:05Z</time>
      </trkpt>
      <trkpt lat="44.11706" lon="3.2438">
        <ele>514</ele>
        <time>2017-03-02T18:18:05Z</time>
      </trkpt>
      <trkpt lat="44.11709" lon="3.2438">
        <ele>513</ele>
        <time>2017-03-02T18:20:05Z</time>
      </trkpt>
      <trkpt lat="44.11713" lon="3.24379">
        <ele>512</ele>
        <time>2017-03-02T18:22:05Z</time>
      </trkpt>
      <trkpt lat="44.11717" lon="3.2438">
        <ele>511</ele>
        <time>2017-03-02T18:24:05Z</time>
      </trkpt>
      <trkpt lat="44.1172" lon="3.24382">
        <ele>509</ele>
        <time>2017-03-02T18:26:05Z</time>
      </trkpt>
      <trkpt lat="44.11724" lon="3.24386">
        <ele>506</ele>
        <time>2017-03-02T18:28:05Z</time>
      </trkpt>
      <trkpt lat="44.11727" lon="3.24396">
        <ele>503</ele>
        <time>2017-03-02T18:30:05Z</time>
      </trkpt>
      <trkpt lat="44.11729" lon="3.24398">
        <ele>502</ele>
        <time>2017-03-02T18:32:05Z</time>
      </trkpt>
      <trkpt lat="44.11731" lon="3.244">
        <ele>500</ele>
        <time>2017-03-02T18:34:05Z</time>
      </trkpt>
      <trkpt lat="44.11734" lon="3.24398">
        <ele>500</ele>
        <time>2017-03-02T18:36:05Z</time>
      </trkpt>
      <trkpt lat="44.11736" lon="3.24396">
        <ele>500</ele>
        <time>2017-03-02T18:38:05Z</time>
      </trkpt>
      <trkpt lat="44.11743" lon="3.24386">
        <ele>500</ele>
        <time>2017-03-02T18:40:05Z</time>
      </trkpt>
      <trkpt lat="44.11747" lon="3.24386">
        <ele>499</ele>
        <time>2017-03-02T18:42:05Z</time>
      </trkpt>
      <trkpt lat="44.11749" lon="3.2439">
        <ele>497</ele>
        <time>2017-03-02T18:44:05Z</time>
      </trkpt>
      <trkpt lat="44.11749" lon="3.24393">
        <ele>497</ele>
        <time>2017-03-02T18:46:05Z</time>
      </trkpt>
      <trkpt lat="44.11751" lon="3.244">
        <ele>495</ele>
        <time>2017-03-02T18:48:05Z</time>
      </trkpt>
      <trkpt lat="44.11756" lon="3.24402">
        <ele>493</ele>
        <time>2017-03-02T18:50:05Z</time>
      </trkpt>
      <trkpt lat="44.11759" lon="3.24401">
        <ele>492</ele>
        <time>2017-03-02T18:52:05Z</time>
      </trkpt>
      <trkpt lat="44.1176" lon="3.24405">
        <ele>491</ele>
        <time>2017-03-02T18:54:05Z</time>
      </trkpt>
      <trkpt lat="44.11759" lon="3.2441">
        <ele>490</ele>
        <time>2017-03-02T18:56:05Z</time>
      </trkpt>
      <trkpt lat="44.11758" lon="3.24415">
        <ele>489</ele>
        <time>2017-03-02T18:58:05Z</time>
      </trkpt>
      <trkpt lat="44.11757" lon="3.24422">
        <ele>487</ele>
        <time>2017-03-02T19:00:05Z</time>
      </trkpt>
      <trkpt lat="44.11759" lon="3.2443">
        <ele>482</ele>
        <time>2017-03-02T19:02:05Z</time>
      </trkpt>
      <trkpt lat="44.11762" lon="3.24429">
        <ele>482</ele>
        <time>2017-03-02T19:04:05Z</time>
      </trkpt>
      <trkpt lat="44.11767" lon="3.24425">
        <ele>483</ele>
        <time>2017-03-02T19:06:05Z</time>
      </trkpt>
      <trkpt lat="44.1177" lon="3.24423">
        <ele>483</ele>
        <time>2017-03-02T19:08:05Z</time>
      </trkpt>
      <trkpt lat="44.11778" lon="3.24422">
        <ele>481</ele>
        <time>2017-03-02T19:10:05Z</time>
      </trkpt>
      <trkpt lat="44.11782" lon="3.24424">
        <ele>479</ele>
        <time>2017-03-02T19:12:05Z</time>
      </trkpt>
      <trkpt lat="44.11787" lon="3.24427">
        <ele>476</ele>
        <time>2017-03-02T19:14:05Z</time>
      </trkpt>
      <trkpt lat="44.11787" lon="3.24434">
        <ele>473</ele>
        <time>2017-03-02T19:16:05Z</time>
      </trkpt>
      <trkpt lat="44.11786" lon="3.24442">
        <ele>470</ele>
        <time>2017-03-02T19:18:05Z</time>
      </trkpt>
      <trkpt lat="44.11786" lon="3.24444">
        <ele>469</ele>
        <time>2017-03-02T19:20:05Z</time>
      </trkpt>
      <trkpt lat="44.11787" lon="3.24446">
        <ele>468</ele>
        <time>2017-03-02T19:22:05Z</time>
      </trkpt>
      <trkpt lat="44.1179" lon="3.24445">
        <ele>468</ele>
        <time>2017-03-02T19:24:05Z</time>
      </trkpt>
      <trkpt lat="44.11793" lon="3.2444">
        <ele>469</ele>
        <time>2017-03-02T19:26:05Z</time>
      </trkpt>
      <trkpt lat="44.11798" lon="3.24434">
        <ele>470</ele>
        <time>2017-03-02T19:28:05Z</time>
      </trkpt>
      <trkpt lat="44.118" lon="3.24428">
        <ele>472</ele>
        <time>2017-03-02T19:30:05Z</time>
      </trkpt>
      <trkpt lat="44.11804" lon="3.24414">
        <ele>477</ele>
        <time>2017-03-02T19:32:05Z</time>
      </trkpt>
      <trkpt lat="44.11804" lon="3.24403">
        <ele>478</ele>
        <time>2017-03-02T19:34:05Z</time>
      </trkpt>
      <trkpt lat="44.11802" lon="3.24395">
        <ele>480</ele>
        <time>2017-03-02T19:36:05Z</time>
      </trkpt>
      <trkpt lat="44.11802" lon="3.24388">
        <ele>481</ele>
        <time>2017-03-02T19:38:05Z</time>
      </trkpt>
      <trkpt lat="44.11801" lon="3.24384">
        <ele>482</ele>
        <time>2017-03-02T19:40:05Z</time>
      </trkpt>
      <trkpt lat="44.11801" lon="3.24381">
        <ele>483</ele>
        <time>2017-03-02T19:42:05Z</time>
      </trkpt>
      <trkpt lat="44.11804" lon="3.24377">
        <ele>482</ele>
        <time>2017-03-02T19:44:05Z</time>
      </trkpt>
      <trkpt lat="44.11808" lon="3.24373">
        <ele>482</ele>
        <time>2017-03-02T19:46:05Z</time>
      </trkpt>
      <trkpt lat="44.11812" lon="3.24374">
        <ele>480</ele>
        <time>2017-03-02T19:48:05Z</time>
      </trkpt>
      <trkpt lat="44.11817" lon="3.24379">
        <ele>478</ele>
        <time>2017-03-02T19:50:05Z</time>
      </trkpt>
      <trkpt lat="44.11826" lon="3.24389">
        <ele>474</ele>
        <time>2017-03-02T19:52:05Z</time>
      </trkpt>
      <trkpt lat="44.11835" lon="3.24399">
        <ele>469</ele>
        <time>2017-03-02T19:54:05Z</time>
      </trkpt>
      <trkpt lat="44.1185" lon="3.24411">
        <ele>459</ele>
        <time>2017-03-02T19:56:05Z</time>
      </trkpt>
      <trkpt lat="44.11851" lon="3.24416">
        <ele>458</ele>
        <time>2017-03-02T19:58:05Z</time>
      </trkpt>
      <trkpt lat="44.11851" lon="3.2442">
        <ele>457</ele>
        <time>2017-03-02T20:00:05Z</time>
      </trkpt>
      <trkpt lat="44.1185" lon="3.24426">
        <ele>456</ele>
        <time>2017-03-02T20:02:05Z</time>
      </trkpt>
      <trkpt lat="44.11848" lon="3.24436">
        <ele>453</ele>
        <time>2017-03-02T20:04:05Z</time>
      </trkpt>
      <trkpt lat="44.11849" lon="3.24442">
        <ele>451</ele>
        <time>2017-03-02T20:06:05Z</time>
      </trkpt>
      <trkpt lat="44.11851" lon="3.2445">
        <ele>447</ele>
        <time>2017-03-02T20:08:05Z</time>
      </trkpt>
      <trkpt lat="44.11852" lon="3.24454">
        <ele>446</ele>
        <time>2017-03-02T20:10:05Z</time>
      </trkpt>
      <trkpt lat="44.11855" lon="3.24456">
        <ele>444</ele>
        <time>2017-03-02T20:12:05Z</time>
      </trkpt>
      <trkpt lat="44.11858" lon="3.24456">
        <ele>443</ele>
        <time>2017-03-02T20:14:05Z</time>
      </trkpt>
      <trkpt lat="44.1186" lon="3.24454">
        <ele>442</ele>
        <time>2017-03-02T20:16:05Z</time>
      </trkpt>
      <trkpt lat="44.11862" lon="3.24452">
        <ele>442</ele>
        <time>2017-03-02T20:18:05Z</time>
      </trkpt>
      <trkpt lat="44.1187" lon="3.24446">
        <ele>440</ele>
        <time>2017-03-02T20:20:05Z</time>
      </trkpt>
      <trkpt lat="44.11876" lon="3.24445">
        <ele>438</ele>
        <time>2017-03-02T20:22:05Z</time>
      </trkpt>
      <trkpt lat="44.11876" lon="3.24448">
        <ele>437</ele>
        <time>2017-03-02T20:24:05Z</time>
      </trkpt>
      <trkpt lat="44.11876" lon="3.24452">
        <ele>436</ele>
        <time>2017-03-02T20:26:05Z</time>
      </trkpt>
      <trkpt lat="44.11873" lon="3.24465">
        <ele>434</ele>
        <time>2017-03-02T20:28:05Z</time>
      </trkpt>
      <trkpt lat="44.11873" lon="3.24469">
        <ele>433</ele>
        <time>2017-03-02T20:30:05Z</time>
      </trkpt>
      <trkpt lat="44.11876" lon="3.24471">
        <ele>432</ele>
        <time>2017-03-02T20:32:05Z</time>
      </trkpt>
      <trkpt lat="44.1188" lon="3.24468">
        <ele>431</ele>
        <time>2017-03-02T20:34:05Z</time>
      </trkpt>
      <trkpt lat="44.11888" lon="3.24463">
        <ele>429</ele>
        <time>2017-03-02T20:36:05Z</time>
      </trkpt>
      <trkpt lat="44.11892" lon="3.24457">
        <ele>428</ele>
        <time>2017-03-02T20:38:05Z</time>
      </trkpt>
      <trkpt lat="44.11894" lon="3.24456">
        <ele>428</ele>
        <time>2017-03-02T20:40:05Z</time>
      </trkpt>
      <trkpt lat="44.11896" lon="3.24458">
        <ele>426</ele>
        <time>2017-03-02T20:42:05Z</time>
      </trkpt>
      <trkpt lat="44.11896" lon="3.24463">
        <ele>426</ele>
        <time>2017-03-02T20:44:05Z</time>
      </trkpt>
      <trkpt lat="44.11893" lon="3.24468">
        <ele>426</ele>
        <time>2017-03-02T20:46:05Z</time>
      </trkpt>
      <trkpt lat="44.11888" lon="3.24477">
        <ele>426</ele>
        <time>2017-03-02T20:48:05Z</time>
      </trkpt>
      <trkpt lat="44.11872" lon="3.24498">
        <ele>426</ele>
        <time>2017-03-02T20:50:05Z</time>
      </trkpt>
      <trkpt lat="44.11868" lon="3.24509">
        <ele>426</ele>
        <time>2017-03-02T20:52:05Z</time>
      </trkpt>
      <trkpt lat="44.11868" lon="3.24512">
        <ele>425</ele>
        <time>2017-03-02T20:54:05Z</time>
      </trkpt>
      <trkpt lat="44.11868" lon="3.24514">
        <ele>425</ele>
        <time>2017-03-02T20:56:05Z</time>
      </trkpt>
      <trkpt lat="44.11869" lon="3.24514">
        <ele>425</ele>
        <time>2017-03-02T20:58:05Z</time>
      </trkpt>
      <trkpt lat="44.11871" lon="3.24514">
        <ele>424</ele>
        <time>2017-03-02T21:00:05Z</time>
      </trkpt>
      <trkpt lat="44.11875" lon="3.24509">
        <ele>424</ele>
        <time>2017-03-02T21:02:05Z</time>
      </trkpt>
      <trkpt lat="44.1188" lon="3.24502">
        <ele>424</ele>
        <time>2017-03-02T21:04:05Z</time>
      </trkpt>
      <trkpt lat="44.11889" lon="3.24493">
        <ele>423</ele>
        <time>2017-03-02T21:06:05Z</time>
      </trkpt>
      <trkpt lat="44.11893" lon="3.24487">
        <ele>423</ele>
        <time>2017-03-02T21:08:05Z</time>
      </trkpt>
      <trkpt lat="44.11898" lon="3.24482">
        <ele>422</ele>
        <time>2017-03-02T21:10:05Z</time>
      </trkpt>
      <trkpt lat="44.11903" lon="3.24476">
        <ele>421</ele>
        <time>2017-03-02T21:12:05Z</time>
      </trkpt>
      <trkpt lat="44.11905" lon="3.24475">
        <ele>420</ele>
        <time>2017-03-02T21:14:05Z</time>
      </trkpt>
      <trkpt lat="44.11906" lon="3.24474">
        <ele>420</ele>
        <time>2017-03-02T21:16:05Z</time>
      </trkpt>
      <trkpt lat="44.11907" lon="3.24474">
        <ele>420</ele>
        <time>2017-03-02T21:18:05Z</time>
      </trkpt>
      <trkpt lat="44.11909" lon="3.24474">
        <ele>419</ele>
        <time>2017-03-02T21:20:05Z</time>
      </trkpt>
      <trkpt lat="44.11911" lon="3.24477">
        <ele>418</ele>
        <time>2017-03-02T21:22:05Z</time>
      </trkpt>
      <trkpt lat="44.11919" lon="3.24485">
        <ele>416</ele>
        <time>2017-03-02T21:24:05Z</time>
      </trkpt>
      <trkpt lat="44.11923" lon="3.24488">
        <ele>417</ele>
        <time>2017-03-02T21:26:05Z</time>
      </trkpt>
      <trkpt lat="44.11925" lon="3.2449">
        <ele>417</ele>
        <time>2017-03-02T21:28:05Z</time>
      </trkpt>
      <trkpt lat="44.11931" lon="3.24495">
        <ele>418</ele>
        <time>2017-03-02T21:30:05Z</time>
      </trkpt>
      <trkpt lat="44.1194" lon="3.24499">
        <ele>420</ele>
        <time>2017-03-02T21:32:05Z</time>
      </trkpt>
      <trkpt lat="44.11947" lon="3.24502">
        <ele>423</ele>
        <time>2017-03-02T21:34:05Z</time>
      </trkpt>
      <trkpt lat="44.1195" lon="3.24504">
        <ele>423</ele>
        <time>2017-03-02T21:36:05Z</time>
      </trkpt>
      <trkpt lat="44.11952" lon="3.24505">
        <ele>424</ele>
        <time>2017-03-02T21:38:05Z</time>
      </trkpt>
      <trkpt lat="44.11952" lon="3.24509">
        <ele>424</ele>
        <time>2017-03-02T21:40:05Z</time>
      </trkpt>
      <trkpt lat="44.11953" lon="3.24512">
        <ele>425</ele>
        <time>2017-03-02T21:42:05Z</time>
      </trkpt>
      <trkpt lat="44.11952" lon="3.2452">
        <ele>425</ele>
        <time>2017-03-02T21:44:05Z</time>
      </trkpt>
      <trkpt lat="44.11951" lon="3.2453">
        <ele>426</ele>
        <time>2017-03-02T21:46:05Z</time>
      </trkpt>
      <trkpt lat="44.1195" lon="3.24538">
        <ele>426</ele>
        <time>2017-03-02T21:48:05Z</time>
      </trkpt>
      <trkpt lat="44.1195" lon="3.24542">
        <ele>426</ele>
        <time>2017-03-02T21:50:05Z</time>
      </trkpt>
      <trkpt lat="44.1195" lon="3.24545">
        <ele>426</ele>
        <time>2017-03-02T21:52:05Z</time>
      </trkpt>
      <trkpt lat="44.11951" lon="3.24547">
        <ele>427</ele>
        <time>2017-03-02T21:54:05Z</time>
      </trkpt>
      <trkpt lat="44.11954" lon="3.2455">
        <ele>428</ele>
        <time>2017-03-02T21:56:05Z</time>
      </trkpt>
      <trkpt lat="44.11957" lon="3.24554">
        <ele>429</ele>
        <time>2017-03-02T21:58:05Z</time>
      </trkpt>
      <trkpt lat="44.11962" lon="3.24559">
        <ele>431</ele>
        <time>2017-03-02T22:00:05Z</time>
      </trkpt>
      <trkpt lat="44.11962" lon="3.24559">
        <ele>431</ele>
        <time>2017-03-02T22:02:05Z</time>
      </trkpt>
      <trkpt lat="44.11958" lon="3.24566">
        <ele>431</ele>
        <time>2017-03-02T22:04:05Z</time>
      </trkpt>
      <trkpt lat="44.11955" lon="3.2457">
        <ele>430</ele>
        <time>2017-03-02T22:06:05Z</time>
      </trkpt>
      <trkpt lat="44.11952" lon="3.24575">
        <ele>429</ele>
        <time>2017-03-02T22:08:05Z</time>
      </trkpt>
      <trkpt lat="44.11948" lon="3.24578">
        <ele>428</ele>
        <time>2017-03-02T22:10:05Z</time>
      </trkpt>
      <trkpt lat="44.11946" lon="3.2458">
        <ele>428</ele>
        <time>2017-03-02T22:12:05Z</time>
      </trkpt>
      <trkpt lat="44.11944" lon="3.24582">
        <ele>427</ele>
        <time>2017-03-02T22:14:05Z</time>
      </trkpt>
      <trkpt lat="44.11939" lon="3.24586">
        <ele>426</ele>
        <time>2017-03-02T22:16:05Z</time>
      </trkpt>
      <trkpt lat="44.11937" lon="3.24588">
        <ele>426</ele>
        <time>2017-03-02T22:18:05Z</time>
      </trkpt>
      <trkpt lat="44.11934" lon="3.2459">
        <ele>426</ele>
        <time>2017-03-02T22:20:05Z</time>
      </trkpt>
      <trkpt lat="44.11932" lon="3.24591">
        <ele>426</ele>
        <time>2017-03-02T22:22:05Z</time>
      </trkpt>
      <trkpt lat="44.11926" lon="3.24594">
        <ele>425</ele>
        <time>2017-03-02T22:24:05Z</time>
      </trkpt>
      <trkpt lat="44.11919" lon="3.24596">
        <ele>423</ele>
        <time>2017-03-02T22:26:05Z</time>
      </trkpt>
      <trkpt lat="44.11904" lon="3.24601">
        <ele>424</ele>
        <time>2017-03-02T22:28:05Z</time>
      </trkpt>
      <trkpt lat="44.1189" lon="3.24604">
        <ele>424</ele>
        <time>2017-03-02T22:30:05Z</time>
      </trkpt>
      <trkpt lat="44.11883" lon="3.24607">
        <ele>424</ele>
        <time>2017-03-02T22:32:05Z</time>
      </trkpt>
      <trkpt lat="44.1187" lon="3.2461">
        <ele>424</ele>
        <time>2017-03-02T22:34:05Z</time>
      </trkpt>
      <trkpt lat="44.11859" lon="3.24612">
        <ele>424</ele>
        <time>2017-03-02T22:36:05Z</time>
      </trkpt>
      <trkpt lat="44.11851" lon="3.24613">
        <ele>424</ele>
        <time>2017-03-02T22:38:05Z</time>
      </trkpt>
      <trkpt lat="44.1184" lon="3.24613">
        <ele>423</ele>
        <time>2017-03-02T22:40:05Z</time>
      </trkpt>
      <trkpt lat="44.11833" lon="3.24614">
        <ele>423</ele>
        <time>2017-03-02T22:42:05Z</time>
      </trkpt>
      <trkpt lat="44.11807" lon="3.24618">
        <ele>424</ele>
        <time>2017-03-02T22:44:05Z</time>
      </trkpt>
      <trkpt lat="44.11799" lon="3.2462">
        <ele>424</ele>
        <time>2017-03-02T22:46:05Z</time>
      </trkpt>
      <trkpt lat="44.1179" lon="3.24622">
        <ele>424</ele>
        <time>2017-03-02T22:48:05Z</time>
      </trkpt>
      <trkpt lat="44.11783" lon="3.24624">
        <ele>424</ele>
        <time>2017-03-02T22:50:05Z</time>
      </trkpt>
      <trkpt lat="44.11773" lon="3.24628">
        <ele>424</ele>
        <time>2017-03-02T22:52:05Z</time>
      </trkpt>
      <trkpt lat="44.11765" lon="3.24631">
        <ele>424</ele>
        <time>2017-03-02T22:54:05Z</time>
      </trkpt>
      <trkpt lat="44.11759" lon="3.24634">
        <ele>424</ele>
        <time>2017-03-02T22:56:05Z</time>
      </trkpt>
      <trkpt lat="44.11744" lon="3.24643">
        <ele>424</ele>
        <time>2017-03-02T22:58:05Z</time>
      </trkpt>
      <trkpt lat="44.11737" lon="3.24649">
        <ele>424</ele>
        <time>2017-03-02T23:00:05Z</time>
      </trkpt>
      <trkpt lat="44.11729" lon="3.24654">
        <ele>423</ele>
        <time>2017-03-02T23:02:05Z</time>
      </trkpt>
      <trkpt lat="44.11721" lon="3.24661">
        <ele>422</ele>
        <time>2017-03-02T23:04:05Z</time>
      </trkpt>
      <trkpt lat="44.11714" lon="3.24666">
        <ele>421</ele>
        <time>2017-03-02T23:06:05Z</time>
      </trkpt>
      <trkpt lat="44.11707" lon="3.24672">
        <ele>422</ele>
        <time>2017-03-02T23:08:05Z</time>
      </trkpt>
      <trkpt lat="44.11699" lon="3.24678">
        <ele>422</ele>
        <time>2017-03-02T23:10:05Z</time>
      </trkpt>
      <trkpt lat="44.11691" lon="3.24686">
        <ele>423</ele>
        <time>2017-03-02T23:12:05Z</time>
      </trkpt>
      <trkpt lat="44.11677" lon="3.24699">
        <ele>423</ele>
        <time>2017-03-02T23:14:05Z</time>
      </trkpt>
      <trkpt lat="44.11669" lon="3.24707">
        <ele>423</ele>
        <time>2017-03-02T23:16:05Z</time>
      </trkpt>
      <trkpt lat="44.11662" lon="3.24714">
        <ele>424</ele>
        <time>2017-03-02T23:18:05Z</time>
      </trkpt>
      <trkpt lat="44.11655" lon="3.24723">
        <ele>425</ele>
        <time>2017-03-02T23:20:05Z</time>
      </trkpt>
      <trkpt lat="44.11648" lon="3.2473">
        <ele>426</ele>
        <time>2017-03-02T23:22:05Z</time>
      </trkpt>
      <trkpt lat="44.1164" lon="3.24741">
        <ele>426</ele>
        <time>2017-03-02T23:24:05Z</time>
      </trkpt>
      <trkpt lat="44.11624" lon="3.24762">
        <ele>428</ele>
        <time>2017-03-02T23:26:05Z</time>
      </trkpt>
      <trkpt lat="44.11608" lon="3.24782">
        <ele>429</ele>
        <time>2017-03-02T23:28:05Z</time>
      </trkpt>
      <trkpt lat="44.11597" lon="3.24797">
        <ele>429</ele>
        <time>2017-03-02T23:30:05Z</time>
      </trkpt>
      <trkpt lat="44.11586" lon="3.24811">
        <ele>428</ele>
        <time>2017-03-02T23:32:05Z</time>
      </trkpt>
      <trkpt lat="44.11558" lon="3.24845">
        <ele>433</ele>
        <time>2017-03-02T23:34:05Z</time>
      </trkpt>
      <trkpt lat="44.11543" lon="3.24865">
        <ele>438</ele>
        <time>2017-03-02T23:36:05Z</time>
      </trkpt>
      <trkpt lat="44.11532" lon="3.24881">
        <ele>440</ele>
        <time>2017-03-02T23:38:05Z</time>
      </trkpt>
      <trkpt lat="44.11521" lon="3.24897">
        <ele>440</ele>
        <time>2017-03-02T23:40:05Z</time>
      </trkpt>
      <trkpt lat="44.11512" lon="3.24913">
        <ele>438</ele>
        <time>2017-03-02T23:42:05Z</time>
      </trkpt>
      <trkpt lat="44.115" lon="3.2493">
        <ele>440</ele>
        <time>2017-03-02T23:44:05Z</time>
      </trkpt>
      <trkpt lat="44.11495" lon="3.24938">
        <ele>444</ele>
        <time>2017-03-02T23:46:05Z</time>
      </trkpt>
      <trkpt lat="44.11489" lon="3.24945">
        <ele>446</ele>
        <time>2017-03-02T23:48:05Z</time>
      </trkpt>
      <trkpt lat="44.11484" lon="3.24951">
        <ele>448</ele>
        <time>2017-03-02T23:50:05Z</time>
      </trkpt>
      <trkpt lat="44.11478" lon="3.24956">
        <ele>449</ele>
        <time>2017-03-02T23:52:05Z</time>
      </trkpt>
      <trkpt lat="44.11474" lon="3.24959">
        <ele>449</ele>
        <time>2017-03-02T23:54:05Z</time>
      </trkpt>
      <trkpt lat="44.11468" lon="3.24963">
        <ele>449</ele>
        <time>2017-03-02T23:56:05Z</time>
      </trkpt>
      <trkpt lat="44.11463" lon="3.24965">
        <ele>449</ele>
        <time>2017-03-02T23:58:05Z</time>
      </trkpt>
      <trkpt lat="44.11456" lon="3.24968">
        <ele>448</ele>
        <time>2017-03-03T00:00:05Z</time>
      </trkpt>
      <trkpt lat="44.11449" lon="3.2497">
        <ele>447</ele>
        <time>2017-03-03T00:02:05Z</time>
      </trkpt>
      <trkpt lat="44.11436" lon="3.24972">
        <ele>443</ele>
        <time>2017-03-03T00:04:05Z</time>
      </trkpt>
      <trkpt lat="44.11424" lon="3.24973">
        <ele>440</ele>
        <time>2017-03-03T00:06:05Z</time>
      </trkpt>
      <trkpt lat="44.11406" lon="3.24974">
        <ele>437</ele>
        <time>2017-03-03T00:08:05Z</time>
      </trkpt>
      <trkpt lat="44.114" lon="3.24974">
        <ele>437</ele>
        <time>2017-03-03T00:10:05Z</time>
      </trkpt>
      <trkpt lat="44.11391" lon="3.24974">
        <ele>436</ele>
        <time>2017-03-03T00:12:05Z</time>
      </trkpt>
      <trkpt lat="44.11391" lon="3.24974">
        <ele>436</ele>
        <time>2017-03-03T00:14:05Z</time>
      </trkpt>
      <trkpt lat="44.1139" lon="3.24977">
        <ele>437</ele>
        <time>2017-03-03T00:16:05Z</time>
      </trkpt>
      <trkpt lat="44.1139" lon="3.24979">
        <ele>437</ele>
        <time>2017-03-03T00:18:05Z</time>
      </trkpt>
      <trkpt lat="44.11389" lon="3.2498">
        <ele>438</ele>
        <time>2017-03-03T00:20:05Z</time>
      </trkpt>
      <trkpt lat="44.11387" lon="3.24982">
        <ele>438</ele>
        <time>2017-03-03T00:22:05Z</time>
      </trkpt>
      <trkpt lat="44.11384" lon="3.24984">
        <ele>438</ele>
        <time>2017-03-03T00:24:05Z</time>
      </trkpt>
      <trkpt lat="44.11379" lon="3.24987">
        <ele>438</ele>
        <time>2017-03-03T00:26:05Z</time>
      </trkpt>
      <trkpt lat="44.11373" lon="3.2499">
        <ele>438</ele>
        <time>2017-03-03T00:28:05Z</time>
      </trkpt>
      <trkpt lat="44.11365" lon="3.24991">
        <ele>438</ele>
        <time>2017-03-03T00:30:05Z</time>
      </trkpt>
      <trkpt lat="44.11351" lon="3.24993">
        <ele>437</ele>
        <time>2017-03-03T00:32:05Z</time>
      </trkpt>
      <trkpt lat="44.1133" lon="3.24996">
        <ele>435</ele>
        <time>2017-03-03T00:34:05Z</time>
      </trkpt>
      <trkpt lat="44.11312" lon="3.25">
        <ele>434</ele>
        <time>2017-03-03T00:36:05Z</time>
      </trkpt>
      <trkpt lat="44.11295" lon="3.25003">
        <ele>433</ele>
        <time>2017-03-03T00:38:05Z</time>
      </trkpt>
      <trkpt lat="44.11279" lon="3.25007">
        <ele>432</ele>
        <time>2017-03-03T00:40:05Z</time>
      </trkpt>
      <trkpt lat="44.11262" lon="3.25012">
        <ele>431</ele>
        <time>2017-03-03T00:42:05Z</time>
      </trkpt>
      <trkpt lat="44.11248" lon="3.25015">
        <ele>430</ele>
        <time>2017-03-03T00:44:05Z</time>
      </trkpt>
      <trkpt lat="44.11228" lon="3.25023">
        <ele>429</ele>
        <time>2017-03-03T00:46:05Z</time>
      </trkpt>
      <trkpt lat="44.1122" lon="3.25027">
        <ele>429</ele>
        <time>2017-03-03T00:48:05Z</time>
      </trkpt>
      <trkpt lat="44.11216" lon="3.25029">
        <ele>428</ele>
        <time>2017-03-03T00:50:05Z</time>
      </trkpt>
      <trkpt lat="44.11213" lon="3.25032">
        <ele>428</ele>
        <time>2017-03-03T00:52:05Z</time>
      </trkpt>
      <trkpt lat="44.11212" lon="3.25034">
        <ele>428</ele>
        <time>2017-03-03T00:54:05Z</time>
      </trkpt>
      <trkpt lat="44.11211" lon="3.25037">
        <ele>429</ele>
        <time>2017-03-03T00:56:05Z</time>
      </trkpt>
      <trkpt lat="44.11212" lon="3.25039">
        <ele>429</ele>
        <time>2017-03-03T00:58:05Z</time>
      </trkpt>
      <trkpt lat="44.11212" lon="3.25041">
        <ele>429</ele>
        <time>2017-03-03T01:00:05Z</time>
      </trkpt>
      <trkpt lat="44.11214" lon="3.25042">
        <ele>430</ele>
        <time>2017-03-03T01:02:05Z</time>
      </trkpt>
      <trkpt lat="44.11216" lon="3.25042">
        <ele>430</ele>
        <time>2017-03-03T01:04:05Z</time>
      </trkpt>
      <trkpt lat="44.11219" lon="3.25042">
        <ele>431</ele>
        <time>2017-03-03T01:06:05Z</time>
      </trkpt>
      <trkpt lat="44.11225" lon="3.2504">
        <ele>431</ele>
        <time>2017-03-03T01:08:05Z</time>
      </trkpt>
      <trkpt lat="44.11232" lon="3.25038">
        <ele>432</ele>
        <time>2017-03-03T01:10:05Z</time>
      </trkpt>
      <trkpt lat="44.1124" lon="3.25037">
        <ele>433</ele>
        <time>2017-03-03T01:12:05Z</time>
      </trkpt>
      <trkpt lat="44.11249" lon="3.25037">
        <ele>434</ele>
        <time>2017-03-03T01:14:05Z</time>
      </trkpt>
      <trkpt lat="44.11263" lon="3.25037">
        <ele>437</ele>
        <time>2017-03-03T01:16:05Z</time>
      </trkpt>
      <trkpt lat="44.11274" lon="3.25036">
        <ele>439</ele>
        <time>2017-03-03T01:18:05Z</time>
      </trkpt>
      <trkpt lat="44.11291" lon="3.25033">
        <ele>442</ele>
        <time>2017-03-03T01:20:05Z</time>
      </trkpt>
      <trkpt lat="44.11306" lon="3.25032">
        <ele>445</ele>
        <time>2017-03-03T01:22:05Z</time>
      </trkpt>
      <trkpt lat="44.11314" lon="3.25032">
        <ele>446</ele>
        <time>2017-03-03T01:24:05Z</time>
      </trkpt>
      <trkpt lat="44.11323" lon="3.25035">
        <ele>449</ele>
        <time>2017-03-03T01:26:05Z</time>
      </trkpt>
      <trkpt lat="44.11334" lon="3.25038">
        <ele>453</ele>
        <time>2017-03-03T01:28:05Z</time>
      </trkpt>
      <trkpt lat="44.11344" lon="3.25041">
        <ele>456</ele>
        <time>2017-03-03T01:30:05Z</time>
      </trkpt>
      <trkpt lat="44.11349" lon="3.25042">
        <ele>457</ele>
        <time>2017-03-03T01:32:05Z</time>
      </trkpt>
      <trkpt lat="44.11353" lon="3.25042">
        <ele>458</ele>
        <time>2017-03-03T01:34:05Z</time>
      </trkpt>
      <trkpt lat="44.11354" lon="3.25042">
        <ele>458</ele>
        <time>2017-03-03T01:36:05Z</time>
      </trkpt>
      <trkpt lat="44.11355" lon="3.25041">
        <ele>457</ele>
        <time>2017-03-03T01:38:05Z</time>
      </trkpt>
      <trkpt lat="44.11356" lon="3.25041">
        <ele>458</ele>
        <time>2017-03-03T01:40:05Z</time>
      </trkpt>
      <trkpt lat="44.1136" lon="3.25037">
        <ele>456</ele>
        <time>2017-03-03T01:42:05Z</time>
      </trkpt>
      <trkpt lat="44.11364" lon="3.25033">
        <ele>455</ele>
        <time>2017-03-03T01:44:05Z</time>
      </trkpt>
      <trkpt lat="44.11366" lon="3.25032">
        <ele>455</ele>
        <time>2017-03-03T01:46:05Z</time>
      </trkpt>
      <trkpt lat="44.11367" lon="3.25032">
        <ele>455</ele>
        <time>2017-03-03T01:48:05Z</time>
      </trkpt>
      <trkpt lat="44.11368" lon="3.25032">
        <ele>455</ele>
        <time>2017-03-03T01:50:05Z</time>
      </trkpt>
      <trkpt lat="44.11369" lon="3.25032">
        <ele>455</ele>
        <time>2017-03-03T01:52:05Z</time>
      </trkpt>
      <trkpt lat="44.1137" lon="3.25033">
        <ele>456</ele>
        <time>2017-03-03T01:54:05Z</time>
      </trkpt>
      <trkpt lat="44.11371" lon="3.25035">
        <ele>457</ele>
        <time>2017-03-03T01:56:05Z</time>
      </trkpt>
      <trkpt lat="44.11371" lon="3.25036">
        <ele>457</ele>
        <time>2017-03-03T01:58:05Z</time>
      </trkpt>
      <trkpt lat="44.11371" lon="3.25038">
        <ele>458</ele>
        <time>2017-03-03T02:00:05Z</time>
      </trkpt>
      <trkpt lat="44.1137" lon="3.2504">
        <ele>459</ele>
        <time>2017-03-03T02:02:05Z</time>
      </trkpt>
      <trkpt lat="44.11366" lon="3.25045">
        <ele>461</ele>
        <time>2017-03-03T02:04:05Z</time>
      </trkpt>
      <trkpt lat="44.11362" lon="3.25048">
        <ele>462</ele>
        <time>2017-03-03T02:06:05Z</time>
      </trkpt>
      <trkpt lat="44.11359" lon="3.25049">
        <ele>462</ele>
        <time>2017-03-03T02:08:05Z</time>
      </trkpt>
      <trkpt lat="44.11347" lon="3.2505">
        <ele>460</ele>
        <time>2017-03-03T02:10:05Z</time>
      </trkpt>
      <trkpt lat="44.11332" lon="3.2505">
        <ele>458</ele>
        <time>2017-03-03T02:12:05Z</time>
      </trkpt>
      <trkpt lat="44.11318" lon="3.25051">
        <ele>455</ele>
        <time>2017-03-03T02:14:05Z</time>
      </trkpt>
      <trkpt lat="44.11308" lon="3.25052">
        <ele>453</ele>
        <time>2017-03-03T02:16:05Z</time>
      </trkpt>
      <trkpt lat="44.113" lon="3.25056">
        <ele>452</ele>
        <time>2017-03-03T02:18:05Z</time>
      </trkpt>
      <trkpt lat="44.11292" lon="3.2506">
        <ele>451</ele>
        <time>2017-03-03T02:20:05Z</time>
      </trkpt>
      <trkpt lat="44.11283" lon="3.25062">
        <ele>449</ele>
        <time>2017-03-03T02:22:05Z</time>
      </trkpt>
      <trkpt lat="44.11271" lon="3.25062">
        <ele>446</ele>
        <time>2017-03-03T02:24:05Z</time>
      </trkpt>
      <trkpt lat="44.11258" lon="3.25063">
        <ele>442</ele>
        <time>2017-03-03T02:26:05Z</time>
      </trkpt>
      <trkpt lat="44.1125" lon="3.25064">
        <ele>440</ele>
        <time>2017-03-03T02:28:05Z</time>
      </trkpt>
      <trkpt lat="44.11243" lon="3.25068">
        <ele>439</ele>
        <time>2017-03-03T02:30:05Z</time>
      </trkpt>
      <trkpt lat="44.1124" lon="3.2507">
        <ele>439</ele>
        <time>2017-03-03T02:32:05Z</time>
      </trkpt>
      <trkpt lat="44.11237" lon="3.25072">
        <ele>439</ele>
        <time>2017-03-03T02:34:05Z</time>
      </trkpt>
      <trkpt lat="44.11235" lon="3.25075">
        <ele>439</ele>
        <time>2017-03-03T02:36:05Z</time>
      </trkpt>
      <trkpt lat="44.11229" lon="3.2508">
        <ele>438</ele>
        <time>2017-03-03T02:38:05Z</time>
      </trkpt>
      <trkpt lat="44.11221" lon="3.25085">
        <ele>437</ele>
        <time>2017-03-03T02:40:05Z</time>
      </trkpt>
      <trkpt lat="44.11218" lon="3.25088">
        <ele>436</ele>
        <time>2017-03-03T02:42:05Z</time>
      </trkpt>
      <trkpt lat="44.11216" lon="3.2509">
        <ele>435</ele>
        <time>2017-03-03T02:44:05Z</time>
      </trkpt>
      <trkpt lat="44.11214" lon="3.25093">
        <ele>435</ele>
        <time>2017-03-03T02:46:05Z</time>
      </trkpt>
      <trkpt lat="44.11214" lon="3.25098">
        <ele>435</ele>
        <time>2017-03-03T02:48:05Z</time>
      </trkpt>
      <trkpt lat="44.11213" lon="3.25108">
        <ele>435</ele>
        <time>2017-03-03T02:50:05Z</time>
      </trkpt>
      <trkpt lat="44.11214" lon="3.25119">
        <ele>435</ele>
        <time>2017-03-03T02:52:05Z</time>
      </trkpt>
      <trkpt lat="44.11215" lon="3.25125">
        <ele>435</ele>
        <time>2017-03-03T02:54:05Z</time>
      </trkpt>
      <trkpt lat="44.11215" lon="3.2513">
        <ele>435</ele>
        <time>2017-03-03T02:56:05Z</time>
      </trkpt>
      <trkpt lat="44.11217" lon="3.25136">
        <ele>435</ele>
        <time>2017-03-03T02:58:05Z</time>
      </trkpt>
      <trkpt lat="44.1122" lon="3.25142">
        <ele>436</ele>
        <time>2017-03-03T03:00:05Z</time>
      </trkpt>
      <trkpt lat="44.11223" lon="3.25144">
        <ele>436</ele>
        <time>2017-03-03T03:02:05Z</time>
      </trkpt>
      <trkpt lat="44.11227" lon="3.25147">
        <ele>437</ele>
        <time>2017-03-03T03:04:05Z</time>
      </trkpt>
      <trkpt lat="44.11231" lon="3.2515">
        <ele>438</ele>
        <time>2017-03-03T03:06:05Z</time>
      </trkpt>
      <trkpt lat="44.11236" lon="3.25153">
        <ele>439</ele>
        <time>2017-03-03T03:08:05Z</time>
      </trkpt>
      <trkpt lat="44.11238" lon="3.25156">
        <ele>439</ele>
        <time>2017-03-03T03:10:05Z</time>
      </trkpt>
      <trkpt lat="44.11241" lon="3.25159">
        <ele>440</ele>
        <time>2017-03-03T03:12:05Z</time>
      </trkpt>
      <trkpt lat="44.11244" lon="3.2516">
        <ele>440</ele>
        <time>2017-03-03T03:14:05Z</time>
      </trkpt>
      <trkpt lat="44.11247" lon="3.25159">
        <ele>441</ele>
        <time>2017-03-03T03:16:05Z</time>
      </trkpt>
      <trkpt lat="44.11252" lon="3.25157">
        <ele>442</ele>
        <time>2017-03-03T03:18:05Z</time>
      </trkpt>
      <trkpt lat="44.11259" lon="3.25156">
        <ele>446</ele>
        <time>2017-03-03T03:20:05Z</time>
      </trkpt>
      <trkpt lat="44.11265" lon="3.25157">
        <ele>449</ele>
        <time>2017-03-03T03:22:05Z</time>
      </trkpt>
      <trkpt lat="44.1127" lon="3.25159">
        <ele>452</ele>
        <time>2017-03-03T03:24:05Z</time>
      </trkpt>
      <trkpt lat="44.11276" lon="3.25165">
        <ele>455</ele>
        <time>2017-03-03T03:26:05Z</time>
      </trkpt>
      <trkpt lat="44.11279" lon="3.2517">
        <ele>457</ele>
        <time>2017-03-03T03:28:05Z</time>
      </trkpt>
      <trkpt lat="44.11282" lon="3.25175">
        <ele>458</ele>
        <time>2017-03-03T03:30:05Z</time>
      </trkpt>
      <trkpt lat="44.11284" lon="3.25181">
        <ele>459</ele>
        <time>2017-03-03T03:32:05Z</time>
      </trkpt>
      <trkpt lat="44.11287" lon="3.25188">
        <ele>460</ele>
        <time>2017-03-03T03:34:05Z</time>
      </trkpt>
      <trkpt lat="44.11288" lon="3.25198">
        <ele>460</ele>
        <time>2017-03-03T03:36:05Z</time>
      </trkpt>
      <trkpt lat="44.11288" lon="3.25206">
        <ele>460</ele>
        <time>2017-03-03T03:38:05Z</time>
      </trkpt>
      <trkpt lat="44.11286" lon="3.2522">
        <ele>458</ele>
        <time>2017-03-03T03:40:05Z</time>
      </trkpt>
      <trkpt lat="44.11284" lon="3.25232">
        <ele>456</ele>
        <time>2017-03-03T03:42:05Z</time>
      </trkpt>
      <trkpt lat="44.11284" lon="3.25238">
        <ele>456</ele>
        <time>2017-03-03T03:44:05Z</time>
      </trkpt>
      <trkpt lat="44.11284" lon="3.25241">
        <ele>456</ele>
        <time>2017-03-03T03:46:05Z</time>
      </trkpt>
      <trkpt lat="44.11285" lon="3.25244">
        <ele>456</ele>
        <time>2017-03-03T03:48:05Z</time>
      </trkpt>
      <trkpt lat="44.11286" lon="3.25246">
        <ele>456</ele>
        <time>2017-03-03T03:50:05Z</time>
      </trkpt>
      <trkpt lat="44.11288" lon="3.25248">
        <ele>457</ele>
        <time>2017-03-03T03:52:05Z</time>
      </trkpt>
      <trkpt lat="44.11289" lon="3.25249">
        <ele>458</ele>
        <time>2017-03-03T03:54:05Z</time>
      </trkpt>
      <trkpt lat="44.11292" lon="3.2525">
        <ele>460</ele>
        <time>2017-03-03T03:56:05Z</time>
      </trkpt>
      <trkpt lat="44.11295" lon="3.25253">
        <ele>461</ele>
        <time>2017-03-03T03:58:05Z</time>
      </trkpt>
      <trkpt lat="44.113" lon="3.2526">
        <ele>464</ele>
        <time>2017-03-03T04:00:05Z</time>
      </trkpt>
      <trkpt lat="44.11303" lon="3.25266">
        <ele>465</ele>
        <time>2017-03-03T04:02:05Z</time>
      </trkpt>
      <trkpt lat="44.11307" lon="3.2528">
        <ele>467</ele>
        <time>2017-03-03T04:04:05Z</time>
      </trkpt>
      <trkpt lat="44.11309" lon="3.25287">
        <ele>468</ele>
        <time>2017-03-03T04:06:05Z</time>
      </trkpt>
      <trkpt lat="44.1131" lon="3.25295">
        <ele>468</ele>
        <time>2017-03-03T04:08:05Z</time>
      </trkpt>
      <trkpt lat="44.1131" lon="3.25305">
        <ele>468</ele>
        <time>2017-03-03T04:10:05Z</time>
      </trkpt>
      <trkpt lat="44.11309" lon="3.2531">
        <ele>467</ele>
        <time>2017-03-03T04:12:05Z</time>
      </trkpt>
      <trkpt lat="44.11308" lon="3.25316">
        <ele>466</ele>
        <time>2017-03-03T04:14:05Z</time>
      </trkpt>
      <trkpt lat="44.11304" lon="3.25325">
        <ele>463</ele>
        <time>2017-03-03T04:16:05Z</time>
      </trkpt>
      <trkpt lat="44.113" lon="3.2533">
        <ele>461</ele>
        <time>2017-03-03T04:18:05Z</time>
      </trkpt>
      <trkpt lat="44.11299" lon="3.25333">
        <ele>460</ele>
        <time>2017-03-03T04:20:05Z</time>
      </trkpt>
      <trkpt lat="44.11298" lon="3.25336">
        <ele>459</ele>
        <time>2017-03-03T04:22:05Z</time>
      </trkpt>
      <trkpt lat="44.11298" lon="3.25341">
        <ele>459</ele>
        <time>2017-03-03T04:24:05Z</time>
      </trkpt>
      <trkpt lat="44.11299" lon="3.25348">
        <ele>460</ele>
        <time>2017-03-03T04:26:05Z</time>
      </trkpt>
      <trkpt lat="44.113" lon="3.25361">
        <ele>460</ele>
        <time>2017-03-03T04:28:05Z</time>
      </trkpt>
      <trkpt lat="44.11303" lon="3.25377">
        <ele>462</ele>
        <time>2017-03-03T04:30:05Z</time>
      </trkpt>
      <trkpt lat="44.11306" lon="3.25388">
        <ele>463</ele>
        <time>2017-03-03T04:32:05Z</time>
      </trkpt>
      <trkpt lat="44.11309" lon="3.25394">
        <ele>465</ele>
        <time>2017-03-03T04:34:05Z</time>
      </trkpt>
      <trkpt lat="44.11312" lon="3.25401">
        <ele>466</ele>
        <time>2017-03-03T04:36:05Z</time>
      </trkpt>
      <trkpt lat="44.11315" lon="3.25405">
        <ele>468</ele>
        <time>2017-03-03T04:38:05Z</time>
      </trkpt>
      <trkpt lat="44.11317" lon="3.25409">
        <ele>469</ele>
        <time>2017-03-03T04:40:05Z</time>
      </trkpt>
      <trkpt lat="44.11319" lon="3.25414">
        <ele>470</ele>
        <time>2017-03-03T04:42:05Z</time>
      </trkpt>
      <trkpt lat="44.11319" lon="3.25418">
        <ele>470</ele>
        <time>2017-03-03T04:44:05Z</time>
      </trkpt>
      <trkpt lat="44.11319" lon="3.25423">
        <ele>470</ele>
        <time>2017-03-03T04:46:05Z</time>
      </trkpt>
      <trkpt lat="44.11318" lon="3.25434">
        <ele>471</ele>
        <time>2017-03-03T04:48:05Z</time>
      </trkpt>
      <trkpt lat="44.11316" lon="3.2545">
        <ele>472</ele>
        <time>2017-03-03T04:50:05Z</time>
      </trkpt>
      <trkpt lat="44.11312" lon="3.25475">
        <ele>473</ele>
        <time>2017-03-03T04:52:05Z</time>
      </trkpt>
      <trkpt lat="44.11307" lon="3.25499">
        <ele>474</ele>
        <time>2017-03-03T04:54:05Z</time>
      </trkpt>
      <trkpt lat="44.11304" lon="3.25516">
        <ele>473</ele>
        <time>2017-03-03T04:56:05Z</time>
      </trkpt>
      <trkpt lat="44.11302" lon="3.25523">
        <ele>473</ele>
        <time>2017-03-03T04:58:05Z</time>
      </trkpt>
      <trkpt lat="44.11301" lon="3.25527">
        <ele>473</ele>
        <time>2017-03-03T05:00:05Z</time>
      </trkpt>
      <trkpt lat="44.11299" lon="3.25532">
        <ele>472</ele>
        <time>2017-03-03T05:02:05Z</time>
      </trkpt>
      <trkpt lat="44.11296" lon="3.25537">
        <ele>471</ele>
        <time>2017-03-03T05:04:05Z</time>
      </trkpt>
      <trkpt lat="44.1129" lon="3.25545">
        <ele>469</ele>
        <time>2017-03-03T05:06:05Z</time>
      </trkpt>
      <trkpt lat="44.11288" lon="3.2555">
        <ele>468</ele>
        <time>2017-03-03T05:08:05Z</time>
      </trkpt>
      <trkpt lat="44.11286" lon="3.25554">
        <ele>467</ele>
        <time>2017-03-03T05:10:05Z</time>
      </trkpt>
      <trkpt lat="44.11285" lon="3.25558">
        <ele>467</ele>
        <time>2017-03-03T05:12:05Z</time>
      </trkpt>
      <trkpt lat="44.11284" lon="3.25564">
        <ele>467</ele>
        <time>2017-03-03T05:14:05Z</time>
      </trkpt>
      <trkpt lat="44.11284" lon="3.25569">
        <ele>467</ele>
        <time>2017-03-03T05:16:05Z</time>
      </trkpt>
      <trkpt lat="44.11284" lon="3.25574">
        <ele>468</ele>
        <time>2017-03-03T05:18:05Z</time>
      </trkpt>
      <trkpt lat="44.11285" lon="3.25583">
        <ele>469</ele>
        <time>2017-03-03T05:20:05Z</time>
      </trkpt>
      <trkpt lat="44.11286" lon="3.25585">
        <ele>469</ele>
        <time>2017-03-03T05:22:05Z</time>
      </trkpt>
      <trkpt lat="44.11287" lon="3.2559">
        <ele>469</ele>
        <time>2017-03-03T05:24:05Z</time>
      </trkpt>
      <trkpt lat="44.11291" lon="3.256">
        <ele>471</ele>
        <time>2017-03-03T05:26:05Z</time>
      </trkpt>
      <trkpt lat="44.11296" lon="3.2561">
        <ele>472</ele>
        <time>2017-03-03T05:28:05Z</time>
      </trkpt>
      <trkpt lat="44.11302" lon="3.25623">
        <ele>474</ele>
        <time>2017-03-03T05:30:05Z</time>
      </trkpt>
      <trkpt lat="44.11307" lon="3.25632">
        <ele>476</ele>
        <time>2017-03-03T05:32:05Z</time>
      </trkpt>
      <trkpt lat="44.11312" lon="3.25642">
        <ele>477</ele>
        <time>2017-03-03T05:34:05Z</time>
      </trkpt>
      <trkpt lat="44.11315" lon="3.25648">
        <ele>478</ele>
        <time>2017-03-03T05:36:05Z</time>
      </trkpt>
      <trkpt lat="44.11317" lon="3.25653">
        <ele>479</ele>
        <time>2017-03-03T05:38:05Z</time>
      </trkpt>
      <trkpt lat="44.1132" lon="3.25666">
        <ele>480</ele>
        <time>2017-03-03T05:40:05Z</time>
      </trkpt>
      <trkpt lat="44.11321" lon="3.25676">
        <ele>480</ele>
        <time>2017-03-03T05:42:05Z</time>
      </trkpt>
      <trkpt lat="44.11321" lon="3.25688">
        <ele>480</ele>
        <time>2017-03-03T05:44:05Z</time>
      </trkpt>
      <trkpt lat="44.11321" lon="3.25694">
        <ele>481</ele>
        <time>2017-03-03T05:46:05Z</time>
      </trkpt>
      <trkpt lat="44.11321" lon="3.25701">
        <ele>481</ele>
        <time>2017-03-03T05:48:05Z</time>
      </trkpt>
      <trkpt lat="44.11321" lon="3.25708">
        <ele>481</ele>
        <time>2017-03-03T05:50:05Z</time>
      </trkpt>
      <trkpt lat="44.11322" lon="3.25713">
        <ele>481</ele>
        <time>2017-03-03T05:52:05Z</time>
      </trkpt>
      <trkpt lat="44.11325" lon="3.25718">
        <ele>483</ele>
        <time>2017-03-03T05:54:05Z</time>
      </trkpt>
      <trkpt lat="44.11326" lon="3.25723">
        <ele>483</ele>
        <time>2017-03-03T05:56:05Z</time>
      </trkpt>
      <trkpt lat="44.11326" lon="3.25728">
        <ele>483</ele>
        <time>2017-03-03T05:58:05Z</time>
      </trkpt>
      <trkpt lat="44.11327" lon="3.25735">
        <ele>484</ele>
        <time>2017-03-03T06:00:05Z</time>
      </trkpt>
      <trkpt lat="44.11326" lon="3.25747">
        <ele>484</ele>
        <time>2017-03-03T06:02:05Z</time>
      </trkpt>
      <trkpt lat="44.11326" lon="3.25756">
        <ele>484</ele>
        <time>2017-03-03T06:04:05Z</time>
      </trkpt>
      <trkpt lat="44.11324" lon="3.25766">
        <ele>483</ele>
        <time>2017-03-03T06:06:05Z</time>
      </trkpt>
      <trkpt lat="44.11322" lon="3.25775">
        <ele>482</ele>
        <time>2017-03-03T06:08:05Z</time>
      </trkpt>
      <trkpt lat="44.11322" lon="3.25781">
        <ele>482</ele>
        <time>2017-03-03T06:10:05Z</time>
      </trkpt>
      <trkpt lat="44.11322" lon="3.25784">
        <ele>482</ele>
        <time>2017-03-03T06:12:05Z</time>
      </trkpt>
      <trkpt lat="44.11323" lon="3.25793">
        <ele>483</ele>
        <time>2017-03-03T06:14:05Z</time>
      </trkpt>
      <trkpt lat="44.11327" lon="3.25808">
        <ele>485</ele>
        <time>2017-03-03T06:16:05Z</time>
      </trkpt>
      <trkpt lat="44.11329" lon="3.25813">
        <ele>485</ele>
        <time>2017-03-03T06:18:05Z</time>
      </trkpt>
      <trkpt lat="44.11335" lon="3.25823">
        <ele>488</ele>
        <time>2017-03-03T06:20:05Z</time>
      </trkpt>
      <trkpt lat="44.11343" lon="3.25833">
        <ele>491</ele>
        <time>2017-03-03T06:22:05Z</time>
      </trkpt>
      <trkpt lat="44.11351" lon="3.25841">
        <ele>494</ele>
        <time>2017-03-03T06:24:05Z</time>
      </trkpt>
      <trkpt lat="44.11364" lon="3.25853">
        <ele>500</ele>
        <time>2017-03-03T06:26:05Z</time>
      </trkpt>
      <trkpt lat="44.11374" lon="3.25862">
        <ele>504</ele>
        <time>2017-03-03T06:28:05Z</time>
      </trkpt>
      <trkpt lat="44.11378" lon="3.25869">
        <ele>506</ele>
        <time>2017-03-03T06:30:05Z</time>
      </trkpt>
      <trkpt lat="44.11379" lon="3.25873">
        <ele>507</ele>
        <time>2017-03-03T06:32:05Z</time>
      </trkpt>
      <trkpt lat="44.11379" lon="3.25877">
        <ele>507</ele>
        <time>2017-03-03T06:34:05Z</time>
      </trkpt>
      <trkpt lat="44.11379" lon="3.25881">
        <ele>507</ele>
        <time>2017-03-03T06:36:05Z</time>
      </trkpt>
      <trkpt lat="44.11377" lon="3.25886">
        <ele>507</ele>
        <time>2017-03-03T06:38:05Z</time>
      </trkpt>
      <trkpt lat="44.11373" lon="3.2589">
        <ele>505</ele>
        <time>2017-03-03T06:40:05Z</time>
      </trkpt>
      <trkpt lat="44.11367" lon="3.25896">
        <ele>503</ele>
        <time>2017-03-03T06:42:05Z</time>
      </trkpt>
      <trkpt lat="44.11358" lon="3.25906">
        <ele>501</ele>
        <time>2017-03-03T06:44:05Z</time>
      </trkpt>
      <trkpt lat="44.11349" lon="3.25915">
        <ele>498</ele>
        <time>2017-03-03T06:46:05Z</time>
      </trkpt>
      <trkpt lat="44.11341" lon="3.25926">
        <ele>498</ele>
        <time>2017-03-03T06:48:05Z</time>
      </trkpt>
      <trkpt lat="44.11332" lon="3.25934">
        <ele>498</ele>
        <time>2017-03-03T06:50:05Z</time>
      </trkpt>
      <trkpt lat="44.11329" lon="3.25937">
        <ele>498</ele>
        <time>2017-03-03T06:52:05Z</time>
      </trkpt>
      <trkpt lat="44.11321" lon="3.25943">
        <ele>499</ele>
        <time>2017-03-03T06:54:05Z</time>
      </trkpt>
      <trkpt lat="44.11312" lon="3.25949">
        <ele>500</ele>
        <time>2017-03-03T06:56:05Z</time>
      </trkpt>
      <trkpt lat="44.11305" lon="3.25953">
        <ele>500</ele>
        <time>2017-03-03T06:58:05Z</time>
      </trkpt>
      <trkpt lat="44.11298" lon="3.25955">
        <ele>500</ele>
        <time>2017-03-03T07:00:05Z</time>
      </trkpt>
      <trkpt lat="44.1129" lon="3.25958">
        <ele>499</ele>
        <time>2017-03-03T07:02:05Z</time>
      </trkpt>
      <trkpt lat="44.1128" lon="3.25962">
        <ele>499</ele>
        <time>2017-03-03T07:04:05Z</time>
      </trkpt>
      <trkpt lat="44.11267" lon="3.25971">
        <ele>500</ele>
        <time>2017-03-03T07:06:05Z</time>
      </trkpt>
      <trkpt lat="44.1125" lon="3.25982">
        <ele>502</ele>
        <time>2017-03-03T07:08:05Z</time>
      </trkpt>
      <trkpt lat="44.11236" lon="3.25993">
        <ele>503</ele>
        <time>2017-03-03T07:10:05Z</time>
      </trkpt>
      <trkpt lat="44.11224" lon="3.26003">
        <ele>505</ele>
        <time>2017-03-03T07:12:05Z</time>
      </trkpt>
      <trkpt lat="44.11213" lon="3.26012">
        <ele>507</ele>
        <time>2017-03-03T07:14:05Z</time>
      </trkpt>
      <trkpt lat="44.11206" lon="3.26015">
        <ele>508</ele>
        <time>2017-03-03T07:16:05Z</time>
      </trkpt>
      <trkpt lat="44.11196" lon="3.26018">
        <ele>507</ele>
        <time>2017-03-03T07:18:05Z</time>
      </trkpt>
      <trkpt lat="44.11179" lon="3.26023">
        <ele>507</ele>
        <time>2017-03-03T07:20:05Z</time>
      </trkpt>
      <trkpt lat="44.1116" lon="3.2603">
        <ele>507</ele>
        <time>2017-03-03T07:22:05Z</time>
      </trkpt>
      <trkpt lat="44.11141" lon="3.2604">
        <ele>506</ele>
        <time>2017-03-03T07:24:05Z</time>
      </trkpt>
      <trkpt lat="44.11124" lon="3.2605">
        <ele>506</ele>
        <time>2017-03-03T07:26:05Z</time>
      </trkpt>
      <trkpt lat="44.11108" lon="3.26059">
        <ele>506</ele>
        <time>2017-03-03T07:28:05Z</time>
      </trkpt>
      <trkpt lat="44.11093" lon="3.26066">
        <ele>505</ele>
        <time>2017-03-03T07:30:05Z</time>
      </trkpt>
      <trkpt lat="44.11084" lon="3.26074">
        <ele>507</ele>
        <time>2017-03-03T07:32:05Z</time>
      </trkpt>
      <trkpt lat="44.11079" lon="3.26078">
        <ele>507</ele>
        <time>2017-03-03T07:34:05Z</time>
      </trkpt>
      <trkpt lat="44.11072" lon="3.26088">
        <ele>508</ele>
        <time>2017-03-03T07:36:05Z</time>
      </trkpt>
      <trkpt lat="44.11064" lon="3.26099">
        <ele>508</ele>
        <time>2017-03-03T07:38:05Z</time>
      </trkpt>
      <trkpt lat="44.11057" lon="3.2611">
        <ele>508</ele>
        <time>2017-03-03T07:40:05Z</time>
      </trkpt>
      <trkpt lat="44.1105" lon="3.26125">
        <ele>509</ele>
        <time>2017-03-03T07:42:05Z</time>
      </trkpt>
      <trkpt lat="44.11047" lon="3.26134">
        <ele>510</ele>
        <time>2017-03-03T07:44:05Z</time>
      </trkpt>
      <trkpt lat="44.11044" lon="3.2615">
        <ele>513</ele>
        <time>2017-03-03T07:46:05Z</time>
      </trkpt>
      <trkpt lat="44.11038" lon="3.26176">
        <ele>517</ele>
        <time>2017-03-03T07:48:05Z</time>
      </trkpt>
      <trkpt lat="44.11035" lon="3.26196">
        <ele>520</ele>
        <time>2017-03-03T07:50:05Z</time>
      </trkpt>
      <trkpt lat="44.11032" lon="3.26209">
        <ele>522</ele>
        <time>2017-03-03T07:52:05Z</time>
      </trkpt>
      <trkpt lat="44.11028" lon="3.26224">
        <ele>524</ele>
        <time>2017-03-03T07:54:05Z</time>
      </trkpt>
      <trkpt lat="44.11023" lon="3.26245">
        <ele>527</ele>
        <time>2017-03-03T07:56:05Z</time>
      </trkpt>
      <trkpt lat="44.1102" lon="3.26252">
        <ele>528</ele>
        <time>2017-03-03T07:58:05Z</time>
      </trkpt>
      <trkpt lat="44.11016" lon="3.26256">
        <ele>527</ele>
        <time>2017-03-03T08:00:05Z</time>
      </trkpt>
      <trkpt lat="44.11011" lon="3.26263">
        <ele>527</ele>
        <time>2017-03-03T08:02:05Z</time>
      </trkpt>
      <trkpt lat="44.11003" lon="3.26273">
        <ele>528</ele>
        <time>2017-03-03T08:04:05Z</time>
      </trkpt>
      <trkpt lat="44.10994" lon="3.26283">
        <ele>528</ele>
        <time>2017-03-03T08:06:05Z</time>
      </trkpt>
      <trkpt lat="44.10982" lon="3.26298">
        <ele>530</ele>
        <time>2017-03-03T08:08:05Z</time>
      </trkpt>
      <trkpt lat="44.10968" lon="3.26315">
        <ele>531</ele>
        <time>2017-03-03T08:10:05Z</time>
      </trkpt>
      <trkpt lat="44.10955" lon="3.26331">
        <ele>532</ele>
        <time>2017-03-03T08:12:05Z</time>
      </trkpt>
      <trkpt lat="44.10944" lon="3.26342">
        <ele>533</ele>
        <time>2017-03-03T08:14:05Z</time>
      </trkpt>
      <trkpt lat="44.10932" lon="3.2635">
        <ele>532</ele>
        <time>2017-03-03T08:16:05Z</time>
      </trkpt>
      <trkpt lat="44.10919" lon="3.2636">
        <ele>532</ele>
        <time>2017-03-03T08:18:05Z</time>
      </trkpt>
      <trkpt lat="44.10907" lon="3.26371">
        <ele>533</ele>
        <time>2017-03-03T08:20:05Z</time>
      </trkpt>
      <trkpt lat="44.10894" lon="3.26384">
        <ele>535</ele>
        <time>2017-03-03T08:22:05Z</time>
      </trkpt>
      <trkpt lat="44.10883" lon="3.26398">
        <ele>537</ele>
        <time>2017-03-03T08:24:05Z</time>
      </trkpt>
      <trkpt lat="44.10874" lon="3.26411">
        <ele>540</ele>
        <time>2017-03-03T08:26:05Z</time>
      </trkpt>
      <trkpt lat="44.10863" lon="3.26426">
        <ele>543</ele>
        <time>2017-03-03T08:28:05Z</time>
      </trkpt>
      <trkpt lat="44.10854" lon="3.26437">
        <ele>545</ele>
        <time>2017-03-03T08:30:05Z</time>
      </trkpt>
      <trkpt lat="44.10847" lon="3.26444">
        <ele>545</ele>
        <time>2017-03-03T08:32:05Z</time>
      </trkpt>
      <trkpt lat="44.10841" lon="3.26448">
        <ele>546</ele>
        <time>2017-03-03T08:34:05Z</time>
      </trkpt>
      <trkpt lat="44.10832" lon="3.26449">
        <ele>544</ele>
        <time>2017-03-03T08:36:05Z</time>
      </trkpt>
      <trkpt lat="44.10819" lon="3.26449">
        <ele>543</ele>
        <time>2017-03-03T08:38:05Z</time>
      </trkpt>
      <trkpt lat="44.1081" lon="3.26447">
        <ele>542</ele>
        <time>2017-03-03T08:40:05Z</time>
      </trkpt>
      <trkpt lat="44.10796" lon="3.26448">
        <ele>541</ele>
        <time>2017-03-03T08:42:05Z</time>
      </trkpt>
      <trkpt lat="44.10786" lon="3.26448">
        <ele>540</ele>
        <time>2017-03-03T08:44:05Z</time>
      </trkpt>
      <trkpt lat="44.1077" lon="3.26447">
        <ele>538</ele>
        <time>2017-03-03T08:46:05Z</time>
      </trkpt>
      <trkpt lat="44.10756" lon="3.26447">
        <ele>537</ele>
        <time>2017-03-03T08:48:05Z</time>
      </trkpt>
      <trkpt lat="44.1075" lon="3.26447">
        <ele>536</ele>
        <time>2017-03-03T08:50:05Z</time>
      </trkpt>
      <trkpt lat="44.10744" lon="3.2645">
        <ele>535</ele>
        <time>2017-03-03T08:52:05Z</time>
      </trkpt>
      <trkpt lat="44.10737" lon="3.26455">
        <ele>534</ele>
        <time>2017-03-03T08:54:05Z</time>
      </trkpt>
      <trkpt lat="44.1073" lon="3.26461">
        <ele>533</ele>
        <time>2017-03-03T08:56:05Z</time>
      </trkpt>
      <trkpt lat="44.10724" lon="3.26467">
        <ele>534</ele>
        <time>2017-03-03T08:58:05Z</time>
      </trkpt>
      <trkpt lat="44.10723" lon="3.26469">
        <ele>534</ele>
        <time>2017-03-03T09:00:05Z</time>
      </trkpt>
      <trkpt lat="44.10721" lon="3.26471">
        <ele>534</ele>
        <time>2017-03-03T09:02:05Z</time>
      </trkpt>
      <trkpt lat="44.10721" lon="3.26471">
        <ele>534</ele>
        <time>2017-03-03T09:04:05Z</time>
      </trkpt>
      <trkpt lat="44.10728" lon="3.26474">
        <ele>538</ele>
        <time>2017-03-03T09:06:05Z</time>
      </trkpt>
      <trkpt lat="44.10734" lon="3.26477">
        <ele>542</ele>
        <time>2017-03-03T09:08:05Z</time>
      </trkpt>
      <trkpt lat="44.10738" lon="3.26478">
        <ele>544</ele>
        <time>2017-03-03T09:10:05Z</time>
      </trkpt>
      <trkpt lat="44.10743" lon="3.26479">
        <ele>546</ele>
        <time>2017-03-03T09:12:05Z</time>
      </trkpt>
      <trkpt lat="44.10749" lon="3.2648">
        <ele>549</ele>
        <time>2017-03-03T09:14:05Z</time>
      </trkpt>
      <trkpt lat="44.10757" lon="3.2648">
        <ele>550</ele>
        <time>2017-03-03T09:16:05Z</time>
      </trkpt>
      <trkpt lat="44.1076" lon="3.26482">
        <ele>551</ele>
        <time>2017-03-03T09:18:05Z</time>
      </trkpt>
      <trkpt lat="44.10768" lon="3.26486">
        <ele>553</ele>
        <time>2017-03-03T09:20:05Z</time>
      </trkpt>
      <trkpt lat="44.10771" lon="3.26488">
        <ele>553</ele>
        <time>2017-03-03T09:22:05Z</time>
      </trkpt>
      <trkpt lat="44.10773" lon="3.26488">
        <ele>554</ele>
        <time>2017-03-03T09:24:05Z</time>
      </trkpt>
      <trkpt lat="44.10776" lon="3.26487">
        <ele>553</ele>
        <time>2017-03-03T09:26:05Z</time>
      </trkpt>
      <trkpt lat="44.10779" lon="3.26484">
        <ele>552</ele>
        <time>2017-03-03T09:28:05Z</time>
      </trkpt>
      <trkpt lat="44.1078" lon="3.26483">
        <ele>552</ele>
        <time>2017-03-03T09:30:05Z</time>
      </trkpt>
      <trkpt lat="44.10782" lon="3.26481">
        <ele>552</ele>
        <time>2017-03-03T09:32:05Z</time>
      </trkpt>
      <trkpt lat="44.10784" lon="3.26481">
        <ele>552</ele>
        <time>2017-03-03T09:34:05Z</time>
      </trkpt>
      <trkpt lat="44.10787" lon="3.26482">
        <ele>552</ele>
        <time>2017-03-03T09:36:05Z</time>
      </trkpt>
      <trkpt lat="44.10793" lon="3.26483">
        <ele>553</ele>
        <time>2017-03-03T09:38:05Z</time>
      </trkpt>
      <trkpt lat="44.10802" lon="3.26488">
        <ele>555</ele>
        <time>2017-03-03T09:40:05Z</time>
      </trkpt>
      <trkpt lat="44.10809" lon="3.26489">
        <ele>556</ele>
        <time>2017-03-03T09:42:05Z</time>
      </trkpt>
      <trkpt lat="44.10815" lon="3.2649">
        <ele>557</ele>
        <time>2017-03-03T09:44:05Z</time>
      </trkpt>
      <trkpt lat="44.10821" lon="3.26492">
        <ele>558</ele>
        <time>2017-03-03T09:46:05Z</time>
      </trkpt>
      <trkpt lat="44.10825" lon="3.26495">
        <ele>559</ele>
        <time>2017-03-03T09:48:05Z</time>
      </trkpt>
      <trkpt lat="44.10828" lon="3.26499">
        <ele>560</ele>
        <time>2017-03-03T09:50:05Z</time>
      </trkpt>
      <trkpt lat="44.10832" lon="3.26505">
        <ele>562</ele>
        <time>2017-03-03T09:52:05Z</time>
      </trkpt>
      <trkpt lat="44.10834" lon="3.26508">
        <ele>563</ele>
        <time>2017-03-03T09:54:05Z</time>
      </trkpt>
      <trkpt lat="44.10836" lon="3.2651">
        <ele>564</ele>
        <time>2017-03-03T09:56:05Z</time>
      </trkpt>
      <trkpt lat="44.10837" lon="3.26512">
        <ele>565</ele>
        <time>2017-03-03T09:58:05Z</time>
      </trkpt>
      <trkpt lat="44.10838" lon="3.26513">
        <ele>565</ele>
        <time>2017-03-03T10:00:05Z</time>
      </trkpt>
      <trkpt lat="44.10839" lon="3.26514">
        <ele>566</ele>
        <time>2017-03-03T10:02:05Z</time>
      </trkpt>
      <trkpt lat="44.10839" lon="3.26514">
        <ele>566</ele>
        <time>2017-03-03T10:04:05Z</time>
      </trkpt>
      <trkpt lat="44.10836" lon="3.26522">
        <ele>568</ele>
        <time>2017-03-03T10:06:05Z</time>
      </trkpt>
      <trkpt lat="44.10835" lon="3.26528">
        <ele>569</ele>
        <time>2017-03-03T10:08:05Z</time>
      </trkpt>
      <trkpt lat="44.10833" lon="3.26532">
        <ele>570</ele>
        <time>2017-03-03T10:10:05Z</time>
      </trkpt>
      <trkpt lat="44.1083" lon="3.26537">
        <ele>571</ele>
        <time>2017-03-03T10:12:05Z</time>
      </trkpt>
      <trkpt lat="44.10827" lon="3.26542">
        <ele>572</ele>
        <time>2017-03-03T10:14:05Z</time>
      </trkpt>
      <trkpt lat="44.10821" lon="3.26546">
        <ele>573</ele>
        <time>2017-03-03T10:16:05Z</time>
      </trkpt>
      <trkpt lat="44.10808" lon="3.26556">
        <ele>575</ele>
        <time>2017-03-03T10:18:05Z</time>
      </trkpt>
      <trkpt lat="44.108" lon="3.26562">
        <ele>576</ele>
        <time>2017-03-03T10:20:05Z</time>
      </trkpt>
      <trkpt lat="44.10796" lon="3.26566">
        <ele>576</ele>
        <time>2017-03-03T10:22:05Z</time>
      </trkpt>
      <trkpt lat="44.10794" lon="3.26575">
        <ele>579</ele>
        <time>2017-03-03T10:24:05Z</time>
      </trkpt>
      <trkpt lat="44.1079" lon="3.26588">
        <ele>580</ele>
        <time>2017-03-03T10:26:05Z</time>
      </trkpt>
      <trkpt lat="44.10786" lon="3.26597">
        <ele>580</ele>
        <time>2017-03-03T10:28:05Z</time>
      </trkpt>
      <trkpt lat="44.10783" lon="3.26601">
        <ele>579</ele>
        <time>2017-03-03T10:30:05Z</time>
      </trkpt>
      <trkpt lat="44.10783" lon="3.26609">
        <ele>579</ele>
        <time>2017-03-03T10:32:05Z</time>
      </trkpt>
      <trkpt lat="44.10783" lon="3.26613">
        <ele>579</ele>
        <time>2017-03-03T10:34:05Z</time>
      </trkpt>
      <trkpt lat="44.10787" lon="3.26619">
        <ele>580</ele>
        <time>2017-03-03T10:36:05Z</time>
      </trkpt>
      <trkpt lat="44.1079" lon="3.26623">
        <ele>580</ele>
        <time>2017-03-03T10:38:05Z</time>
      </trkpt>
      <trkpt lat="44.10794" lon="3.26626">
        <ele>581</ele>
        <time>2017-03-03T10:40:05Z</time>
      </trkpt>
      <trkpt lat="44.10795" lon="3.26632">
        <ele>581</ele>
        <time>2017-03-03T10:42:05Z</time>
      </trkpt>
      <trkpt lat="44.10794" lon="3.26638">
        <ele>581</ele>
        <time>2017-03-03T10:44:05Z</time>
      </trkpt>
      <trkpt lat="44.10792" lon="3.26644">
        <ele>581</ele>
        <time>2017-03-03T10:46:05Z</time>
      </trkpt>
      <trkpt lat="44.10791" lon="3.26652">
        <ele>580</ele>
        <time>2017-03-03T10:48:05Z</time>
      </trkpt>
      <trkpt lat="44.10796" lon="3.26657">
        <ele>582</ele>
        <time>2017-03-03T10:50:05Z</time>
      </trkpt>
      <trkpt lat="44.10797" lon="3.2666">
        <ele>582</ele>
        <time>2017-03-03T10:52:05Z</time>
      </trkpt>
      <trkpt lat="44.10801" lon="3.26665">
        <ele>583</ele>
        <time>2017-03-03T10:54:05Z</time>
      </trkpt>
      <trkpt lat="44.10804" lon="3.2667">
        <ele>584</ele>
        <time>2017-03-03T10:56:05Z</time>
      </trkpt>
      <trkpt lat="44.10808" lon="3.26673">
        <ele>585</ele>
        <time>2017-03-03T10:58:05Z</time>
      </trkpt>
      <trkpt lat="44.10819" lon="3.26675">
        <ele>588</ele>
        <time>2017-03-03T11:00:05Z</time>
      </trkpt>
      <trkpt lat="44.10829" lon="3.2668">
        <ele>591</ele>
        <time>2017-03-03T11:02:05Z</time>
      </trkpt>
      <trkpt lat="44.1084" lon="3.26686">
        <ele>594</ele>
        <time>2017-03-03T11:04:05Z</time>
      </trkpt>
      <trkpt lat="44.10847" lon="3.26693">
        <ele>596</ele>
        <time>2017-03-03T11:06:05Z</time>
      </trkpt>
      <trkpt lat="44.10852" lon="3.26701">
        <ele>598</ele>
        <time>2017-03-03T11:08:05Z</time>
      </trkpt>
      <trkpt lat="44.10854" lon="3.26711">
        <ele>599</ele>
        <time>2017-03-03T11:10:05Z</time>
      </trkpt>
      <trkpt lat="44.10856" lon="3.26719">
        <ele>600</ele>
        <time>2017-03-03T11:12:05Z</time>
      </trkpt>
      <trkpt lat="44.10858" lon="3.26724">
        <ele>601</ele>
        <time>2017-03-03T11:14:05Z</time>
      </trkpt>
      <trkpt lat="44.1086" lon="3.26736">
        <ele>602</ele>
        <time>2017-03-03T11:16:05Z</time>
      </trkpt>
      <trkpt lat="44.1086" lon="3.26745">
        <ele>602</ele>
        <time>2017-03-03T11:18:05Z</time>
      </trkpt>
      <trkpt lat="44.1086" lon="3.26753">
        <ele>602</ele>
        <time>2017-03-03T11:20:05Z</time>
      </trkpt>
      <trkpt lat="44.10859" lon="3.2676">
        <ele>601</ele>
        <time>2017-03-03T11:22:05Z</time>
      </trkpt>
      <trkpt lat="44.1086" lon="3.26764">
        <ele>601</ele>
        <time>2017-03-03T11:24:05Z</time>
      </trkpt>
      <trkpt lat="44.10862" lon="3.26765">
        <ele>601</ele>
        <time>2017-03-03T11:26:05Z</time>
      </trkpt>
      <trkpt lat="44.10863" lon="3.26764">
        <ele>602</ele>
        <time>2017-03-03T11:28:05Z</time>
      </trkpt>
      <trkpt lat="44.10864" lon="3.26762">
        <ele>602</ele>
        <time>2017-03-03T11:30:05Z</time>
      </trkpt>
      <trkpt lat="44.10866" lon="3.26759">
        <ele>603</ele>
        <time>2017-03-03T11:32:05Z</time>
      </trkpt>
      <trkpt lat="44.10871" lon="3.26757">
        <ele>604</ele>
        <time>2017-03-03T11:34:05Z</time>
      </trkpt>
      <trkpt lat="44.10876" lon="3.26758">
        <ele>606</ele>
        <time>2017-03-03T11:36:05Z</time>
      </trkpt>
      <trkpt lat="44.10885" lon="3.26762">
        <ele>607</ele>
        <time>2017-03-03T11:38:05Z</time>
      </trkpt>
      <trkpt lat="44.10892" lon="3.26766">
        <ele>609</ele>
        <time>2017-03-03T11:40:05Z</time>
      </trkpt>
      <trkpt lat="44.10895" lon="3.26769">
        <ele>610</ele>
        <time>2017-03-03T11:42:05Z</time>
      </trkpt>
      <trkpt lat="44.10898" lon="3.26774">
        <ele>610</ele>
        <time>2017-03-03T11:44:05Z</time>
      </trkpt>
      <trkpt lat="44.10901" lon="3.26783">
        <ele>610</ele>
        <time>2017-03-03T11:46:05Z</time>
      </trkpt>
      <trkpt lat="44.10903" lon="3.26789">
        <ele>611</ele>
        <time>2017-03-03T11:48:05Z</time>
      </trkpt>
      <trkpt lat="44.10906" lon="3.26799">
        <ele>611</ele>
        <time>2017-03-03T11:50:05Z</time>
      </trkpt>
      <trkpt lat="44.10908" lon="3.26805">
        <ele>611</ele>
        <time>2017-03-03T11:52:05Z</time>
      </trkpt>
      <trkpt lat="44.10912" lon="3.26809">
        <ele>612</ele>
        <time>2017-03-03T11:54:05Z</time>
      </trkpt>
      <trkpt lat="44.10915" lon="3.26815">
        <ele>613</ele>
        <time>2017-03-03T11:56:05Z</time>
      </trkpt>
      <trkpt lat="44.10921" lon="3.26818">
        <ele>615</ele>
        <time>2017-03-03T11:58:05Z</time>
      </trkpt>
      <trkpt lat="44.10925" lon="3.26824">
        <ele>617</ele>
        <time>2017-03-03T12:00:05Z</time>
      </trkpt>
      <trkpt lat="44.10927" lon="3.26829">
        <ele>618</ele>
        <time>2017-03-03T12:02:05Z</time>
      </trkpt>
      <trkpt lat="44.10928" lon="3.26837">
        <ele>618</ele>
        <time>2017-03-03T12:04:05Z</time>
      </trkpt>
      <trkpt lat="44.10929" lon="3.26845">
        <ele>618</ele>
        <time>2017-03-03T12:06:05Z</time>
      </trkpt>
      <trkpt lat="44.10932" lon="3.26855">
        <ele>618</ele>
        <time>2017-03-03T12:08:05Z</time>
      </trkpt>
      <trkpt lat="44.10936" lon="3.26866">
        <ele>619</ele>
        <time>2017-03-03T12:10:05Z</time>
      </trkpt>
      <trkpt lat="44.10941" lon="3.26874">
        <ele>620</ele>
        <time>2017-03-03T12:12:05Z</time>
      </trkpt>
      <trkpt lat="44.10948" lon="3.26886">
        <ele>622</ele>
        <time>2017-03-03T12:14:05Z</time>
      </trkpt>
      <trkpt lat="44.10953" lon="3.26892">
        <ele>624</ele>
        <time>2017-03-03T12:16:05Z</time>
      </trkpt>
      <trkpt lat="44.10956" lon="3.26899">
        <ele>624</ele>
        <time>2017-03-03T12:18:05Z</time>
      </trkpt>
      <trkpt lat="44.10957" lon="3.26909">
        <ele>623</ele>
        <time>2017-03-03T12:20:05Z</time>
      </trkpt>
      <trkpt lat="44.10954" lon="3.26916">
        <ele>621</ele>
        <time>2017-03-03T12:22:05Z</time>
      </trkpt>
      <trkpt lat="44.1095" lon="3.26923">
        <ele>620</ele>
        <time>2017-03-03T12:24:05Z</time>
      </trkpt>
      <trkpt lat="44.10946" lon="3.26927">
        <ele>618</ele>
        <time>2017-03-03T12:26:05Z</time>
      </trkpt>
      <trkpt lat="44.10944" lon="3.26928">
        <ele>618</ele>
        <time>2017-03-03T12:28:05Z</time>
      </trkpt>
      <trkpt lat="44.10941" lon="3.26929">
        <ele>616</ele>
        <time>2017-03-03T12:30:05Z</time>
      </trkpt>
      <trkpt lat="44.10934" lon="3.26931">
        <ele>614</ele>
        <time>2017-03-03T12:32:05Z</time>
      </trkpt>
      <trkpt lat="44.10928" lon="3.26934">
        <ele>611</ele>
        <time>2017-03-03T12:34:05Z</time>
      </trkpt>
      <trkpt lat="44.10925" lon="3.26938">
        <ele>610</ele>
        <time>2017-03-03T12:36:05Z</time>
      </trkpt>
      <trkpt lat="44.10925" lon="3.26939">
        <ele>610</ele>
        <time>2017-03-03T12:38:05Z</time>
      </trkpt>
      <trkpt lat="44.10928" lon="3.26942">
        <ele>611</ele>
        <time>2017-03-03T12:40:05Z</time>
      </trkpt>
      <trkpt lat="44.10931" lon="3.26946">
        <ele>613</ele>
        <time>2017-03-03T12:42:05Z</time>
      </trkpt>
      <trkpt lat="44.10934" lon="3.26952">
        <ele>614</ele>
        <time>2017-03-03T12:44:05Z</time>
      </trkpt>
      <trkpt lat="44.10935" lon="3.26954">
        <ele>615</ele>
        <time>2017-03-03T12:46:05Z</time>
      </trkpt>
      <trkpt lat="44.10937" lon="3.26964">
        <ele>616</ele>
        <time>2017-03-03T12:48:05Z</time>
      </trkpt>
      <trkpt lat="44.10937" lon="3.26969">
        <ele>616</ele>
        <time>2017-03-03T12:50:05Z</time>
      </trkpt>
      <trkpt lat="44.10936" lon="3.26979">
        <ele>616</ele>
        <time>2017-03-03T12:52:05Z</time>
      </trkpt>
      <trkpt lat="44.10936" lon="3.26984">
        <ele>616</ele>
        <time>2017-03-03T12:54:05Z</time>
      </trkpt>
      <trkpt lat="44.10937" lon="3.26988">
        <ele>617</ele>
        <time>2017-03-03T12:56:05Z</time>
      </trkpt>
      <trkpt lat="44.1094" lon="3.26996">
        <ele>619</ele>
        <time>2017-03-03T12:58:05Z</time>
      </trkpt>
      <trkpt lat="44.10944" lon="3.27007">
        <ele>620</ele>
        <time>2017-03-03T13:00:05Z</time>
      </trkpt>
      <trkpt lat="44.10945" lon="3.27009">
        <ele>620</ele>
        <time>2017-03-03T13:02:05Z</time>
      </trkpt>
      <trkpt lat="44.10947" lon="3.27015">
        <ele>620</ele>
        <time>2017-03-03T13:04:05Z</time>
      </trkpt>
      <trkpt lat="44.10947" lon="3.27018">
        <ele>620</ele>
        <time>2017-03-03T13:06:05Z</time>
      </trkpt>
      <trkpt lat="44.10947" lon="3.27023">
        <ele>620</ele>
        <time>2017-03-03T13:08:05Z</time>
      </trkpt>
      <trkpt lat="44.10945" lon="3.27032">
        <ele>617</ele>
        <time>2017-03-03T13:10:05Z</time>
      </trkpt>
      <trkpt lat="44.10944" lon="3.27042">
        <ele>616</ele>
        <time>2017-03-03T13:12:05Z</time>
      </trkpt>
      <trkpt lat="44.10944" lon="3.27056">
        <ele>614</ele>
        <time>2017-03-03T13:14:05Z</time>
      </trkpt>
      <trkpt lat="44.10943" lon="3.27065">
        <ele>612</ele>
        <time>2017-03-03T13:16:05Z</time>
      </trkpt>
      <trkpt lat="44.10943" lon="3.27071">
        <ele>612</ele>
        <time>2017-03-03T13:18:05Z</time>
      </trkpt>
      <trkpt lat="44.10943" lon="3.27076">
        <ele>611</ele>
        <time>2017-03-03T13:20:05Z</time>
      </trkpt>
      <trkpt lat="44.10944" lon="3.27086">
        <ele>610</ele>
        <time>2017-03-03T13:22:05Z</time>
      </trkpt>
      <trkpt lat="44.10945" lon="3.27095">
        <ele>610</ele>
        <time>2017-03-03T13:24:05Z</time>
      </trkpt>
      <trkpt lat="44.10944" lon="3.27105">
        <ele>608</ele>
        <time>2017-03-03T13:26:05Z</time>
      </trkpt>
      <trkpt lat="44.10943" lon="3.27121">
        <ele>605</ele>
        <time>2017-03-03T13:28:05Z</time>
      </trkpt>
      <trkpt lat="44.10942" lon="3.27134">
        <ele>602</ele>
        <time>2017-03-03T13:30:05Z</time>
      </trkpt>
      <trkpt lat="44.10941" lon="3.27147">
        <ele>600</ele>
        <time>2017-03-03T13:32:05Z</time>
      </trkpt>
      <trkpt lat="44.10941" lon="3.27154">
        <ele>599</ele>
        <time>2017-03-03T13:34:05Z</time>
      </trkpt>
      <trkpt lat="44.10941" lon="3.27163">
        <ele>598</ele>
        <time>2017-03-03T13:36:05Z</time>
      </trkpt>
      <trkpt lat="44.10942" lon="3.27171">
        <ele>597</ele>
        <time>2017-03-03T13:38:05Z</time>
      </trkpt>
      <trkpt lat="44.10944" lon="3.27177">
        <ele>597</ele>
        <time>2017-03-03T13:40:05Z</time>
      </trkpt>
      <trkpt lat="44.10946" lon="3.27181">
        <ele>598</ele>
        <time>2017-03-03T13:42:05Z</time>
      </trkpt>
      <trkpt lat="44.10953" lon="3.27186">
        <ele>601</ele>
        <time>2017-03-03T13:44:05Z</time>
      </trkpt>
      <trkpt lat="44.10966" lon="3.27194">
        <ele>608</ele>
        <time>2017-03-03T13:46:05Z</time>
      </trkpt>
      <trkpt lat="44.10974" lon="3.27199">
        <ele>612</ele>
        <time>2017-03-03T13:48:05Z</time>
      </trkpt>
      <trkpt lat="44.10977" lon="3.27202">
        <ele>614</ele>
        <time>2017-03-03T13:50:05Z</time>
      </trkpt>
      <trkpt lat="44.10979" lon="3.27205">
        <ele>615</ele>
        <time>2017-03-03T13:52:05Z</time>
      </trkpt>
      <trkpt lat="44.10979" lon="3.27209">
        <ele>614</ele>
        <time>2017-03-03T13:54:05Z</time>
      </trkpt>
      <trkpt lat="44.10979" lon="3.27212">
        <ele>614</ele>
        <time>2017-03-03T13:56:05Z</time>
      </trkpt>
      <trkpt lat="44.10978" lon="3.27216">
        <ele>613</ele>
        <time>2017-03-03T13:58:05Z</time>
      </trkpt>
      <trkpt lat="44.10975" lon="3.27221">
        <ele>611</ele>
        <time>2017-03-03T14:00:05Z</time>
      </trkpt>
      <trkpt lat="44.10974" lon="3.27226">
        <ele>609</ele>
        <time>2017-03-03T14:02:05Z</time>
      </trkpt>
      <trkpt lat="44.10974" lon="3.27233">
        <ele>609</ele>
        <time>2017-03-03T14:04:05Z</time>
      </trkpt>
      <trkpt lat="44.10973" lon="3.2724">
        <ele>607</ele>
        <time>2017-03-03T14:06:05Z</time>
      </trkpt>
      <trkpt lat="44.10973" lon="3.27247">
        <ele>607</ele>
        <time>2017-03-03T14:08:05Z</time>
      </trkpt>
      <trkpt lat="44.10972" lon="3.27251">
        <ele>605</ele>
        <time>2017-03-03T14:10:05Z</time>
      </trkpt>
      <trkpt lat="44.10971" lon="3.27256">
        <ele>605</ele>
        <time>2017-03-03T14:12:05Z</time>
      </trkpt>
      <trkpt lat="44.1097" lon="3.27261">
        <ele>604</ele>
        <time>2017-03-03T14:14:05Z</time>
      </trkpt>
      <trkpt lat="44.1097" lon="3.27266">
        <ele>604</ele>
        <time>2017-03-03T14:16:05Z</time>
      </trkpt>
      <trkpt lat="44.1097" lon="3.2727">
        <ele>604</ele>
        <time>2017-03-03T14:18:05Z</time>
      </trkpt>
      <trkpt lat="44.1097" lon="3.27276">
        <ele>604</ele>
        <time>2017-03-03T14:20:05Z</time>
      </trkpt>
      <trkpt lat="44.1097" lon="3.2728">
        <ele>603</ele>
        <time>2017-03-03T14:22:05Z</time>
      </trkpt>
      <trkpt lat="44.10969" lon="3.27288">
        <ele>603</ele>
        <time>2017-03-03T14:24:05Z</time>
      </trkpt>
      <trkpt lat="44.10968" lon="3.27292">
        <ele>602</ele>
        <time>2017-03-03T14:26:05Z</time>
      </trkpt>
      <trkpt lat="44.10968" lon="3.27295">
        <ele>602</ele>
        <time>2017-03-03T14:28:05Z</time>
      </trkpt>
      <trkpt lat="44.10968" lon="3.27298">
        <ele>602</ele>
        <time>2017-03-03T14:30:05Z</time>
      </trkpt>
      <trkpt lat="44.10968" lon="3.273">
        <ele>602</ele>
        <time>2017-03-03T14:32:05Z</time>
      </trkpt>
      <trkpt lat="44.1097" lon="3.27302">
        <ele>603</ele>
        <time>2017-03-03T14:34:05Z</time>
      </trkpt>
      <trkpt lat="44.10972" lon="3.27306">
        <ele>604</ele>
        <time>2017-03-03T14:36:05Z</time>
      </trkpt>
      <trkpt lat="44.10974" lon="3.27312">
        <ele>605</ele>
        <time>2017-03-03T14:38:05Z</time>
      </trkpt>
      <trkpt lat="44.10974" lon="3.27318">
        <ele>605</ele>
        <time>2017-03-03T14:40:05Z</time>
      </trkpt>
      <trkpt lat="44.10974" lon="3.27322">
        <ele>605</ele>
        <time>2017-03-03T14:42:05Z</time>
      </trkpt>
      <trkpt lat="44.10976" lon="3.27324">
        <ele>606</ele>
        <time>2017-03-03T14:44:05Z</time>
      </trkpt>
      <trkpt lat="44.1098" lon="3.27331">
        <ele>608</ele>
        <time>2017-03-03T14:46:05Z</time>
      </trkpt>
      <trkpt lat="44.10983" lon="3.27336">
        <ele>610</ele>
        <time>2017-03-03T14:48:05Z</time>
      </trkpt>
      <trkpt lat="44.10985" lon="3.27342">
        <ele>611</ele>
        <time>2017-03-03T14:50:05Z</time>
      </trkpt>
      <trkpt lat="44.10987" lon="3.27349">
        <ele>613</ele>
        <time>2017-03-03T14:52:05Z</time>
      </trkpt>
      <trkpt lat="44.10987" lon="3.27353">
        <ele>613</ele>
        <time>2017-03-03T14:54:05Z</time>
      </trkpt>
      <trkpt lat="44.10987" lon="3.27358">
        <ele>613</ele>
        <time>2017-03-03T14:56:05Z</time>
      </trkpt>
      <trkpt lat="44.10986" lon="3.27365">
        <ele>613</ele>
        <time>2017-03-03T14:58:05Z</time>
      </trkpt>
      <trkpt lat="44.10984" lon="3.27374">
        <ele>613</ele>
        <time>2017-03-03T15:00:05Z</time>
      </trkpt>
      <trkpt lat="44.10984" lon="3.27381">
        <ele>614</ele>
        <time>2017-03-03T15:02:05Z</time>
      </trkpt>
      <trkpt lat="44.10983" lon="3.27391">
        <ele>614</ele>
        <time>2017-03-03T15:04:05Z</time>
      </trkpt>
      <trkpt lat="44.10982" lon="3.274">
        <ele>614</ele>
        <time>2017-03-03T15:06:05Z</time>
      </trkpt>
      <trkpt lat="44.10981" lon="3.27406">
        <ele>615</ele>
        <time>2017-03-03T15:08:05Z</time>
      </trkpt>
      <trkpt lat="44.10981" lon="3.27412">
        <ele>615</ele>
        <time>2017-03-03T15:10:05Z</time>
      </trkpt>
      <trkpt lat="44.10982" lon="3.27415">
        <ele>616</ele>
        <time>2017-03-03T15:12:05Z</time>
      </trkpt>
      <trkpt lat="44.10982" lon="3.27417">
        <ele>616</ele>
        <time>2017-03-03T15:14:05Z</time>
      </trkpt>
      <trkpt lat="44.10983" lon="3.27419">
        <ele>616</ele>
        <time>2017-03-03T15:16:05Z</time>
      </trkpt>
      <trkpt lat="44.10987" lon="3.27426">
        <ele>618</ele>
        <time>2017-03-03T15:18:05Z</time>
      </trkpt>
      <trkpt lat="44.10991" lon="3.27432">
        <ele>619</ele>
        <time>2017-03-03T15:20:05Z</time>
      </trkpt>
      <trkpt lat="44.10993" lon="3.27436">
        <ele>619</ele>
        <time>2017-03-03T15:22:05Z</time>
      </trkpt>
      <trkpt lat="44.10995" lon="3.27436">
        <ele>620</ele>
        <time>2017-03-03T15:24:05Z</time>
      </trkpt>
      <trkpt lat="44.10997" lon="3.27437">
        <ele>620</ele>
        <time>2017-03-03T15:26:05Z</time>
      </trkpt>
      <trkpt lat="44.10998" lon="3.27439">
        <ele>620</ele>
        <time>2017-03-03T15:28:05Z</time>
      </trkpt>
      <trkpt lat="44.10999" lon="3.27442">
        <ele>620</ele>
        <time>2017-03-03T15:30:05Z</time>
      </trkpt>
      <trkpt lat="44.11" lon="3.27444">
        <ele>620</ele>
        <time>2017-03-03T15:32:05Z</time>
      </trkpt>
      <trkpt lat="44.11003" lon="3.27444">
        <ele>622</ele>
        <time>2017-03-03T15:34:05Z</time>
      </trkpt>
      <trkpt lat="44.11006" lon="3.27444">
        <ele>623</ele>
        <time>2017-03-03T15:36:05Z</time>
      </trkpt>
      <trkpt lat="44.11009" lon="3.27445">
        <ele>624</ele>
        <time>2017-03-03T15:38:05Z</time>
      </trkpt>
      <trkpt lat="44.11012" lon="3.27446">
        <ele>626</ele>
        <time>2017-03-03T15:40:05Z</time>
      </trkpt>
      <trkpt lat="44.11014" lon="3.27448">
        <ele>627</ele>
        <time>2017-03-03T15:42:05Z</time>
      </trkpt>
      <trkpt lat="44.11015" lon="3.27449">
        <ele>627</ele>
        <time>2017-03-03T15:44:05Z</time>
      </trkpt>
      <trkpt lat="44.11018" lon="3.27452">
        <ele>628</ele>
        <time>2017-03-03T15:46:05Z</time>
      </trkpt>
      <trkpt lat="44.11021" lon="3.27455">
        <ele>629</ele>
        <time>2017-03-03T15:48:05Z</time>
      </trkpt>
      <trkpt lat="44.11026" lon="3.27458">
        <ele>631</ele>
        <time>2017-03-03T15:50:05Z</time>
      </trkpt>
      <trkpt lat="44.11032" lon="3.27461">
        <ele>634</ele>
        <time>2017-03-03T15:52:05Z</time>
      </trkpt>
      <trkpt lat="44.11039" lon="3.27463">
        <ele>637</ele>
        <time>2017-03-03T15:54:05Z</time>
      </trkpt>
      <trkpt lat="44.11045" lon="3.27467">
        <ele>639</ele>
        <time>2017-03-03T15:56:05Z</time>
      </trkpt>
      <trkpt lat="44.11049" lon="3.2747">
        <ele>640</ele>
        <time>2017-03-03T15:58:05Z</time>
      </trkpt>
      <trkpt lat="44.1105" lon="3.27474">
        <ele>640</ele>
        <time>2017-03-03T16:00:05Z</time>
      </trkpt>
      <trkpt lat="44.11051" lon="3.27479">
        <ele>640</ele>
        <time>2017-03-03T16:02:05Z</time>
      </trkpt>
      <trkpt lat="44.1105" lon="3.27486">
        <ele>639</ele>
        <time>2017-03-03T16:04:05Z</time>
      </trkpt>
      <trkpt lat="44.1105" lon="3.27491">
        <ele>639</ele>
        <time>2017-03-03T16:06:05Z</time>
      </trkpt>
      <trkpt lat="44.11049" lon="3.27495">
        <ele>638</ele>
        <time>2017-03-03T16:08:05Z</time>
      </trkpt>
      <trkpt lat="44.11046" lon="3.275">
        <ele>636</ele>
        <time>2017-03-03T16:10:05Z</time>
      </trkpt>
      <trkpt lat="44.11045" lon="3.27503">
        <ele>636</ele>
        <time>2017-03-03T16:12:05Z</time>
      </trkpt>
      <trkpt lat="44.11044" lon="3.27505">
        <ele>636</ele>
        <time>2017-03-03T16:14:05Z</time>
      </trkpt>
      <trkpt lat="44.11044" lon="3.27507">
        <ele>636</ele>
        <time>2017-03-03T16:16:05Z</time>
      </trkpt>
      <trkpt lat="44.11044" lon="3.27508">
        <ele>636</ele>
        <time>2017-03-03T16:18:05Z</time>
      </trkpt>
      <trkpt lat="44.11044" lon="3.2751">
        <ele>636</ele>
        <time>2017-03-03T16:20:05Z</time>
      </trkpt>
      <trkpt lat="44.11046" lon="3.27513">
        <ele>637</ele>
        <time>2017-03-03T16:22:05Z</time>
      </trkpt>
      <trkpt lat="44.1105" lon="3.2752">
        <ele>639</ele>
        <time>2017-03-03T16:24:05Z</time>
      </trkpt>
      <trkpt lat="44.11052" lon="3.27525">
        <ele>640</ele>
        <time>2017-03-03T16:26:05Z</time>
      </trkpt>
      <trkpt lat="44.11053" lon="3.27528">
        <ele>641</ele>
        <time>2017-03-03T16:28:05Z</time>
      </trkpt>
      <trkpt lat="44.11052" lon="3.27533">
        <ele>641</ele>
        <time>2017-03-03T16:30:05Z</time>
      </trkpt>
      <trkpt lat="44.11052" lon="3.27538">
        <ele>641</ele>
        <time>2017-03-03T16:32:05Z</time>
      </trkpt>
      <trkpt lat="44.11051" lon="3.27541">
        <ele>641</ele>
        <time>2017-03-03T16:34:05Z</time>
      </trkpt>
      <trkpt lat="44.11051" lon="3.27543">
        <ele>641</ele>
        <time>2017-03-03T16:36:05Z</time>
      </trkpt>
      <trkpt lat="44.11052" lon="3.27545">
        <ele>641</ele>
        <time>2017-03-03T16:38:05Z</time>
      </trkpt>
      <trkpt lat="44.11053" lon="3.27547">
        <ele>642</ele>
        <time>2017-03-03T16:40:05Z</time>
      </trkpt>
      <trkpt lat="44.11053" lon="3.27551">
        <ele>642</ele>
        <time>2017-03-03T16:42:05Z</time>
      </trkpt>
      <trkpt lat="44.11053" lon="3.27553">
        <ele>642</ele>
        <time>2017-03-03T16:44:05Z</time>
      </trkpt>
      <trkpt lat="44.11052" lon="3.27557">
        <ele>642</ele>
        <time>2017-03-03T16:46:05Z</time>
      </trkpt>
      <trkpt lat="44.11052" lon="3.2756">
        <ele>642</ele>
        <time>2017-03-03T16:48:05Z</time>
      </trkpt>
      <trkpt lat="44.11051" lon="3.27563">
        <ele>642</ele>
        <time>2017-03-03T16:50:05Z</time>
      </trkpt>
      <trkpt lat="44.11051" lon="3.27565">
        <ele>642</ele>
        <time>2017-03-03T16:52:05Z</time>
      </trkpt>
      <trkpt lat="44.11052" lon="3.27568">
        <ele>643</ele>
        <time>2017-03-03T16:54:05Z</time>
      </trkpt>
      <trkpt lat="44.11053" lon="3.27572">
        <ele>643</ele>
        <time>2017-03-03T16:56:05Z</time>
      </trkpt>
      <trkpt lat="44.11054" lon="3.27576">
        <ele>644</ele>
        <time>2017-03-03T16:58:05Z</time>
      </trkpt>
      <trkpt lat="44.11054" lon="3.2758">
        <ele>644</ele>
        <time>2017-03-03T17:00:05Z</time>
      </trkpt>
      <trkpt lat="44.11053" lon="3.27584">
        <ele>644</ele>
        <time>2017-03-03T17:02:05Z</time>
      </trkpt>
      <trkpt lat="44.11053" lon="3.27589">
        <ele>645</ele>
        <time>2017-03-03T17:04:05Z</time>
      </trkpt>
      <trkpt lat="44.11053" lon="3.27593">
        <ele>645</ele>
        <time>2017-03-03T17:06:05Z</time>
      </trkpt>
      <trkpt lat="44.11052" lon="3.27595">
        <ele>645</ele>
        <time>2017-03-03T17:08:05Z</time>
      </trkpt>
      <trkpt lat="44.11052" lon="3.27597">
        <ele>645</ele>
        <time>2017-03-03T17:10:05Z</time>
      </trkpt>
      <trkpt lat="44.11052" lon="3.27598">
        <ele>645</ele>
        <time>2017-03-03T17:12:05Z</time>
      </trkpt>
      <trkpt lat="44.11053" lon="3.27601">
        <ele>646</ele>
        <time>2017-03-03T17:14:05Z</time>
      </trkpt>
      <trkpt lat="44.11054" lon="3.27602">
        <ele>646</ele>
        <time>2017-03-03T17:16:05Z</time>
      </trkpt>
      <trkpt lat="44.11055" lon="3.27604">
        <ele>646</ele>
        <time>2017-03-03T17:18:05Z</time>
      </trkpt>
      <trkpt lat="44.11055" lon="3.27605">
        <ele>646</ele>
        <time>2017-03-03T17:20:05Z</time>
      </trkpt>
      <trkpt lat="44.11056" lon="3.2761">
        <ele>647</ele>
        <time>2017-03-03T17:22:05Z</time>
      </trkpt>
      <trkpt lat="44.11056" lon="3.27614">
        <ele>647</ele>
        <time>2017-03-03T17:24:05Z</time>
      </trkpt>
      <trkpt lat="44.11056" lon="3.27616">
        <ele>647</ele>
        <time>2017-03-03T17:26:05Z</time>
      </trkpt>
      <trkpt lat="44.11056" lon="3.27618">
        <ele>648</ele>
        <time>2017-03-03T17:28:05Z</time>
      </trkpt>
      <trkpt lat="44.11057" lon="3.2762">
        <ele>648</ele>
        <time>2017-03-03T17:30:05Z</time>
      </trkpt>
      <trkpt lat="44.11058" lon="3.27623">
        <ele>648</ele>
        <time>2017-03-03T17:32:05Z</time>
      </trkpt>
      <trkpt lat="44.11058" lon="3.27625">
        <ele>648</ele>
        <time>2017-03-03T17:34:05Z</time>
      </trkpt>
      <trkpt lat="44.11058" lon="3.2763">
        <ele>649</ele>
        <time>2017-03-03T17:36:05Z</time>
      </trkpt>
      <trkpt lat="44.11057" lon="3.27632">
        <ele>649</ele>
        <time>2017-03-03T17:38:05Z</time>
      </trkpt>
      <trkpt lat="44.11055" lon="3.27636">
        <ele>649</ele>
        <time>2017-03-03T17:40:05Z</time>
      </trkpt>
      <trkpt lat="44.11054" lon="3.27643">
        <ele>650</ele>
        <time>2017-03-03T17:42:05Z</time>
      </trkpt>
      <trkpt lat="44.11053" lon="3.27646">
        <ele>650</ele>
        <time>2017-03-03T17:44:05Z</time>
      </trkpt>
      <trkpt lat="44.11052" lon="3.2765">
        <ele>650</ele>
        <time>2017-03-03T17:46:05Z</time>
      </trkpt>
      <trkpt lat="44.11052" lon="3.27656">
        <ele>651</ele>
        <time>2017-03-03T17:48:05Z</time>
      </trkpt>
      <trkpt lat="44.11052" lon="3.2766">
        <ele>651</ele>
        <time>2017-03-03T17:50:05Z</time>
      </trkpt>
      <trkpt lat="44.11051" lon="3.27664">
        <ele>651</ele>
        <time>2017-03-03T17:52:05Z</time>
      </trkpt>
      <trkpt lat="44.1105" lon="3.27668">
        <ele>652</ele>
        <time>2017-03-03T17:54:05Z</time>
      </trkpt>
      <trkpt lat="44.11049" lon="3.27675">
        <ele>652</ele>
        <time>2017-03-03T17:56:05Z</time>
      </trkpt>
      <trkpt lat="44.11046" lon="3.27681">
        <ele>653</ele>
        <time>2017-03-03T17:58:05Z</time>
      </trkpt>
      <trkpt lat="44.11046" lon="3.27685">
        <ele>654</ele>
        <time>2017-03-03T18:00:05Z</time>
      </trkpt>
      <trkpt lat="44.11046" lon="3.27686">
        <ele>654</ele>
        <time>2017-03-03T18:02:05Z</time>
      </trkpt>
      <trkpt lat="44.11048" lon="3.27687">
        <ele>654</ele>
        <time>2017-03-03T18:04:05Z</time>
      </trkpt>
      <trkpt lat="44.11049" lon="3.27687">
        <ele>654</ele>
        <time>2017-03-03T18:06:05Z</time>
      </trkpt>
      <trkpt lat="44.11054" lon="3.27689">
        <ele>654</ele>
        <time>2017-03-03T18:08:05Z</time>
      </trkpt>
      <trkpt lat="44.11058" lon="3.2769">
        <ele>654</ele>
        <time>2017-03-03T18:10:05Z</time>
      </trkpt>
      <trkpt lat="44.1106" lon="3.27691">
        <ele>654</ele>
        <time>2017-03-03T18:12:05Z</time>
      </trkpt>
      <trkpt lat="44.11061" lon="3.27694">
        <ele>654</ele>
        <time>2017-03-03T18:14:05Z</time>
      </trkpt>
      <trkpt lat="44.11061" lon="3.27695">
        <ele>654</ele>
        <time>2017-03-03T18:16:05Z</time>
      </trkpt>
      <trkpt lat="44.11062" lon="3.27698">
        <ele>654</ele>
        <time>2017-03-03T18:18:05Z</time>
      </trkpt>
      <trkpt lat="44.11064" lon="3.27701">
        <ele>654</ele>
        <time>2017-03-03T18:20:05Z</time>
      </trkpt>
      <trkpt lat="44.11067" lon="3.27704">
        <ele>654</ele>
        <time>2017-03-03T18:22:05Z</time>
      </trkpt>
      <trkpt lat="44.11069" lon="3.27707">
        <ele>654</ele>
        <time>2017-03-03T18:24:05Z</time>
      </trkpt>
      <trkpt lat="44.11071" lon="3.27711">
        <ele>654</ele>
        <time>2017-03-03T18:26:05Z</time>
      </trkpt>
      <trkpt lat="44.11073" lon="3.27716">
        <ele>653</ele>
        <time>2017-03-03T18:28:05Z</time>
      </trkpt>
      <trkpt lat="44.11075" lon="3.27722">
        <ele>653</ele>
        <time>2017-03-03T18:30:05Z</time>
      </trkpt>
      <trkpt lat="44.11076" lon="3.27733">
        <ele>653</ele>
        <time>2017-03-03T18:32:05Z</time>
      </trkpt>
      <trkpt lat="44.11078" lon="3.27743">
        <ele>653</ele>
        <time>2017-03-03T18:34:05Z</time>
      </trkpt>
      <trkpt lat="44.11079" lon="3.27751">
        <ele>653</ele>
        <time>2017-03-03T18:36:05Z</time>
      </trkpt>
      <trkpt lat="44.11079" lon="3.27758">
        <ele>654</ele>
        <time>2017-03-03T18:38:05Z</time>
      </trkpt>
      <trkpt lat="44.1108" lon="3.27764">
        <ele>655</ele>
        <time>2017-03-03T18:40:05Z</time>
      </trkpt>
      <trkpt lat="44.11081" lon="3.27768">
        <ele>655</ele>
        <time>2017-03-03T18:42:05Z</time>
      </trkpt>
      <trkpt lat="44.11082" lon="3.27773">
        <ele>655</ele>
        <time>2017-03-03T18:44:05Z</time>
      </trkpt>
      <trkpt lat="44.11083" lon="3.27779">
        <ele>656</ele>
        <time>2017-03-03T18:46:05Z</time>
      </trkpt>
      <trkpt lat="44.11086" lon="3.27787">
        <ele>657</ele>
        <time>2017-03-03T18:48:05Z</time>
      </trkpt>
      <trkpt lat="44.11087" lon="3.27793">
        <ele>658</ele>
        <time>2017-03-03T18:50:05Z</time>
      </trkpt>
      <trkpt lat="44.11088" lon="3.278">
        <ele>659</ele>
        <time>2017-03-03T18:52:05Z</time>
      </trkpt>
      <trkpt lat="44.11088" lon="3.27805">
        <ele>659</ele>
        <time>2017-03-03T18:54:05Z</time>
      </trkpt>
      <trkpt lat="44.11089" lon="3.27811">
        <ele>660</ele>
        <time>2017-03-03T18:56:05Z</time>
      </trkpt>
      <trkpt lat="44.11089" lon="3.27817">
        <ele>661</ele>
        <time>2017-03-03T18:58:05Z</time>
      </trkpt>
      <trkpt lat="44.1109" lon="3.27823">
        <ele>661</ele>
        <time>2017-03-03T19:00:05Z</time>
      </trkpt>
      <trkpt lat="44.11091" lon="3.27824">
        <ele>662</ele>
        <time>2017-03-03T19:02:05Z</time>
      </trkpt>
      <trkpt lat="44.11094" lon="3.27828">
        <ele>662</ele>
        <time>2017-03-03T19:04:05Z</time>
      </trkpt>
      <trkpt lat="44.11097" lon="3.2783">
        <ele>662</ele>
        <time>2017-03-03T19:06:05Z</time>
      </trkpt>
      <trkpt lat="44.11102" lon="3.27834">
        <ele>663</ele>
        <time>2017-03-03T19:08:05Z</time>
      </trkpt>
      <trkpt lat="44.1111" lon="3.27837">
        <ele>664</ele>
        <time>2017-03-03T19:10:05Z</time>
      </trkpt>
      <trkpt lat="44.11115" lon="3.27839">
        <ele>665</ele>
        <time>2017-03-03T19:12:05Z</time>
      </trkpt>
      <trkpt lat="44.11119" lon="3.2784">
        <ele>665</ele>
        <time>2017-03-03T19:14:05Z</time>
      </trkpt>
      <trkpt lat="44.11122" lon="3.27842">
        <ele>666</ele>
        <time>2017-03-03T19:16:05Z</time>
      </trkpt>
      <trkpt lat="44.11124" lon="3.27843">
        <ele>666</ele>
        <time>2017-03-03T19:18:05Z</time>
      </trkpt>
      <trkpt lat="44.11126" lon="3.27844">
        <ele>666</ele>
        <time>2017-03-03T19:20:05Z</time>
      </trkpt>
      <trkpt lat="44.11128" lon="3.27846">
        <ele>666</ele>
        <time>2017-03-03T19:22:05Z</time>
      </trkpt>
      <trkpt lat="44.11129" lon="3.27848">
        <ele>667</ele>
        <time>2017-03-03T19:24:05Z</time>
      </trkpt>
      <trkpt lat="44.11131" lon="3.27849">
        <ele>667</ele>
        <time>2017-03-03T19:26:05Z</time>
      </trkpt>
      <trkpt lat="44.11134" lon="3.27848">
        <ele>667</ele>
        <time>2017-03-03T19:28:05Z</time>
      </trkpt>
      <trkpt lat="44.11138" lon="3.27848">
        <ele>667</ele>
        <time>2017-03-03T19:30:05Z</time>
      </trkpt>
      <trkpt lat="44.11145" lon="3.27847">
        <ele>667</ele>
        <time>2017-03-03T19:32:05Z</time>
      </trkpt>
      <trkpt lat="44.11148" lon="3.27846">
        <ele>667</ele>
        <time>2017-03-03T19:34:05Z</time>
      </trkpt>
      <trkpt lat="44.11152" lon="3.27845">
        <ele>667</ele>
        <time>2017-03-03T19:36:05Z</time>
      </trkpt>
      <trkpt lat="44.11154" lon="3.27845">
        <ele>667</ele>
        <time>2017-03-03T19:38:05Z</time>
      </trkpt>
      <trkpt lat="44.11156" lon="3.27845">
        <ele>667</ele>
        <time>2017-03-03T19:40:05Z</time>
      </trkpt>
      <trkpt lat="44.11158" lon="3.27843">
        <ele>667</ele>
        <time>2017-03-03T19:42:05Z</time>
      </trkpt>
      <trkpt lat="44.11161" lon="3.27844">
        <ele>667</ele>
        <time>2017-03-03T19:44:05Z</time>
      </trkpt>
      <trkpt lat="44.11167" lon="3.27847">
        <ele>668</ele>
        <time>2017-03-03T19:46:05Z</time>
      </trkpt>
      <trkpt lat="44.11175" lon="3.2785">
        <ele>670</ele>
        <time>2017-03-03T19:48:05Z</time>
      </trkpt>
      <trkpt lat="44.11182" lon="3.27854">
        <ele>671</ele>
        <time>2017-03-03T19:50:05Z</time>
      </trkpt>
      <trkpt lat="44.11186" lon="3.27856">
        <ele>672</ele>
        <time>2017-03-03T19:52:05Z</time>
      </trkpt>
      <trkpt lat="44.11192" lon="3.27858">
        <ele>673</ele>
        <time>2017-03-03T19:54:05Z</time>
      </trkpt>
      <trkpt lat="44.11198" lon="3.27858">
        <ele>674</ele>
        <time>2017-03-03T19:56:05Z</time>
      </trkpt>
      <trkpt lat="44.11205" lon="3.27856">
        <ele>675</ele>
        <time>2017-03-03T19:58:05Z</time>
      </trkpt>
      <trkpt lat="44.11211" lon="3.27853">
        <ele>676</ele>
        <time>2017-03-03T20:00:05Z</time>
      </trkpt>
      <trkpt lat="44.11215" lon="3.2785">
        <ele>676</ele>
        <time>2017-03-03T20:02:05Z</time>
      </trkpt>
      <trkpt lat="44.11221" lon="3.27848">
        <ele>677</ele>
        <time>2017-03-03T20:04:05Z</time>
      </trkpt>
      <trkpt lat="44.11225" lon="3.27846">
        <ele>677</ele>
        <time>2017-03-03T20:06:05Z</time>
      </trkpt>
      <trkpt lat="44.1123" lon="3.27845">
        <ele>678</ele>
        <time>2017-03-03T20:08:05Z</time>
      </trkpt>
      <trkpt lat="44.11233" lon="3.27845">
        <ele>678</ele>
        <time>2017-03-03T20:10:05Z</time>
      </trkpt>
      <trkpt lat="44.11236" lon="3.27846">
        <ele>679</ele>
        <time>2017-03-03T20:12:05Z</time>
      </trkpt>
      <trkpt lat="44.11242" lon="3.27847">
        <ele>680</ele>
        <time>2017-03-03T20:14:05Z</time>
      </trkpt>
      <trkpt lat="44.11247" lon="3.2785">
        <ele>681</ele>
        <time>2017-03-03T20:16:05Z</time>
      </trkpt>
      <trkpt lat="44.11255" lon="3.27854">
        <ele>683</ele>
        <time>2017-03-03T20:18:05Z</time>
      </trkpt>
      <trkpt lat="44.11262" lon="3.27858">
        <ele>685</ele>
        <time>2017-03-03T20:20:05Z</time>
      </trkpt>
      <trkpt lat="44.11268" lon="3.27863">
        <ele>686</ele>
        <time>2017-03-03T20:22:05Z</time>
      </trkpt>
      <trkpt lat="44.11272" lon="3.27866">
        <ele>687</ele>
        <time>2017-03-03T20:24:05Z</time>
      </trkpt>
      <trkpt lat="44.11277" lon="3.27868">
        <ele>688</ele>
        <time>2017-03-03T20:26:05Z</time>
      </trkpt>
      <trkpt lat="44.1128" lon="3.27869">
        <ele>689</ele>
        <time>2017-03-03T20:28:05Z</time>
      </trkpt>
      <trkpt lat="44.11288" lon="3.27871">
        <ele>690</ele>
        <time>2017-03-03T20:30:05Z</time>
      </trkpt>
      <trkpt lat="44.11295" lon="3.27871">
        <ele>691</ele>
        <time>2017-03-03T20:32:05Z</time>
      </trkpt>
      <trkpt lat="44.113" lon="3.27872">
        <ele>692</ele>
        <time>2017-03-03T20:34:05Z</time>
      </trkpt>
      <trkpt lat="44.11306" lon="3.27876">
        <ele>693</ele>
        <time>2017-03-03T20:36:05Z</time>
      </trkpt>
      <trkpt lat="44.11313" lon="3.27881">
        <ele>695</ele>
        <time>2017-03-03T20:38:05Z</time>
      </trkpt>
      <trkpt lat="44.11322" lon="3.27886">
        <ele>696</ele>
        <time>2017-03-03T20:40:05Z</time>
      </trkpt>
      <trkpt lat="44.11332" lon="3.27893">
        <ele>698</ele>
        <time>2017-03-03T20:42:05Z</time>
      </trkpt>
      <trkpt lat="44.11342" lon="3.27899">
        <ele>699</ele>
        <time>2017-03-03T20:44:05Z</time>
      </trkpt>
      <trkpt lat="44.1135" lon="3.27905">
        <ele>700</ele>
        <time>2017-03-03T20:46:05Z</time>
      </trkpt>
      <trkpt lat="44.11355" lon="3.2791">
        <ele>700</ele>
        <time>2017-03-03T20:48:05Z</time>
      </trkpt>
      <trkpt lat="44.11359" lon="3.27913">
        <ele>701</ele>
        <time>2017-03-03T20:50:05Z</time>
      </trkpt>
      <trkpt lat="44.11363" lon="3.27915">
        <ele>701</ele>
        <time>2017-03-03T20:52:05Z</time>
      </trkpt>
      <trkpt lat="44.11366" lon="3.27915">
        <ele>701</ele>
        <time>2017-03-03T20:54:05Z</time>
      </trkpt>
      <trkpt lat="44.11368" lon="3.27916">
        <ele>701</ele>
        <time>2017-03-03T20:56:05Z</time>
      </trkpt>
      <trkpt lat="44.1137" lon="3.27918">
        <ele>702</ele>
        <time>2017-03-03T20:58:05Z</time>
      </trkpt>
      <trkpt lat="44.11373" lon="3.27919">
        <ele>702</ele>
        <time>2017-03-03T21:00:05Z</time>
      </trkpt>
      <trkpt lat="44.11375" lon="3.27921">
        <ele>703</ele>
        <time>2017-03-03T21:02:05Z</time>
      </trkpt>
      <trkpt lat="44.11377" lon="3.27923">
        <ele>703</ele>
        <time>2017-03-03T21:04:05Z</time>
      </trkpt>
      <trkpt lat="44.11379" lon="3.27927">
        <ele>704</ele>
        <time>2017-03-03T21:06:05Z</time>
      </trkpt>
      <trkpt lat="44.11381" lon="3.27933">
        <ele>706</ele>
        <time>2017-03-03T21:08:05Z</time>
      </trkpt>
      <trkpt lat="44.11383" lon="3.27937">
        <ele>706</ele>
        <time>2017-03-03T21:10:05Z</time>
      </trkpt>
      <trkpt lat="44.11389" lon="3.27945">
        <ele>708</ele>
        <time>2017-03-03T21:12:05Z</time>
      </trkpt>
      <trkpt lat="44.11395" lon="3.27949">
        <ele>709</ele>
        <time>2017-03-03T21:14:05Z</time>
      </trkpt>
      <trkpt lat="44.11399" lon="3.27952">
        <ele>709</ele>
        <time>2017-03-03T21:16:05Z</time>
      </trkpt>
      <trkpt lat="44.11404" lon="3.27953">
        <ele>709</ele>
        <time>2017-03-03T21:18:05Z</time>
      </trkpt>
      <trkpt lat="44.1141" lon="3.27955">
        <ele>710</ele>
        <time>2017-03-03T21:20:05Z</time>
      </trkpt>
      <trkpt lat="44.11412" lon="3.27956">
        <ele>710</ele>
        <time>2017-03-03T21:22:05Z</time>
      </trkpt>
      <trkpt lat="44.11415" lon="3.27958">
        <ele>710</ele>
        <time>2017-03-03T21:24:05Z</time>
      </trkpt>
      <trkpt lat="44.11421" lon="3.27962">
        <ele>711</ele>
        <time>2017-03-03T21:26:05Z</time>
      </trkpt>
      <trkpt lat="44.11427" lon="3.27967">
        <ele>713</ele>
        <time>2017-03-03T21:28:05Z</time>
      </trkpt>
      <trkpt lat="44.11432" lon="3.27968">
        <ele>714</ele>
        <time>2017-03-03T21:30:05Z</time>
      </trkpt>
      <trkpt lat="44.11435" lon="3.27968">
        <ele>714</ele>
        <time>2017-03-03T21:32:05Z</time>
      </trkpt>
      <trkpt lat="44.11438" lon="3.27969">
        <ele>715</ele>
        <time>2017-03-03T21:34:05Z</time>
      </trkpt>
      <trkpt lat="44.11443" lon="3.2797">
        <ele>715</ele>
        <time>2017-03-03T21:36:05Z</time>
      </trkpt>
      <trkpt lat="44.11448" lon="3.27972">
        <ele>716</ele>
        <time>2017-03-03T21:38:05Z</time>
      </trkpt>
      <trkpt lat="44.11454" lon="3.27975">
        <ele>717</ele>
        <time>2017-03-03T21:40:05Z</time>
      </trkpt>
      <trkpt lat="44.11459" lon="3.27979">
        <ele>718</ele>
        <time>2017-03-03T21:42:05Z</time>
      </trkpt>
      <trkpt lat="44.11462" lon="3.27982">
        <ele>718</ele>
        <time>2017-03-03T21:44:05Z</time>
      </trkpt>
      <trkpt lat="44.11465" lon="3.2799">
        <ele>718</ele>
        <time>2017-03-03T21:46:05Z</time>
      </trkpt>
      <trkpt lat="44.11472" lon="3.28006">
        <ele>718</ele>
        <time>2017-03-03T21:48:05Z</time>
      </trkpt>
      <trkpt lat="44.11476" lon="3.28016">
        <ele>718</ele>
        <time>2017-03-03T21:50:05Z</time>
      </trkpt>
      <trkpt lat="44.11481" lon="3.28026">
        <ele>719</ele>
        <time>2017-03-03T21:52:05Z</time>
      </trkpt>
      <trkpt lat="44.11484" lon="3.28035">
        <ele>719</ele>
        <time>2017-03-03T21:54:05Z</time>
      </trkpt>
      <trkpt lat="44.11488" lon="3.28042">
        <ele>719</ele>
        <time>2017-03-03T21:56:05Z</time>
      </trkpt>
      <trkpt lat="44.11491" lon="3.28048">
        <ele>719</ele>
        <time>2017-03-03T21:58:05Z</time>
      </trkpt>
      <trkpt lat="44.11494" lon="3.28052">
        <ele>718</ele>
        <time>2017-03-03T22:00:05Z</time>
      </trkpt>
      <trkpt lat="44.11498" lon="3.28056">
        <ele>718</ele>
        <time>2017-03-03T22:02:05Z</time>
      </trkpt>
      <trkpt lat="44.11503" lon="3.28058">
        <ele>718</ele>
        <time>2017-03-03T22:04:05Z</time>
      </trkpt>
      <trkpt lat="44.11508" lon="3.2806">
        <ele>719</ele>
        <time>2017-03-03T22:06:05Z</time>
      </trkpt>
      <trkpt lat="44.11513" lon="3.28063">
        <ele>719</ele>
        <time>2017-03-03T22:08:05Z</time>
      </trkpt>
      <trkpt lat="44.11522" lon="3.28066">
        <ele>720</ele>
        <time>2017-03-03T22:10:05Z</time>
      </trkpt>
      <trkpt lat="44.11531" lon="3.28068">
        <ele>721</ele>
        <time>2017-03-03T22:12:05Z</time>
      </trkpt>
      <trkpt lat="44.11539" lon="3.28069">
        <ele>722</ele>
        <time>2017-03-03T22:14:05Z</time>
      </trkpt>
      <trkpt lat="44.11546" lon="3.28071">
        <ele>722</ele>
        <time>2017-03-03T22:16:05Z</time>
      </trkpt>
      <trkpt lat="44.11554" lon="3.28073">
        <ele>723</ele>
        <time>2017-03-03T22:18:05Z</time>
      </trkpt>
      <trkpt lat="44.11562" lon="3.28074">
        <ele>723</ele>
        <time>2017-03-03T22:20:05Z</time>
      </trkpt>
      <trkpt lat="44.11571" lon="3.28074">
        <ele>724</ele>
        <time>2017-03-03T22:22:05Z</time>
      </trkpt>
      <trkpt lat="44.1158" lon="3.28074">
        <ele>725</ele>
        <time>2017-03-03T22:24:05Z</time>
      </trkpt>
      <trkpt lat="44.11588" lon="3.28074">
        <ele>726</ele>
        <time>2017-03-03T22:26:05Z</time>
      </trkpt>
      <trkpt lat="44.11596" lon="3.28074">
        <ele>726</ele>
        <time>2017-03-03T22:28:05Z</time>
      </trkpt>
      <trkpt lat="44.11602" lon="3.28074">
        <ele>727</ele>
        <time>2017-03-03T22:30:05Z</time>
      </trkpt>
      <trkpt lat="44.11607" lon="3.28074">
        <ele>727</ele>
        <time>2017-03-03T22:32:05Z</time>
      </trkpt>
      <trkpt lat="44.11614" lon="3.28075">
        <ele>728</ele>
        <time>2017-03-03T22:34:05Z</time>
      </trkpt>
      <trkpt lat="44.11617" lon="3.28076">
        <ele>728</ele>
        <time>2017-03-03T22:36:05Z</time>
      </trkpt>
      <trkpt lat="44.11621" lon="3.28078">
        <ele>728</ele>
        <time>2017-03-03T22:38:05Z</time>
      </trkpt>
      <trkpt lat="44.11627" lon="3.28082">
        <ele>727</ele>
        <time>2017-03-03T22:40:05Z</time>
      </trkpt>
      <trkpt lat="44.11633" lon="3.28086">
        <ele>728</ele>
        <time>2017-03-03T22:42:05Z</time>
      </trkpt>
      <trkpt lat="44.11641" lon="3.28093">
        <ele>729</ele>
        <time>2017-03-03T22:44:05Z</time>
      </trkpt>
      <trkpt lat="44.11649" lon="3.28101">
        <ele>730</ele>
        <time>2017-03-03T22:46:05Z</time>
      </trkpt>
      <trkpt lat="44.11655" lon="3.28106">
        <ele>731</ele>
        <time>2017-03-03T22:48:05Z</time>
      </trkpt>
      <trkpt lat="44.1166" lon="3.28109">
        <ele>732</ele>
        <time>2017-03-03T22:50:05Z</time>
      </trkpt>
      <trkpt lat="44.11666" lon="3.28114">
        <ele>733</ele>
        <time>2017-03-03T22:52:05Z</time>
      </trkpt>
      <trkpt lat="44.11672" lon="3.28119">
        <ele>734</ele>
        <time>2017-03-03T22:54:05Z</time>
      </trkpt>
      <trkpt lat="44.11679" lon="3.28125">
        <ele>735</ele>
        <time>2017-03-03T22:56:05Z</time>
      </trkpt>
      <trkpt lat="44.11686" lon="3.28132">
        <ele>736</ele>
        <time>2017-03-03T22:58:05Z</time>
      </trkpt>
      <trkpt lat="44.11689" lon="3.28136">
        <ele>737</ele>
        <time>2017-03-03T23:00:05Z</time>
      </trkpt>
      <trkpt lat="44.1169" lon="3.28137">
        <ele>737</ele>
        <time>2017-03-03T23:02:05Z</time>
      </trkpt>
      <trkpt lat="44.11692" lon="3.2814">
        <ele>737</ele>
        <time>2017-03-03T23:04:05Z</time>
      </trkpt>
      <trkpt lat="44.11694" lon="3.28143">
        <ele>738</ele>
        <time>2017-03-03T23:06:05Z</time>
      </trkpt>
      <trkpt lat="44.11696" lon="3.28147">
        <ele>738</ele>
        <time>2017-03-03T23:08:05Z</time>
      </trkpt>
      <trkpt lat="44.11697" lon="3.28155">
        <ele>739</ele>
        <time>2017-03-03T23:10:05Z</time>
      </trkpt>
      <trkpt lat="44.11697" lon="3.28161">
        <ele>739</ele>
        <time>2017-03-03T23:12:05Z</time>
      </trkpt>
      <trkpt lat="44.11699" lon="3.28172">
        <ele>740</ele>
        <time>2017-03-03T23:14:05Z</time>
      </trkpt>
      <trkpt lat="44.11701" lon="3.28182">
        <ele>741</ele>
        <time>2017-03-03T23:16:05Z</time>
      </trkpt>
      <trkpt lat="44.11703" lon="3.28191">
        <ele>742</ele>
        <time>2017-03-03T23:18:05Z</time>
      </trkpt>
      <trkpt lat="44.11704" lon="3.28197">
        <ele>743</ele>
        <time>2017-03-03T23:20:05Z</time>
      </trkpt>
      <trkpt lat="44.11703" lon="3.28201">
        <ele>743</ele>
        <time>2017-03-03T23:22:05Z</time>
      </trkpt>
      <trkpt lat="44.11702" lon="3.28204">
        <ele>744</ele>
        <time>2017-03-03T23:24:05Z</time>
      </trkpt>
      <trkpt lat="44.11699" lon="3.28211">
        <ele>744</ele>
        <time>2017-03-03T23:26:05Z</time>
      </trkpt>
      <trkpt lat="44.11696" lon="3.28222">
        <ele>745</ele>
        <time>2017-03-03T23:28:05Z</time>
      </trkpt>
      <trkpt lat="44.11692" lon="3.28236">
        <ele>747</ele>
        <time>2017-03-03T23:30:05Z</time>
      </trkpt>
      <trkpt lat="44.11688" lon="3.28249">
        <ele>748</ele>
        <time>2017-03-03T23:32:05Z</time>
      </trkpt>
      <trkpt lat="44.11685" lon="3.28263">
        <ele>748</ele>
        <time>2017-03-03T23:34:05Z</time>
      </trkpt>
      <trkpt lat="44.11682" lon="3.28281">
        <ele>749</ele>
        <time>2017-03-03T23:36:05Z</time>
      </trkpt>
      <trkpt lat="44.1168" lon="3.28296">
        <ele>750</ele>
        <time>2017-03-03T23:38:05Z</time>
      </trkpt>
      <trkpt lat="44.11678" lon="3.28304">
        <ele>750</ele>
        <time>2017-03-03T23:40:05Z</time>
      </trkpt>
      <trkpt lat="44.11676" lon="3.28314">
        <ele>750</ele>
        <time>2017-03-03T23:42:05Z</time>
      </trkpt>
      <trkpt lat="44.11673" lon="3.28321">
        <ele>750</ele>
        <time>2017-03-03T23:44:05Z</time>
      </trkpt>
      <trkpt lat="44.11671" lon="3.28325">
        <ele>750</ele>
        <time>2017-03-03T23:46:05Z</time>
      </trkpt>
      <trkpt lat="44.11669" lon="3.28328">
        <ele>750</ele>
        <time>2017-03-03T23:48:05Z</time>
      </trkpt>
      <trkpt lat="44.11664" lon="3.28334">
        <ele>750</ele>
        <time>2017-03-03T23:50:05Z</time>
      </trkpt>
      <trkpt lat="44.11659" lon="3.28341">
        <ele>751</ele>
        <time>2017-03-03T23:52:05Z</time>
      </trkpt>
      <trkpt lat="44.11654" lon="3.28349">
        <ele>751</ele>
        <time>2017-03-03T23:54:05Z</time>
      </trkpt>
      <trkpt lat="44.11648" lon="3.28359">
        <ele>752</ele>
        <time>2017-03-03T23:56:05Z</time>
      </trkpt>
      <trkpt lat="44.11642" lon="3.28371">
        <ele>753</ele>
        <time>2017-03-03T23:58:05Z</time>
      </trkpt>
      <trkpt lat="44.11638" lon="3.28377">
        <ele>753</ele>
        <time>2017-03-04T00:00:05Z</time>
      </trkpt>
      <trkpt lat="44.11632" lon="3.28383">
        <ele>754</ele>
        <time>2017-03-04T00:02:05Z</time>
      </trkpt>
      <trkpt lat="44.11627" lon="3.2839">
        <ele>755</ele>
        <time>2017-03-04T00:04:05Z</time>
      </trkpt>
      <trkpt lat="44.11622" lon="3.28398">
        <ele>756</ele>
        <time>2017-03-04T00:06:05Z</time>
      </trkpt>
      <trkpt lat="44.11617" lon="3.28404">
        <ele>756</ele>
        <time>2017-03-04T00:08:05Z</time>
      </trkpt>
      <trkpt lat="44.11611" lon="3.28413">
        <ele>757</ele>
        <time>2017-03-04T00:10:05Z</time>
      </trkpt>
      <trkpt lat="44.11607" lon="3.28419">
        <ele>758</ele>
        <time>2017-03-04T00:12:05Z</time>
      </trkpt>
      <trkpt lat="44.11603" lon="3.28428">
        <ele>758</ele>
        <time>2017-03-04T00:14:05Z</time>
      </trkpt>
      <trkpt lat="44.11598" lon="3.28436">
        <ele>759</ele>
        <time>2017-03-04T00:16:05Z</time>
      </trkpt>
      <trkpt lat="44.11592" lon="3.28447">
        <ele>760</ele>
        <time>2017-03-04T00:18:05Z</time>
      </trkpt>
      <trkpt lat="44.11586" lon="3.28455">
        <ele>761</ele>
        <time>2017-03-04T00:20:05Z</time>
      </trkpt>
      <trkpt lat="44.11582" lon="3.28461">
        <ele>761</ele>
        <time>2017-03-04T00:22:05Z</time>
      </trkpt>
      <trkpt lat="44.11578" lon="3.28469">
        <ele>762</ele>
        <time>2017-03-04T00:24:05Z</time>
      </trkpt>
      <trkpt lat="44.11575" lon="3.28476">
        <ele>763</ele>
        <time>2017-03-04T00:26:05Z</time>
      </trkpt>
      <trkpt lat="44.11571" lon="3.28483">
        <ele>764</ele>
        <time>2017-03-04T00:28:05Z</time>
      </trkpt>
      <trkpt lat="44.11567" lon="3.28489">
        <ele>764</ele>
        <time>2017-03-04T00:30:05Z</time>
      </trkpt>
      <trkpt lat="44.11562" lon="3.28494">
        <ele>766</ele>
        <time>2017-03-04T00:32:05Z</time>
      </trkpt>
      <trkpt lat="44.11557" lon="3.28502">
        <ele>767</ele>
        <time>2017-03-04T00:34:05Z</time>
      </trkpt>
      <trkpt lat="44.11554" lon="3.28507">
        <ele>768</ele>
        <time>2017-03-04T00:36:05Z</time>
      </trkpt>
      <trkpt lat="44.11551" lon="3.28515">
        <ele>769</ele>
        <time>2017-03-04T00:38:05Z</time>
      </trkpt>
      <trkpt lat="44.11548" lon="3.28523">
        <ele>770</ele>
        <time>2017-03-04T00:40:05Z</time>
      </trkpt>
      <trkpt lat="44.11543" lon="3.28541">
        <ele>772</ele>
        <time>2017-03-04T00:42:05Z</time>
      </trkpt>
      <trkpt lat="44.1154" lon="3.28556">
        <ele>774</ele>
        <time>2017-03-04T00:44:05Z</time>
      </trkpt>
      <trkpt lat="44.11537" lon="3.28568">
        <ele>776</ele>
        <time>2017-03-04T00:46:05Z</time>
      </trkpt>
      <trkpt lat="44.11533" lon="3.28582">
        <ele>778</ele>
        <time>2017-03-04T00:48:05Z</time>
      </trkpt>
      <trkpt lat="44.11529" lon="3.28596">
        <ele>780</ele>
        <time>2017-03-04T00:50:05Z</time>
      </trkpt>
      <trkpt lat="44.11524" lon="3.28611">
        <ele>782</ele>
        <time>2017-03-04T00:52:05Z</time>
      </trkpt>
      <trkpt lat="44.11519" lon="3.28623">
        <ele>784</ele>
        <time>2017-03-04T00:54:05Z</time>
      </trkpt>
      <trkpt lat="44.11513" lon="3.28636">
        <ele>786</ele>
        <time>2017-03-04T00:56:05Z</time>
      </trkpt>
      <trkpt lat="44.11506" lon="3.2865">
        <ele>789</ele>
        <time>2017-03-04T00:58:05Z</time>
      </trkpt>
      <trkpt lat="44.11502" lon="3.28658">
        <ele>790</ele>
        <time>2017-03-04T01:00:05Z</time>
      </trkpt>
      <trkpt lat="44.115" lon="3.28664">
        <ele>791</ele>
        <time>2017-03-04T01:02:05Z</time>
      </trkpt>
      <trkpt lat="44.11498" lon="3.2867">
        <ele>791</ele>
        <time>2017-03-04T01:04:05Z</time>
      </trkpt>
      <trkpt lat="44.11496" lon="3.28674">
        <ele>792</ele>
        <time>2017-03-04T01:06:05Z</time>
      </trkpt>
      <trkpt lat="44.11494" lon="3.28678">
        <ele>792</ele>
        <time>2017-03-04T01:08:05Z</time>
      </trkpt>
      <trkpt lat="44.11488" lon="3.28685">
        <ele>792</ele>
        <time>2017-03-04T01:10:05Z</time>
      </trkpt>
      <trkpt lat="44.11483" lon="3.28692">
        <ele>793</ele>
        <time>2017-03-04T01:12:05Z</time>
      </trkpt>
      <trkpt lat="44.1148" lon="3.28698">
        <ele>793</ele>
        <time>2017-03-04T01:14:05Z</time>
      </trkpt>
      <trkpt lat="44.11478" lon="3.28702">
        <ele>793</ele>
        <time>2017-03-04T01:16:05Z</time>
      </trkpt>
      <trkpt lat="44.11474" lon="3.28711">
        <ele>793</ele>
        <time>2017-03-04T01:18:05Z</time>
      </trkpt>
      <trkpt lat="44.11473" lon="3.28716">
        <ele>794</ele>
        <time>2017-03-04T01:20:05Z</time>
      </trkpt>
      <trkpt lat="44.11471" lon="3.28725">
        <ele>794</ele>
        <time>2017-03-04T01:22:05Z</time>
      </trkpt>
      <trkpt lat="44.11467" lon="3.28744">
        <ele>794</ele>
        <time>2017-03-04T01:24:05Z</time>
      </trkpt>
      <trkpt lat="44.11464" lon="3.28762">
        <ele>795</ele>
        <time>2017-03-04T01:26:05Z</time>
      </trkpt>
      <trkpt lat="44.11461" lon="3.28781">
        <ele>795</ele>
        <time>2017-03-04T01:28:05Z</time>
      </trkpt>
      <trkpt lat="44.11457" lon="3.28802">
        <ele>795</ele>
        <time>2017-03-04T01:30:05Z</time>
      </trkpt>
      <trkpt lat="44.11454" lon="3.28819">
        <ele>795</ele>
        <time>2017-03-04T01:32:05Z</time>
      </trkpt>
      <trkpt lat="44.11451" lon="3.28832">
        <ele>795</ele>
        <time>2017-03-04T01:34:05Z</time>
      </trkpt>
      <trkpt lat="44.11449" lon="3.2884">
        <ele>794</ele>
        <time>2017-03-04T01:36:05Z</time>
      </trkpt>
      <trkpt lat="44.11446" lon="3.28845">
        <ele>794</ele>
        <time>2017-03-04T01:38:05Z</time>
      </trkpt>
      <trkpt lat="44.11442" lon="3.28853">
        <ele>793</ele>
        <time>2017-03-04T01:40:05Z</time>
      </trkpt>
      <trkpt lat="44.11437" lon="3.28861">
        <ele>793</ele>
        <time>2017-03-04T01:42:05Z</time>
      </trkpt>
      <trkpt lat="44.11432" lon="3.28868">
        <ele>792</ele>
        <time>2017-03-04T01:44:05Z</time>
      </trkpt>
      <trkpt lat="44.11426" lon="3.28874">
        <ele>792</ele>
        <time>2017-03-04T01:46:05Z</time>
      </trkpt>
      <trkpt lat="44.1142" lon="3.2888">
        <ele>791</ele>
        <time>2017-03-04T01:48:05Z</time>
      </trkpt>
      <trkpt lat="44.11415" lon="3.28886">
        <ele>791</ele>
        <time>2017-03-04T01:50:05Z</time>
      </trkpt>
      <trkpt lat="44.11408" lon="3.28895">
        <ele>791</ele>
        <time>2017-03-04T01:52:05Z</time>
      </trkpt>
      <trkpt lat="44.11402" lon="3.28903">
        <ele>791</ele>
        <time>2017-03-04T01:54:05Z</time>
      </trkpt>
      <trkpt lat="44.11399" lon="3.28909">
        <ele>791</ele>
        <time>2017-03-04T01:56:05Z</time>
      </trkpt>
      <trkpt lat="44.11397" lon="3.28914">
        <ele>791</ele>
        <time>2017-03-04T01:58:05Z</time>
      </trkpt>
      <trkpt lat="44.11394" lon="3.28923">
        <ele>791</ele>
        <time>2017-03-04T02:00:05Z</time>
      </trkpt>
      <trkpt lat="44.11393" lon="3.28927">
        <ele>791</ele>
        <time>2017-03-04T02:02:05Z</time>
      </trkpt>
      <trkpt lat="44.11393" lon="3.28931">
        <ele>791</ele>
        <time>2017-03-04T02:04:05Z</time>
      </trkpt>
      <trkpt lat="44.11392" lon="3.2894">
        <ele>791</ele>
        <time>2017-03-04T02:06:05Z</time>
      </trkpt>
      <trkpt lat="44.11391" lon="3.28948">
        <ele>791</ele>
        <time>2017-03-04T02:08:05Z</time>
      </trkpt>
      <trkpt lat="44.1139" lon="3.2896">
        <ele>791</ele>
        <time>2017-03-04T02:10:05Z</time>
      </trkpt>
      <trkpt lat="44.11389" lon="3.28972">
        <ele>791</ele>
        <time>2017-03-04T02:12:05Z</time>
      </trkpt>
      <trkpt lat="44.11389" lon="3.28979">
        <ele>791</ele>
        <time>2017-03-04T02:14:05Z</time>
      </trkpt>
      <trkpt lat="44.1139" lon="3.28989">
        <ele>792</ele>
        <time>2017-03-04T02:16:05Z</time>
      </trkpt>
      <trkpt lat="44.1139" lon="3.29003">
        <ele>792</ele>
        <time>2017-03-04T02:18:05Z</time>
      </trkpt>
      <trkpt lat="44.11389" lon="3.2901">
        <ele>792</ele>
        <time>2017-03-04T02:20:05Z</time>
      </trkpt>
      <trkpt lat="44.11389" lon="3.29014">
        <ele>792</ele>
        <time>2017-03-04T02:22:05Z</time>
      </trkpt>
      <trkpt lat="44.11388" lon="3.29018">
        <ele>792</ele>
        <time>2017-03-04T02:24:05Z</time>
      </trkpt>
      <trkpt lat="44.11388" lon="3.29021">
        <ele>792</ele>
        <time>2017-03-04T02:26:05Z</time>
      </trkpt>
      <trkpt lat="44.11387" lon="3.29025">
        <ele>792</ele>
        <time>2017-03-04T02:28:05Z</time>
      </trkpt>
      <trkpt lat="44.11388" lon="3.2903">
        <ele>792</ele>
        <time>2017-03-04T02:30:05Z</time>
      </trkpt>
      <trkpt lat="44.11388" lon="3.29034">
        <ele>792</ele>
        <time>2017-03-04T02:32:05Z</time>
      </trkpt>
      <trkpt lat="44.11388" lon="3.29039">
        <ele>792</ele>
        <time>2017-03-04T02:34:05Z</time>
      </trkpt>
      <trkpt lat="44.11387" lon="3.29043">
        <ele>792</ele>
        <time>2017-03-04T02:36:05Z</time>
      </trkpt>
      <trkpt lat="44.11386" lon="3.29047">
        <ele>792</ele>
        <time>2017-03-04T02:38:05Z</time>
      </trkpt>
      <trkpt lat="44.11383" lon="3.29051">
        <ele>792</ele>
        <time>2017-03-04T02:40:05Z</time>
      </trkpt>
      <trkpt lat="44.11381" lon="3.29054">
        <ele>792</ele>
        <time>2017-03-04T02:42:05Z</time>
      </trkpt>
      <trkpt lat="44.11379" lon="3.29056">
        <ele>792</ele>
        <time>2017-03-04T02:44:05Z</time>
      </trkpt>
      <trkpt lat="44.11378" lon="3.29057">
        <ele>792</ele>
        <time>2017-03-04T02:46:05Z</time>
      </trkpt>
      <trkpt lat="44.11375" lon="3.29062">
        <ele>792</ele>
        <time>2017-03-04T02:48:05Z</time>
      </trkpt>
      <trkpt lat="44.11374" lon="3.29067">
        <ele>792</ele>
        <time>2017-03-04T02:50:05Z</time>
      </trkpt>
      <trkpt lat="44.11372" lon="3.29073">
        <ele>792</ele>
        <time>2017-03-04T02:52:05Z</time>
      </trkpt>
      <trkpt lat="44.11373" lon="3.29081">
        <ele>792</ele>
        <time>2017-03-04T02:54:05Z</time>
      </trkpt>
      <trkpt lat="44.11375" lon="3.29097">
        <ele>793</ele>
        <time>2017-03-04T02:56:05Z</time>
      </trkpt>
      <trkpt lat="44.11377" lon="3.29119">
        <ele>793</ele>
        <time>2017-03-04T02:58:05Z</time>
      </trkpt>
      <trkpt lat="44.11379" lon="3.29135">
        <ele>794</ele>
        <time>2017-03-04T03:00:05Z</time>
      </trkpt>
      <trkpt lat="44.1138" lon="3.29147">
        <ele>794</ele>
        <time>2017-03-04T03:02:05Z</time>
      </trkpt>
      <trkpt lat="44.11382" lon="3.29158">
        <ele>794</ele>
        <time>2017-03-04T03:04:05Z</time>
      </trkpt>
      <trkpt lat="44.11385" lon="3.29171">
        <ele>795</ele>
        <time>2017-03-04T03:06:05Z</time>
      </trkpt>
      <trkpt lat="44.11391" lon="3.29188">
        <ele>796</ele>
        <time>2017-03-04T03:08:05Z</time>
      </trkpt>
      <trkpt lat="44.11397" lon="3.29206">
        <ele>796</ele>
        <time>2017-03-04T03:10:05Z</time>
      </trkpt>
      <trkpt lat="44.11404" lon="3.29223">
        <ele>797</ele>
        <time>2017-03-04T03:12:05Z</time>
      </trkpt>
      <trkpt lat="44.1141" lon="3.29236">
        <ele>798</ele>
        <time>2017-03-04T03:14:05Z</time>
      </trkpt>
      <trkpt lat="44.11413" lon="3.2924">
        <ele>798</ele>
        <time>2017-03-04T03:16:05Z</time>
      </trkpt>
      <trkpt lat="44.11416" lon="3.29244">
        <ele>798</ele>
        <time>2017-03-04T03:18:05Z</time>
      </trkpt>
      <trkpt lat="44.11418" lon="3.29246">
        <ele>798</ele>
        <time>2017-03-04T03:20:05Z</time>
      </trkpt>
      <trkpt lat="44.11422" lon="3.29249">
        <ele>799</ele>
        <time>2017-03-04T03:22:05Z</time>
      </trkpt>
      <trkpt lat="44.11425" lon="3.29252">
        <ele>799</ele>
        <time>2017-03-04T03:24:05Z</time>
      </trkpt>
      <trkpt lat="44.11426" lon="3.29254">
        <ele>799</ele>
        <time>2017-03-04T03:26:05Z</time>
      </trkpt>
      <trkpt lat="44.11427" lon="3.29257">
        <ele>799</ele>
        <time>2017-03-04T03:28:05Z</time>
      </trkpt>
      <trkpt lat="44.11428" lon="3.29259">
        <ele>799</ele>
        <time>2017-03-04T03:30:05Z</time>
      </trkpt>
      <trkpt lat="44.11428" lon="3.29261">
        <ele>799</ele>
        <time>2017-03-04T03:32:05Z</time>
      </trkpt>
      <trkpt lat="44.11428" lon="3.29264">
        <ele>799</ele>
        <time>2017-03-04T03:34:05Z</time>
      </trkpt>
      <trkpt lat="44.11428" lon="3.29264">
        <ele>799</ele>
        <time>2017-03-04T03:36:05Z</time>
      </trkpt>
      <trkpt lat="44.11436" lon="3.29264">
        <ele>800</ele>
        <time>2017-03-04T03:38:05Z</time>
      </trkpt>
      <trkpt lat="44.11444" lon="3.29263">
        <ele>801</ele>
        <time>2017-03-04T03:40:05Z</time>
      </trkpt>
      <trkpt lat="44.11449" lon="3.29261">
        <ele>802</ele>
        <time>2017-03-04T03:42:05Z</time>
      </trkpt>
      <trkpt lat="44.11449" lon="3.29261">
        <ele>802</ele>
        <time>2017-03-04T03:44:05Z</time>
      </trkpt>
      <trkpt lat="44.11451" lon="3.29273">
        <ele>802</ele>
        <time>2017-03-04T03:46:05Z</time>
      </trkpt>
      <trkpt lat="44.11454" lon="3.29283">
        <ele>802</ele>
        <time>2017-03-04T03:48:05Z</time>
      </trkpt>
      <trkpt lat="44.11458" lon="3.29299">
        <ele>803</ele>
        <time>2017-03-04T03:50:05Z</time>
      </trkpt>
      <trkpt lat="44.11464" lon="3.29317">
        <ele>803</ele>
        <time>2017-03-04T03:52:05Z</time>
      </trkpt>
      <trkpt lat="44.11471" lon="3.29341">
        <ele>804</ele>
        <time>2017-03-04T03:54:05Z</time>
      </trkpt>
      <trkpt lat="44.1148" lon="3.29366">
        <ele>805</ele>
        <time>2017-03-04T03:56:05Z</time>
      </trkpt>
      <trkpt lat="44.11486" lon="3.29386">
        <ele>805</ele>
        <time>2017-03-04T03:58:05Z</time>
      </trkpt>
      <trkpt lat="44.11492" lon="3.29405">
        <ele>806</ele>
        <time>2017-03-04T04:00:05Z</time>
      </trkpt>
      <trkpt lat="44.11496" lon="3.29416">
        <ele>806</ele>
        <time>2017-03-04T04:02:05Z</time>
      </trkpt>
      <trkpt lat="44.11497" lon="3.29423">
        <ele>806</ele>
        <time>2017-03-04T04:04:05Z</time>
      </trkpt>
      <trkpt lat="44.11497" lon="3.29427">
        <ele>806</ele>
        <time>2017-03-04T04:06:05Z</time>
      </trkpt>
      <trkpt lat="44.11496" lon="3.29431">
        <ele>806</ele>
        <time>2017-03-04T04:08:05Z</time>
      </trkpt>
      <trkpt lat="44.11495" lon="3.29433">
        <ele>806</ele>
        <time>2017-03-04T04:10:05Z</time>
      </trkpt>
      <trkpt lat="44.11495" lon="3.29433">
        <ele>806</ele>
        <time>2017-03-04T04:12:05Z</time>
      </trkpt>
      <trkpt lat="44.11495" lon="3.2944">
        <ele>806</ele>
        <time>2017-03-04T04:14:05Z</time>
      </trkpt>
      <trkpt lat="44.11496" lon="3.29451">
        <ele>806</ele>
        <time>2017-03-04T04:16:05Z</time>
      </trkpt>
      <trkpt lat="44.11497" lon="3.2946">
        <ele>806</ele>
        <time>2017-03-04T04:18:05Z</time>
      </trkpt>
      <trkpt lat="44.11499" lon="3.29476">
        <ele>806</ele>
        <time>2017-03-04T04:20:05Z</time>
      </trkpt>
      <trkpt lat="44.115" lon="3.29479">
        <ele>806</ele>
        <time>2017-03-04T04:22:05Z</time>
      </trkpt>
      <trkpt lat="44.11503" lon="3.29487">
        <ele>806</ele>
        <time>2017-03-04T04:24:05Z</time>
      </trkpt>
      <trkpt lat="44.11505" lon="3.29496">
        <ele>806</ele>
        <time>2017-03-04T04:26:05Z</time>
      </trkpt>
      <trkpt lat="44.11506" lon="3.29501">
        <ele>806</ele>
        <time>2017-03-04T04:28:05Z</time>
      </trkpt>
      <trkpt lat="44.11508" lon="3.2951">
        <ele>807</ele>
        <time>2017-03-04T04:30:05Z</time>
      </trkpt>
      <trkpt lat="44.1151" lon="3.29515">
        <ele>807</ele>
        <time>2017-03-04T04:32:05Z</time>
      </trkpt>
      <trkpt lat="44.1151" lon="3.29515">
        <ele>807</ele>
        <time>2017-03-04T04:34:05Z</time>
      </trkpt>
      <trkpt lat="44.11504" lon="3.29511">
        <ele>807</ele>
        <time>2017-03-04T04:36:05Z</time>
      </trkpt>
      <trkpt lat="44.115" lon="3.29511">
        <ele>806</ele>
        <time>2017-03-04T04:38:05Z</time>
      </trkpt>
      <trkpt lat="44.11492" lon="3.29509">
        <ele>806</ele>
        <time>2017-03-04T04:40:05Z</time>
      </trkpt>
      <trkpt lat="44.11485" lon="3.29508">
        <ele>806</ele>
        <time>2017-03-04T04:42:05Z</time>
      </trkpt>
      <trkpt lat="44.11483" lon="3.29509">
        <ele>806</ele>
        <time>2017-03-04T04:44:05Z</time>
      </trkpt>
      <trkpt lat="44.1148" lon="3.29511">
        <ele>807</ele>
        <time>2017-03-04T04:46:05Z</time>
      </trkpt>
      <trkpt lat="44.11476" lon="3.29513">
        <ele>807</ele>
        <time>2017-03-04T04:48:05Z</time>
      </trkpt>
      <trkpt lat="44.11472" lon="3.29516">
        <ele>807</ele>
        <time>2017-03-04T04:50:05Z</time>
      </trkpt>
      <trkpt lat="44.11465" lon="3.29524">
        <ele>807</ele>
        <time>2017-03-04T04:52:05Z</time>
      </trkpt>
      <trkpt lat="44.1146" lon="3.29529">
        <ele>808</ele>
        <time>2017-03-04T04:54:05Z</time>
      </trkpt>
      <trkpt lat="44.11458" lon="3.29531">
        <ele>808</ele>
        <time>2017-03-04T04:56:05Z</time>
      </trkpt>
      <trkpt lat="44.11456" lon="3.29534">
        <ele>808</ele>
        <time>2017-03-04T04:58:05Z</time>
      </trkpt>
      <trkpt lat="44.11454" lon="3.29535">
        <ele>808</ele>
        <time>2017-03-04T05:00:05Z</time>
      </trkpt>
      <trkpt lat="44.11451" lon="3.29537">
        <ele>808</ele>
        <time>2017-03-04T05:02:05Z</time>
      </trkpt>
      <trkpt lat="44.11445" lon="3.29539">
        <ele>809</ele>
        <time>2017-03-04T05:04:05Z</time>
      </trkpt>
      <trkpt lat="44.11439" lon="3.29543">
        <ele>809</ele>
        <time>2017-03-04T05:06:05Z</time>
      </trkpt>
      <trkpt lat="44.11434" lon="3.29549">
        <ele>809</ele>
        <time>2017-03-04T05:08:05Z</time>
      </trkpt>
      <trkpt lat="44.11432" lon="3.29551">
        <ele>810</ele>
        <time>2017-03-04T05:10:05Z</time>
      </trkpt>
      <trkpt lat="44.11427" lon="3.29555">
        <ele>810</ele>
        <time>2017-03-04T05:12:05Z</time>
      </trkpt>
      <trkpt lat="44.1142" lon="3.29561">
        <ele>811</ele>
        <time>2017-03-04T05:14:05Z</time>
      </trkpt>
      <trkpt lat="44.11414" lon="3.29565">
        <ele>811</ele>
        <time>2017-03-04T05:16:05Z</time>
      </trkpt>
      <trkpt lat="44.11409" lon="3.29567">
        <ele>812</ele>
        <time>2017-03-04T05:18:05Z</time>
      </trkpt>
      <trkpt lat="44.11405" lon="3.29568">
        <ele>812</ele>
        <time>2017-03-04T05:20:05Z</time>
      </trkpt>
      <trkpt lat="44.114" lon="3.29568">
        <ele>813</ele>
        <time>2017-03-04T05:22:05Z</time>
      </trkpt>
      <trkpt lat="44.11395" lon="3.29568">
        <ele>814</ele>
        <time>2017-03-04T05:24:05Z</time>
      </trkpt>
      <trkpt lat="44.11391" lon="3.29567">
        <ele>814</ele>
        <time>2017-03-04T05:26:05Z</time>
      </trkpt>
      <trkpt lat="44.11382" lon="3.29562">
        <ele>815</ele>
        <time>2017-03-04T05:28:05Z</time>
      </trkpt>
      <trkpt lat="44.11373" lon="3.29554">
        <ele>815</ele>
        <time>2017-03-04T05:30:05Z</time>
      </trkpt>
      <trkpt lat="44.11363" lon="3.29546">
        <ele>816</ele>
        <time>2017-03-04T05:32:05Z</time>
      </trkpt>
      <trkpt lat="44.11357" lon="3.29539">
        <ele>816</ele>
        <time>2017-03-04T05:34:05Z</time>
      </trkpt>
      <trkpt lat="44.11354" lon="3.29537">
        <ele>817</ele>
        <time>2017-03-04T05:36:05Z</time>
      </trkpt>
      <trkpt lat="44.11348" lon="3.29533">
        <ele>817</ele>
        <time>2017-03-04T05:38:05Z</time>
      </trkpt>
      <trkpt lat="44.11341" lon="3.29528">
        <ele>818</ele>
        <time>2017-03-04T05:40:05Z</time>
      </trkpt>
      <trkpt lat="44.11332" lon="3.29523">
        <ele>818</ele>
        <time>2017-03-04T05:42:05Z</time>
      </trkpt>
      <trkpt lat="44.11324" lon="3.29518">
        <ele>819</ele>
        <time>2017-03-04T05:44:05Z</time>
      </trkpt>
      <trkpt lat="44.11316" lon="3.29514">
        <ele>819</ele>
        <time>2017-03-04T05:46:05Z</time>
      </trkpt>
      <trkpt lat="44.11308" lon="3.2951">
        <ele>820</ele>
        <time>2017-03-04T05:48:05Z</time>
      </trkpt>
      <trkpt lat="44.11303" lon="3.29508">
        <ele>820</ele>
        <time>2017-03-04T05:50:05Z</time>
      </trkpt>
      <trkpt lat="44.11299" lon="3.29508">
        <ele>820</ele>
        <time>2017-03-04T05:52:05Z</time>
      </trkpt>
      <trkpt lat="44.11296" lon="3.29509">
        <ele>821</ele>
        <time>2017-03-04T05:54:05Z</time>
      </trkpt>
      <trkpt lat="44.11293" lon="3.29511">
        <ele>821</ele>
        <time>2017-03-04T05:56:05Z</time>
      </trkpt>
      <trkpt lat="44.1129" lon="3.29515">
        <ele>821</ele>
        <time>2017-03-04T05:58:05Z</time>
      </trkpt>
      <trkpt lat="44.11288" lon="3.2952">
        <ele>822</ele>
        <time>2017-03-04T06:00:05Z</time>
      </trkpt>
      <trkpt lat="44.11285" lon="3.29525">
        <ele>822</ele>
        <time>2017-03-04T06:02:05Z</time>
      </trkpt>
      <trkpt lat="44.11284" lon="3.29531">
        <ele>823</ele>
        <time>2017-03-04T06:04:05Z</time>
      </trkpt>
      <trkpt lat="44.11282" lon="3.29536">
        <ele>823</ele>
        <time>2017-03-04T06:06:05Z</time>
      </trkpt>
      <trkpt lat="44.11282" lon="3.29543">
        <ele>823</ele>
        <time>2017-03-04T06:08:05Z</time>
      </trkpt>
      <trkpt lat="44.11281" lon="3.29553">
        <ele>824</ele>
        <time>2017-03-04T06:10:05Z</time>
      </trkpt>
      <trkpt lat="44.1128" lon="3.29563">
        <ele>824</ele>
        <time>2017-03-04T06:12:05Z</time>
      </trkpt>
      <trkpt lat="44.11278" lon="3.29575">
        <ele>825</ele>
        <time>2017-03-04T06:14:05Z</time>
      </trkpt>
      <trkpt lat="44.11275" lon="3.29592">
        <ele>826</ele>
        <time>2017-03-04T06:16:05Z</time>
      </trkpt>
      <trkpt lat="44.11272" lon="3.29612">
        <ele>828</ele>
        <time>2017-03-04T06:18:05Z</time>
      </trkpt>
      <trkpt lat="44.11269" lon="3.29626">
        <ele>829</ele>
        <time>2017-03-04T06:20:05Z</time>
      </trkpt>
      <trkpt lat="44.11267" lon="3.29637">
        <ele>830</ele>
        <time>2017-03-04T06:22:05Z</time>
      </trkpt>
      <trkpt lat="44.11268" lon="3.29642">
        <ele>831</ele>
        <time>2017-03-04T06:24:05Z</time>
      </trkpt>
      <trkpt lat="44.11269" lon="3.29647">
        <ele>831</ele>
        <time>2017-03-04T06:26:05Z</time>
      </trkpt>
      <trkpt lat="44.11272" lon="3.29654">
        <ele>832</ele>
        <time>2017-03-04T06:28:05Z</time>
      </trkpt>
      <trkpt lat="44.11277" lon="3.29665">
        <ele>833</ele>
        <time>2017-03-04T06:30:05Z</time>
      </trkpt>
      <trkpt lat="44.11281" lon="3.29679">
        <ele>834</ele>
        <time>2017-03-04T06:32:05Z</time>
      </trkpt>
      <trkpt lat="44.11282" lon="3.29684">
        <ele>834</ele>
        <time>2017-03-04T06:34:05Z</time>
      </trkpt>
      <trkpt lat="44.11281" lon="3.29688">
        <ele>835</ele>
        <time>2017-03-04T06:36:05Z</time>
      </trkpt>
      <trkpt lat="44.11281" lon="3.29691">
        <ele>835</ele>
        <time>2017-03-04T06:38:05Z</time>
      </trkpt>
      <trkpt lat="44.11279" lon="3.29694">
        <ele>835</ele>
        <time>2017-03-04T06:40:05Z</time>
      </trkpt>
      <trkpt lat="44.11275" lon="3.29703">
        <ele>836</ele>
        <time>2017-03-04T06:42:05Z</time>
      </trkpt>
      <trkpt lat="44.11269" lon="3.29716">
        <ele>837</ele>
        <time>2017-03-04T06:44:05Z</time>
      </trkpt>
      <trkpt lat="44.11264" lon="3.29725">
        <ele>838</ele>
        <time>2017-03-04T06:46:05Z</time>
      </trkpt>
      <trkpt lat="44.11261" lon="3.29733">
        <ele>839</ele>
        <time>2017-03-04T06:48:05Z</time>
      </trkpt>
      <trkpt lat="44.1126" lon="3.29738">
        <ele>839</ele>
        <time>2017-03-04T06:50:05Z</time>
      </trkpt>
      <trkpt lat="44.11259" lon="3.29742">
        <ele>839</ele>
        <time>2017-03-04T06:52:05Z</time>
      </trkpt>
      <trkpt lat="44.11259" lon="3.2975">
        <ele>840</ele>
        <time>2017-03-04T06:54:05Z</time>
      </trkpt>
      <trkpt lat="44.11258" lon="3.29756">
        <ele>841</ele>
        <time>2017-03-04T06:56:05Z</time>
      </trkpt>
      <trkpt lat="44.11256" lon="3.29761">
        <ele>841</ele>
        <time>2017-03-04T06:58:05Z</time>
      </trkpt>
      <trkpt lat="44.11253" lon="3.29768">
        <ele>842</ele>
        <time>2017-03-04T07:00:05Z</time>
      </trkpt>
      <trkpt lat="44.11248" lon="3.29776">
        <ele>842</ele>
        <time>2017-03-04T07:02:05Z</time>
      </trkpt>
      <trkpt lat="44.11243" lon="3.29784">
        <ele>843</ele>
        <time>2017-03-04T07:04:05Z</time>
      </trkpt>
      <trkpt lat="44.11237" lon="3.29791">
        <ele>843</ele>
        <time>2017-03-04T07:06:05Z</time>
      </trkpt>
      <trkpt lat="44.11231" lon="3.29797">
        <ele>844</ele>
        <time>2017-03-04T07:08:05Z</time>
      </trkpt>
      <trkpt lat="44.11224" lon="3.29804">
        <ele>844</ele>
        <time>2017-03-04T07:10:05Z</time>
      </trkpt>
      <trkpt lat="44.11218" lon="3.29808">
        <ele>844</ele>
        <time>2017-03-04T07:12:05Z</time>
      </trkpt>
      <trkpt lat="44.11214" lon="3.2981">
        <ele>844</ele>
        <time>2017-03-04T07:14:05Z</time>
      </trkpt>
      <trkpt lat="44.11209" lon="3.2981">
        <ele>844</ele>
        <time>2017-03-04T07:16:05Z</time>
      </trkpt>
      <trkpt lat="44.11206" lon="3.29815">
        <ele>844</ele>
        <time>2017-03-04T07:18:05Z</time>
      </trkpt>
      <trkpt lat="44.11199" lon="3.29824">
        <ele>845</ele>
        <time>2017-03-04T07:20:05Z</time>
      </trkpt>
      <trkpt lat="44.11191" lon="3.29832">
        <ele>845</ele>
        <time>2017-03-04T07:22:05Z</time>
      </trkpt>
      <trkpt lat="44.11181" lon="3.29842">
        <ele>846</ele>
        <time>2017-03-04T07:24:05Z</time>
      </trkpt>
      <trkpt lat="44.1117" lon="3.29854">
        <ele>846</ele>
        <time>2017-03-04T07:26:05Z</time>
      </trkpt>
      <trkpt lat="44.11157" lon="3.29868">
        <ele>847</ele>
        <time>2017-03-04T07:28:05Z</time>
      </trkpt>
      <trkpt lat="44.11142" lon="3.29886">
        <ele>848</ele>
        <time>2017-03-04T07:30:05Z</time>
      </trkpt>
      <trkpt lat="44.11126" lon="3.29903">
        <ele>848</ele>
        <time>2017-03-04T07:32:05Z</time>
      </trkpt>
      <trkpt lat="44.11113" lon="3.29918">
        <ele>849</ele>
        <time>2017-03-04T07:34:05Z</time>
      </trkpt>
      <trkpt lat="44.111" lon="3.29932">
        <ele>848</ele>
        <time>2017-03-04T07:36:05Z</time>
      </trkpt>
      <trkpt lat="44.11088" lon="3.29946">
        <ele>847</ele>
        <time>2017-03-04T07:38:05Z</time>
      </trkpt>
      <trkpt lat="44.11076" lon="3.29959">
        <ele>846</ele>
        <time>2017-03-04T07:40:05Z</time>
      </trkpt>
      <trkpt lat="44.11066" lon="3.2997">
        <ele>845</ele>
        <time>2017-03-04T07:42:05Z</time>
      </trkpt>
      <trkpt lat="44.1106" lon="3.29977">
        <ele>845</ele>
        <time>2017-03-04T07:44:05Z</time>
      </trkpt>
      <trkpt lat="44.11055" lon="3.29984">
        <ele>844</ele>
        <time>2017-03-04T07:46:05Z</time>
      </trkpt>
      <trkpt lat="44.1105" lon="3.29991">
        <ele>844</ele>
        <time>2017-03-04T07:48:05Z</time>
      </trkpt>
      <trkpt lat="44.11047" lon="3.29998">
        <ele>844</ele>
        <time>2017-03-04T07:50:05Z</time>
      </trkpt>
      <trkpt lat="44.11043" lon="3.30005">
        <ele>843</ele>
        <time>2017-03-04T07:52:05Z</time>
      </trkpt>
      <trkpt lat="44.11041" lon="3.3001">
        <ele>842</ele>
        <time>2017-03-04T07:54:05Z</time>
      </trkpt>
      <trkpt lat="44.1104" lon="3.30015">
        <ele>842</ele>
        <time>2017-03-04T07:56:05Z</time>
      </trkpt>
      <trkpt lat="44.11038" lon="3.30024">
        <ele>842</ele>
        <time>2017-03-04T07:58:05Z</time>
      </trkpt>
      <trkpt lat="44.11037" lon="3.30033">
        <ele>841</ele>
        <time>2017-03-04T08:00:05Z</time>
      </trkpt>
      <trkpt lat="44.11037" lon="3.30043">
        <ele>841</ele>
        <time>2017-03-04T08:02:05Z</time>
      </trkpt>
      <trkpt lat="44.11036" lon="3.30056">
        <ele>840</ele>
        <time>2017-03-04T08:04:05Z</time>
      </trkpt>
      <trkpt lat="44.11036" lon="3.30074">
        <ele>839</ele>
        <time>2017-03-04T08:06:05Z</time>
      </trkpt>
      <trkpt lat="44.11036" lon="3.30091">
        <ele>838</ele>
        <time>2017-03-04T08:08:05Z</time>
      </trkpt>
      <trkpt lat="44.11037" lon="3.30112">
        <ele>836</ele>
        <time>2017-03-04T08:10:05Z</time>
      </trkpt>
      <trkpt lat="44.11038" lon="3.30129">
        <ele>835</ele>
        <time>2017-03-04T08:12:05Z</time>
      </trkpt>
      <trkpt lat="44.11039" lon="3.30146">
        <ele>833</ele>
        <time>2017-03-04T08:14:05Z</time>
      </trkpt>
      <trkpt lat="44.1104" lon="3.3016">
        <ele>832</ele>
        <time>2017-03-04T08:16:05Z</time>
      </trkpt>
      <trkpt lat="44.11041" lon="3.30171">
        <ele>832</ele>
        <time>2017-03-04T08:18:05Z</time>
      </trkpt>
      <trkpt lat="44.11042" lon="3.30178">
        <ele>832</ele>
        <time>2017-03-04T08:20:05Z</time>
      </trkpt>
      <trkpt lat="44.11043" lon="3.30185">
        <ele>832</ele>
        <time>2017-03-04T08:22:05Z</time>
      </trkpt>
      <trkpt lat="44.11044" lon="3.30192">
        <ele>832</ele>
        <time>2017-03-04T08:24:05Z</time>
      </trkpt>
      <trkpt lat="44.11047" lon="3.302">
        <ele>833</ele>
        <time>2017-03-04T08:26:05Z</time>
      </trkpt>
      <trkpt lat="44.1105" lon="3.30211">
        <ele>833</ele>
        <time>2017-03-04T08:28:05Z</time>
      </trkpt>
      <trkpt lat="44.11052" lon="3.30221">
        <ele>834</ele>
        <time>2017-03-04T08:30:05Z</time>
      </trkpt>
      <trkpt lat="44.11052" lon="3.30229">
        <ele>834</ele>
        <time>2017-03-04T08:32:05Z</time>
      </trkpt>
      <trkpt lat="44.11052" lon="3.30235">
        <ele>834</ele>
        <time>2017-03-04T08:34:05Z</time>
      </trkpt>
      <trkpt lat="44.1105" lon="3.30241">
        <ele>833</ele>
        <time>2017-03-04T08:36:05Z</time>
      </trkpt>
      <trkpt lat="44.11046" lon="3.30248">
        <ele>833</ele>
        <time>2017-03-04T08:38:05Z</time>
      </trkpt>
      <trkpt lat="44.11042" lon="3.30254">
        <ele>832</ele>
        <time>2017-03-04T08:40:05Z</time>
      </trkpt>
      <trkpt lat="44.11038" lon="3.30258">
        <ele>832</ele>
        <time>2017-03-04T08:42:05Z</time>
      </trkpt>
      <trkpt lat="44.11032" lon="3.30262">
        <ele>832</ele>
        <time>2017-03-04T08:44:05Z</time>
      </trkpt>
      <trkpt lat="44.11025" lon="3.30265">
        <ele>831</ele>
        <time>2017-03-04T08:46:05Z</time>
      </trkpt>
      <trkpt lat="44.1102" lon="3.30267">
        <ele>831</ele>
        <time>2017-03-04T08:48:05Z</time>
      </trkpt>
      <trkpt lat="44.11012" lon="3.30267">
        <ele>830</ele>
        <time>2017-03-04T08:50:05Z</time>
      </trkpt>
      <trkpt lat="44.1101" lon="3.30267">
        <ele>830</ele>
        <time>2017-03-04T08:52:05Z</time>
      </trkpt>
      <trkpt lat="44.11005" lon="3.30267">
        <ele>829</ele>
        <time>2017-03-04T08:54:05Z</time>
      </trkpt>
      <trkpt lat="44.10994" lon="3.30266">
        <ele>828</ele>
        <time>2017-03-04T08:56:05Z</time>
      </trkpt>
      <trkpt lat="44.10985" lon="3.30266">
        <ele>828</ele>
        <time>2017-03-04T08:58:05Z</time>
      </trkpt>
      <trkpt lat="44.1097" lon="3.30264">
        <ele>828</ele>
        <time>2017-03-04T09:00:05Z</time>
      </trkpt>
      <trkpt lat="44.10965" lon="3.30263">
        <ele>827</ele>
        <time>2017-03-04T09:02:05Z</time>
      </trkpt>
      <trkpt lat="44.10962" lon="3.30262">
        <ele>827</ele>
        <time>2017-03-04T09:04:05Z</time>
      </trkpt>
      <trkpt lat="44.10961" lon="3.3026">
        <ele>827</ele>
        <time>2017-03-04T09:06:05Z</time>
      </trkpt>
      <trkpt lat="44.10959" lon="3.30257">
        <ele>827</ele>
        <time>2017-03-04T09:08:05Z</time>
      </trkpt>
      <trkpt lat="44.10959" lon="3.30257">
        <ele>827</ele>
        <time>2017-03-04T09:10:05Z</time>
      </trkpt>
      <trkpt lat="44.10955" lon="3.30259">
        <ele>827</ele>
        <time>2017-03-04T09:12:05Z</time>
      </trkpt>
      <trkpt lat="44.1095" lon="3.30264">
        <ele>827</ele>
        <time>2017-03-04T09:14:05Z</time>
      </trkpt>
      <trkpt lat="44.10942" lon="3.30271">
        <ele>828</ele>
        <time>2017-03-04T09:16:05Z</time>
      </trkpt>
      <trkpt lat="44.10937" lon="3.30276">
        <ele>829</ele>
        <time>2017-03-04T09:18:05Z</time>
      </trkpt>
      <trkpt lat="44.10931" lon="3.30282">
        <ele>830</ele>
        <time>2017-03-04T09:20:05Z</time>
      </trkpt>
      <trkpt lat="44.10927" lon="3.30286">
        <ele>831</ele>
        <time>2017-03-04T09:22:05Z</time>
      </trkpt>
      <trkpt lat="44.10924" lon="3.30289">
        <ele>831</ele>
        <time>2017-03-04T09:24:05Z</time>
      </trkpt>
      <trkpt lat="44.10921" lon="3.30294">
        <ele>832</ele>
        <time>2017-03-04T09:26:05Z</time>
      </trkpt>
      <trkpt lat="44.10918" lon="3.30301">
        <ele>833</ele>
        <time>2017-03-04T09:28:05Z</time>
      </trkpt>
      <trkpt lat="44.10913" lon="3.30311">
        <ele>834</ele>
        <time>2017-03-04T09:30:05Z</time>
      </trkpt>
      <trkpt lat="44.10906" lon="3.30324">
        <ele>836</ele>
        <time>2017-03-04T09:32:05Z</time>
      </trkpt>
      <trkpt lat="44.10902" lon="3.30331">
        <ele>837</ele>
        <time>2017-03-04T09:34:05Z</time>
      </trkpt>
      <trkpt lat="44.10898" lon="3.30338">
        <ele>837</ele>
        <time>2017-03-04T09:36:05Z</time>
      </trkpt>
      <trkpt lat="44.10896" lon="3.30347">
        <ele>838</ele>
        <time>2017-03-04T09:38:05Z</time>
      </trkpt>
      <trkpt lat="44.10893" lon="3.30358">
        <ele>838</ele>
        <time>2017-03-04T09:40:05Z</time>
      </trkpt>
      <trkpt lat="44.10891" lon="3.30368">
        <ele>838</ele>
        <time>2017-03-04T09:42:05Z</time>
      </trkpt>
      <trkpt lat="44.10888" lon="3.30374">
        <ele>838</ele>
        <time>2017-03-04T09:44:05Z</time>
      </trkpt>
      <trkpt lat="44.10888" lon="3.30374">
        <ele>838</ele>
        <time>2017-03-04T09:46:05Z</time>
      </trkpt>
      <trkpt lat="44.1089" lon="3.30378">
        <ele>839</ele>
        <time>2017-03-04T09:48:05Z</time>
      </trkpt>
      <trkpt lat="44.10891" lon="3.30382">
        <ele>839</ele>
        <time>2017-03-04T09:50:05Z</time>
      </trkpt>
      <trkpt lat="44.10893" lon="3.30393">
        <ele>839</ele>
        <time>2017-03-04T09:52:05Z</time>
      </trkpt>
      <trkpt lat="44.10897" lon="3.30403">
        <ele>840</ele>
        <time>2017-03-04T09:54:05Z</time>
      </trkpt>
      <trkpt lat="44.10903" lon="3.30413">
        <ele>841</ele>
        <time>2017-03-04T09:56:05Z</time>
      </trkpt>
      <trkpt lat="44.10907" lon="3.30423">
        <ele>841</ele>
        <time>2017-03-04T09:58:05Z</time>
      </trkpt>
      <trkpt lat="44.1091" lon="3.30435">
        <ele>842</ele>
        <time>2017-03-04T10:00:05Z</time>
      </trkpt>
      <trkpt lat="44.10913" lon="3.30444">
        <ele>842</ele>
        <time>2017-03-04T10:02:05Z</time>
      </trkpt>
      <trkpt lat="44.10917" lon="3.30455">
        <ele>843</ele>
        <time>2017-03-04T10:04:05Z</time>
      </trkpt>
      <trkpt lat="44.10921" lon="3.30463">
        <ele>843</ele>
        <time>2017-03-04T10:06:05Z</time>
      </trkpt>
      <trkpt lat="44.10928" lon="3.30473">
        <ele>844</ele>
        <time>2017-03-04T10:08:05Z</time>
      </trkpt>
      <trkpt lat="44.10938" lon="3.30485">
        <ele>845</ele>
        <time>2017-03-04T10:10:05Z</time>
      </trkpt>
      <trkpt lat="44.10946" lon="3.30494">
        <ele>846</ele>
        <time>2017-03-04T10:12:05Z</time>
      </trkpt>
      <trkpt lat="44.10955" lon="3.305">
        <ele>846</ele>
        <time>2017-03-04T10:14:05Z</time>
      </trkpt>
      <trkpt lat="44.10964" lon="3.30506">
        <ele>847</ele>
        <time>2017-03-04T10:16:05Z</time>
      </trkpt>
      <trkpt lat="44.10971" lon="3.30514">
        <ele>848</ele>
        <time>2017-03-04T10:18:05Z</time>
      </trkpt>
      <trkpt lat="44.10976" lon="3.3052">
        <ele>848</ele>
        <time>2017-03-04T10:20:05Z</time>
      </trkpt>
      <trkpt lat="44.10981" lon="3.30529">
        <ele>849</ele>
        <time>2017-03-04T10:22:05Z</time>
      </trkpt>
      <trkpt lat="44.10985" lon="3.30539">
        <ele>850</ele>
        <time>2017-03-04T10:24:05Z</time>
      </trkpt>
      <trkpt lat="44.10993" lon="3.30562">
        <ele>851</ele>
        <time>2017-03-04T10:26:05Z</time>
      </trkpt>
      <trkpt lat="44.11002" lon="3.30587">
        <ele>853</ele>
        <time>2017-03-04T10:28:05Z</time>
      </trkpt>
      <trkpt lat="44.11012" lon="3.30618">
        <ele>855</ele>
        <time>2017-03-04T10:30:05Z</time>
      </trkpt>
      <trkpt lat="44.1102" lon="3.30642">
        <ele>856</ele>
        <time>2017-03-04T10:32:05Z</time>
      </trkpt>
      <trkpt lat="44.11028" lon="3.30665">
        <ele>857</ele>
        <time>2017-03-04T10:34:05Z</time>
      </trkpt>
      <trkpt lat="44.11033" lon="3.30682">
        <ele>858</ele>
        <time>2017-03-04T10:36:05Z</time>
      </trkpt>
      <trkpt lat="44.11036" lon="3.30696">
        <ele>859</ele>
        <time>2017-03-04T10:38:05Z</time>
      </trkpt>
      <trkpt lat="44.11038" lon="3.30711">
        <ele>860</ele>
        <time>2017-03-04T10:40:05Z</time>
      </trkpt>
      <trkpt lat="44.1104" lon="3.30722">
        <ele>861</ele>
        <time>2017-03-04T10:42:05Z</time>
      </trkpt>
      <trkpt lat="44.11042" lon="3.30728">
        <ele>861</ele>
        <time>2017-03-04T10:44:05Z</time>
      </trkpt>
      <trkpt lat="44.11044" lon="3.30734">
        <ele>862</ele>
        <time>2017-03-04T10:46:05Z</time>
      </trkpt>
      <trkpt lat="44.11049" lon="3.3075">
        <ele>863</ele>
        <time>2017-03-04T10:48:05Z</time>
      </trkpt>
      <trkpt lat="44.11056" lon="3.30774">
        <ele>863</ele>
        <time>2017-03-04T10:50:05Z</time>
      </trkpt>
      <trkpt lat="44.11065" lon="3.30808">
        <ele>864</ele>
        <time>2017-03-04T10:52:05Z</time>
      </trkpt>
      <trkpt lat="44.11069" lon="3.30822">
        <ele>865</ele>
        <time>2017-03-04T10:54:05Z</time>
      </trkpt>
      <trkpt lat="44.11073" lon="3.30832">
        <ele>865</ele>
        <time>2017-03-04T10:56:05Z</time>
      </trkpt>
      <trkpt lat="44.11078" lon="3.30844">
        <ele>865</ele>
        <time>2017-03-04T10:58:05Z</time>
      </trkpt>
      <trkpt lat="44.11086" lon="3.30861">
        <ele>866</ele>
        <time>2017-03-04T11:00:05Z</time>
      </trkpt>
      <trkpt lat="44.11092" lon="3.3088">
        <ele>867</ele>
        <time>2017-03-04T11:02:05Z</time>
      </trkpt>
      <trkpt lat="44.11099" lon="3.30904">
        <ele>867</ele>
        <time>2017-03-04T11:04:05Z</time>
      </trkpt>
      <trkpt lat="44.11106" lon="3.30933">
        <ele>868</ele>
        <time>2017-03-04T11:06:05Z</time>
      </trkpt>
      <trkpt lat="44.11114" lon="3.30963">
        <ele>868</ele>
        <time>2017-03-04T11:08:05Z</time>
      </trkpt>
      <trkpt lat="44.11122" lon="3.30995">
        <ele>869</ele>
        <time>2017-03-04T11:10:05Z</time>
      </trkpt>
      <trkpt lat="44.11129" lon="3.3102">
        <ele>869</ele>
        <time>2017-03-04T11:12:05Z</time>
      </trkpt>
      <trkpt lat="44.11136" lon="3.31041">
        <ele>869</ele>
        <time>2017-03-04T11:14:05Z</time>
      </trkpt>
      <trkpt lat="44.11139" lon="3.31059">
        <ele>869</ele>
        <time>2017-03-04T11:16:05Z</time>
      </trkpt>
      <trkpt lat="44.11143" lon="3.31079">
        <ele>869</ele>
        <time>2017-03-04T11:18:05Z</time>
      </trkpt>
      <trkpt lat="44.11147" lon="3.31111">
        <ele>868</ele>
        <time>2017-03-04T11:20:05Z</time>
      </trkpt>
      <trkpt lat="44.11151" lon="3.31144">
        <ele>868</ele>
        <time>2017-03-04T11:22:05Z</time>
      </trkpt>
      <trkpt lat="44.11154" lon="3.31168">
        <ele>868</ele>
        <time>2017-03-04T11:24:05Z</time>
      </trkpt>
      <trkpt lat="44.11155" lon="3.3118">
        <ele>868</ele>
        <time>2017-03-04T11:26:05Z</time>
      </trkpt>
      <trkpt lat="44.11157" lon="3.31185">
        <ele>868</ele>
        <time>2017-03-04T11:28:05Z</time>
      </trkpt>
      <trkpt lat="44.1116" lon="3.31194">
        <ele>869</ele>
        <time>2017-03-04T11:30:05Z</time>
      </trkpt>
      <trkpt lat="44.11161" lon="3.31199">
        <ele>869</ele>
        <time>2017-03-04T11:32:05Z</time>
      </trkpt>
      <trkpt lat="44.11162" lon="3.3121">
        <ele>869</ele>
        <time>2017-03-04T11:34:05Z</time>
      </trkpt>
      <trkpt lat="44.11163" lon="3.31222">
        <ele>869</ele>
        <time>2017-03-04T11:36:05Z</time>
      </trkpt>
      <trkpt lat="44.11165" lon="3.31245">
        <ele>870</ele>
        <time>2017-03-04T11:38:05Z</time>
      </trkpt>
      <trkpt lat="44.11168" lon="3.31262">
        <ele>870</ele>
        <time>2017-03-04T11:40:05Z</time>
      </trkpt>
      <trkpt lat="44.11169" lon="3.31271">
        <ele>871</ele>
        <time>2017-03-04T11:42:05Z</time>
      </trkpt>
      <trkpt lat="44.11169" lon="3.3128">
        <ele>871</ele>
        <time>2017-03-04T11:44:05Z</time>
      </trkpt>
      <trkpt lat="44.11169" lon="3.31291">
        <ele>871</ele>
        <time>2017-03-04T11:46:05Z</time>
      </trkpt>
      <trkpt lat="44.11169" lon="3.31295">
        <ele>871</ele>
        <time>2017-03-04T11:48:05Z</time>
      </trkpt>
      <trkpt lat="44.11166" lon="3.31306">
        <ele>871</ele>
        <time>2017-03-04T11:50:05Z</time>
      </trkpt>
      <trkpt lat="44.11164" lon="3.31315">
        <ele>871</ele>
        <time>2017-03-04T11:52:05Z</time>
      </trkpt>
      <trkpt lat="44.11164" lon="3.31319">
        <ele>871</ele>
        <time>2017-03-04T11:54:05Z</time>
      </trkpt>
      <trkpt lat="44.11164" lon="3.31331">
        <ele>872</ele>
        <time>2017-03-04T11:56:05Z</time>
      </trkpt>
      <trkpt lat="44.11165" lon="3.31349">
        <ele>873</ele>
        <time>2017-03-04T11:58:05Z</time>
      </trkpt>
      <trkpt lat="44.11166" lon="3.31366">
        <ele>873</ele>
        <time>2017-03-04T12:00:05Z</time>
      </trkpt>
      <trkpt lat="44.11166" lon="3.31379">
        <ele>874</ele>
        <time>2017-03-04T12:02:05Z</time>
      </trkpt>
      <trkpt lat="44.11168" lon="3.31395">
        <ele>875</ele>
        <time>2017-03-04T12:04:05Z</time>
      </trkpt>
      <trkpt lat="44.1117" lon="3.31409">
        <ele>876</ele>
        <time>2017-03-04T12:06:05Z</time>
      </trkpt>
      <trkpt lat="44.11172" lon="3.31419">
        <ele>877</ele>
        <time>2017-03-04T12:08:05Z</time>
      </trkpt>
      <trkpt lat="44.11172" lon="3.31439">
        <ele>877</ele>
        <time>2017-03-04T12:10:05Z</time>
      </trkpt>
      <trkpt lat="44.11172" lon="3.31462">
        <ele>877</ele>
        <time>2017-03-04T12:12:05Z</time>
      </trkpt>
      <trkpt lat="44.11173" lon="3.31485">
        <ele>878</ele>
        <time>2017-03-04T12:14:05Z</time>
      </trkpt>
      <trkpt lat="44.11174" lon="3.31498">
        <ele>878</ele>
        <time>2017-03-04T12:16:05Z</time>
      </trkpt>
      <trkpt lat="44.11175" lon="3.31509">
        <ele>878</ele>
        <time>2017-03-04T12:18:05Z</time>
      </trkpt>
      <trkpt lat="44.11177" lon="3.31519">
        <ele>878</ele>
        <time>2017-03-04T12:20:05Z</time>
      </trkpt>
      <trkpt lat="44.1118" lon="3.31527">
        <ele>878</ele>
        <time>2017-03-04T12:22:05Z</time>
      </trkpt>
      <trkpt lat="44.11186" lon="3.31539">
        <ele>879</ele>
        <time>2017-03-04T12:24:05Z</time>
      </trkpt>
      <trkpt lat="44.11191" lon="3.31548">
        <ele>879</ele>
        <time>2017-03-04T12:26:05Z</time>
      </trkpt>
      <trkpt lat="44.11196" lon="3.31561">
        <ele>880</ele>
        <time>2017-03-04T12:28:05Z</time>
      </trkpt>
      <trkpt lat="44.11204" lon="3.3158">
        <ele>881</ele>
        <time>2017-03-04T12:30:05Z</time>
      </trkpt>
      <trkpt lat="44.1121" lon="3.31598">
        <ele>881</ele>
        <time>2017-03-04T12:32:05Z</time>
      </trkpt>
      <trkpt lat="44.11214" lon="3.31611">
        <ele>880</ele>
        <time>2017-03-04T12:34:05Z</time>
      </trkpt>
      <trkpt lat="44.11218" lon="3.31626">
        <ele>880</ele>
        <time>2017-03-04T12:36:05Z</time>
      </trkpt>
      <trkpt lat="44.11223" lon="3.31647">
        <ele>879</ele>
        <time>2017-03-04T12:38:05Z</time>
      </trkpt>
      <trkpt lat="44.11229" lon="3.3167">
        <ele>879</ele>
        <time>2017-03-04T12:40:05Z</time>
      </trkpt>
      <trkpt lat="44.11268" lon="3.31794">
        <ele>875</ele>
        <time>2017-03-04T12:42:05Z</time>
      </trkpt>
      <trkpt lat="44.11269" lon="3.31799">
        <ele>875</ele>
        <time>2017-03-04T12:44:05Z</time>
      </trkpt>
      <trkpt lat="44.11269" lon="3.31804">
        <ele>875</ele>
        <time>2017-03-04T12:46:05Z</time>
      </trkpt>
      <trkpt lat="44.11268" lon="3.3181">
        <ele>874</ele>
        <time>2017-03-04T12:48:05Z</time>
      </trkpt>
      <trkpt lat="44.11268" lon="3.31816">
        <ele>874</ele>
        <time>2017-03-04T12:50:05Z</time>
      </trkpt>
      <trkpt lat="44.11269" lon="3.31821">
        <ele>874</ele>
        <time>2017-03-04T12:52:05Z</time>
      </trkpt>
      <trkpt lat="44.1127" lon="3.31827">
        <ele>873</ele>
        <time>2017-03-04T12:54:05Z</time>
      </trkpt>
      <trkpt lat="44.11271" lon="3.31831">
        <ele>873</ele>
        <time>2017-03-04T12:56:05Z</time>
      </trkpt>
      <trkpt lat="44.11273" lon="3.31837">
        <ele>873</ele>
        <time>2017-03-04T12:58:05Z</time>
      </trkpt>
      <trkpt lat="44.11282" lon="3.31861">
        <ele>874</ele>
        <time>2017-03-04T13:00:05Z</time>
      </trkpt>
      <trkpt lat="44.11291" lon="3.31907">
        <ele>873</ele>
        <time>2017-03-04T13:02:05Z</time>
      </trkpt>
      <trkpt lat="44.11312" lon="3.32123">
        <ele>874</ele>
        <time>2017-03-04T13:04:05Z</time>
      </trkpt>
      <trkpt lat="44.11314" lon="3.32247">
        <ele>874</ele>
        <time>2017-03-04T13:06:05Z</time>
      </trkpt>
      <trkpt lat="44.11323" lon="3.32295">
        <ele>873</ele>
        <time>2017-03-04T13:08:05Z</time>
      </trkpt>
      <trkpt lat="44.11323" lon="3.32301">
        <ele>873</ele>
        <time>2017-03-04T13:10:05Z</time>
      </trkpt>
      <trkpt lat="44.11323" lon="3.32306">
        <ele>873</ele>
        <time>2017-03-04T13:12:05Z</time>
      </trkpt>
      <trkpt lat="44.11318" lon="3.32408">
        <ele>870</ele>
        <time>2017-03-04T13:14:05Z</time>
      </trkpt>
      <trkpt lat="44.11317" lon="3.3242">
        <ele>870</ele>
        <time>2017-03-04T13:16:05Z</time>
      </trkpt>
      <trkpt lat="44.11316" lon="3.32442">
        <ele>869</ele>
        <time>2017-03-04T13:18:05Z</time>
      </trkpt>
      <trkpt lat="44.11317" lon="3.32463">
        <ele>869</ele>
        <time>2017-03-04T13:20:05Z</time>
      </trkpt>
      <trkpt lat="44.11318" lon="3.32475">
        <ele>868</ele>
        <time>2017-03-04T13:22:05Z</time>
      </trkpt>
      <trkpt lat="44.11318" lon="3.32486">
        <ele>868</ele>
        <time>2017-03-04T13:24:05Z</time>
      </trkpt>
      <trkpt lat="44.11315" lon="3.32519">
        <ele>866</ele>
        <time>2017-03-04T13:26:05Z</time>
      </trkpt>
      <trkpt lat="44.1131" lon="3.32546">
        <ele>865</ele>
        <time>2017-03-04T13:28:05Z</time>
      </trkpt>
      <trkpt lat="44.11305" lon="3.3257">
        <ele>864</ele>
        <time>2017-03-04T13:30:05Z</time>
      </trkpt>
      <trkpt lat="44.11298" lon="3.32588">
        <ele>862</ele>
        <time>2017-03-04T13:32:05Z</time>
      </trkpt>
      <trkpt lat="44.11291" lon="3.32602">
        <ele>861</ele>
        <time>2017-03-04T13:34:05Z</time>
      </trkpt>
      <trkpt lat="44.11287" lon="3.32617">
        <ele>859</ele>
        <time>2017-03-04T13:36:05Z</time>
      </trkpt>
      <trkpt lat="44.11286" lon="3.32631">
        <ele>857</ele>
        <time>2017-03-04T13:38:05Z</time>
      </trkpt>
      <trkpt lat="44.11286" lon="3.32648">
        <ele>855</ele>
        <time>2017-03-04T13:40:05Z</time>
      </trkpt>
      <trkpt lat="44.1129" lon="3.32696">
        <ele>852</ele>
        <time>2017-03-04T13:42:05Z</time>
      </trkpt>
      <trkpt lat="44.11291" lon="3.32749">
        <ele>848</ele>
        <time>2017-03-04T13:44:05Z</time>
      </trkpt>
      <trkpt lat="44.11292" lon="3.32797">
        <ele>845</ele>
        <time>2017-03-04T13:46:05Z</time>
      </trkpt>
      <trkpt lat="44.11293" lon="3.32807">
        <ele>845</ele>
        <time>2017-03-04T13:48:05Z</time>
      </trkpt>
      <trkpt lat="44.11291" lon="3.32824">
        <ele>843</ele>
        <time>2017-03-04T13:50:05Z</time>
      </trkpt>
      <trkpt lat="44.11288" lon="3.32857">
        <ele>842</ele>
        <time>2017-03-04T13:52:05Z</time>
      </trkpt>
      <trkpt lat="44.11284" lon="3.32885">
        <ele>841</ele>
        <time>2017-03-04T13:54:05Z</time>
      </trkpt>
      <trkpt lat="44.11282" lon="3.32905">
        <ele>840</ele>
        <time>2017-03-04T13:56:05Z</time>
      </trkpt>
      <trkpt lat="44.11277" lon="3.32955">
        <ele>841</ele>
        <time>2017-03-04T13:58:05Z</time>
      </trkpt>
      <trkpt lat="44.11267" lon="3.32982">
        <ele>839</ele>
        <time>2017-03-04T14:00:05Z</time>
      </trkpt>
      <trkpt lat="44.11263" lon="3.33002">
        <ele>839</ele>
        <time>2017-03-04T14:02:05Z</time>
      </trkpt>
      <trkpt lat="44.11261" lon="3.33027">
        <ele>841</ele>
        <time>2017-03-04T14:04:05Z</time>
      </trkpt>
      <trkpt lat="44.11261" lon="3.33045">
        <ele>843</ele>
        <time>2017-03-04T14:06:05Z</time>
      </trkpt>
      <trkpt lat="44.11261" lon="3.33052">
        <ele>844</ele>
        <time>2017-03-04T14:08:05Z</time>
      </trkpt>
      <trkpt lat="44.11259" lon="3.33059">
        <ele>845</ele>
        <time>2017-03-04T14:10:05Z</time>
      </trkpt>
      <trkpt lat="44.11255" lon="3.33069">
        <ele>845</ele>
        <time>2017-03-04T14:12:05Z</time>
      </trkpt>
      <trkpt lat="44.11248" lon="3.33087">
        <ele>845</ele>
        <time>2017-03-04T14:14:05Z</time>
      </trkpt>
      <trkpt lat="44.11244" lon="3.331">
        <ele>844</ele>
        <time>2017-03-04T14:16:05Z</time>
      </trkpt>
      <trkpt lat="44.11243" lon="3.33118">
        <ele>844</ele>
        <time>2017-03-04T14:18:05Z</time>
      </trkpt>
      <trkpt lat="44.11244" lon="3.33139">
        <ele>845</ele>
        <time>2017-03-04T14:20:05Z</time>
      </trkpt>
      <trkpt lat="44.1125" lon="3.33183">
        <ele>847</ele>
        <time>2017-03-04T14:22:05Z</time>
      </trkpt>
      <trkpt lat="44.11254" lon="3.33213">
        <ele>846</ele>
        <time>2017-03-04T14:24:05Z</time>
      </trkpt>
      <trkpt lat="44.11257" lon="3.3323">
        <ele>846</ele>
        <time>2017-03-04T14:26:05Z</time>
      </trkpt>
      <trkpt lat="44.11256" lon="3.33246">
        <ele>845</ele>
        <time>2017-03-04T14:28:05Z</time>
      </trkpt>
      <trkpt lat="44.11255" lon="3.33259">
        <ele>845</ele>
        <time>2017-03-04T14:30:05Z</time>
      </trkpt>
      <trkpt lat="44.11253" lon="3.33268">
        <ele>845</ele>
        <time>2017-03-04T14:32:05Z</time>
      </trkpt>
      <trkpt lat="44.11248" lon="3.33288">
        <ele>846</ele>
        <time>2017-03-04T14:34:05Z</time>
      </trkpt>
      <trkpt lat="44.11239" lon="3.33322">
        <ele>844</ele>
        <time>2017-03-04T14:36:05Z</time>
      </trkpt>
      <trkpt lat="44.11229" lon="3.33376">
        <ele>846</ele>
        <time>2017-03-04T14:38:05Z</time>
      </trkpt>
      <trkpt lat="44.11225" lon="3.33399">
        <ele>846</ele>
        <time>2017-03-04T14:40:05Z</time>
      </trkpt>
      <trkpt lat="44.11225" lon="3.33414">
        <ele>848</ele>
        <time>2017-03-04T14:42:05Z</time>
      </trkpt>
      <trkpt lat="44.11225" lon="3.33424">
        <ele>849</ele>
        <time>2017-03-04T14:44:05Z</time>
      </trkpt>
      <trkpt lat="44.11228" lon="3.33434">
        <ele>850</ele>
        <time>2017-03-04T14:46:05Z</time>
      </trkpt>
      <trkpt lat="44.11232" lon="3.33441">
        <ele>852</ele>
        <time>2017-03-04T14:48:05Z</time>
      </trkpt>
      <trkpt lat="44.11236" lon="3.3345">
        <ele>854</ele>
        <time>2017-03-04T14:50:05Z</time>
      </trkpt>
      <trkpt lat="44.1124" lon="3.33459">
        <ele>856</ele>
        <time>2017-03-04T14:52:05Z</time>
      </trkpt>
      <trkpt lat="44.11242" lon="3.33476">
        <ele>857</ele>
        <time>2017-03-04T14:54:05Z</time>
      </trkpt>
      <trkpt lat="44.11254" lon="3.33558">
        <ele>862</ele>
        <time>2017-03-04T14:56:05Z</time>
      </trkpt>
      <trkpt lat="44.11265" lon="3.33625">
        <ele>862</ele>
        <time>2017-03-04T14:58:05Z</time>
      </trkpt>
      <trkpt lat="44.11274" lon="3.33697">
        <ele>863</ele>
        <time>2017-03-04T15:00:05Z</time>
      </trkpt>
      <trkpt lat="44.11276" lon="3.33716">
        <ele>863</ele>
        <time>2017-03-04T15:02:05Z</time>
      </trkpt>
      <trkpt lat="44.11276" lon="3.33728">
        <ele>864</ele>
        <time>2017-03-04T15:04:05Z</time>
      </trkpt>
      <trkpt lat="44.11275" lon="3.33735">
        <ele>864</ele>
        <time>2017-03-04T15:06:05Z</time>
      </trkpt>
      <trkpt lat="44.11266" lon="3.33775">
        <ele>863</ele>
        <time>2017-03-04T15:08:05Z</time>
      </trkpt>
      <trkpt lat="44.11255" lon="3.33823">
        <ele>860</ele>
        <time>2017-03-04T15:10:05Z</time>
      </trkpt>
      <trkpt lat="44.1125" lon="3.3384">
        <ele>858</ele>
        <time>2017-03-04T15:12:05Z</time>
      </trkpt>
      <trkpt lat="44.1125" lon="3.33847">
        <ele>857</ele>
        <time>2017-03-04T15:14:05Z</time>
      </trkpt>
      <trkpt lat="44.11253" lon="3.33858">
        <ele>856</ele>
        <time>2017-03-04T15:16:05Z</time>
      </trkpt>
      <trkpt lat="44.11272" lon="3.33906">
        <ele>854</ele>
        <time>2017-03-04T15:18:05Z</time>
      </trkpt>
      <trkpt lat="44.11283" lon="3.3394">
        <ele>854</ele>
        <time>2017-03-04T15:20:05Z</time>
      </trkpt>
      <trkpt lat="44.11287" lon="3.33956">
        <ele>854</ele>
        <time>2017-03-04T15:22:05Z</time>
      </trkpt>
      <trkpt lat="44.11288" lon="3.33968">
        <ele>853</ele>
        <time>2017-03-04T15:24:05Z</time>
      </trkpt>
      <trkpt lat="44.11289" lon="3.33977">
        <ele>853</ele>
        <time>2017-03-04T15:26:05Z</time>
      </trkpt>
      <trkpt lat="44.11292" lon="3.33984">
        <ele>853</ele>
        <time>2017-03-04T15:28:05Z</time>
      </trkpt>
      <trkpt lat="44.11298" lon="3.33989">
        <ele>855</ele>
        <time>2017-03-04T15:30:05Z</time>
      </trkpt>
      <trkpt lat="44.1132" lon="3.3401">
        <ele>860</ele>
        <time>2017-03-04T15:32:05Z</time>
      </trkpt>
      <trkpt lat="44.11322" lon="3.34011">
        <ele>860</ele>
        <time>2017-03-04T15:34:05Z</time>
      </trkpt>
      <trkpt lat="44.11323" lon="3.34011">
        <ele>860</ele>
        <time>2017-03-04T15:36:05Z</time>
      </trkpt>
      <trkpt lat="44.1133" lon="3.34011">
        <ele>862</ele>
        <time>2017-03-04T15:38:05Z</time>
      </trkpt>
      <trkpt lat="44.11357" lon="3.34008">
        <ele>864</ele>
        <time>2017-03-04T15:40:05Z</time>
      </trkpt>
      <trkpt lat="44.11374" lon="3.34006">
        <ele>865</ele>
        <time>2017-03-04T15:42:05Z</time>
      </trkpt>
      <trkpt lat="44.11376" lon="3.34006">
        <ele>865</ele>
        <time>2017-03-04T15:44:05Z</time>
      </trkpt>
      <trkpt lat="44.11377" lon="3.34006">
        <ele>865</ele>
        <time>2017-03-04T15:46:05Z</time>
      </trkpt>
      <trkpt lat="44.11378" lon="3.34007">
        <ele>865</ele>
        <time>2017-03-04T15:48:05Z</time>
      </trkpt>
      <trkpt lat="44.11379" lon="3.34008">
        <ele>865</ele>
        <time>2017-03-04T15:50:05Z</time>
      </trkpt>
      <trkpt lat="44.11383" lon="3.34015">
        <ele>865</ele>
        <time>2017-03-04T15:52:05Z</time>
      </trkpt>
      <trkpt lat="44.11389" lon="3.3403">
        <ele>865</ele>
        <time>2017-03-04T15:54:05Z</time>
      </trkpt>
      <trkpt lat="44.11396" lon="3.34047">
        <ele>866</ele>
        <time>2017-03-04T15:56:05Z</time>
      </trkpt>
      <trkpt lat="44.11396" lon="3.34047">
        <ele>866</ele>
        <time>2017-03-04T15:58:05Z</time>
      </trkpt>
      <trkpt lat="44.11398" lon="3.34059">
        <ele>866</ele>
        <time>2017-03-04T16:00:05Z</time>
      </trkpt>
      <trkpt lat="44.11403" lon="3.34077">
        <ele>866</ele>
        <time>2017-03-04T16:02:05Z</time>
      </trkpt>
      <trkpt lat="44.1141" lon="3.34105">
        <ele>867</ele>
        <time>2017-03-04T16:04:05Z</time>
      </trkpt>
      <trkpt lat="44.11412" lon="3.3413">
        <ele>868</ele>
        <time>2017-03-04T16:06:05Z</time>
      </trkpt>
      <trkpt lat="44.11419" lon="3.34173">
        <ele>868</ele>
        <time>2017-03-04T16:08:05Z</time>
      </trkpt>
      <trkpt lat="44.11429" lon="3.34211">
        <ele>865</ele>
        <time>2017-03-04T16:10:05Z</time>
      </trkpt>
      <trkpt lat="44.1145" lon="3.34271">
        <ele>863</ele>
        <time>2017-03-04T16:12:05Z</time>
      </trkpt>
      <trkpt lat="44.11454" lon="3.34286">
        <ele>863</ele>
        <time>2017-03-04T16:14:05Z</time>
      </trkpt>
      <trkpt lat="44.1146" lon="3.34323">
        <ele>862</ele>
        <time>2017-03-04T16:16:05Z</time>
      </trkpt>
      <trkpt lat="44.11462" lon="3.34337">
        <ele>862</ele>
        <time>2017-03-04T16:18:05Z</time>
      </trkpt>
      <trkpt lat="44.11465" lon="3.34364">
        <ele>863</ele>
        <time>2017-03-04T16:20:05Z</time>
      </trkpt>
      <trkpt lat="44.11466" lon="3.34372">
        <ele>863</ele>
        <time>2017-03-04T16:22:05Z</time>
      </trkpt>
      <trkpt lat="44.11466" lon="3.3438">
        <ele>863</ele>
        <time>2017-03-04T16:24:05Z</time>
      </trkpt>
      <trkpt lat="44.11465" lon="3.34387">
        <ele>862</ele>
        <time>2017-03-04T16:26:05Z</time>
      </trkpt>
      <trkpt lat="44.11467" lon="3.34402">
        <ele>863</ele>
        <time>2017-03-04T16:28:05Z</time>
      </trkpt>
      <trkpt lat="44.11472" lon="3.34418">
        <ele>864</ele>
        <time>2017-03-04T16:30:05Z</time>
      </trkpt>
      <trkpt lat="44.11476" lon="3.34427">
        <ele>865</ele>
        <time>2017-03-04T16:32:05Z</time>
      </trkpt>
      <trkpt lat="44.11478" lon="3.34434">
        <ele>865</ele>
        <time>2017-03-04T16:34:05Z</time>
      </trkpt>
      <trkpt lat="44.11478" lon="3.34441">
        <ele>865</ele>
        <time>2017-03-04T16:36:05Z</time>
      </trkpt>
      <trkpt lat="44.11477" lon="3.34447">
        <ele>865</ele>
        <time>2017-03-04T16:38:05Z</time>
      </trkpt>
      <trkpt lat="44.11475" lon="3.34453">
        <ele>865</ele>
        <time>2017-03-04T16:40:05Z</time>
      </trkpt>
      <trkpt lat="44.1147" lon="3.34471">
        <ele>864</ele>
        <time>2017-03-04T16:42:05Z</time>
      </trkpt>
      <trkpt lat="44.11468" lon="3.34477">
        <ele>864</ele>
        <time>2017-03-04T16:44:05Z</time>
      </trkpt>
      <trkpt lat="44.11468" lon="3.34482">
        <ele>864</ele>
        <time>2017-03-04T16:46:05Z</time>
      </trkpt>
      <trkpt lat="44.1147" lon="3.34492">
        <ele>864</ele>
        <time>2017-03-04T16:48:05Z</time>
      </trkpt>
      <trkpt lat="44.11472" lon="3.345">
        <ele>865</ele>
        <time>2017-03-04T16:50:05Z</time>
      </trkpt>
      <trkpt lat="44.11473" lon="3.3451">
        <ele>865</ele>
        <time>2017-03-04T16:52:05Z</time>
      </trkpt>
      <trkpt lat="44.11473" lon="3.34521">
        <ele>865</ele>
        <time>2017-03-04T16:54:05Z</time>
      </trkpt>
      <trkpt lat="44.11472" lon="3.34526">
        <ele>864</ele>
        <time>2017-03-04T16:56:05Z</time>
      </trkpt>
      <trkpt lat="44.11471" lon="3.3453">
        <ele>864</ele>
        <time>2017-03-04T16:58:05Z</time>
      </trkpt>
      <trkpt lat="44.11468" lon="3.34537">
        <ele>863</ele>
        <time>2017-03-04T17:00:05Z</time>
      </trkpt>
      <trkpt lat="44.11465" lon="3.34543">
        <ele>862</ele>
        <time>2017-03-04T17:02:05Z</time>
      </trkpt>
      <trkpt lat="44.11465" lon="3.3455">
        <ele>861</ele>
        <time>2017-03-04T17:04:05Z</time>
      </trkpt>
      <trkpt lat="44.11465" lon="3.34569">
        <ele>861</ele>
        <time>2017-03-04T17:06:05Z</time>
      </trkpt>
      <trkpt lat="44.11466" lon="3.34582">
        <ele>861</ele>
        <time>2017-03-04T17:08:05Z</time>
      </trkpt>
      <trkpt lat="44.11465" lon="3.3459">
        <ele>860</ele>
        <time>2017-03-04T17:10:05Z</time>
      </trkpt>
      <trkpt lat="44.11464" lon="3.34596">
        <ele>860</ele>
        <time>2017-03-04T17:12:05Z</time>
      </trkpt>
      <trkpt lat="44.11462" lon="3.34622">
        <ele>860</ele>
        <time>2017-03-04T17:14:05Z</time>
      </trkpt>
      <trkpt lat="44.11462" lon="3.34637">
        <ele>860</ele>
        <time>2017-03-04T17:16:05Z</time>
      </trkpt>
      <trkpt lat="44.11465" lon="3.34651">
        <ele>861</ele>
        <time>2017-03-04T17:18:05Z</time>
      </trkpt>
      <trkpt lat="44.11474" lon="3.34668">
        <ele>863</ele>
        <time>2017-03-04T17:20:05Z</time>
      </trkpt>
      <trkpt lat="44.11479" lon="3.34675">
        <ele>864</ele>
        <time>2017-03-04T17:22:05Z</time>
      </trkpt>
      <trkpt lat="44.11488" lon="3.34701">
        <ele>865</ele>
        <time>2017-03-04T17:24:05Z</time>
      </trkpt>
      <trkpt lat="44.11496" lon="3.34721">
        <ele>866</ele>
        <time>2017-03-04T17:26:05Z</time>
      </trkpt>
      <trkpt lat="44.11504" lon="3.34754">
        <ele>865</ele>
        <time>2017-03-04T17:28:05Z</time>
      </trkpt>
      <trkpt lat="44.1151" lon="3.34778">
        <ele>864</ele>
        <time>2017-03-04T17:30:05Z</time>
      </trkpt>
      <trkpt lat="44.11519" lon="3.34798">
        <ele>864</ele>
        <time>2017-03-04T17:32:05Z</time>
      </trkpt>
      <trkpt lat="44.11534" lon="3.34829">
        <ele>864</ele>
        <time>2017-03-04T17:34:05Z</time>
      </trkpt>
      <trkpt lat="44.11535" lon="3.34833">
        <ele>864</ele>
        <time>2017-03-04T17:36:05Z</time>
      </trkpt>
      <trkpt lat="44.11541" lon="3.34849">
        <ele>865</ele>
        <time>2017-03-04T17:38:05Z</time>
      </trkpt>
      <trkpt lat="44.11542" lon="3.34852">
        <ele>865</ele>
        <time>2017-03-04T17:40:05Z</time>
      </trkpt>
      <trkpt lat="44.11546" lon="3.34873">
        <ele>865</ele>
        <time>2017-03-04T17:42:05Z</time>
      </trkpt>
      <trkpt lat="44.11546" lon="3.34882">
        <ele>865</ele>
        <time>2017-03-04T17:44:05Z</time>
      </trkpt>
      <trkpt lat="44.11546" lon="3.34892">
        <ele>865</ele>
        <time>2017-03-04T17:46:05Z</time>
      </trkpt>
      <trkpt lat="44.11539" lon="3.34913">
        <ele>864</ele>
        <time>2017-03-04T17:48:05Z</time>
      </trkpt>
      <trkpt lat="44.11533" lon="3.34942">
        <ele>863</ele>
        <time>2017-03-04T17:50:05Z</time>
      </trkpt>
      <trkpt lat="44.11529" lon="3.34951">
        <ele>862</ele>
        <time>2017-03-04T17:52:05Z</time>
      </trkpt>
      <trkpt lat="44.11517" lon="3.34966">
        <ele>861</ele>
        <time>2017-03-04T17:54:05Z</time>
      </trkpt>
      <trkpt lat="44.11506" lon="3.34981">
        <ele>860</ele>
        <time>2017-03-04T17:56:05Z</time>
      </trkpt>
      <trkpt lat="44.11502" lon="3.34987">
        <ele>860</ele>
        <time>2017-03-04T17:58:05Z</time>
      </trkpt>
      <trkpt lat="44.115" lon="3.34991">
        <ele>860</ele>
        <time>2017-03-04T18:00:05Z</time>
      </trkpt>
      <trkpt lat="44.11498" lon="3.34996">
        <ele>860</ele>
        <time>2017-03-04T18:02:05Z</time>
      </trkpt>
      <trkpt lat="44.11495" lon="3.35007">
        <ele>861</ele>
        <time>2017-03-04T18:04:05Z</time>
      </trkpt>
      <trkpt lat="44.11494" lon="3.35014">
        <ele>861</ele>
        <time>2017-03-04T18:06:05Z</time>
      </trkpt>
      <trkpt lat="44.11493" lon="3.35022">
        <ele>862</ele>
        <time>2017-03-04T18:08:05Z</time>
      </trkpt>
      <trkpt lat="44.11492" lon="3.35029">
        <ele>862</ele>
        <time>2017-03-04T18:10:05Z</time>
      </trkpt>
      <trkpt lat="44.11491" lon="3.35033">
        <ele>862</ele>
        <time>2017-03-04T18:12:05Z</time>
      </trkpt>
      <trkpt lat="44.1149" lon="3.35036">
        <ele>863</ele>
        <time>2017-03-04T18:14:05Z</time>
      </trkpt>
      <trkpt lat="44.11488" lon="3.35038">
        <ele>863</ele>
        <time>2017-03-04T18:16:05Z</time>
      </trkpt>
      <trkpt lat="44.11486" lon="3.3504">
        <ele>863</ele>
        <time>2017-03-04T18:18:05Z</time>
      </trkpt>
      <trkpt lat="44.11483" lon="3.3504">
        <ele>864</ele>
        <time>2017-03-04T18:20:05Z</time>
      </trkpt>
      <trkpt lat="44.11481" lon="3.35039">
        <ele>864</ele>
        <time>2017-03-04T18:22:05Z</time>
      </trkpt>
      <trkpt lat="44.11479" lon="3.35037">
        <ele>864</ele>
        <time>2017-03-04T18:24:05Z</time>
      </trkpt>
      <trkpt lat="44.11477" lon="3.35029">
        <ele>864</ele>
        <time>2017-03-04T18:26:05Z</time>
      </trkpt>
      <trkpt lat="44.11476" lon="3.35016">
        <ele>864</ele>
        <time>2017-03-04T18:28:05Z</time>
      </trkpt>
      <trkpt lat="44.11477" lon="3.35004">
        <ele>864</ele>
        <time>2017-03-04T18:30:05Z</time>
      </trkpt>
      <trkpt lat="44.1148" lon="3.3499">
        <ele>863</ele>
        <time>2017-03-04T18:32:05Z</time>
      </trkpt>
      <trkpt lat="44.11482" lon="3.34978">
        <ele>863</ele>
        <time>2017-03-04T18:34:05Z</time>
      </trkpt>
      <trkpt lat="44.11482" lon="3.34972">
        <ele>863</ele>
        <time>2017-03-04T18:36:05Z</time>
      </trkpt>
      <trkpt lat="44.11482" lon="3.34969">
        <ele>863</ele>
        <time>2017-03-04T18:38:05Z</time>
      </trkpt>
      <trkpt lat="44.11479" lon="3.34966">
        <ele>863</ele>
        <time>2017-03-04T18:40:05Z</time>
      </trkpt>
      <trkpt lat="44.11477" lon="3.34966">
        <ele>864</ele>
        <time>2017-03-04T18:42:05Z</time>
      </trkpt>
      <trkpt lat="44.11474" lon="3.34967">
        <ele>864</ele>
        <time>2017-03-04T18:44:05Z</time>
      </trkpt>
      <trkpt lat="44.11471" lon="3.34972">
        <ele>865</ele>
        <time>2017-03-04T18:46:05Z</time>
      </trkpt>
      <trkpt lat="44.11467" lon="3.34982">
        <ele>865</ele>
        <time>2017-03-04T18:48:05Z</time>
      </trkpt>
      <trkpt lat="44.1146" lon="3.35011">
        <ele>866</ele>
        <time>2017-03-04T18:50:05Z</time>
      </trkpt>
      <trkpt lat="44.11456" lon="3.35029">
        <ele>867</ele>
        <time>2017-03-04T18:52:05Z</time>
      </trkpt>
      <trkpt lat="44.11455" lon="3.35041">
        <ele>867</ele>
        <time>2017-03-04T18:54:05Z</time>
      </trkpt>
      <trkpt lat="44.11453" lon="3.35054">
        <ele>868</ele>
        <time>2017-03-04T18:56:05Z</time>
      </trkpt>
      <trkpt lat="44.11452" lon="3.35071">
        <ele>868</ele>
        <time>2017-03-04T18:58:05Z</time>
      </trkpt>
      <trkpt lat="44.11452" lon="3.35081">
        <ele>868</ele>
        <time>2017-03-04T19:00:05Z</time>
      </trkpt>
      <trkpt lat="44.11451" lon="3.35089">
        <ele>868</ele>
        <time>2017-03-04T19:02:05Z</time>
      </trkpt>
      <trkpt lat="44.11449" lon="3.35096">
        <ele>869</ele>
        <time>2017-03-04T19:04:05Z</time>
      </trkpt>
      <trkpt lat="44.11448" lon="3.351">
        <ele>869</ele>
        <time>2017-03-04T19:06:05Z</time>
      </trkpt>
      <trkpt lat="44.11446" lon="3.35103">
        <ele>869</ele>
        <time>2017-03-04T19:08:05Z</time>
      </trkpt>
      <trkpt lat="44.11443" lon="3.35107">
        <ele>870</ele>
        <time>2017-03-04T19:10:05Z</time>
      </trkpt>
      <trkpt lat="44.1144" lon="3.35112">
        <ele>870</ele>
        <time>2017-03-04T19:12:05Z</time>
      </trkpt>
      <trkpt lat="44.11432" lon="3.35122">
        <ele>871</ele>
        <time>2017-03-04T19:14:05Z</time>
      </trkpt>
      <trkpt lat="44.11432" lon="3.35122">
        <ele>871</ele>
        <time>2017-03-04T19:16:05Z</time>
      </trkpt>
      <trkpt lat="44.11427" lon="3.3511">
        <ele>871</ele>
        <time>2017-03-04T19:18:05Z</time>
      </trkpt>
      <trkpt lat="44.11427" lon="3.3511">
        <ele>871</ele>
        <time>2017-03-04T19:20:05Z</time>
      </trkpt>
      <trkpt lat="44.11415" lon="3.3511">
        <ele>872</ele>
        <time>2017-03-04T19:22:05Z</time>
      </trkpt>
      <trkpt lat="44.11408" lon="3.3511">
        <ele>872</ele>
        <time>2017-03-04T19:24:05Z</time>
      </trkpt>
      <trkpt lat="44.11401" lon="3.35114">
        <ele>872</ele>
        <time>2017-03-04T19:26:05Z</time>
      </trkpt>
      <trkpt lat="44.11388" lon="3.35127">
        <ele>872</ele>
        <time>2017-03-04T19:28:05Z</time>
      </trkpt>
      <trkpt lat="44.11372" lon="3.3514">
        <ele>872</ele>
        <time>2017-03-04T19:30:05Z</time>
      </trkpt>
      <trkpt lat="44.11366" lon="3.35148">
        <ele>872</ele>
        <time>2017-03-04T19:32:05Z</time>
      </trkpt>
      <trkpt lat="44.11363" lon="3.35152">
        <ele>872</ele>
        <time>2017-03-04T19:34:05Z</time>
      </trkpt>
      <trkpt lat="44.11359" lon="3.35164">
        <ele>872</ele>
        <time>2017-03-04T19:36:05Z</time>
      </trkpt>
      <trkpt lat="44.11356" lon="3.35178">
        <ele>873</ele>
        <time>2017-03-04T19:38:05Z</time>
      </trkpt>
      <trkpt lat="44.11348" lon="3.35201">
        <ele>873</ele>
        <time>2017-03-04T19:40:05Z</time>
      </trkpt>
      <trkpt lat="44.11328" lon="3.3525">
        <ele>875</ele>
        <time>2017-03-04T19:42:05Z</time>
      </trkpt>
      <trkpt lat="44.11319" lon="3.35277">
        <ele>876</ele>
        <time>2017-03-04T19:44:05Z</time>
      </trkpt>
      <trkpt lat="44.1131" lon="3.35292">
        <ele>877</ele>
        <time>2017-03-04T19:46:05Z</time>
      </trkpt>
      <trkpt lat="44.11298" lon="3.35306">
        <ele>878</ele>
        <time>2017-03-04T19:48:05Z</time>
      </trkpt>
      <trkpt lat="44.11284" lon="3.35314">
        <ele>878</ele>
        <time>2017-03-04T19:50:05Z</time>
      </trkpt>
      <trkpt lat="44.11278" lon="3.35317">
        <ele>878</ele>
        <time>2017-03-04T19:52:05Z</time>
      </trkpt>
      <trkpt lat="44.11275" lon="3.35323">
        <ele>878</ele>
        <time>2017-03-04T19:54:05Z</time>
      </trkpt>
      <trkpt lat="44.11272" lon="3.35341">
        <ele>880</ele>
        <time>2017-03-04T19:56:05Z</time>
      </trkpt>
      <trkpt lat="44.11267" lon="3.35374">
        <ele>883</ele>
        <time>2017-03-04T19:58:05Z</time>
      </trkpt>
      <trkpt lat="44.11266" lon="3.35379">
        <ele>883</ele>
        <time>2017-03-04T20:00:05Z</time>
      </trkpt>
      <trkpt lat="44.11265" lon="3.35379">
        <ele>883</ele>
        <time>2017-03-04T20:02:05Z</time>
      </trkpt>
      <trkpt lat="44.11193" lon="3.35452">
        <ele>895</ele>
        <time>2017-03-04T20:04:05Z</time>
      </trkpt>
      <trkpt lat="44.1111" lon="3.35459">
        <ele>906</ele>
        <time>2017-03-04T20:06:05Z</time>
      </trkpt>
      <trkpt lat="44.11065" lon="3.35897">
        <ele>897</ele>
        <time>2017-03-04T20:08:05Z</time>
      </trkpt>
      <trkpt lat="44.1107" lon="3.36141">
        <ele>889</ele>
        <time>2017-03-04T20:10:05Z</time>
      </trkpt>
      <trkpt lat="44.11064" lon="3.36253">
        <ele>887</ele>
        <time>2017-03-04T20:12:05Z</time>
      </trkpt>
      <trkpt lat="44.11002" lon="3.36422">
        <ele>887</ele>
        <time>2017-03-04T20:14:05Z</time>
      </trkpt>
      <trkpt lat="44.10885" lon="3.36527">
        <ele>884</ele>
        <time>2017-03-04T20:16:05Z</time>
      </trkpt>
      <trkpt lat="44.10917" lon="3.36579">
        <ele>884</ele>
        <time>2017-03-04T20:18:05Z</time>
      </trkpt>
      <trkpt lat="44.10905" lon="3.36612">
        <ele>884</ele>
        <time>2017-03-04T20:20:05Z</time>
      </trkpt>
      <trkpt lat="44.10913" lon="3.36618">
        <ele>885</ele>
        <time>2017-03-04T20:22:05Z</time>
      </trkpt>
      <trkpt lat="44.10924" lon="3.36626">
        <ele>885</ele>
        <time>2017-03-04T20:24:05Z</time>
      </trkpt>
      <trkpt lat="44.10931" lon="3.36632">
        <ele>885</ele>
        <time>2017-03-04T20:26:05Z</time>
      </trkpt>
      <trkpt lat="44.10938" lon="3.36636">
        <ele>885</ele>
        <time>2017-03-04T20:28:05Z</time>
      </trkpt>
      <trkpt lat="44.10942" lon="3.36642">
        <ele>885</ele>
        <time>2017-03-04T20:30:05Z</time>
      </trkpt>
      <trkpt lat="44.10948" lon="3.36651">
        <ele>885</ele>
        <time>2017-03-04T20:32:05Z</time>
      </trkpt>
      <trkpt lat="44.10958" lon="3.36666">
        <ele>885</ele>
        <time>2017-03-04T20:34:05Z</time>
      </trkpt>
      <trkpt lat="44.10972" lon="3.36687">
        <ele>885</ele>
        <time>2017-03-04T20:36:05Z</time>
      </trkpt>
      <trkpt lat="44.10982" lon="3.36702">
        <ele>885</ele>
        <time>2017-03-04T20:38:05Z</time>
      </trkpt>
      <trkpt lat="44.10991" lon="3.36719">
        <ele>885</ele>
        <time>2017-03-04T20:40:05Z</time>
      </trkpt>
      <trkpt lat="44.11002" lon="3.36736">
        <ele>885</ele>
        <time>2017-03-04T20:42:05Z</time>
      </trkpt>
      <trkpt lat="44.11017" lon="3.36755">
        <ele>885</ele>
        <time>2017-03-04T20:44:05Z</time>
      </trkpt>
      <trkpt lat="44.1102" lon="3.36759">
        <ele>885</ele>
        <time>2017-03-04T20:46:05Z</time>
      </trkpt>
      <trkpt lat="44.11022" lon="3.36762">
        <ele>885</ele>
        <time>2017-03-04T20:48:05Z</time>
      </trkpt>
      <trkpt lat="44.11023" lon="3.36768">
        <ele>885</ele>
        <time>2017-03-04T20:50:05Z</time>
      </trkpt>
      <trkpt lat="44.11034" lon="3.36775">
        <ele>885</ele>
        <time>2017-03-04T20:52:05Z</time>
      </trkpt>
      <trkpt lat="44.11034" lon="3.36775">
        <ele>885</ele>
        <time>2017-03-04T20:54:05Z</time>
      </trkpt>
      <trkpt lat="44.11016" lon="3.36786">
        <ele>884</ele>
        <time>2017-03-04T20:56:05Z</time>
      </trkpt>
      <trkpt lat="44.11016" lon="3.36786">
        <ele>884</ele>
        <time>2017-03-04T20:58:05Z</time>
      </trkpt>
      <trkpt lat="44.11022" lon="3.36788">
        <ele>885</ele>
        <time>2017-03-04T21:00:05Z</time>
      </trkpt>
      <trkpt lat="44.11026" lon="3.36789">
        <ele>885</ele>
        <time>2017-03-04T21:02:05Z</time>
      </trkpt>
      <trkpt lat="44.1103" lon="3.36791">
        <ele>885</ele>
        <time>2017-03-04T21:04:05Z</time>
      </trkpt>
      <trkpt lat="44.11033" lon="3.36793">
        <ele>885</ele>
        <time>2017-03-04T21:06:05Z</time>
      </trkpt>
      <trkpt lat="44.11036" lon="3.36796">
        <ele>885</ele>
        <time>2017-03-04T21:08:05Z</time>
      </trkpt>
      <trkpt lat="44.11051" lon="3.36809">
        <ele>885</ele>
        <time>2017-03-04T21:10:05Z</time>
      </trkpt>
      <trkpt lat="44.11062" lon="3.36819">
        <ele>885</ele>
        <time>2017-03-04T21:12:05Z</time>
      </trkpt>
      <trkpt lat="44.11068" lon="3.36826">
        <ele>885</ele>
        <time>2017-03-04T21:14:05Z</time>
      </trkpt>
      <trkpt lat="44.11071" lon="3.36831">
        <ele>886</ele>
        <time>2017-03-04T21:16:05Z</time>
      </trkpt>
      <trkpt lat="44.11074" lon="3.36838">
        <ele>886</ele>
        <time>2017-03-04T21:18:05Z</time>
      </trkpt>
      <trkpt lat="44.11075" lon="3.36847">
        <ele>886</ele>
        <time>2017-03-04T21:20:05Z</time>
      </trkpt>
      <trkpt lat="44.11077" lon="3.36855">
        <ele>886</ele>
        <time>2017-03-04T21:22:05Z</time>
      </trkpt>
      <trkpt lat="44.1108" lon="3.36864">
        <ele>886</ele>
        <time>2017-03-04T21:24:05Z</time>
      </trkpt>
      <trkpt lat="44.11084" lon="3.36874">
        <ele>887</ele>
        <time>2017-03-04T21:26:05Z</time>
      </trkpt>
      <trkpt lat="44.11087" lon="3.36884">
        <ele>887</ele>
        <time>2017-03-04T21:28:05Z</time>
      </trkpt>
      <trkpt lat="44.11089" lon="3.36895">
        <ele>887</ele>
        <time>2017-03-04T21:30:05Z</time>
      </trkpt>
      <trkpt lat="44.11094" lon="3.36915">
        <ele>887</ele>
        <time>2017-03-04T21:32:05Z</time>
      </trkpt>
      <trkpt lat="44.11098" lon="3.36926">
        <ele>888</ele>
        <time>2017-03-04T21:34:05Z</time>
      </trkpt>
      <trkpt lat="44.11103" lon="3.36935">
        <ele>888</ele>
        <time>2017-03-04T21:36:05Z</time>
      </trkpt>
      <trkpt lat="44.11108" lon="3.36947">
        <ele>889</ele>
        <time>2017-03-04T21:38:05Z</time>
      </trkpt>
      <trkpt lat="44.11111" lon="3.36955">
        <ele>889</ele>
        <time>2017-03-04T21:40:05Z</time>
      </trkpt>
      <trkpt lat="44.11114" lon="3.36964">
        <ele>889</ele>
        <time>2017-03-04T21:42:05Z</time>
      </trkpt>
      <trkpt lat="44.11118" lon="3.36979">
        <ele>890</ele>
        <time>2017-03-04T21:44:05Z</time>
      </trkpt>
      <trkpt lat="44.1112" lon="3.36988">
        <ele>890</ele>
        <time>2017-03-04T21:46:05Z</time>
      </trkpt>
      <trkpt lat="44.11122" lon="3.36997">
        <ele>890</ele>
        <time>2017-03-04T21:48:05Z</time>
      </trkpt>
      <trkpt lat="44.11122" lon="3.37008">
        <ele>890</ele>
        <time>2017-03-04T21:50:05Z</time>
      </trkpt>
      <trkpt lat="44.11122" lon="3.37023">
        <ele>890</ele>
        <time>2017-03-04T21:52:05Z</time>
      </trkpt>
      <trkpt lat="44.11123" lon="3.37039">
        <ele>890</ele>
        <time>2017-03-04T21:54:05Z</time>
      </trkpt>
      <trkpt lat="44.11116" lon="3.37067">
        <ele>891</ele>
        <time>2017-03-04T21:56:05Z</time>
      </trkpt>
      <trkpt lat="44.11112" lon="3.37114">
        <ele>892</ele>
        <time>2017-03-04T21:58:05Z</time>
      </trkpt>
      <trkpt lat="44.11107" lon="3.37158">
        <ele>893</ele>
        <time>2017-03-04T22:00:05Z</time>
      </trkpt>
      <trkpt lat="44.11104" lon="3.3719">
        <ele>895</ele>
        <time>2017-03-04T22:02:05Z</time>
      </trkpt>
      <trkpt lat="44.11101" lon="3.37222">
        <ele>895</ele>
        <time>2017-03-04T22:04:05Z</time>
      </trkpt>
      <trkpt lat="44.11098" lon="3.37251">
        <ele>896</ele>
        <time>2017-03-04T22:06:05Z</time>
      </trkpt>
      <trkpt lat="44.11096" lon="3.37273">
        <ele>897</ele>
        <time>2017-03-04T22:08:05Z</time>
      </trkpt>
      <trkpt lat="44.11094" lon="3.37294">
        <ele>898</ele>
        <time>2017-03-04T22:10:05Z</time>
      </trkpt>
      <trkpt lat="44.11094" lon="3.37315">
        <ele>898</ele>
        <time>2017-03-04T22:12:05Z</time>
      </trkpt>
      <trkpt lat="44.11093" lon="3.37335">
        <ele>899</ele>
        <time>2017-03-04T22:14:05Z</time>
      </trkpt>
      <trkpt lat="44.11094" lon="3.37357">
        <ele>900</ele>
        <time>2017-03-04T22:16:05Z</time>
      </trkpt>
      <trkpt lat="44.11095" lon="3.37377">
        <ele>901</ele>
        <time>2017-03-04T22:18:05Z</time>
      </trkpt>
      <trkpt lat="44.11096" lon="3.37391">
        <ele>902</ele>
        <time>2017-03-04T22:20:05Z</time>
      </trkpt>
      <trkpt lat="44.11098" lon="3.37409">
        <ele>903</ele>
        <time>2017-03-04T22:22:05Z</time>
      </trkpt>
      <trkpt lat="44.11101" lon="3.37425">
        <ele>904</ele>
        <time>2017-03-04T22:24:05Z</time>
      </trkpt>
      <trkpt lat="44.11104" lon="3.37447">
        <ele>904</ele>
        <time>2017-03-04T22:26:05Z</time>
      </trkpt>
      <trkpt lat="44.11106" lon="3.37462">
        <ele>905</ele>
        <time>2017-03-04T22:28:05Z</time>
      </trkpt>
      <trkpt lat="44.11109" lon="3.37477">
        <ele>905</ele>
        <time>2017-03-04T22:30:05Z</time>
      </trkpt>
      <trkpt lat="44.11112" lon="3.37487">
        <ele>906</ele>
        <time>2017-03-04T22:32:05Z</time>
      </trkpt>
      <trkpt lat="44.11116" lon="3.37496">
        <ele>906</ele>
        <time>2017-03-04T22:34:05Z</time>
      </trkpt>
      <trkpt lat="44.11123" lon="3.37521">
        <ele>905</ele>
        <time>2017-03-04T22:36:05Z</time>
      </trkpt>
      <trkpt lat="44.1113" lon="3.37542">
        <ele>904</ele>
        <time>2017-03-04T22:38:05Z</time>
      </trkpt>
      <trkpt lat="44.11137" lon="3.37564">
        <ele>904</ele>
        <time>2017-03-04T22:40:05Z</time>
      </trkpt>
      <trkpt lat="44.11144" lon="3.3759">
        <ele>903</ele>
        <time>2017-03-04T22:42:05Z</time>
      </trkpt>
      <trkpt lat="44.11152" lon="3.37612">
        <ele>902</ele>
        <time>2017-03-04T22:44:05Z</time>
      </trkpt>
      <trkpt lat="44.11157" lon="3.37628">
        <ele>902</ele>
        <time>2017-03-04T22:46:05Z</time>
      </trkpt>
      <trkpt lat="44.11163" lon="3.37646">
        <ele>901</ele>
        <time>2017-03-04T22:48:05Z</time>
      </trkpt>
      <trkpt lat="44.11169" lon="3.3766">
        <ele>901</ele>
        <time>2017-03-04T22:50:05Z</time>
      </trkpt>
      <trkpt lat="44.11169" lon="3.3766">
        <ele>901</ele>
        <time>2017-03-04T22:52:05Z</time>
      </trkpt>
      <trkpt lat="44.11174" lon="3.3767">
        <ele>901</ele>
        <time>2017-03-04T22:54:05Z</time>
      </trkpt>
      <trkpt lat="44.11181" lon="3.37681">
        <ele>901</ele>
        <time>2017-03-04T22:56:05Z</time>
      </trkpt>
      <trkpt lat="44.11193" lon="3.37702">
        <ele>900</ele>
        <time>2017-03-04T22:58:05Z</time>
      </trkpt>
      <trkpt lat="44.11209" lon="3.37723">
        <ele>901</ele>
        <time>2017-03-04T23:00:05Z</time>
      </trkpt>
      <trkpt lat="44.1122" lon="3.37739">
        <ele>902</ele>
        <time>2017-03-04T23:02:05Z</time>
      </trkpt>
      <trkpt lat="44.11233" lon="3.37757">
        <ele>904</ele>
        <time>2017-03-04T23:04:05Z</time>
      </trkpt>
      <trkpt lat="44.1124" lon="3.37772">
        <ele>905</ele>
        <time>2017-03-04T23:06:05Z</time>
      </trkpt>
      <trkpt lat="44.11247" lon="3.37783">
        <ele>906</ele>
        <time>2017-03-04T23:08:05Z</time>
      </trkpt>
      <trkpt lat="44.11251" lon="3.37797">
        <ele>907</ele>
        <time>2017-03-04T23:10:05Z</time>
      </trkpt>
      <trkpt lat="44.11254" lon="3.3781">
        <ele>907</ele>
        <time>2017-03-04T23:12:05Z</time>
      </trkpt>
      <trkpt lat="44.11256" lon="3.37824">
        <ele>907</ele>
        <time>2017-03-04T23:14:05Z</time>
      </trkpt>
      <trkpt lat="44.11258" lon="3.3784">
        <ele>908</ele>
        <time>2017-03-04T23:16:05Z</time>
      </trkpt>
      <trkpt lat="44.11259" lon="3.37856">
        <ele>908</ele>
        <time>2017-03-04T23:18:05Z</time>
      </trkpt>
      <trkpt lat="44.11261" lon="3.3787">
        <ele>908</ele>
        <time>2017-03-04T23:20:05Z</time>
      </trkpt>
      <trkpt lat="44.11263" lon="3.37885">
        <ele>908</ele>
        <time>2017-03-04T23:22:05Z</time>
      </trkpt>
      <trkpt lat="44.11266" lon="3.37904">
        <ele>909</ele>
        <time>2017-03-04T23:24:05Z</time>
      </trkpt>
      <trkpt lat="44.1127" lon="3.37919">
        <ele>910</ele>
        <time>2017-03-04T23:26:05Z</time>
      </trkpt>
      <trkpt lat="44.11275" lon="3.37932">
        <ele>911</ele>
        <time>2017-03-04T23:28:05Z</time>
      </trkpt>
      <trkpt lat="44.11279" lon="3.37946">
        <ele>912</ele>
        <time>2017-03-04T23:30:05Z</time>
      </trkpt>
      <trkpt lat="44.11283" lon="3.37957">
        <ele>912</ele>
        <time>2017-03-04T23:32:05Z</time>
      </trkpt>
      <trkpt lat="44.11285" lon="3.37967">
        <ele>913</ele>
        <time>2017-03-04T23:34:05Z</time>
      </trkpt>
      <trkpt lat="44.11286" lon="3.37976">
        <ele>913</ele>
        <time>2017-03-04T23:36:05Z</time>
      </trkpt>
      <trkpt lat="44.11285" lon="3.37984">
        <ele>913</ele>
        <time>2017-03-04T23:38:05Z</time>
      </trkpt>
      <trkpt lat="44.11283" lon="3.37993">
        <ele>912</ele>
        <time>2017-03-04T23:40:05Z</time>
      </trkpt>
      <trkpt lat="44.11279" lon="3.38003">
        <ele>911</ele>
        <time>2017-03-04T23:42:05Z</time>
      </trkpt>
      <trkpt lat="44.11273" lon="3.38014">
        <ele>910</ele>
        <time>2017-03-04T23:44:05Z</time>
      </trkpt>
      <trkpt lat="44.11263" lon="3.38032">
        <ele>909</ele>
        <time>2017-03-04T23:46:05Z</time>
      </trkpt>
      <trkpt lat="44.11255" lon="3.3805">
        <ele>907</ele>
        <time>2017-03-04T23:48:05Z</time>
      </trkpt>
      <trkpt lat="44.11245" lon="3.38068">
        <ele>906</ele>
        <time>2017-03-04T23:50:05Z</time>
      </trkpt>
      <trkpt lat="44.11241" lon="3.38078">
        <ele>905</ele>
        <time>2017-03-04T23:52:05Z</time>
      </trkpt>
      <trkpt lat="44.11238" lon="3.38084">
        <ele>905</ele>
        <time>2017-03-04T23:54:05Z</time>
      </trkpt>
      <trkpt lat="44.11234" lon="3.3809">
        <ele>905</ele>
        <time>2017-03-04T23:56:05Z</time>
      </trkpt>
      <trkpt lat="44.11232" lon="3.38092">
        <ele>904</ele>
        <time>2017-03-04T23:58:05Z</time>
      </trkpt>
      <trkpt lat="44.1123" lon="3.38095">
        <ele>904</ele>
        <time>2017-03-05T00:00:05Z</time>
      </trkpt>
      <trkpt lat="44.11226" lon="3.38106">
        <ele>904</ele>
        <time>2017-03-05T00:02:05Z</time>
      </trkpt>
      <trkpt lat="44.11222" lon="3.3812">
        <ele>904</ele>
        <time>2017-03-05T00:04:05Z</time>
      </trkpt>
      <trkpt lat="44.11219" lon="3.38132">
        <ele>904</ele>
        <time>2017-03-05T00:06:05Z</time>
      </trkpt>
      <trkpt lat="44.11216" lon="3.38153">
        <ele>905</ele>
        <time>2017-03-05T00:08:05Z</time>
      </trkpt>
      <trkpt lat="44.11212" lon="3.38172">
        <ele>905</ele>
        <time>2017-03-05T00:10:05Z</time>
      </trkpt>
      <trkpt lat="44.11209" lon="3.38183">
        <ele>904</ele>
        <time>2017-03-05T00:12:05Z</time>
      </trkpt>
      <trkpt lat="44.11209" lon="3.38183">
        <ele>904</ele>
        <time>2017-03-05T00:14:05Z</time>
      </trkpt>
      <trkpt lat="44.1122" lon="3.38185">
        <ele>905</ele>
        <time>2017-03-05T00:16:05Z</time>
      </trkpt>
      <trkpt lat="44.11234" lon="3.38191">
        <ele>905</ele>
        <time>2017-03-05T00:18:05Z</time>
      </trkpt>
      <trkpt lat="44.11244" lon="3.38197">
        <ele>906</ele>
        <time>2017-03-05T00:20:05Z</time>
      </trkpt>
      <trkpt lat="44.1125" lon="3.38202">
        <ele>905</ele>
        <time>2017-03-05T00:22:05Z</time>
      </trkpt>
      <trkpt lat="44.11256" lon="3.38208">
        <ele>906</ele>
        <time>2017-03-05T00:24:05Z</time>
      </trkpt>
      <trkpt lat="44.11265" lon="3.38218">
        <ele>907</ele>
        <time>2017-03-05T00:26:05Z</time>
      </trkpt>
      <trkpt lat="44.11273" lon="3.38227">
        <ele>908</ele>
        <time>2017-03-05T00:28:05Z</time>
      </trkpt>
      <trkpt lat="44.11283" lon="3.38237">
        <ele>909</ele>
        <time>2017-03-05T00:30:05Z</time>
      </trkpt>
      <trkpt lat="44.11294" lon="3.38252">
        <ele>910</ele>
        <time>2017-03-05T00:32:05Z</time>
      </trkpt>
      <trkpt lat="44.11307" lon="3.38268">
        <ele>909</ele>
        <time>2017-03-05T00:34:05Z</time>
      </trkpt>
      <trkpt lat="44.11315" lon="3.38277">
        <ele>909</ele>
        <time>2017-03-05T00:36:05Z</time>
      </trkpt>
      <trkpt lat="44.11329" lon="3.38289">
        <ele>910</ele>
        <time>2017-03-05T00:38:05Z</time>
      </trkpt>
      <trkpt lat="44.11342" lon="3.38299">
        <ele>910</ele>
        <time>2017-03-05T00:40:05Z</time>
      </trkpt>
      <trkpt lat="44.11354" lon="3.38306">
        <ele>910</ele>
        <time>2017-03-05T00:42:05Z</time>
      </trkpt>
      <trkpt lat="44.11365" lon="3.38313">
        <ele>911</ele>
        <time>2017-03-05T00:44:05Z</time>
      </trkpt>
      <trkpt lat="44.11375" lon="3.38319">
        <ele>911</ele>
        <time>2017-03-05T00:46:05Z</time>
      </trkpt>
      <trkpt lat="44.11383" lon="3.38326">
        <ele>911</ele>
        <time>2017-03-05T00:48:05Z</time>
      </trkpt>
      <trkpt lat="44.11392" lon="3.38335">
        <ele>911</ele>
        <time>2017-03-05T00:50:05Z</time>
      </trkpt>
      <trkpt lat="44.11403" lon="3.38345">
        <ele>911</ele>
        <time>2017-03-05T00:52:05Z</time>
      </trkpt>
      <trkpt lat="44.1141" lon="3.38352">
        <ele>911</ele>
        <time>2017-03-05T00:54:05Z</time>
      </trkpt>
      <trkpt lat="44.11416" lon="3.38356">
        <ele>911</ele>
        <time>2017-03-05T00:56:05Z</time>
      </trkpt>
      <trkpt lat="44.11421" lon="3.38358">
        <ele>911</ele>
        <time>2017-03-05T00:58:05Z</time>
      </trkpt>
      <trkpt lat="44.11428" lon="3.3836">
        <ele>912</ele>
        <time>2017-03-05T01:00:05Z</time>
      </trkpt>
      <trkpt lat="44.11434" lon="3.38362">
        <ele>913</ele>
        <time>2017-03-05T01:02:05Z</time>
      </trkpt>
      <trkpt lat="44.11443" lon="3.38364">
        <ele>914</ele>
        <time>2017-03-05T01:04:05Z</time>
      </trkpt>
      <trkpt lat="44.11452" lon="3.38367">
        <ele>915</ele>
        <time>2017-03-05T01:06:05Z</time>
      </trkpt>
      <trkpt lat="44.11461" lon="3.38373">
        <ele>915</ele>
        <time>2017-03-05T01:08:05Z</time>
      </trkpt>
      <trkpt lat="44.11472" lon="3.38383">
        <ele>915</ele>
        <time>2017-03-05T01:10:05Z</time>
      </trkpt>
      <trkpt lat="44.11479" lon="3.38393">
        <ele>915</ele>
        <time>2017-03-05T01:12:05Z</time>
      </trkpt>
      <trkpt lat="44.11486" lon="3.38405">
        <ele>914</ele>
        <time>2017-03-05T01:14:05Z</time>
      </trkpt>
      <trkpt lat="44.11502" lon="3.38436">
        <ele>912</ele>
        <time>2017-03-05T01:16:05Z</time>
      </trkpt>
      <trkpt lat="44.11508" lon="3.38451">
        <ele>911</ele>
        <time>2017-03-05T01:18:05Z</time>
      </trkpt>
      <trkpt lat="44.11517" lon="3.38473">
        <ele>911</ele>
        <time>2017-03-05T01:20:05Z</time>
      </trkpt>
      <trkpt lat="44.11522" lon="3.38489">
        <ele>910</ele>
        <time>2017-03-05T01:22:05Z</time>
      </trkpt>
      <trkpt lat="44.11525" lon="3.38502">
        <ele>909</ele>
        <time>2017-03-05T01:24:05Z</time>
      </trkpt>
      <trkpt lat="44.11527" lon="3.38512">
        <ele>909</ele>
        <time>2017-03-05T01:26:05Z</time>
      </trkpt>
      <trkpt lat="44.11529" lon="3.3852">
        <ele>909</ele>
        <time>2017-03-05T01:28:05Z</time>
      </trkpt>
      <trkpt lat="44.11531" lon="3.38529">
        <ele>910</ele>
        <time>2017-03-05T01:30:05Z</time>
      </trkpt>
      <trkpt lat="44.11537" lon="3.38541">
        <ele>911</ele>
        <time>2017-03-05T01:32:05Z</time>
      </trkpt>
      <trkpt lat="44.11542" lon="3.38552">
        <ele>911</ele>
        <time>2017-03-05T01:34:05Z</time>
      </trkpt>
      <trkpt lat="44.1155" lon="3.38565">
        <ele>912</ele>
        <time>2017-03-05T01:36:05Z</time>
      </trkpt>
      <trkpt lat="44.11559" lon="3.38575">
        <ele>914</ele>
        <time>2017-03-05T01:38:05Z</time>
      </trkpt>
      <trkpt lat="44.11571" lon="3.38589">
        <ele>916</ele>
        <time>2017-03-05T01:40:05Z</time>
      </trkpt>
      <trkpt lat="44.1158" lon="3.38597">
        <ele>919</ele>
        <time>2017-03-05T01:42:05Z</time>
      </trkpt>
      <trkpt lat="44.11594" lon="3.38614">
        <ele>921</ele>
        <time>2017-03-05T01:44:05Z</time>
      </trkpt>
      <trkpt lat="44.11605" lon="3.38627">
        <ele>922</ele>
        <time>2017-03-05T01:46:05Z</time>
      </trkpt>
      <trkpt lat="44.11619" lon="3.38648">
        <ele>923</ele>
        <time>2017-03-05T01:48:05Z</time>
      </trkpt>
      <trkpt lat="44.11638" lon="3.38672">
        <ele>923</ele>
        <time>2017-03-05T01:50:05Z</time>
      </trkpt>
      <trkpt lat="44.11661" lon="3.38701">
        <ele>925</ele>
        <time>2017-03-05T01:52:05Z</time>
      </trkpt>
      <trkpt lat="44.11679" lon="3.38724">
        <ele>926</ele>
        <time>2017-03-05T01:54:05Z</time>
      </trkpt>
      <trkpt lat="44.11693" lon="3.38743">
        <ele>927</ele>
        <time>2017-03-05T01:56:05Z</time>
      </trkpt>
      <trkpt lat="44.117" lon="3.38752">
        <ele>927</ele>
        <time>2017-03-05T01:58:05Z</time>
      </trkpt>
      <trkpt lat="44.11708" lon="3.38761">
        <ele>928</ele>
        <time>2017-03-05T02:00:05Z</time>
      </trkpt>
      <trkpt lat="44.11714" lon="3.3877">
        <ele>929</ele>
        <time>2017-03-05T02:02:05Z</time>
      </trkpt>
      <trkpt lat="44.11718" lon="3.38776">
        <ele>929</ele>
        <time>2017-03-05T02:04:05Z</time>
      </trkpt>
      <trkpt lat="44.11732" lon="3.38791">
        <ele>930</ele>
        <time>2017-03-05T02:06:05Z</time>
      </trkpt>
      <trkpt lat="44.11749" lon="3.38807">
        <ele>930</ele>
        <time>2017-03-05T02:08:05Z</time>
      </trkpt>
      <trkpt lat="44.11758" lon="3.38816">
        <ele>931</ele>
        <time>2017-03-05T02:10:05Z</time>
      </trkpt>
      <trkpt lat="44.1177" lon="3.38823">
        <ele>932</ele>
        <time>2017-03-05T02:12:05Z</time>
      </trkpt>
      <trkpt lat="44.11784" lon="3.38831">
        <ele>932</ele>
        <time>2017-03-05T02:14:05Z</time>
      </trkpt>
      <trkpt lat="44.118" lon="3.38838">
        <ele>932</ele>
        <time>2017-03-05T02:16:05Z</time>
      </trkpt>
      <trkpt lat="44.11816" lon="3.38842">
        <ele>932</ele>
        <time>2017-03-05T02:18:05Z</time>
      </trkpt>
      <trkpt lat="44.11824" lon="3.38842">
        <ele>932</ele>
        <time>2017-03-05T02:20:05Z</time>
      </trkpt>
      <trkpt lat="44.11831" lon="3.3884">
        <ele>932</ele>
        <time>2017-03-05T02:22:05Z</time>
      </trkpt>
      <trkpt lat="44.11836" lon="3.38836">
        <ele>932</ele>
        <time>2017-03-05T02:24:05Z</time>
      </trkpt>
      <trkpt lat="44.1184" lon="3.38835">
        <ele>932</ele>
        <time>2017-03-05T02:26:05Z</time>
      </trkpt>
      <trkpt lat="44.11845" lon="3.38836">
        <ele>931</ele>
        <time>2017-03-05T02:28:05Z</time>
      </trkpt>
      <trkpt lat="44.11849" lon="3.38839">
        <ele>931</ele>
        <time>2017-03-05T02:30:05Z</time>
      </trkpt>
      <trkpt lat="44.11858" lon="3.38849">
        <ele>931</ele>
        <time>2017-03-05T02:32:05Z</time>
      </trkpt>
      <trkpt lat="44.11868" lon="3.3886">
        <ele>930</ele>
        <time>2017-03-05T02:34:05Z</time>
      </trkpt>
      <trkpt lat="44.11875" lon="3.38868">
        <ele>930</ele>
        <time>2017-03-05T02:36:05Z</time>
      </trkpt>
      <trkpt lat="44.1188" lon="3.38874">
        <ele>930</ele>
        <time>2017-03-05T02:38:05Z</time>
      </trkpt>
      <trkpt lat="44.11885" lon="3.38886">
        <ele>929</ele>
        <time>2017-03-05T02:40:05Z</time>
      </trkpt>
      <trkpt lat="44.11893" lon="3.38901">
        <ele>929</ele>
        <time>2017-03-05T02:42:05Z</time>
      </trkpt>
      <trkpt lat="44.11901" lon="3.38915">
        <ele>929</ele>
        <time>2017-03-05T02:44:05Z</time>
      </trkpt>
      <trkpt lat="44.11909" lon="3.38928">
        <ele>929</ele>
        <time>2017-03-05T02:46:05Z</time>
      </trkpt>
      <trkpt lat="44.11914" lon="3.38935">
        <ele>930</ele>
        <time>2017-03-05T02:48:05Z</time>
      </trkpt>
      <trkpt lat="44.11921" lon="3.38942">
        <ele>930</ele>
        <time>2017-03-05T02:50:05Z</time>
      </trkpt>
      <trkpt lat="44.11926" lon="3.38948">
        <ele>930</ele>
        <time>2017-03-05T02:52:05Z</time>
      </trkpt>
      <trkpt lat="44.11935" lon="3.38956">
        <ele>931</ele>
        <time>2017-03-05T02:54:05Z</time>
      </trkpt>
      <trkpt lat="44.11958" lon="3.38975">
        <ele>932</ele>
        <time>2017-03-05T02:56:05Z</time>
      </trkpt>
      <trkpt lat="44.11977" lon="3.38988">
        <ele>932</ele>
        <time>2017-03-05T02:58:05Z</time>
      </trkpt>
      <trkpt lat="44.11989" lon="3.38996">
        <ele>932</ele>
        <time>2017-03-05T03:00:05Z</time>
      </trkpt>
      <trkpt lat="44.12" lon="3.39006">
        <ele>932</ele>
        <time>2017-03-05T03:02:05Z</time>
      </trkpt>
      <trkpt lat="44.12009" lon="3.39016">
        <ele>933</ele>
        <time>2017-03-05T03:04:05Z</time>
      </trkpt>
      <trkpt lat="44.1202" lon="3.39026">
        <ele>933</ele>
        <time>2017-03-05T03:06:05Z</time>
      </trkpt>
      <trkpt lat="44.1203" lon="3.39032">
        <ele>933</ele>
        <time>2017-03-05T03:08:05Z</time>
      </trkpt>
      <trkpt lat="44.12035" lon="3.39037">
        <ele>934</ele>
        <time>2017-03-05T03:10:05Z</time>
      </trkpt>
      <trkpt lat="44.12043" lon="3.39045">
        <ele>934</ele>
        <time>2017-03-05T03:12:05Z</time>
      </trkpt>
      <trkpt lat="44.12054" lon="3.39054">
        <ele>934</ele>
        <time>2017-03-05T03:14:05Z</time>
      </trkpt>
      <trkpt lat="44.12064" lon="3.39061">
        <ele>934</ele>
        <time>2017-03-05T03:16:05Z</time>
      </trkpt>
      <trkpt lat="44.12074" lon="3.39068">
        <ele>935</ele>
        <time>2017-03-05T03:18:05Z</time>
      </trkpt>
      <trkpt lat="44.12085" lon="3.39072">
        <ele>935</ele>
        <time>2017-03-05T03:20:05Z</time>
      </trkpt>
      <trkpt lat="44.12098" lon="3.39076">
        <ele>935</ele>
        <time>2017-03-05T03:22:05Z</time>
      </trkpt>
      <trkpt lat="44.12112" lon="3.3908">
        <ele>935</ele>
        <time>2017-03-05T03:24:05Z</time>
      </trkpt>
      <trkpt lat="44.12125" lon="3.39085">
        <ele>936</ele>
        <time>2017-03-05T03:26:05Z</time>
      </trkpt>
      <trkpt lat="44.12139" lon="3.39092">
        <ele>936</ele>
        <time>2017-03-05T03:28:05Z</time>
      </trkpt>
      <trkpt lat="44.12152" lon="3.39098">
        <ele>936</ele>
        <time>2017-03-05T03:30:05Z</time>
      </trkpt>
      <trkpt lat="44.12159" lon="3.39101">
        <ele>936</ele>
        <time>2017-03-05T03:32:05Z</time>
      </trkpt>
      <trkpt lat="44.12172" lon="3.39109">
        <ele>937</ele>
        <time>2017-03-05T03:34:05Z</time>
      </trkpt>
      <trkpt lat="44.12192" lon="3.39121">
        <ele>938</ele>
        <time>2017-03-05T03:36:05Z</time>
      </trkpt>
      <trkpt lat="44.12211" lon="3.39133">
        <ele>939</ele>
        <time>2017-03-05T03:38:05Z</time>
      </trkpt>
      <trkpt lat="44.12227" lon="3.39146">
        <ele>940</ele>
        <time>2017-03-05T03:40:05Z</time>
      </trkpt>
      <trkpt lat="44.12246" lon="3.39163">
        <ele>941</ele>
        <time>2017-03-05T03:42:05Z</time>
      </trkpt>
      <trkpt lat="44.1227" lon="3.39183">
        <ele>942</ele>
        <time>2017-03-05T03:44:05Z</time>
      </trkpt>
      <trkpt lat="44.12292" lon="3.39199">
        <ele>943</ele>
        <time>2017-03-05T03:46:05Z</time>
      </trkpt>
      <trkpt lat="44.12302" lon="3.39204">
        <ele>943</ele>
        <time>2017-03-05T03:48:05Z</time>
      </trkpt>
      <trkpt lat="44.12314" lon="3.39202">
        <ele>943</ele>
        <time>2017-03-05T03:50:05Z</time>
      </trkpt>
      <trkpt lat="44.12326" lon="3.39196">
        <ele>944</ele>
        <time>2017-03-05T03:52:05Z</time>
      </trkpt>
      <trkpt lat="44.12333" lon="3.39196">
        <ele>944</ele>
        <time>2017-03-05T03:54:05Z</time>
      </trkpt>
      <trkpt lat="44.12343" lon="3.39197">
        <ele>944</ele>
        <time>2017-03-05T03:56:05Z</time>
      </trkpt>
      <trkpt lat="44.12343" lon="3.39197">
        <ele>944</ele>
        <time>2017-03-05T03:58:05Z</time>
      </trkpt>
      <trkpt lat="44.12327" lon="3.3923">
        <ele>941</ele>
        <time>2017-03-05T04:00:05Z</time>
      </trkpt>
      <trkpt lat="44.12318" lon="3.39254">
        <ele>940</ele>
        <time>2017-03-05T04:02:05Z</time>
      </trkpt>
      <trkpt lat="44.12312" lon="3.3928">
        <ele>938</ele>
        <time>2017-03-05T04:04:05Z</time>
      </trkpt>
      <trkpt lat="44.12309" lon="3.39307">
        <ele>936</ele>
        <time>2017-03-05T04:06:05Z</time>
      </trkpt>
      <trkpt lat="44.12307" lon="3.3933">
        <ele>934</ele>
        <time>2017-03-05T04:08:05Z</time>
      </trkpt>
      <trkpt lat="44.12303" lon="3.3935">
        <ele>932</ele>
        <time>2017-03-05T04:10:05Z</time>
      </trkpt>
      <trkpt lat="44.12299" lon="3.39366">
        <ele>931</ele>
        <time>2017-03-05T04:12:05Z</time>
      </trkpt>
      <trkpt lat="44.12296" lon="3.39377">
        <ele>929</ele>
        <time>2017-03-05T04:14:05Z</time>
      </trkpt>
      <trkpt lat="44.12295" lon="3.39384">
        <ele>929</ele>
        <time>2017-03-05T04:16:05Z</time>
      </trkpt>
      <trkpt lat="44.12298" lon="3.39403">
        <ele>927</ele>
        <time>2017-03-05T04:18:05Z</time>
      </trkpt>
      <trkpt lat="44.12298" lon="3.39403">
        <ele>927</ele>
        <time>2017-03-05T04:20:05Z</time>
      </trkpt>
      <trkpt lat="44.12293" lon="3.39408">
        <ele>926</ele>
        <time>2017-03-05T04:22:05Z</time>
      </trkpt>
      <trkpt lat="44.12286" lon="3.39411">
        <ele>926</ele>
        <time>2017-03-05T04:24:05Z</time>
      </trkpt>
      <trkpt lat="44.12257" lon="3.39409">
        <ele>925</ele>
        <time>2017-03-05T04:26:05Z</time>
      </trkpt>
      <trkpt lat="44.1224" lon="3.3941">
        <ele>925</ele>
        <time>2017-03-05T04:28:05Z</time>
      </trkpt>
      <trkpt lat="44.1223" lon="3.39413">
        <ele>925</ele>
        <time>2017-03-05T04:30:05Z</time>
      </trkpt>
      <trkpt lat="44.12215" lon="3.3943">
        <ele>924</ele>
        <time>2017-03-05T04:32:05Z</time>
      </trkpt>
      <trkpt lat="44.12197" lon="3.39464">
        <ele>920</ele>
        <time>2017-03-05T04:34:05Z</time>
      </trkpt>
      <trkpt lat="44.12188" lon="3.39487">
        <ele>917</ele>
        <time>2017-03-05T04:36:05Z</time>
      </trkpt>
      <trkpt lat="44.12184" lon="3.39496">
        <ele>916</ele>
        <time>2017-03-05T04:38:05Z</time>
      </trkpt>
      <trkpt lat="44.12174" lon="3.39503">
        <ele>914</ele>
        <time>2017-03-05T04:40:05Z</time>
      </trkpt>
      <trkpt lat="44.12164" lon="3.39506">
        <ele>914</ele>
        <time>2017-03-05T04:42:05Z</time>
      </trkpt>
      <trkpt lat="44.12142" lon="3.39503">
        <ele>915</ele>
        <time>2017-03-05T04:44:05Z</time>
      </trkpt>
      <trkpt lat="44.12128" lon="3.39503">
        <ele>915</ele>
        <time>2017-03-05T04:46:05Z</time>
      </trkpt>
      <trkpt lat="44.12116" lon="3.39505">
        <ele>915</ele>
        <time>2017-03-05T04:48:05Z</time>
      </trkpt>
      <trkpt lat="44.12103" lon="3.39515">
        <ele>912</ele>
        <time>2017-03-05T04:50:05Z</time>
      </trkpt>
      <trkpt lat="44.12093" lon="3.39524">
        <ele>910</ele>
        <time>2017-03-05T04:52:05Z</time>
      </trkpt>
      <trkpt lat="44.12079" lon="3.39529">
        <ele>908</ele>
        <time>2017-03-05T04:54:05Z</time>
      </trkpt>
      <trkpt lat="44.12055" lon="3.39537">
        <ele>908</ele>
        <time>2017-03-05T04:56:05Z</time>
      </trkpt>
      <trkpt lat="44.1203" lon="3.39559">
        <ele>902</ele>
        <time>2017-03-05T04:58:05Z</time>
      </trkpt>
      <trkpt lat="44.11991" lon="3.39592">
        <ele>895</ele>
        <time>2017-03-05T05:00:05Z</time>
      </trkpt>
      <trkpt lat="44.11956" lon="3.39621">
        <ele>894</ele>
        <time>2017-03-05T05:02:05Z</time>
      </trkpt>
      <trkpt lat="44.11925" lon="3.39653">
        <ele>886</ele>
        <time>2017-03-05T05:04:05Z</time>
      </trkpt>
      <trkpt lat="44.11901" lon="3.39678">
        <ele>884</ele>
        <time>2017-03-05T05:06:05Z</time>
      </trkpt>
      <trkpt lat="44.11901" lon="3.39678">
        <ele>884</ele>
        <time>2017-03-05T05:08:05Z</time>
      </trkpt>
      <trkpt lat="44.11906" lon="3.39675">
        <ele>883</ele>
        <time>2017-03-05T05:10:05Z</time>
      </trkpt>
      <trkpt lat="44.11917" lon="3.39673">
        <ele>881</ele>
        <time>2017-03-05T05:12:05Z</time>
      </trkpt>
      <trkpt lat="44.11933" lon="3.3967">
        <ele>881</ele>
        <time>2017-03-05T05:14:05Z</time>
      </trkpt>
      <trkpt lat="44.11953" lon="3.39665">
        <ele>880</ele>
        <time>2017-03-05T05:16:05Z</time>
      </trkpt>
      <trkpt lat="44.11959" lon="3.39665">
        <ele>880</ele>
        <time>2017-03-05T05:18:05Z</time>
      </trkpt>
      <trkpt lat="44.11961" lon="3.39666">
        <ele>880</ele>
        <time>2017-03-05T05:20:05Z</time>
      </trkpt>
      <trkpt lat="44.11961" lon="3.39668">
        <ele>880</ele>
        <time>2017-03-05T05:22:05Z</time>
      </trkpt>
      <trkpt lat="44.11961" lon="3.39668">
        <ele>880</ele>
        <time>2017-03-05T05:24:05Z</time>
      </trkpt>
      <trkpt lat="44.11961" lon="3.39672">
        <ele>880</ele>
        <time>2017-03-05T05:26:05Z</time>
      </trkpt>
      <trkpt lat="44.11951" lon="3.39683">
        <ele>881</ele>
        <time>2017-03-05T05:28:05Z</time>
      </trkpt>
      <trkpt lat="44.11931" lon="3.39701">
        <ele>881</ele>
        <time>2017-03-05T05:30:05Z</time>
      </trkpt>
      <trkpt lat="44.11914" lon="3.39715">
        <ele>880</ele>
        <time>2017-03-05T05:32:05Z</time>
      </trkpt>
      <trkpt lat="44.11903" lon="3.39725">
        <ele>880</ele>
        <time>2017-03-05T05:34:05Z</time>
      </trkpt>
      <trkpt lat="44.11896" lon="3.39735">
        <ele>879</ele>
        <time>2017-03-05T05:36:05Z</time>
      </trkpt>
      <trkpt lat="44.1189" lon="3.39743">
        <ele>879</ele>
        <time>2017-03-05T05:38:05Z</time>
      </trkpt>
      <trkpt lat="44.11886" lon="3.39737">
        <ele>879</ele>
        <time>2017-03-05T05:40:05Z</time>
      </trkpt>
      <trkpt lat="44.11834" lon="3.39761">
        <ele>875</ele>
        <time>2017-03-05T05:42:05Z</time>
      </trkpt>
      <trkpt lat="44.11697" lon="3.39916">
        <ele>876</ele>
        <time>2017-03-05T05:44:05Z</time>
      </trkpt>
      <trkpt lat="44.11651" lon="3.40182">
        <ele>817</ele>
        <time>2017-03-05T05:46:05Z</time>
      </trkpt>
      <trkpt lat="44.11609" lon="3.4028">
        <ele>802</ele>
        <time>2017-03-05T05:48:05Z</time>
      </trkpt>
      <trkpt lat="44.11444" lon="3.40373">
        <ele>779</ele>
        <time>2017-03-05T05:50:05Z</time>
      </trkpt>
      <trkpt lat="44.11367" lon="3.40283">
        <ele>782</ele>
        <time>2017-03-05T05:52:05Z</time>
      </trkpt>
      <trkpt lat="44.11187" lon="3.40197">
        <ele>745</ele>
        <time>2017-03-05T05:54:05Z</time>
      </trkpt>
      <trkpt lat="44.11057" lon="3.4021">
        <ele>725</ele>
        <time>2017-03-05T05:56:05Z</time>
      </trkpt>
      <trkpt lat="44.10997" lon="3.40235">
        <ele>715</ele>
        <time>2017-03-05T05:58:05Z</time>
      </trkpt>
      <trkpt lat="44.11001" lon="3.40214">
        <ele>720</ele>
        <time>2017-03-05T06:00:05Z</time>
      </trkpt>
      <trkpt lat="44.10988" lon="3.40209">
        <ele>720</ele>
        <time>2017-03-05T06:02:05Z</time>
      </trkpt>
      <trkpt lat="44.10973" lon="3.40204">
        <ele>719</ele>
        <time>2017-03-05T06:04:05Z</time>
      </trkpt>
      <trkpt lat="44.10962" lon="3.40197">
        <ele>719</ele>
        <time>2017-03-05T06:06:05Z</time>
      </trkpt>
      <trkpt lat="44.10945" lon="3.40188">
        <ele>718</ele>
        <time>2017-03-05T06:08:05Z</time>
      </trkpt>
      <trkpt lat="44.10927" lon="3.40173">
        <ele>717</ele>
        <time>2017-03-05T06:10:05Z</time>
      </trkpt>
      <trkpt lat="44.10908" lon="3.40155">
        <ele>716</ele>
        <time>2017-03-05T06:12:05Z</time>
      </trkpt>
      <trkpt lat="44.10879" lon="3.40125">
        <ele>716</ele>
        <time>2017-03-05T06:14:05Z</time>
      </trkpt>
      <trkpt lat="44.10852" lon="3.40099">
        <ele>713</ele>
        <time>2017-03-05T06:16:05Z</time>
      </trkpt>
      <trkpt lat="44.10841" lon="3.40087">
        <ele>710</ele>
        <time>2017-03-05T06:18:05Z</time>
      </trkpt>
      <trkpt lat="44.10832" lon="3.40076">
        <ele>709</ele>
        <time>2017-03-05T06:20:05Z</time>
      </trkpt>
      <trkpt lat="44.10824" lon="3.40065">
        <ele>710</ele>
        <time>2017-03-05T06:22:05Z</time>
      </trkpt>
      <trkpt lat="44.10817" lon="3.40056">
        <ele>710</ele>
        <time>2017-03-05T06:24:05Z</time>
      </trkpt>
      <trkpt lat="44.10811" lon="3.40046">
        <ele>711</ele>
        <time>2017-03-05T06:26:05Z</time>
      </trkpt>
      <trkpt lat="44.108" lon="3.40029">
        <ele>711</ele>
        <time>2017-03-05T06:28:05Z</time>
      </trkpt>
      <trkpt lat="44.10793" lon="3.4002">
        <ele>711</ele>
        <time>2017-03-05T06:30:05Z</time>
      </trkpt>
      <trkpt lat="44.10781" lon="3.4001">
        <ele>710</ele>
        <time>2017-03-05T06:32:05Z</time>
      </trkpt>
      <trkpt lat="44.10753" lon="3.39988">
        <ele>710</ele>
        <time>2017-03-05T06:34:05Z</time>
      </trkpt>
      <trkpt lat="44.1072" lon="3.39966">
        <ele>710</ele>
        <time>2017-03-05T06:36:05Z</time>
      </trkpt>
      <trkpt lat="44.10677" lon="3.3994">
        <ele>709</ele>
        <time>2017-03-05T06:38:05Z</time>
      </trkpt>
      <trkpt lat="44.10652" lon="3.39925">
        <ele>708</ele>
        <time>2017-03-05T06:40:05Z</time>
      </trkpt>
      <trkpt lat="44.10636" lon="3.39916">
        <ele>709</ele>
        <time>2017-03-05T06:42:05Z</time>
      </trkpt>
      <trkpt lat="44.10623" lon="3.39911">
        <ele>710</ele>
        <time>2017-03-05T06:44:05Z</time>
      </trkpt>
      <trkpt lat="44.10612" lon="3.39908">
        <ele>710</ele>
        <time>2017-03-05T06:46:05Z</time>
      </trkpt>
      <trkpt lat="44.106" lon="3.39905">
        <ele>711</ele>
        <time>2017-03-05T06:48:05Z</time>
      </trkpt>
      <trkpt lat="44.10586" lon="3.39905">
        <ele>710</ele>
        <time>2017-03-05T06:50:05Z</time>
      </trkpt>
      <trkpt lat="44.10571" lon="3.39907">
        <ele>711</ele>
        <time>2017-03-05T06:52:05Z</time>
      </trkpt>
      <trkpt lat="44.10559" lon="3.39912">
        <ele>710</ele>
        <time>2017-03-05T06:54:05Z</time>
      </trkpt>
      <trkpt lat="44.10547" lon="3.39917">
        <ele>710</ele>
        <time>2017-03-05T06:56:05Z</time>
      </trkpt>
      <trkpt lat="44.10536" lon="3.39918">
        <ele>711</ele>
        <time>2017-03-05T06:58:05Z</time>
      </trkpt>
      <trkpt lat="44.10525" lon="3.39921">
        <ele>711</ele>
        <time>2017-03-05T07:00:05Z</time>
      </trkpt>
      <trkpt lat="44.10514" lon="3.39921">
        <ele>712</ele>
        <time>2017-03-05T07:02:05Z</time>
      </trkpt>
      <trkpt lat="44.10505" lon="3.39923">
        <ele>713</ele>
        <time>2017-03-05T07:04:05Z</time>
      </trkpt>
      <trkpt lat="44.10497" lon="3.39926">
        <ele>714</ele>
        <time>2017-03-05T07:06:05Z</time>
      </trkpt>
      <trkpt lat="44.1049" lon="3.39932">
        <ele>715</ele>
        <time>2017-03-05T07:08:05Z</time>
      </trkpt>
      <trkpt lat="44.10483" lon="3.39937">
        <ele>716</ele>
        <time>2017-03-05T07:10:05Z</time>
      </trkpt>
      <trkpt lat="44.10474" lon="3.39947">
        <ele>716</ele>
        <time>2017-03-05T07:12:05Z</time>
      </trkpt>
      <trkpt lat="44.10463" lon="3.39961">
        <ele>716</ele>
        <time>2017-03-05T07:14:05Z</time>
      </trkpt>
      <trkpt lat="44.10447" lon="3.39984">
        <ele>714</ele>
        <time>2017-03-05T07:16:05Z</time>
      </trkpt>
      <trkpt lat="44.1043" lon="3.40006">
        <ele>712</ele>
        <time>2017-03-05T07:18:05Z</time>
      </trkpt>
      <trkpt lat="44.1041" lon="3.40028">
        <ele>713</ele>
        <time>2017-03-05T07:20:05Z</time>
      </trkpt>
      <trkpt lat="44.10388" lon="3.4005">
        <ele>713</ele>
        <time>2017-03-05T07:22:05Z</time>
      </trkpt>
      <trkpt lat="44.1038" lon="3.40057">
        <ele>712</ele>
        <time>2017-03-05T07:24:05Z</time>
      </trkpt>
      <trkpt lat="44.10374" lon="3.40062">
        <ele>712</ele>
        <time>2017-03-05T07:26:05Z</time>
      </trkpt>
      <trkpt lat="44.10364" lon="3.40066">
        <ele>712</ele>
        <time>2017-03-05T07:28:05Z</time>
      </trkpt>
      <trkpt lat="44.10353" lon="3.40071">
        <ele>711</ele>
        <time>2017-03-05T07:30:05Z</time>
      </trkpt>
      <trkpt lat="44.10353" lon="3.40071">
        <ele>711</ele>
        <time>2017-03-05T07:32:05Z</time>
      </trkpt>
      <trkpt lat="44.10355" lon="3.40081">
        <ele>708</ele>
        <time>2017-03-05T07:34:05Z</time>
      </trkpt>
      <trkpt lat="44.10357" lon="3.40094">
        <ele>711</ele>
        <time>2017-03-05T07:36:05Z</time>
      </trkpt>
      <trkpt lat="44.10359" lon="3.40107">
        <ele>714</ele>
        <time>2017-03-05T07:38:05Z</time>
      </trkpt>
      <trkpt lat="44.10362" lon="3.40115">
        <ele>716</ele>
        <time>2017-03-05T07:40:05Z</time>
      </trkpt>
      <trkpt lat="44.10364" lon="3.40119">
        <ele>717</ele>
        <time>2017-03-05T07:42:05Z</time>
      </trkpt>
      <trkpt lat="44.10368" lon="3.40121">
        <ele>718</ele>
        <time>2017-03-05T07:44:05Z</time>
      </trkpt>
      <trkpt lat="44.10372" lon="3.40122">
        <ele>718</ele>
        <time>2017-03-05T07:46:05Z</time>
      </trkpt>
      <trkpt lat="44.10379" lon="3.40122">
        <ele>718</ele>
        <time>2017-03-05T07:48:05Z</time>
      </trkpt>
      <trkpt lat="44.10387" lon="3.40121">
        <ele>718</ele>
        <time>2017-03-05T07:50:05Z</time>
      </trkpt>
      <trkpt lat="44.10396" lon="3.40118">
        <ele>717</ele>
        <time>2017-03-05T07:52:05Z</time>
      </trkpt>
      <trkpt lat="44.10406" lon="3.40113">
        <ele>715</ele>
        <time>2017-03-05T07:54:05Z</time>
      </trkpt>
      <trkpt lat="44.10418" lon="3.40105">
        <ele>713</ele>
        <time>2017-03-05T07:56:05Z</time>
      </trkpt>
      <trkpt lat="44.1043" lon="3.40099">
        <ele>711</ele>
        <time>2017-03-05T07:58:05Z</time>
      </trkpt>
      <trkpt lat="44.10439" lon="3.40094">
        <ele>709</ele>
        <time>2017-03-05T08:00:05Z</time>
      </trkpt>
      <trkpt lat="44.10453" lon="3.40089">
        <ele>708</ele>
        <time>2017-03-05T08:02:05Z</time>
      </trkpt>
      <trkpt lat="44.10465" lon="3.40086">
        <ele>707</ele>
        <time>2017-03-05T08:04:05Z</time>
      </trkpt>
      <trkpt lat="44.10471" lon="3.40086">
        <ele>706</ele>
        <time>2017-03-05T08:06:05Z</time>
      </trkpt>
      <trkpt lat="44.10474" lon="3.40087">
        <ele>707</ele>
        <time>2017-03-05T08:08:05Z</time>
      </trkpt>
      <trkpt lat="44.10477" lon="3.40091">
        <ele>708</ele>
        <time>2017-03-05T08:10:05Z</time>
      </trkpt>
      <trkpt lat="44.10478" lon="3.40096">
        <ele>709</ele>
        <time>2017-03-05T08:12:05Z</time>
      </trkpt>
      <trkpt lat="44.10477" lon="3.40099">
        <ele>710</ele>
        <time>2017-03-05T08:14:05Z</time>
      </trkpt>
      <trkpt lat="44.10475" lon="3.40102">
        <ele>710</ele>
        <time>2017-03-05T08:16:05Z</time>
      </trkpt>
      <trkpt lat="44.10472" lon="3.40105">
        <ele>711</ele>
        <time>2017-03-05T08:18:05Z</time>
      </trkpt>
      <trkpt lat="44.10469" lon="3.40106">
        <ele>712</ele>
        <time>2017-03-05T08:20:05Z</time>
      </trkpt>
      <trkpt lat="44.10461" lon="3.40109">
        <ele>713</ele>
        <time>2017-03-05T08:22:05Z</time>
      </trkpt>
      <trkpt lat="44.10448" lon="3.40114">
        <ele>714</ele>
        <time>2017-03-05T08:24:05Z</time>
      </trkpt>
      <trkpt lat="44.10429" lon="3.40123">
        <ele>718</ele>
        <time>2017-03-05T08:26:05Z</time>
      </trkpt>
      <trkpt lat="44.10419" lon="3.4013">
        <ele>720</ele>
        <time>2017-03-05T08:28:05Z</time>
      </trkpt>
      <trkpt lat="44.10414" lon="3.40135">
        <ele>721</ele>
        <time>2017-03-05T08:30:05Z</time>
      </trkpt>
      <trkpt lat="44.10409" lon="3.4014">
        <ele>723</ele>
        <time>2017-03-05T08:32:05Z</time>
      </trkpt>
      <trkpt lat="44.10408" lon="3.40142">
        <ele>723</ele>
        <time>2017-03-05T08:34:05Z</time>
      </trkpt>
      <trkpt lat="44.10409" lon="3.40147">
        <ele>725</ele>
        <time>2017-03-05T08:36:05Z</time>
      </trkpt>
      <trkpt lat="44.10413" lon="3.40151">
        <ele>726</ele>
        <time>2017-03-05T08:38:05Z</time>
      </trkpt>
      <trkpt lat="44.10419" lon="3.4015">
        <ele>725</ele>
        <time>2017-03-05T08:40:05Z</time>
      </trkpt>
      <trkpt lat="44.10424" lon="3.40148">
        <ele>725</ele>
        <time>2017-03-05T08:42:05Z</time>
      </trkpt>
      <trkpt lat="44.1043" lon="3.40145">
        <ele>723</ele>
        <time>2017-03-05T08:44:05Z</time>
      </trkpt>
      <trkpt lat="44.1044" lon="3.40141">
        <ele>722</ele>
        <time>2017-03-05T08:46:05Z</time>
      </trkpt>
      <trkpt lat="44.10449" lon="3.4014">
        <ele>721</ele>
        <time>2017-03-05T08:48:05Z</time>
      </trkpt>
      <trkpt lat="44.10458" lon="3.40141">
        <ele>721</ele>
        <time>2017-03-05T08:50:05Z</time>
      </trkpt>
      <trkpt lat="44.10466" lon="3.40144">
        <ele>722</ele>
        <time>2017-03-05T08:52:05Z</time>
      </trkpt>
      <trkpt lat="44.10472" lon="3.4015">
        <ele>723</ele>
        <time>2017-03-05T08:54:05Z</time>
      </trkpt>
      <trkpt lat="44.10472" lon="3.40153">
        <ele>724</ele>
        <time>2017-03-05T08:56:05Z</time>
      </trkpt>
      <trkpt lat="44.10472" lon="3.40154">
        <ele>724</ele>
        <time>2017-03-05T08:58:05Z</time>
      </trkpt>
      <trkpt lat="44.10471" lon="3.40155">
        <ele>724</ele>
        <time>2017-03-05T09:00:05Z</time>
      </trkpt>
      <trkpt lat="44.1047" lon="3.40156">
        <ele>725</ele>
        <time>2017-03-05T09:02:05Z</time>
      </trkpt>
      <trkpt lat="44.10469" lon="3.40157">
        <ele>725</ele>
        <time>2017-03-05T09:04:05Z</time>
      </trkpt>
      <trkpt lat="44.10468" lon="3.40157">
        <ele>725</ele>
        <time>2017-03-05T09:06:05Z</time>
      </trkpt>
      <trkpt lat="44.10466" lon="3.40157">
        <ele>725</ele>
        <time>2017-03-05T09:08:05Z</time>
      </trkpt>
      <trkpt lat="44.10466" lon="3.40156">
        <ele>725</ele>
        <time>2017-03-05T09:10:05Z</time>
      </trkpt>
      <trkpt lat="44.10462" lon="3.40155">
        <ele>725</ele>
        <time>2017-03-05T09:12:05Z</time>
      </trkpt>
      <trkpt lat="44.10459" lon="3.40154">
        <ele>725</ele>
        <time>2017-03-05T09:14:05Z</time>
      </trkpt>
      <trkpt lat="44.10454" lon="3.40152">
        <ele>724</ele>
        <time>2017-03-05T09:16:05Z</time>
      </trkpt>
      <trkpt lat="44.10447" lon="3.4015">
        <ele>724</ele>
        <time>2017-03-05T09:18:05Z</time>
      </trkpt>
      <trkpt lat="44.10442" lon="3.40148">
        <ele>724</ele>
        <time>2017-03-05T09:20:05Z</time>
      </trkpt>
      <trkpt lat="44.10436" lon="3.40149">
        <ele>724</ele>
        <time>2017-03-05T09:22:05Z</time>
      </trkpt>
      <trkpt lat="44.10433" lon="3.40151">
        <ele>725</ele>
        <time>2017-03-05T09:24:05Z</time>
      </trkpt>
      <trkpt lat="44.10428" lon="3.40156">
        <ele>727</ele>
        <time>2017-03-05T09:26:05Z</time>
      </trkpt>
      <trkpt lat="44.1042" lon="3.40161">
        <ele>728</ele>
        <time>2017-03-05T09:28:05Z</time>
      </trkpt>
      <trkpt lat="44.10412" lon="3.40166">
        <ele>730</ele>
        <time>2017-03-05T09:30:05Z</time>
      </trkpt>
      <trkpt lat="44.104" lon="3.40168">
        <ele>731</ele>
        <time>2017-03-05T09:32:05Z</time>
      </trkpt>
      <trkpt lat="44.1039" lon="3.4017">
        <ele>732</ele>
        <time>2017-03-05T09:34:05Z</time>
      </trkpt>
      <trkpt lat="44.10375" lon="3.40173">
        <ele>734</ele>
        <time>2017-03-05T09:36:05Z</time>
      </trkpt>
      <trkpt lat="44.10363" lon="3.40177">
        <ele>736</ele>
        <time>2017-03-05T09:38:05Z</time>
      </trkpt>
      <trkpt lat="44.10349" lon="3.40184">
        <ele>740</ele>
        <time>2017-03-05T09:40:05Z</time>
      </trkpt>
      <trkpt lat="44.1034" lon="3.40188">
        <ele>743</ele>
        <time>2017-03-05T09:42:05Z</time>
      </trkpt>
      <trkpt lat="44.1033" lon="3.40191">
        <ele>745</ele>
        <time>2017-03-05T09:44:05Z</time>
      </trkpt>
      <trkpt lat="44.10324" lon="3.40191">
        <ele>744</ele>
        <time>2017-03-05T09:46:05Z</time>
      </trkpt>
      <trkpt lat="44.10316" lon="3.40189">
        <ele>743</ele>
        <time>2017-03-05T09:48:05Z</time>
      </trkpt>
      <trkpt lat="44.10307" lon="3.40185">
        <ele>740</ele>
        <time>2017-03-05T09:50:05Z</time>
      </trkpt>
      <trkpt lat="44.103" lon="3.40183">
        <ele>738</ele>
        <time>2017-03-05T09:52:05Z</time>
      </trkpt>
      <trkpt lat="44.10292" lon="3.40184">
        <ele>738</ele>
        <time>2017-03-05T09:54:05Z</time>
      </trkpt>
      <trkpt lat="44.10281" lon="3.40187">
        <ele>739</ele>
        <time>2017-03-05T09:56:05Z</time>
      </trkpt>
      <trkpt lat="44.10266" lon="3.40189">
        <ele>739</ele>
        <time>2017-03-05T09:58:05Z</time>
      </trkpt>
      <trkpt lat="44.1026" lon="3.40191">
        <ele>740</ele>
        <time>2017-03-05T10:00:05Z</time>
      </trkpt>
      <trkpt lat="44.10235" lon="3.402">
        <ele>742</ele>
        <time>2017-03-05T10:02:05Z</time>
      </trkpt>
      <trkpt lat="44.10226" lon="3.40204">
        <ele>743</ele>
        <time>2017-03-05T10:04:05Z</time>
      </trkpt>
      <trkpt lat="44.10216" lon="3.40207">
        <ele>744</ele>
        <time>2017-03-05T10:06:05Z</time>
      </trkpt>
      <trkpt lat="44.10199" lon="3.40211">
        <ele>744</ele>
        <time>2017-03-05T10:08:05Z</time>
      </trkpt>
      <trkpt lat="44.10192" lon="3.40215">
        <ele>745</ele>
        <time>2017-03-05T10:10:05Z</time>
      </trkpt>
      <trkpt lat="44.10181" lon="3.40222">
        <ele>747</ele>
        <time>2017-03-05T10:12:05Z</time>
      </trkpt>
      <trkpt lat="44.10171" lon="3.40229">
        <ele>749</ele>
        <time>2017-03-05T10:14:05Z</time>
      </trkpt>
      <trkpt lat="44.10162" lon="3.40237">
        <ele>752</ele>
        <time>2017-03-05T10:16:05Z</time>
      </trkpt>
      <trkpt lat="44.10155" lon="3.40242">
        <ele>754</ele>
        <time>2017-03-05T10:18:05Z</time>
      </trkpt>
      <trkpt lat="44.10149" lon="3.40248">
        <ele>757</ele>
        <time>2017-03-05T10:20:05Z</time>
      </trkpt>
      <trkpt lat="44.10143" lon="3.40251">
        <ele>758</ele>
        <time>2017-03-05T10:22:05Z</time>
      </trkpt>
      <trkpt lat="44.10138" lon="3.40253">
        <ele>759</ele>
        <time>2017-03-05T10:24:05Z</time>
      </trkpt>
      <trkpt lat="44.10131" lon="3.40255">
        <ele>760</ele>
        <time>2017-03-05T10:26:05Z</time>
      </trkpt>
      <trkpt lat="44.10124" lon="3.40255">
        <ele>760</ele>
        <time>2017-03-05T10:28:05Z</time>
      </trkpt>
      <trkpt lat="44.10118" lon="3.40254">
        <ele>760</ele>
        <time>2017-03-05T10:30:05Z</time>
      </trkpt>
      <trkpt lat="44.1011" lon="3.40251">
        <ele>759</ele>
        <time>2017-03-05T10:32:05Z</time>
      </trkpt>
      <trkpt lat="44.10099" lon="3.4025">
        <ele>758</ele>
        <time>2017-03-05T10:34:05Z</time>
      </trkpt>
      <trkpt lat="44.10089" lon="3.40249">
        <ele>758</ele>
        <time>2017-03-05T10:36:05Z</time>
      </trkpt>
      <trkpt lat="44.10083" lon="3.4025">
        <ele>758</ele>
        <time>2017-03-05T10:38:05Z</time>
      </trkpt>
      <trkpt lat="44.10078" lon="3.40252">
        <ele>761</ele>
        <time>2017-03-05T10:40:05Z</time>
      </trkpt>
      <trkpt lat="44.10077" lon="3.40254">
        <ele>762</ele>
        <time>2017-03-05T10:42:05Z</time>
      </trkpt>
      <trkpt lat="44.10078" lon="3.40257">
        <ele>763</ele>
        <time>2017-03-05T10:44:05Z</time>
      </trkpt>
      <trkpt lat="44.10081" lon="3.40259">
        <ele>763</ele>
        <time>2017-03-05T10:46:05Z</time>
      </trkpt>
      <trkpt lat="44.10088" lon="3.40261">
        <ele>764</ele>
        <time>2017-03-05T10:48:05Z</time>
      </trkpt>
      <trkpt lat="44.10108" lon="3.40266">
        <ele>766</ele>
        <time>2017-03-05T10:50:05Z</time>
      </trkpt>
      <trkpt lat="44.10121" lon="3.4027">
        <ele>768</ele>
        <time>2017-03-05T10:52:05Z</time>
      </trkpt>
      <trkpt lat="44.10131" lon="3.40272">
        <ele>769</ele>
        <time>2017-03-05T10:54:05Z</time>
      </trkpt>
      <trkpt lat="44.10141" lon="3.40272">
        <ele>769</ele>
        <time>2017-03-05T10:56:05Z</time>
      </trkpt>
      <trkpt lat="44.10152" lon="3.40268">
        <ele>767</ele>
        <time>2017-03-05T10:58:05Z</time>
      </trkpt>
      <trkpt lat="44.10161" lon="3.40265">
        <ele>765</ele>
        <time>2017-03-05T11:00:05Z</time>
      </trkpt>
      <trkpt lat="44.10174" lon="3.40263">
        <ele>765</ele>
        <time>2017-03-05T11:02:05Z</time>
      </trkpt>
      <trkpt lat="44.10193" lon="3.40258">
        <ele>765</ele>
        <time>2017-03-05T11:04:05Z</time>
      </trkpt>
      <trkpt lat="44.10212" lon="3.40255">
        <ele>765</ele>
        <time>2017-03-05T11:06:05Z</time>
      </trkpt>
      <trkpt lat="44.10225" lon="3.40254">
        <ele>766</ele>
        <time>2017-03-05T11:08:05Z</time>
      </trkpt>
      <trkpt lat="44.10236" lon="3.40254">
        <ele>767</ele>
        <time>2017-03-05T11:10:05Z</time>
      </trkpt>
      <trkpt lat="44.1025" lon="3.40253">
        <ele>768</ele>
        <time>2017-03-05T11:12:05Z</time>
      </trkpt>
      <trkpt lat="44.10257" lon="3.40253">
        <ele>769</ele>
        <time>2017-03-05T11:14:05Z</time>
      </trkpt>
      <trkpt lat="44.10268" lon="3.40253">
        <ele>771</ele>
        <time>2017-03-05T11:16:05Z</time>
      </trkpt>
      <trkpt lat="44.10302" lon="3.40255">
        <ele>776</ele>
        <time>2017-03-05T11:18:05Z</time>
      </trkpt>
      <trkpt lat="44.10341" lon="3.4026">
        <ele>782</ele>
        <time>2017-03-05T11:20:05Z</time>
      </trkpt>
      <trkpt lat="44.10357" lon="3.4026">
        <ele>781</ele>
        <time>2017-03-05T11:22:05Z</time>
      </trkpt>
      <trkpt lat="44.10374" lon="3.40261">
        <ele>780</ele>
        <time>2017-03-05T11:24:05Z</time>
      </trkpt>
      <trkpt lat="44.10387" lon="3.4026">
        <ele>779</ele>
        <time>2017-03-05T11:26:05Z</time>
      </trkpt>
      <trkpt lat="44.10399" lon="3.4026">
        <ele>778</ele>
        <time>2017-03-05T11:28:05Z</time>
      </trkpt>
      <trkpt lat="44.10408" lon="3.4026">
        <ele>777</ele>
        <time>2017-03-05T11:30:05Z</time>
      </trkpt>
      <trkpt lat="44.10411" lon="3.4026">
        <ele>777</ele>
        <time>2017-03-05T11:32:05Z</time>
      </trkpt>
      <trkpt lat="44.10413" lon="3.4026">
        <ele>777</ele>
        <time>2017-03-05T11:34:05Z</time>
      </trkpt>
      <trkpt lat="44.10415" lon="3.40261">
        <ele>777</ele>
        <time>2017-03-05T11:36:05Z</time>
      </trkpt>
      <trkpt lat="44.10416" lon="3.40262">
        <ele>778</ele>
        <time>2017-03-05T11:38:05Z</time>
      </trkpt>
      <trkpt lat="44.10418" lon="3.40262">
        <ele>777</ele>
        <time>2017-03-05T11:40:05Z</time>
      </trkpt>
      <trkpt lat="44.10419" lon="3.40263">
        <ele>778</ele>
        <time>2017-03-05T11:42:05Z</time>
      </trkpt>
      <trkpt lat="44.1042" lon="3.40264">
        <ele>778</ele>
        <time>2017-03-05T11:44:05Z</time>
      </trkpt>
      <trkpt lat="44.10421" lon="3.40266">
        <ele>778</ele>
        <time>2017-03-05T11:46:05Z</time>
      </trkpt>
      <trkpt lat="44.10422" lon="3.40267">
        <ele>779</ele>
        <time>2017-03-05T11:48:05Z</time>
      </trkpt>
      <trkpt lat="44.10423" lon="3.40269">
        <ele>779</ele>
        <time>2017-03-05T11:50:05Z</time>
      </trkpt>
      <trkpt lat="44.10423" lon="3.4027">
        <ele>779</ele>
        <time>2017-03-05T11:52:05Z</time>
      </trkpt>
      <trkpt lat="44.10423" lon="3.40271">
        <ele>780</ele>
        <time>2017-03-05T11:54:05Z</time>
      </trkpt>
      <trkpt lat="44.10423" lon="3.40273">
        <ele>781</ele>
        <time>2017-03-05T11:56:05Z</time>
      </trkpt>
      <trkpt lat="44.10423" lon="3.40278">
        <ele>783</ele>
        <time>2017-03-05T11:58:05Z</time>
      </trkpt>
      <trkpt lat="44.10423" lon="3.4029">
        <ele>787</ele>
        <time>2017-03-05T12:00:05Z</time>
      </trkpt>
      <trkpt lat="44.10425" lon="3.403">
        <ele>790</ele>
        <time>2017-03-05T12:02:05Z</time>
      </trkpt>
      <trkpt lat="44.10427" lon="3.40308">
        <ele>793</ele>
        <time>2017-03-05T12:04:05Z</time>
      </trkpt>
      <trkpt lat="44.1043" lon="3.40319">
        <ele>797</ele>
        <time>2017-03-05T12:06:05Z</time>
      </trkpt>
      <trkpt lat="44.10436" lon="3.40333">
        <ele>800</ele>
        <time>2017-03-05T12:08:05Z</time>
      </trkpt>
      <trkpt lat="44.10444" lon="3.4035">
        <ele>802</ele>
        <time>2017-03-05T12:10:05Z</time>
      </trkpt>
      <trkpt lat="44.10452" lon="3.40371">
        <ele>805</ele>
        <time>2017-03-05T12:12:05Z</time>
      </trkpt>
      <trkpt lat="44.10461" lon="3.40393">
        <ele>807</ele>
        <time>2017-03-05T12:14:05Z</time>
      </trkpt>
      <trkpt lat="44.10467" lon="3.40409">
        <ele>809</ele>
        <time>2017-03-05T12:16:05Z</time>
      </trkpt>
      <trkpt lat="44.1047" lon="3.40419">
        <ele>810</ele>
        <time>2017-03-05T12:18:05Z</time>
      </trkpt>
      <trkpt lat="44.10471" lon="3.40427">
        <ele>811</ele>
        <time>2017-03-05T12:20:05Z</time>
      </trkpt>
      <trkpt lat="44.10472" lon="3.40437">
        <ele>812</ele>
        <time>2017-03-05T12:22:05Z</time>
      </trkpt>
      <trkpt lat="44.10472" lon="3.40448">
        <ele>814</ele>
        <time>2017-03-05T12:24:05Z</time>
      </trkpt>
      <trkpt lat="44.10475" lon="3.40458">
        <ele>816</ele>
        <time>2017-03-05T12:26:05Z</time>
      </trkpt>
      <trkpt lat="44.10479" lon="3.40468">
        <ele>816</ele>
        <time>2017-03-05T12:28:05Z</time>
      </trkpt>
      <trkpt lat="44.10484" lon="3.40482">
        <ele>818</ele>
        <time>2017-03-05T12:30:05Z</time>
      </trkpt>
      <trkpt lat="44.10489" lon="3.40497">
        <ele>819</ele>
        <time>2017-03-05T12:32:05Z</time>
      </trkpt>
      <trkpt lat="44.10494" lon="3.40504">
        <ele>819</ele>
        <time>2017-03-05T12:34:05Z</time>
      </trkpt>
      <trkpt lat="44.10499" lon="3.40507">
        <ele>818</ele>
        <time>2017-03-05T12:36:05Z</time>
      </trkpt>
      <trkpt lat="44.10503" lon="3.40509">
        <ele>819</ele>
        <time>2017-03-05T12:38:05Z</time>
      </trkpt>
      <trkpt lat="44.10506" lon="3.40507">
        <ele>819</ele>
        <time>2017-03-05T12:40:05Z</time>
      </trkpt>
      <trkpt lat="44.10509" lon="3.40503">
        <ele>819</ele>
        <time>2017-03-05T12:42:05Z</time>
      </trkpt>
      <trkpt lat="44.10511" lon="3.40499">
        <ele>819</ele>
        <time>2017-03-05T12:44:05Z</time>
      </trkpt>
      <trkpt lat="44.10512" lon="3.40491">
        <ele>818</ele>
        <time>2017-03-05T12:46:05Z</time>
      </trkpt>
      <trkpt lat="44.10516" lon="3.40463">
        <ele>813</ele>
        <time>2017-03-05T12:48:05Z</time>
      </trkpt>
      <trkpt lat="44.10518" lon="3.4044">
        <ele>810</ele>
        <time>2017-03-05T12:50:05Z</time>
      </trkpt>
      <trkpt lat="44.1052" lon="3.40426">
        <ele>808</ele>
        <time>2017-03-05T12:52:05Z</time>
      </trkpt>
      <trkpt lat="44.10524" lon="3.40412">
        <ele>807</ele>
        <time>2017-03-05T12:54:05Z</time>
      </trkpt>
      <trkpt lat="44.10529" lon="3.40399">
        <ele>805</ele>
        <time>2017-03-05T12:56:05Z</time>
      </trkpt>
      <trkpt lat="44.10534" lon="3.40388">
        <ele>804</ele>
        <time>2017-03-05T12:58:05Z</time>
      </trkpt>
      <trkpt lat="44.10544" lon="3.40374">
        <ele>804</ele>
        <time>2017-03-05T13:00:05Z</time>
      </trkpt>
      <trkpt lat="44.10554" lon="3.40364">
        <ele>804</ele>
        <time>2017-03-05T13:02:05Z</time>
      </trkpt>
      <trkpt lat="44.10564" lon="3.40355">
        <ele>804</ele>
        <time>2017-03-05T13:04:05Z</time>
      </trkpt>
      <trkpt lat="44.10574" lon="3.4035">
        <ele>805</ele>
        <time>2017-03-05T13:06:05Z</time>
      </trkpt>
      <trkpt lat="44.10584" lon="3.40349">
        <ele>807</ele>
        <time>2017-03-05T13:08:05Z</time>
      </trkpt>
      <trkpt lat="44.10591" lon="3.40349">
        <ele>806</ele>
        <time>2017-03-05T13:10:05Z</time>
      </trkpt>
      <trkpt lat="44.10599" lon="3.40352">
        <ele>805</ele>
        <time>2017-03-05T13:12:05Z</time>
      </trkpt>
      <trkpt lat="44.10606" lon="3.40356">
        <ele>805</ele>
        <time>2017-03-05T13:14:05Z</time>
      </trkpt>
      <trkpt lat="44.10612" lon="3.40361">
        <ele>806</ele>
        <time>2017-03-05T13:16:05Z</time>
      </trkpt>
      <trkpt lat="44.10618" lon="3.40368">
        <ele>807</ele>
        <time>2017-03-05T13:18:05Z</time>
      </trkpt>
      <trkpt lat="44.10623" lon="3.40378">
        <ele>808</ele>
        <time>2017-03-05T13:20:05Z</time>
      </trkpt>
      <trkpt lat="44.10627" lon="3.4039">
        <ele>811</ele>
        <time>2017-03-05T13:22:05Z</time>
      </trkpt>
      <trkpt lat="44.1063" lon="3.40402">
        <ele>813</ele>
        <time>2017-03-05T13:24:05Z</time>
      </trkpt>
      <trkpt lat="44.10631" lon="3.40414">
        <ele>816</ele>
        <time>2017-03-05T13:26:05Z</time>
      </trkpt>
      <trkpt lat="44.1063" lon="3.40427">
        <ele>818</ele>
        <time>2017-03-05T13:28:05Z</time>
      </trkpt>
      <trkpt lat="44.1063" lon="3.4044">
        <ele>820</ele>
        <time>2017-03-05T13:30:05Z</time>
      </trkpt>
      <trkpt lat="44.10629" lon="3.40452">
        <ele>822</ele>
        <time>2017-03-05T13:32:05Z</time>
      </trkpt>
      <trkpt lat="44.10629" lon="3.40464">
        <ele>824</ele>
        <time>2017-03-05T13:34:05Z</time>
      </trkpt>
      <trkpt lat="44.10629" lon="3.40473">
        <ele>825</ele>
        <time>2017-03-05T13:36:05Z</time>
      </trkpt>
      <trkpt lat="44.10631" lon="3.40478">
        <ele>825</ele>
        <time>2017-03-05T13:38:05Z</time>
      </trkpt>
      <trkpt lat="44.10635" lon="3.40485">
        <ele>826</ele>
        <time>2017-03-05T13:40:05Z</time>
      </trkpt>
      <trkpt lat="44.1064" lon="3.40488">
        <ele>826</ele>
        <time>2017-03-05T13:42:05Z</time>
      </trkpt>
      <trkpt lat="44.10646" lon="3.40492">
        <ele>826</ele>
        <time>2017-03-05T13:44:05Z</time>
      </trkpt>
      <trkpt lat="44.10658" lon="3.40497">
        <ele>826</ele>
        <time>2017-03-05T13:46:05Z</time>
      </trkpt>
      <trkpt lat="44.10671" lon="3.40508">
        <ele>827</ele>
        <time>2017-03-05T13:48:05Z</time>
      </trkpt>
      <trkpt lat="44.10687" lon="3.40522">
        <ele>828</ele>
        <time>2017-03-05T13:50:05Z</time>
      </trkpt>
      <trkpt lat="44.10698" lon="3.40533">
        <ele>830</ele>
        <time>2017-03-05T13:52:05Z</time>
      </trkpt>
      <trkpt lat="44.10714" lon="3.40545">
        <ele>830</ele>
        <time>2017-03-05T13:54:05Z</time>
      </trkpt>
      <trkpt lat="44.10724" lon="3.40558">
        <ele>832</ele>
        <time>2017-03-05T13:56:05Z</time>
      </trkpt>
      <trkpt lat="44.10729" lon="3.40564">
        <ele>833</ele>
        <time>2017-03-05T13:58:05Z</time>
      </trkpt>
      <trkpt lat="44.10735" lon="3.40571">
        <ele>834</ele>
        <time>2017-03-05T14:00:05Z</time>
      </trkpt>
      <trkpt lat="44.10741" lon="3.40576">
        <ele>834</ele>
        <time>2017-03-05T14:02:05Z</time>
      </trkpt>
      <trkpt lat="44.10742" lon="3.40579">
        <ele>835</ele>
        <time>2017-03-05T14:04:05Z</time>
      </trkpt>
      <trkpt lat="44.10742" lon="3.40582">
        <ele>836</ele>
        <time>2017-03-05T14:06:05Z</time>
      </trkpt>
      <trkpt lat="44.10743" lon="3.40583">
        <ele>836</ele>
        <time>2017-03-05T14:08:05Z</time>
      </trkpt>
      <trkpt lat="44.10742" lon="3.40585">
        <ele>836</ele>
        <time>2017-03-05T14:10:05Z</time>
      </trkpt>
      <trkpt lat="44.10739" lon="3.40588">
        <ele>838</ele>
        <time>2017-03-05T14:12:05Z</time>
      </trkpt>
      <trkpt lat="44.10735" lon="3.40588">
        <ele>838</ele>
        <time>2017-03-05T14:14:05Z</time>
      </trkpt>
      <trkpt lat="44.10732" lon="3.40587">
        <ele>838</ele>
        <time>2017-03-05T14:16:05Z</time>
      </trkpt>
      <trkpt lat="44.10728" lon="3.40586">
        <ele>838</ele>
        <time>2017-03-05T14:18:05Z</time>
      </trkpt>
      <trkpt lat="44.10719" lon="3.40583">
        <ele>839</ele>
        <time>2017-03-05T14:20:05Z</time>
      </trkpt>
      <trkpt lat="44.1071" lon="3.40578">
        <ele>839</ele>
        <time>2017-03-05T14:22:05Z</time>
      </trkpt>
      <trkpt lat="44.107" lon="3.40571">
        <ele>838</ele>
        <time>2017-03-05T14:24:05Z</time>
      </trkpt>
      <trkpt lat="44.10689" lon="3.40563">
        <ele>838</ele>
        <time>2017-03-05T14:26:05Z</time>
      </trkpt>
      <trkpt lat="44.10672" lon="3.40553">
        <ele>837</ele>
        <time>2017-03-05T14:28:05Z</time>
      </trkpt>
      <trkpt lat="44.10656" lon="3.40543">
        <ele>836</ele>
        <time>2017-03-05T14:30:05Z</time>
      </trkpt>
      <trkpt lat="44.10646" lon="3.40536">
        <ele>835</ele>
        <time>2017-03-05T14:32:05Z</time>
      </trkpt>
      <trkpt lat="44.10627" lon="3.40523">
        <ele>833</ele>
        <time>2017-03-05T14:34:05Z</time>
      </trkpt>
      <trkpt lat="44.10607" lon="3.40519">
        <ele>834</ele>
        <time>2017-03-05T14:36:05Z</time>
      </trkpt>
      <trkpt lat="44.10597" lon="3.40518">
        <ele>834</ele>
        <time>2017-03-05T14:38:05Z</time>
      </trkpt>
      <trkpt lat="44.10592" lon="3.40517">
        <ele>834</ele>
        <time>2017-03-05T14:40:05Z</time>
      </trkpt>
      <trkpt lat="44.10588" lon="3.40518">
        <ele>835</ele>
        <time>2017-03-05T14:42:05Z</time>
      </trkpt>
      <trkpt lat="44.10585" lon="3.4052">
        <ele>835</ele>
        <time>2017-03-05T14:44:05Z</time>
      </trkpt>
      <trkpt lat="44.10582" lon="3.40524">
        <ele>836</ele>
        <time>2017-03-05T14:46:05Z</time>
      </trkpt>
      <trkpt lat="44.1058" lon="3.40532">
        <ele>836</ele>
        <time>2017-03-05T14:48:05Z</time>
      </trkpt>
      <trkpt lat="44.10576" lon="3.40546">
        <ele>838</ele>
        <time>2017-03-05T14:50:05Z</time>
      </trkpt>
      <trkpt lat="44.10573" lon="3.4056">
        <ele>840</ele>
        <time>2017-03-05T14:52:05Z</time>
      </trkpt>
      <trkpt lat="44.10568" lon="3.40574">
        <ele>841</ele>
        <time>2017-03-05T14:54:05Z</time>
      </trkpt>
      <trkpt lat="44.10562" lon="3.4059">
        <ele>843</ele>
        <time>2017-03-05T14:56:05Z</time>
      </trkpt>
      <trkpt lat="44.10551" lon="3.40617">
        <ele>846</ele>
        <time>2017-03-05T14:58:05Z</time>
      </trkpt>
      <trkpt lat="44.10541" lon="3.40637">
        <ele>848</ele>
        <time>2017-03-05T15:00:05Z</time>
      </trkpt>
      <trkpt lat="44.1053" lon="3.40654">
        <ele>849</ele>
        <time>2017-03-05T15:02:05Z</time>
      </trkpt>
      <trkpt lat="44.10519" lon="3.40668">
        <ele>848</ele>
        <time>2017-03-05T15:04:05Z</time>
      </trkpt>
      <trkpt lat="44.1051" lon="3.40681">
        <ele>848</ele>
        <time>2017-03-05T15:06:05Z</time>
      </trkpt>
      <trkpt lat="44.105" lon="3.40693">
        <ele>848</ele>
        <time>2017-03-05T15:08:05Z</time>
      </trkpt>
      <trkpt lat="44.1049" lon="3.40702">
        <ele>851</ele>
        <time>2017-03-05T15:10:05Z</time>
      </trkpt>
      <trkpt lat="44.10483" lon="3.40707">
        <ele>852</ele>
        <time>2017-03-05T15:12:05Z</time>
      </trkpt>
      <trkpt lat="44.10475" lon="3.40712">
        <ele>854</ele>
        <time>2017-03-05T15:14:05Z</time>
      </trkpt>
      <trkpt lat="44.1047" lon="3.40715">
        <ele>855</ele>
        <time>2017-03-05T15:16:05Z</time>
      </trkpt>
      <trkpt lat="44.10467" lon="3.40717">
        <ele>855</ele>
        <time>2017-03-05T15:18:05Z</time>
      </trkpt>
      <trkpt lat="44.10467" lon="3.40722">
        <ele>856</ele>
        <time>2017-03-05T15:20:05Z</time>
      </trkpt>
      <trkpt lat="44.10467" lon="3.40724">
        <ele>856</ele>
        <time>2017-03-05T15:22:05Z</time>
      </trkpt>
      <trkpt lat="44.10471" lon="3.40727">
        <ele>856</ele>
        <time>2017-03-05T15:24:05Z</time>
      </trkpt>
      <trkpt lat="44.10476" lon="3.40727">
        <ele>856</ele>
        <time>2017-03-05T15:26:05Z</time>
      </trkpt>
      <trkpt lat="44.10483" lon="3.40726">
        <ele>855</ele>
        <time>2017-03-05T15:28:05Z</time>
      </trkpt>
      <trkpt lat="44.10494" lon="3.40722">
        <ele>854</ele>
        <time>2017-03-05T15:30:05Z</time>
      </trkpt>
      <trkpt lat="44.10506" lon="3.40717">
        <ele>854</ele>
        <time>2017-03-05T15:32:05Z</time>
      </trkpt>
      <trkpt lat="44.10522" lon="3.40708">
        <ele>857</ele>
        <time>2017-03-05T15:34:05Z</time>
      </trkpt>
      <trkpt lat="44.1053" lon="3.407">
        <ele>858</ele>
        <time>2017-03-05T15:36:05Z</time>
      </trkpt>
      <trkpt lat="44.10539" lon="3.4069">
        <ele>858</ele>
        <time>2017-03-05T15:38:05Z</time>
      </trkpt>
      <trkpt lat="44.1055" lon="3.40676">
        <ele>858</ele>
        <time>2017-03-05T15:40:05Z</time>
      </trkpt>
      <trkpt lat="44.1056" lon="3.4066">
        <ele>857</ele>
        <time>2017-03-05T15:42:05Z</time>
      </trkpt>
      <trkpt lat="44.1057" lon="3.40644">
        <ele>856</ele>
        <time>2017-03-05T15:44:05Z</time>
      </trkpt>
      <trkpt lat="44.10581" lon="3.40627">
        <ele>855</ele>
        <time>2017-03-05T15:46:05Z</time>
      </trkpt>
      <trkpt lat="44.10586" lon="3.40619">
        <ele>854</ele>
        <time>2017-03-05T15:48:05Z</time>
      </trkpt>
      <trkpt lat="44.10591" lon="3.40616">
        <ele>853</ele>
        <time>2017-03-05T15:50:05Z</time>
      </trkpt>
      <trkpt lat="44.10596" lon="3.40616">
        <ele>853</ele>
        <time>2017-03-05T15:52:05Z</time>
      </trkpt>
      <trkpt lat="44.10602" lon="3.40617">
        <ele>854</ele>
        <time>2017-03-05T15:54:05Z</time>
      </trkpt>
      <trkpt lat="44.10606" lon="3.40619">
        <ele>854</ele>
        <time>2017-03-05T15:56:05Z</time>
      </trkpt>
      <trkpt lat="44.1062" lon="3.40624">
        <ele>856</ele>
        <time>2017-03-05T15:58:05Z</time>
      </trkpt>
      <trkpt lat="44.10638" lon="3.40634">
        <ele>860</ele>
        <time>2017-03-05T16:00:05Z</time>
      </trkpt>
      <trkpt lat="44.10656" lon="3.4064">
        <ele>863</ele>
        <time>2017-03-05T16:02:05Z</time>
      </trkpt>
      <trkpt lat="44.10665" lon="3.40644">
        <ele>865</ele>
        <time>2017-03-05T16:04:05Z</time>
      </trkpt>
      <trkpt lat="44.10671" lon="3.40648">
        <ele>865</ele>
        <time>2017-03-05T16:06:05Z</time>
      </trkpt>
      <trkpt lat="44.10676" lon="3.40654">
        <ele>867</ele>
        <time>2017-03-05T16:08:05Z</time>
      </trkpt>
      <trkpt lat="44.10681" lon="3.40662">
        <ele>868</ele>
        <time>2017-03-05T16:10:05Z</time>
      </trkpt>
      <trkpt lat="44.10685" lon="3.40667">
        <ele>869</ele>
        <time>2017-03-05T16:12:05Z</time>
      </trkpt>
      <trkpt lat="44.10692" lon="3.40674">
        <ele>870</ele>
        <time>2017-03-05T16:14:05Z</time>
      </trkpt>
      <trkpt lat="44.10699" lon="3.40683">
        <ele>871</ele>
        <time>2017-03-05T16:16:05Z</time>
      </trkpt>
      <trkpt lat="44.10707" lon="3.40694">
        <ele>873</ele>
        <time>2017-03-05T16:18:05Z</time>
      </trkpt>
      <trkpt lat="44.10714" lon="3.40705">
        <ele>875</ele>
        <time>2017-03-05T16:20:05Z</time>
      </trkpt>
      <trkpt lat="44.10719" lon="3.40714">
        <ele>877</ele>
        <time>2017-03-05T16:22:05Z</time>
      </trkpt>
      <trkpt lat="44.10722" lon="3.40717">
        <ele>877</ele>
        <time>2017-03-05T16:24:05Z</time>
      </trkpt>
      <trkpt lat="44.10728" lon="3.40724">
        <ele>879</ele>
        <time>2017-03-05T16:26:05Z</time>
      </trkpt>
      <trkpt lat="44.10738" lon="3.40733">
        <ele>880</ele>
        <time>2017-03-05T16:28:05Z</time>
      </trkpt>
      <trkpt lat="44.10747" lon="3.40739">
        <ele>881</ele>
        <time>2017-03-05T16:30:05Z</time>
      </trkpt>
      <trkpt lat="44.10756" lon="3.40744">
        <ele>882</ele>
        <time>2017-03-05T16:32:05Z</time>
      </trkpt>
      <trkpt lat="44.10769" lon="3.40749">
        <ele>882</ele>
        <time>2017-03-05T16:34:05Z</time>
      </trkpt>
      <trkpt lat="44.10784" lon="3.40755">
        <ele>883</ele>
        <time>2017-03-05T16:36:05Z</time>
      </trkpt>
      <trkpt lat="44.10799" lon="3.40761">
        <ele>883</ele>
        <time>2017-03-05T16:38:05Z</time>
      </trkpt>
      <trkpt lat="44.10813" lon="3.40765">
        <ele>883</ele>
        <time>2017-03-05T16:40:05Z</time>
      </trkpt>
      <trkpt lat="44.1082" lon="3.40767">
        <ele>883</ele>
        <time>2017-03-05T16:42:05Z</time>
      </trkpt>
      <trkpt lat="44.10827" lon="3.40769">
        <ele>882</ele>
        <time>2017-03-05T16:44:05Z</time>
      </trkpt>
      <trkpt lat="44.10835" lon="3.40772">
        <ele>882</ele>
        <time>2017-03-05T16:46:05Z</time>
      </trkpt>
      <trkpt lat="44.10845" lon="3.40779">
        <ele>881</ele>
        <time>2017-03-05T16:48:05Z</time>
      </trkpt>
      <trkpt lat="44.10849" lon="3.40784">
        <ele>880</ele>
        <time>2017-03-05T16:50:05Z</time>
      </trkpt>
      <trkpt lat="44.10854" lon="3.4079">
        <ele>880</ele>
        <time>2017-03-05T16:52:05Z</time>
      </trkpt>
      <trkpt lat="44.10856" lon="3.40796">
        <ele>881</ele>
        <time>2017-03-05T16:54:05Z</time>
      </trkpt>
      <trkpt lat="44.10857" lon="3.40805">
        <ele>882</ele>
        <time>2017-03-05T16:56:05Z</time>
      </trkpt>
      <trkpt lat="44.10858" lon="3.40818">
        <ele>885</ele>
        <time>2017-03-05T16:58:05Z</time>
      </trkpt>
      <trkpt lat="44.10859" lon="3.40826">
        <ele>886</ele>
        <time>2017-03-05T17:00:05Z</time>
      </trkpt>
      <trkpt lat="44.1086" lon="3.40836">
        <ele>888</ele>
        <time>2017-03-05T17:02:05Z</time>
      </trkpt>
      <trkpt lat="44.10861" lon="3.40843">
        <ele>889</ele>
        <time>2017-03-05T17:04:05Z</time>
      </trkpt>
      <trkpt lat="44.10862" lon="3.40848">
        <ele>890</ele>
        <time>2017-03-05T17:06:05Z</time>
      </trkpt>
      <trkpt lat="44.10862" lon="3.40851">
        <ele>890</ele>
        <time>2017-03-05T17:08:05Z</time>
      </trkpt>
      <trkpt lat="44.10862" lon="3.40856">
        <ele>891</ele>
        <time>2017-03-05T17:10:05Z</time>
      </trkpt>
      <trkpt lat="44.10858" lon="3.4087">
        <ele>896</ele>
        <time>2017-03-05T17:12:05Z</time>
      </trkpt>
      <trkpt lat="44.10857" lon="3.40873">
        <ele>897</ele>
        <time>2017-03-05T17:14:05Z</time>
      </trkpt>
      <trkpt lat="44.10854" lon="3.40875">
        <ele>899</ele>
        <time>2017-03-05T17:16:05Z</time>
      </trkpt>
      <trkpt lat="44.10851" lon="3.40875">
        <ele>900</ele>
        <time>2017-03-05T17:18:05Z</time>
      </trkpt>
      <trkpt lat="44.10849" lon="3.40871">
        <ele>900</ele>
        <time>2017-03-05T17:20:05Z</time>
      </trkpt>
      <trkpt lat="44.10848" lon="3.40865">
        <ele>899</ele>
        <time>2017-03-05T17:22:05Z</time>
      </trkpt>
      <trkpt lat="44.10848" lon="3.40858">
        <ele>897</ele>
        <time>2017-03-05T17:24:05Z</time>
      </trkpt>
      <trkpt lat="44.1085" lon="3.40851">
        <ele>895</ele>
        <time>2017-03-05T17:26:05Z</time>
      </trkpt>
      <trkpt lat="44.1085" lon="3.40843">
        <ele>893</ele>
        <time>2017-03-05T17:28:05Z</time>
      </trkpt>
      <trkpt lat="44.1085" lon="3.40835">
        <ele>891</ele>
        <time>2017-03-05T17:30:05Z</time>
      </trkpt>
      <trkpt lat="44.10849" lon="3.40828">
        <ele>890</ele>
        <time>2017-03-05T17:32:05Z</time>
      </trkpt>
      <trkpt lat="44.10848" lon="3.40818">
        <ele>888</ele>
        <time>2017-03-05T17:34:05Z</time>
      </trkpt>
      <trkpt lat="44.10846" lon="3.40812">
        <ele>888</ele>
        <time>2017-03-05T17:36:05Z</time>
      </trkpt>
      <trkpt lat="44.10844" lon="3.40807">
        <ele>887</ele>
        <time>2017-03-05T17:38:05Z</time>
      </trkpt>
      <trkpt lat="44.1084" lon="3.40804">
        <ele>888</ele>
        <time>2017-03-05T17:40:05Z</time>
      </trkpt>
      <trkpt lat="44.10832" lon="3.40799">
        <ele>889</ele>
        <time>2017-03-05T17:42:05Z</time>
      </trkpt>
      <trkpt lat="44.10823" lon="3.40798">
        <ele>890</ele>
        <time>2017-03-05T17:44:05Z</time>
      </trkpt>
      <trkpt lat="44.10815" lon="3.40798">
        <ele>891</ele>
        <time>2017-03-05T17:46:05Z</time>
      </trkpt>
      <trkpt lat="44.10804" lon="3.40799">
        <ele>894</ele>
        <time>2017-03-05T17:48:05Z</time>
      </trkpt>
      <trkpt lat="44.10785" lon="3.40802">
        <ele>898</ele>
        <time>2017-03-05T17:50:05Z</time>
      </trkpt>
      <trkpt lat="44.10767" lon="3.40803">
        <ele>901</ele>
        <time>2017-03-05T17:52:05Z</time>
      </trkpt>
      <trkpt lat="44.1075" lon="3.40803">
        <ele>904</ele>
        <time>2017-03-05T17:54:05Z</time>
      </trkpt>
      <trkpt lat="44.10734" lon="3.40803">
        <ele>905</ele>
        <time>2017-03-05T17:56:05Z</time>
      </trkpt>
      <trkpt lat="44.10717" lon="3.40803">
        <ele>906</ele>
        <time>2017-03-05T17:58:05Z</time>
      </trkpt>
      <trkpt lat="44.10705" lon="3.40802">
        <ele>907</ele>
        <time>2017-03-05T18:00:05Z</time>
      </trkpt>
      <trkpt lat="44.10696" lon="3.40801">
        <ele>907</ele>
        <time>2017-03-05T18:02:05Z</time>
      </trkpt>
      <trkpt lat="44.10683" lon="3.40797">
        <ele>907</ele>
        <time>2017-03-05T18:04:05Z</time>
      </trkpt>
      <trkpt lat="44.10673" lon="3.40793">
        <ele>906</ele>
        <time>2017-03-05T18:06:05Z</time>
      </trkpt>
      <trkpt lat="44.10663" lon="3.40787">
        <ele>904</ele>
        <time>2017-03-05T18:08:05Z</time>
      </trkpt>
      <trkpt lat="44.10654" lon="3.40783">
        <ele>901</ele>
        <time>2017-03-05T18:10:05Z</time>
      </trkpt>
      <trkpt lat="44.10645" lon="3.40781">
        <ele>899</ele>
        <time>2017-03-05T18:12:05Z</time>
      </trkpt>
      <trkpt lat="44.10637" lon="3.40781">
        <ele>899</ele>
        <time>2017-03-05T18:14:05Z</time>
      </trkpt>
      <trkpt lat="44.1063" lon="3.40782">
        <ele>898</ele>
        <time>2017-03-05T18:16:05Z</time>
      </trkpt>
      <trkpt lat="44.10627" lon="3.40784">
        <ele>898</ele>
        <time>2017-03-05T18:18:05Z</time>
      </trkpt>
      <trkpt lat="44.1062" lon="3.40786">
        <ele>898</ele>
        <time>2017-03-05T18:20:05Z</time>
      </trkpt>
      <trkpt lat="44.10614" lon="3.40794">
        <ele>900</ele>
        <time>2017-03-05T18:22:05Z</time>
      </trkpt>
      <trkpt lat="44.10609" lon="3.40804">
        <ele>902</ele>
        <time>2017-03-05T18:24:05Z</time>
      </trkpt>
      <trkpt lat="44.10604" lon="3.40816">
        <ele>904</ele>
        <time>2017-03-05T18:26:05Z</time>
      </trkpt>
      <trkpt lat="44.10599" lon="3.40831">
        <ele>908</ele>
        <time>2017-03-05T18:28:05Z</time>
      </trkpt>
      <trkpt lat="44.10592" lon="3.40845">
        <ele>911</ele>
        <time>2017-03-05T18:30:05Z</time>
      </trkpt>
      <trkpt lat="44.10584" lon="3.40858">
        <ele>913</ele>
        <time>2017-03-05T18:32:05Z</time>
      </trkpt>
      <trkpt lat="44.10579" lon="3.40866">
        <ele>915</ele>
        <time>2017-03-05T18:34:05Z</time>
      </trkpt>
      <trkpt lat="44.10574" lon="3.40871">
        <ele>915</ele>
        <time>2017-03-05T18:36:05Z</time>
      </trkpt>
      <trkpt lat="44.10569" lon="3.40875">
        <ele>915</ele>
        <time>2017-03-05T18:38:05Z</time>
      </trkpt>
      <trkpt lat="44.10564" lon="3.40879">
        <ele>915</ele>
        <time>2017-03-05T18:40:05Z</time>
      </trkpt>
      <trkpt lat="44.1056" lon="3.40881">
        <ele>915</ele>
        <time>2017-03-05T18:42:05Z</time>
      </trkpt>
      <trkpt lat="44.10555" lon="3.40885">
        <ele>915</ele>
        <time>2017-03-05T18:44:05Z</time>
      </trkpt>
      <trkpt lat="44.10549" lon="3.40892">
        <ele>915</ele>
        <time>2017-03-05T18:46:05Z</time>
      </trkpt>
      <trkpt lat="44.10542" lon="3.40901">
        <ele>916</ele>
        <time>2017-03-05T18:48:05Z</time>
      </trkpt>
      <trkpt lat="44.10535" lon="3.40914">
        <ele>918</ele>
        <time>2017-03-05T18:50:05Z</time>
      </trkpt>
      <trkpt lat="44.10529" lon="3.40922">
        <ele>918</ele>
        <time>2017-03-05T18:52:05Z</time>
      </trkpt>
      <trkpt lat="44.10525" lon="3.40927">
        <ele>918</ele>
        <time>2017-03-05T18:54:05Z</time>
      </trkpt>
      <trkpt lat="44.10522" lon="3.4093">
        <ele>918</ele>
        <time>2017-03-05T18:56:05Z</time>
      </trkpt>
      <trkpt lat="44.10516" lon="3.40939">
        <ele>918</ele>
        <time>2017-03-05T18:58:05Z</time>
      </trkpt>
      <trkpt lat="44.10506" lon="3.40954">
        <ele>918</ele>
        <time>2017-03-05T19:00:05Z</time>
      </trkpt>
      <trkpt lat="44.10496" lon="3.40969">
        <ele>919</ele>
        <time>2017-03-05T19:02:05Z</time>
      </trkpt>
      <trkpt lat="44.10491" lon="3.40977">
        <ele>920</ele>
        <time>2017-03-05T19:04:05Z</time>
      </trkpt>
      <trkpt lat="44.10486" lon="3.40983">
        <ele>921</ele>
        <time>2017-03-05T19:06:05Z</time>
      </trkpt>
      <trkpt lat="44.10476" lon="3.40994">
        <ele>922</ele>
        <time>2017-03-05T19:08:05Z</time>
      </trkpt>
      <trkpt lat="44.10465" lon="3.41006">
        <ele>923</ele>
        <time>2017-03-05T19:10:05Z</time>
      </trkpt>
      <trkpt lat="44.10455" lon="3.41018">
        <ele>924</ele>
        <time>2017-03-05T19:12:05Z</time>
      </trkpt>
      <trkpt lat="44.10447" lon="3.41025">
        <ele>925</ele>
        <time>2017-03-05T19:14:05Z</time>
      </trkpt>
      <trkpt lat="44.10438" lon="3.41031">
        <ele>925</ele>
        <time>2017-03-05T19:16:05Z</time>
      </trkpt>
      <trkpt lat="44.10429" lon="3.41037">
        <ele>925</ele>
        <time>2017-03-05T19:18:05Z</time>
      </trkpt>
      <trkpt lat="44.10422" lon="3.4104">
        <ele>925</ele>
        <time>2017-03-05T19:20:05Z</time>
      </trkpt>
      <trkpt lat="44.10411" lon="3.41039">
        <ele>924</ele>
        <time>2017-03-05T19:22:05Z</time>
      </trkpt>
      <trkpt lat="44.10398" lon="3.41037">
        <ele>924</ele>
        <time>2017-03-05T19:24:05Z</time>
      </trkpt>
      <trkpt lat="44.10387" lon="3.41034">
        <ele>924</ele>
        <time>2017-03-05T19:26:05Z</time>
      </trkpt>
      <trkpt lat="44.10374" lon="3.41028">
        <ele>923</ele>
        <time>2017-03-05T19:28:05Z</time>
      </trkpt>
      <trkpt lat="44.10365" lon="3.41022">
        <ele>922</ele>
        <time>2017-03-05T19:30:05Z</time>
      </trkpt>
      <trkpt lat="44.10352" lon="3.41015">
        <ele>921</ele>
        <time>2017-03-05T19:32:05Z</time>
      </trkpt>
      <trkpt lat="44.10341" lon="3.41006">
        <ele>919</ele>
        <time>2017-03-05T19:34:05Z</time>
      </trkpt>
      <trkpt lat="44.10329" lon="3.40998">
        <ele>918</ele>
        <time>2017-03-05T19:36:05Z</time>
      </trkpt>
      <trkpt lat="44.10317" lon="3.40991">
        <ele>918</ele>
        <time>2017-03-05T19:38:05Z</time>
      </trkpt>
      <trkpt lat="44.10305" lon="3.40986">
        <ele>918</ele>
        <time>2017-03-05T19:40:05Z</time>
      </trkpt>
      <trkpt lat="44.10292" lon="3.40981">
        <ele>919</ele>
        <time>2017-03-05T19:42:05Z</time>
      </trkpt>
      <trkpt lat="44.10272" lon="3.40975">
        <ele>920</ele>
        <time>2017-03-05T19:44:05Z</time>
      </trkpt>
      <trkpt lat="44.10262" lon="3.40975">
        <ele>921</ele>
        <time>2017-03-05T19:46:05Z</time>
      </trkpt>
      <trkpt lat="44.10252" lon="3.40974">
        <ele>922</ele>
        <time>2017-03-05T19:48:05Z</time>
      </trkpt>
      <trkpt lat="44.10237" lon="3.40972">
        <ele>923</ele>
        <time>2017-03-05T19:50:05Z</time>
      </trkpt>
      <trkpt lat="44.10212" lon="3.40968">
        <ele>925</ele>
        <time>2017-03-05T19:52:05Z</time>
      </trkpt>
      <trkpt lat="44.10197" lon="3.40964">
        <ele>927</ele>
        <time>2017-03-05T19:54:05Z</time>
      </trkpt>
      <trkpt lat="44.10186" lon="3.4096">
        <ele>928</ele>
        <time>2017-03-05T19:56:05Z</time>
      </trkpt>
      <trkpt lat="44.10181" lon="3.40957">
        <ele>928</ele>
        <time>2017-03-05T19:58:05Z</time>
      </trkpt>
      <trkpt lat="44.10178" lon="3.40954">
        <ele>928</ele>
        <time>2017-03-05T20:00:05Z</time>
      </trkpt>
      <trkpt lat="44.10175" lon="3.40949">
        <ele>928</ele>
        <time>2017-03-05T20:02:05Z</time>
      </trkpt>
      <trkpt lat="44.10174" lon="3.40945">
        <ele>928</ele>
        <time>2017-03-05T20:04:05Z</time>
      </trkpt>
      <trkpt lat="44.1017" lon="3.40936">
        <ele>928</ele>
        <time>2017-03-05T20:06:05Z</time>
      </trkpt>
      <trkpt lat="44.1017" lon="3.40936">
        <ele>928</ele>
        <time>2017-03-05T20:08:05Z</time>
      </trkpt>
      <trkpt lat="44.10169" lon="3.40945">
        <ele>929</ele>
        <time>2017-03-05T20:10:05Z</time>
      </trkpt>
      <trkpt lat="44.10167" lon="3.4096">
        <ele>930</ele>
        <time>2017-03-05T20:12:05Z</time>
      </trkpt>
      <trkpt lat="44.10165" lon="3.40967">
        <ele>930</ele>
        <time>2017-03-05T20:14:05Z</time>
      </trkpt>
      <trkpt lat="44.10164" lon="3.4097">
        <ele>931</ele>
        <time>2017-03-05T20:16:05Z</time>
      </trkpt>
      <trkpt lat="44.10162" lon="3.40975">
        <ele>931</ele>
        <time>2017-03-05T20:18:05Z</time>
      </trkpt>
      <trkpt lat="44.10158" lon="3.40979">
        <ele>931</ele>
        <time>2017-03-05T20:20:05Z</time>
      </trkpt>
      <trkpt lat="44.10153" lon="3.40982">
        <ele>930</ele>
        <time>2017-03-05T20:22:05Z</time>
      </trkpt>
      <trkpt lat="44.10145" lon="3.40986">
        <ele>930</ele>
        <time>2017-03-05T20:24:05Z</time>
      </trkpt>
      <trkpt lat="44.10139" lon="3.40987">
        <ele>929</ele>
        <time>2017-03-05T20:26:05Z</time>
      </trkpt>
      <trkpt lat="44.10139" lon="3.40987">
        <ele>929</ele>
        <time>2017-03-05T20:28:05Z</time>
      </trkpt>
      <trkpt lat="44.10141" lon="3.40996">
        <ele>930</ele>
        <time>2017-03-05T20:30:05Z</time>
      </trkpt>
      <trkpt lat="44.10141" lon="3.40997">
        <ele>930</ele>
        <time>2017-03-05T20:32:05Z</time>
      </trkpt>
      <trkpt lat="44.10141" lon="3.40998">
        <ele>930</ele>
        <time>2017-03-05T20:34:05Z</time>
      </trkpt>
      <trkpt lat="44.10142" lon="3.40999">
        <ele>930</ele>
        <time>2017-03-05T20:36:05Z</time>
      </trkpt>
      <trkpt lat="44.10143" lon="3.40999">
        <ele>930</ele>
        <time>2017-03-05T20:38:05Z</time>
      </trkpt>
      <trkpt lat="44.10149" lon="3.41005">
        <ele>931</ele>
        <time>2017-03-05T20:40:05Z</time>
      </trkpt>
      <trkpt lat="44.10159" lon="3.41015">
        <ele>934</ele>
        <time>2017-03-05T20:42:05Z</time>
      </trkpt>
      <trkpt lat="44.1017" lon="3.41026">
        <ele>936</ele>
        <time>2017-03-05T20:44:05Z</time>
      </trkpt>
      <trkpt lat="44.10176" lon="3.41035">
        <ele>937</ele>
        <time>2017-03-05T20:46:05Z</time>
      </trkpt>
      <trkpt lat="44.1018" lon="3.41041">
        <ele>938</ele>
        <time>2017-03-05T20:48:05Z</time>
      </trkpt>
      <trkpt lat="44.10183" lon="3.41044">
        <ele>938</ele>
        <time>2017-03-05T20:50:05Z</time>
      </trkpt>
      <trkpt lat="44.10187" lon="3.41047">
        <ele>939</ele>
        <time>2017-03-05T20:52:05Z</time>
      </trkpt>
      <trkpt lat="44.10194" lon="3.41048">
        <ele>939</ele>
        <time>2017-03-05T20:54:05Z</time>
      </trkpt>
      <trkpt lat="44.10201" lon="3.41049">
        <ele>939</ele>
        <time>2017-03-05T20:56:05Z</time>
      </trkpt>
      <trkpt lat="44.10216" lon="3.41051">
        <ele>938</ele>
        <time>2017-03-05T20:58:05Z</time>
      </trkpt>
      <trkpt lat="44.10225" lon="3.41055">
        <ele>939</ele>
        <time>2017-03-05T21:00:05Z</time>
      </trkpt>
      <trkpt lat="44.10235" lon="3.4106">
        <ele>940</ele>
        <time>2017-03-05T21:02:05Z</time>
      </trkpt>
      <trkpt lat="44.10243" lon="3.41065">
        <ele>941</ele>
        <time>2017-03-05T21:04:05Z</time>
      </trkpt>
      <trkpt lat="44.10251" lon="3.4107">
        <ele>942</ele>
        <time>2017-03-05T21:06:05Z</time>
      </trkpt>
      <trkpt lat="44.10259" lon="3.41077">
        <ele>943</ele>
        <time>2017-03-05T21:08:05Z</time>
      </trkpt>
      <trkpt lat="44.10267" lon="3.41085">
        <ele>944</ele>
        <time>2017-03-05T21:10:05Z</time>
      </trkpt>
      <trkpt lat="44.10271" lon="3.4109">
        <ele>945</ele>
        <time>2017-03-05T21:12:05Z</time>
      </trkpt>
      <trkpt lat="44.10274" lon="3.41095">
        <ele>946</ele>
        <time>2017-03-05T21:14:05Z</time>
      </trkpt>
      <trkpt lat="44.10277" lon="3.411">
        <ele>947</ele>
        <time>2017-03-05T21:16:05Z</time>
      </trkpt>
      <trkpt lat="44.10279" lon="3.41107">
        <ele>948</ele>
        <time>2017-03-05T21:18:05Z</time>
      </trkpt>
      <trkpt lat="44.1028" lon="3.41114">
        <ele>950</ele>
        <time>2017-03-05T21:20:05Z</time>
      </trkpt>
      <trkpt lat="44.1028" lon="3.41122">
        <ele>952</ele>
        <time>2017-03-05T21:22:05Z</time>
      </trkpt>
      <trkpt lat="44.1028" lon="3.41129">
        <ele>953</ele>
        <time>2017-03-05T21:24:05Z</time>
      </trkpt>
      <trkpt lat="44.1028" lon="3.41137">
        <ele>955</ele>
        <time>2017-03-05T21:26:05Z</time>
      </trkpt>
      <trkpt lat="44.10279" lon="3.41144">
        <ele>956</ele>
        <time>2017-03-05T21:28:05Z</time>
      </trkpt>
      <trkpt lat="44.10278" lon="3.41153">
        <ele>958</ele>
        <time>2017-03-05T21:30:05Z</time>
      </trkpt>
      <trkpt lat="44.10276" lon="3.41174">
        <ele>962</ele>
        <time>2017-03-05T21:32:05Z</time>
      </trkpt>
      <trkpt lat="44.10276" lon="3.41191">
        <ele>965</ele>
        <time>2017-03-05T21:34:05Z</time>
      </trkpt>
      <trkpt lat="44.10276" lon="3.41203">
        <ele>967</ele>
        <time>2017-03-05T21:36:05Z</time>
      </trkpt>
      <trkpt lat="44.10275" lon="3.41213">
        <ele>969</ele>
        <time>2017-03-05T21:38:05Z</time>
      </trkpt>
      <trkpt lat="44.10276" lon="3.41221">
        <ele>970</ele>
        <time>2017-03-05T21:40:05Z</time>
      </trkpt>
      <trkpt lat="44.10275" lon="3.41229">
        <ele>972</ele>
        <time>2017-03-05T21:42:05Z</time>
      </trkpt>
      <trkpt lat="44.10274" lon="3.41241">
        <ele>973</ele>
        <time>2017-03-05T21:44:05Z</time>
      </trkpt>
      <trkpt lat="44.10272" lon="3.41258">
        <ele>976</ele>
        <time>2017-03-05T21:46:05Z</time>
      </trkpt>
      <trkpt lat="44.10269" lon="3.41272">
        <ele>978</ele>
        <time>2017-03-05T21:48:05Z</time>
      </trkpt>
      <trkpt lat="44.10267" lon="3.41286">
        <ele>980</ele>
        <time>2017-03-05T21:50:05Z</time>
      </trkpt>
      <trkpt lat="44.10264" lon="3.41297">
        <ele>981</ele>
        <time>2017-03-05T21:52:05Z</time>
      </trkpt>
      <trkpt lat="44.10262" lon="3.41306">
        <ele>982</ele>
        <time>2017-03-05T21:54:05Z</time>
      </trkpt>
      <trkpt lat="44.10258" lon="3.41319">
        <ele>984</ele>
        <time>2017-03-05T21:56:05Z</time>
      </trkpt>
      <trkpt lat="44.10254" lon="3.41331">
        <ele>985</ele>
        <time>2017-03-05T21:58:05Z</time>
      </trkpt>
      <trkpt lat="44.1025" lon="3.41339">
        <ele>985</ele>
        <time>2017-03-05T22:00:05Z</time>
      </trkpt>
      <trkpt lat="44.10248" lon="3.41346">
        <ele>985</ele>
        <time>2017-03-05T22:02:05Z</time>
      </trkpt>
      <trkpt lat="44.10244" lon="3.4136">
        <ele>987</ele>
        <time>2017-03-05T22:04:05Z</time>
      </trkpt>
      <trkpt lat="44.10237" lon="3.41387">
        <ele>989</ele>
        <time>2017-03-05T22:06:05Z</time>
      </trkpt>
      <trkpt lat="44.10232" lon="3.4141">
        <ele>992</ele>
        <time>2017-03-05T22:08:05Z</time>
      </trkpt>
      <trkpt lat="44.10228" lon="3.41433">
        <ele>995</ele>
        <time>2017-03-05T22:10:05Z</time>
      </trkpt>
      <trkpt lat="44.10225" lon="3.41454">
        <ele>998</ele>
        <time>2017-03-05T22:12:05Z</time>
      </trkpt>
      <trkpt lat="44.10221" lon="3.41469">
        <ele>1000</ele>
        <time>2017-03-05T22:14:05Z</time>
      </trkpt>
      <trkpt lat="44.10217" lon="3.41487">
        <ele>1002</ele>
        <time>2017-03-05T22:16:05Z</time>
      </trkpt>
      <trkpt lat="44.10211" lon="3.4151">
        <ele>1005</ele>
        <time>2017-03-05T22:18:05Z</time>
      </trkpt>
      <trkpt lat="44.10207" lon="3.41531">
        <ele>1007</ele>
        <time>2017-03-05T22:20:05Z</time>
      </trkpt>
      <trkpt lat="44.10202" lon="3.41549">
        <ele>1009</ele>
        <time>2017-03-05T22:22:05Z</time>
      </trkpt>
      <trkpt lat="44.10197" lon="3.41562">
        <ele>1009</ele>
        <time>2017-03-05T22:24:05Z</time>
      </trkpt>
      <trkpt lat="44.10191" lon="3.4158">
        <ele>1010</ele>
        <time>2017-03-05T22:26:05Z</time>
      </trkpt>
      <trkpt lat="44.10185" lon="3.41599">
        <ele>1011</ele>
        <time>2017-03-05T22:28:05Z</time>
      </trkpt>
      <trkpt lat="44.10181" lon="3.4161">
        <ele>1011</ele>
        <time>2017-03-05T22:30:05Z</time>
      </trkpt>
      <trkpt lat="44.10179" lon="3.41616">
        <ele>1011</ele>
        <time>2017-03-05T22:32:05Z</time>
      </trkpt>
      <trkpt lat="44.10178" lon="3.41625">
        <ele>1012</ele>
        <time>2017-03-05T22:34:05Z</time>
      </trkpt>
      <trkpt lat="44.10175" lon="3.41649">
        <ele>1014</ele>
        <time>2017-03-05T22:36:05Z</time>
      </trkpt>
      <trkpt lat="44.10175" lon="3.41661">
        <ele>1015</ele>
        <time>2017-03-05T22:38:05Z</time>
      </trkpt>
      <trkpt lat="44.10176" lon="3.41665">
        <ele>1016</ele>
        <time>2017-03-05T22:40:05Z</time>
      </trkpt>
      <trkpt lat="44.10178" lon="3.4167">
        <ele>1017</ele>
        <time>2017-03-05T22:42:05Z</time>
      </trkpt>
      <trkpt lat="44.1018" lon="3.41678">
        <ele>1018</ele>
        <time>2017-03-05T22:44:05Z</time>
      </trkpt>
      <trkpt lat="44.10187" lon="3.4175">
        <ele>1024</ele>
        <time>2017-03-05T22:46:05Z</time>
      </trkpt>
      <trkpt lat="44.10188" lon="3.41767">
        <ele>1026</ele>
        <time>2017-03-05T22:48:05Z</time>
      </trkpt>
      <trkpt lat="44.10188" lon="3.41795">
        <ele>1030</ele>
        <time>2017-03-05T22:50:05Z</time>
      </trkpt>
      <trkpt lat="44.10188" lon="3.41796">
        <ele>1030</ele>
        <time>2017-03-05T22:52:05Z</time>
      </trkpt>
      <trkpt lat="44.10188" lon="3.41798">
        <ele>1030</ele>
        <time>2017-03-05T22:54:05Z</time>
      </trkpt>
      <trkpt lat="44.10187" lon="3.41799">
        <ele>1030</ele>
        <time>2017-03-05T22:56:05Z</time>
      </trkpt>
      <trkpt lat="44.10186" lon="3.418">
        <ele>1030</ele>
        <time>2017-03-05T22:58:05Z</time>
      </trkpt>
      <trkpt lat="44.10183" lon="3.41801">
        <ele>1029</ele>
        <time>2017-03-05T23:00:05Z</time>
      </trkpt>
      <trkpt lat="44.10182" lon="3.41803">
        <ele>1030</ele>
        <time>2017-03-05T23:02:05Z</time>
      </trkpt>
      <trkpt lat="44.10181" lon="3.41804">
        <ele>1030</ele>
        <time>2017-03-05T23:04:05Z</time>
      </trkpt>
      <trkpt lat="44.10181" lon="3.41805">
        <ele>1030</ele>
        <time>2017-03-05T23:06:05Z</time>
      </trkpt>
      <trkpt lat="44.1018" lon="3.41806">
        <ele>1030</ele>
        <time>2017-03-05T23:08:05Z</time>
      </trkpt>
      <trkpt lat="44.1018" lon="3.41808">
        <ele>1030</ele>
        <time>2017-03-05T23:10:05Z</time>
      </trkpt>
      <trkpt lat="44.1018" lon="3.4181">
        <ele>1030</ele>
        <time>2017-03-05T23:12:05Z</time>
      </trkpt>
      <trkpt lat="44.10179" lon="3.41816">
        <ele>1031</ele>
        <time>2017-03-05T23:14:05Z</time>
      </trkpt>
      <trkpt lat="44.10179" lon="3.4182">
        <ele>1031</ele>
        <time>2017-03-05T23:16:05Z</time>
      </trkpt>
      <trkpt lat="44.10181" lon="3.41862">
        <ele>1038</ele>
        <time>2017-03-05T23:18:05Z</time>
      </trkpt>
      <trkpt lat="44.10183" lon="3.41912">
        <ele>1047</ele>
        <time>2017-03-05T23:20:05Z</time>
      </trkpt>
      <trkpt lat="44.10183" lon="3.4194">
        <ele>1050</ele>
        <time>2017-03-05T23:22:05Z</time>
      </trkpt>
      <trkpt lat="44.10153" lon="3.41983">
        <ele>1056</ele>
        <time>2017-03-05T23:24:05Z</time>
      </trkpt>
      <trkpt lat="44.10146" lon="3.41995">
        <ele>1058</ele>
        <time>2017-03-05T23:26:05Z</time>
      </trkpt>
      <trkpt lat="44.10138" lon="3.4201">
        <ele>1060</ele>
        <time>2017-03-05T23:28:05Z</time>
      </trkpt>
      <trkpt lat="44.10132" lon="3.42024">
        <ele>1062</ele>
        <time>2017-03-05T23:30:05Z</time>
      </trkpt>
      <trkpt lat="44.10125" lon="3.42042">
        <ele>1065</ele>
        <time>2017-03-05T23:32:05Z</time>
      </trkpt>
      <trkpt lat="44.10118" lon="3.42066">
        <ele>1069</ele>
        <time>2017-03-05T23:34:05Z</time>
      </trkpt>
      <trkpt lat="44.10107" lon="3.42104">
        <ele>1075</ele>
        <time>2017-03-05T23:36:05Z</time>
      </trkpt>
      <trkpt lat="44.101" lon="3.42131">
        <ele>1078</ele>
        <time>2017-03-05T23:38:05Z</time>
      </trkpt>
      <trkpt lat="44.10093" lon="3.42159">
        <ele>1082</ele>
        <time>2017-03-05T23:40:05Z</time>
      </trkpt>
      <trkpt lat="44.10087" lon="3.42175">
        <ele>1084</ele>
        <time>2017-03-05T23:42:05Z</time>
      </trkpt>
      <trkpt lat="44.1008" lon="3.42192">
        <ele>1086</ele>
        <time>2017-03-05T23:44:05Z</time>
      </trkpt>
      <trkpt lat="44.10071" lon="3.42205">
        <ele>1088</ele>
        <time>2017-03-05T23:46:05Z</time>
      </trkpt>
      <trkpt lat="44.10066" lon="3.42216">
        <ele>1089</ele>
        <time>2017-03-05T23:48:05Z</time>
      </trkpt>
      <trkpt lat="44.10034" lon="3.42267">
        <ele>1096</ele>
        <time>2017-03-05T23:50:05Z</time>
      </trkpt>
      <trkpt lat="44.10014" lon="3.42295">
        <ele>1101</ele>
        <time>2017-03-05T23:52:05Z</time>
      </trkpt>
      <trkpt lat="44.09995" lon="3.42318">
        <ele>1105</ele>
        <time>2017-03-05T23:54:05Z</time>
      </trkpt>
      <trkpt lat="44.09979" lon="3.42337">
        <ele>1108</ele>
        <time>2017-03-05T23:56:05Z</time>
      </trkpt>
      <trkpt lat="44.09963" lon="3.42354">
        <ele>1109</ele>
        <time>2017-03-05T23:58:05Z</time>
      </trkpt>
      <trkpt lat="44.09951" lon="3.42368">
        <ele>1111</ele>
        <time>2017-03-06T00:00:05Z</time>
      </trkpt>
      <trkpt lat="44.09949" lon="3.42372">
        <ele>1111</ele>
        <time>2017-03-06T00:02:05Z</time>
      </trkpt>
      <trkpt lat="44.09947" lon="3.42377">
        <ele>1111</ele>
        <time>2017-03-06T00:04:05Z</time>
      </trkpt>
      <trkpt lat="44.09945" lon="3.42383">
        <ele>1112</ele>
        <time>2017-03-06T00:06:05Z</time>
      </trkpt>
      <trkpt lat="44.09943" lon="3.42387">
        <ele>1112</ele>
        <time>2017-03-06T00:08:05Z</time>
      </trkpt>
      <trkpt lat="44.09938" lon="3.42394">
        <ele>1113</ele>
        <time>2017-03-06T00:10:05Z</time>
      </trkpt>
      <trkpt lat="44.09934" lon="3.42399">
        <ele>1113</ele>
        <time>2017-03-06T00:12:05Z</time>
      </trkpt>
      <trkpt lat="44.09929" lon="3.42404">
        <ele>1114</ele>
        <time>2017-03-06T00:14:05Z</time>
      </trkpt>
      <trkpt lat="44.09915" lon="3.42421">
        <ele>1116</ele>
        <time>2017-03-06T00:16:05Z</time>
      </trkpt>
      <trkpt lat="44.09902" lon="3.42436">
        <ele>1113</ele>
        <time>2017-03-06T00:18:05Z</time>
      </trkpt>
      <trkpt lat="44.09887" lon="3.42456">
        <ele>1112</ele>
        <time>2017-03-06T00:20:05Z</time>
      </trkpt>
      <trkpt lat="44.09871" lon="3.42474">
        <ele>1112</ele>
        <time>2017-03-06T00:22:05Z</time>
      </trkpt>
      <trkpt lat="44.09843" lon="3.42503">
        <ele>1114</ele>
        <time>2017-03-06T00:24:05Z</time>
      </trkpt>
      <trkpt lat="44.09814" lon="3.4254">
        <ele>1111</ele>
        <time>2017-03-06T00:26:05Z</time>
      </trkpt>
      <trkpt lat="44.09785" lon="3.4257">
        <ele>1114</ele>
        <time>2017-03-06T00:28:05Z</time>
      </trkpt>
      <trkpt lat="44.0975" lon="3.42601">
        <ele>1117</ele>
        <time>2017-03-06T00:30:05Z</time>
      </trkpt>
      <trkpt lat="44.09713" lon="3.42628">
        <ele>1118</ele>
        <time>2017-03-06T00:32:05Z</time>
      </trkpt>
      <trkpt lat="44.09657" lon="3.42667">
        <ele>1127</ele>
        <time>2017-03-06T00:34:05Z</time>
      </trkpt>
      <trkpt lat="44.09605" lon="3.42698">
        <ele>1130</ele>
        <time>2017-03-06T00:36:05Z</time>
      </trkpt>
      <trkpt lat="44.09563" lon="3.42724">
        <ele>1135</ele>
        <time>2017-03-06T00:38:05Z</time>
      </trkpt>
      <trkpt lat="44.09541" lon="3.42742">
        <ele>1141</ele>
        <time>2017-03-06T00:40:05Z</time>
      </trkpt>
      <trkpt lat="44.09527" lon="3.42753">
        <ele>1144</ele>
        <time>2017-03-06T00:42:05Z</time>
      </trkpt>
      <trkpt lat="44.09507" lon="3.42772">
        <ele>1147</ele>
        <time>2017-03-06T00:44:05Z</time>
      </trkpt>
      <trkpt lat="44.09489" lon="3.42792">
        <ele>1148</ele>
        <time>2017-03-06T00:46:05Z</time>
      </trkpt>
      <trkpt lat="44.09472" lon="3.42815">
        <ele>1150</ele>
        <time>2017-03-06T00:48:05Z</time>
      </trkpt>
      <trkpt lat="44.0946" lon="3.42835">
        <ele>1152</ele>
        <time>2017-03-06T00:50:05Z</time>
      </trkpt>
      <trkpt lat="44.09439" lon="3.42876">
        <ele>1150</ele>
        <time>2017-03-06T00:52:05Z</time>
      </trkpt>
      <trkpt lat="44.09419" lon="3.42906">
        <ele>1151</ele>
        <time>2017-03-06T00:54:05Z</time>
      </trkpt>
      <trkpt lat="44.09401" lon="3.42932">
        <ele>1148</ele>
        <time>2017-03-06T00:56:05Z</time>
      </trkpt>
      <trkpt lat="44.09373" lon="3.42963">
        <ele>1148</ele>
        <time>2017-03-06T00:58:05Z</time>
      </trkpt>
      <trkpt lat="44.09356" lon="3.42981">
        <ele>1151</ele>
        <time>2017-03-06T01:00:05Z</time>
      </trkpt>
      <trkpt lat="44.09341" lon="3.42994">
        <ele>1155</ele>
        <time>2017-03-06T01:02:05Z</time>
      </trkpt>
      <trkpt lat="44.09327" lon="3.43011">
        <ele>1157</ele>
        <time>2017-03-06T01:04:05Z</time>
      </trkpt>
      <trkpt lat="44.09318" lon="3.43022">
        <ele>1157</ele>
        <time>2017-03-06T01:06:05Z</time>
      </trkpt>
      <trkpt lat="44.09306" lon="3.43041">
        <ele>1158</ele>
        <time>2017-03-06T01:08:05Z</time>
      </trkpt>
      <trkpt lat="44.09301" lon="3.43051">
        <ele>1159</ele>
        <time>2017-03-06T01:10:05Z</time>
      </trkpt>
      <trkpt lat="44.09299" lon="3.43059">
        <ele>1159</ele>
        <time>2017-03-06T01:12:05Z</time>
      </trkpt>
      <trkpt lat="44.09298" lon="3.43069">
        <ele>1159</ele>
        <time>2017-03-06T01:14:05Z</time>
      </trkpt>
      <trkpt lat="44.09295" lon="3.43096">
        <ele>1161</ele>
        <time>2017-03-06T01:16:05Z</time>
      </trkpt>
      <trkpt lat="44.09295" lon="3.43115">
        <ele>1161</ele>
        <time>2017-03-06T01:18:05Z</time>
      </trkpt>
      <trkpt lat="44.09294" lon="3.43119">
        <ele>1161</ele>
        <time>2017-03-06T01:20:05Z</time>
      </trkpt>
      <trkpt lat="44.09293" lon="3.4312">
        <ele>1161</ele>
        <time>2017-03-06T01:22:05Z</time>
      </trkpt>
      <trkpt lat="44.09292" lon="3.43122">
        <ele>1162</ele>
        <time>2017-03-06T01:24:05Z</time>
      </trkpt>
      <trkpt lat="44.09291" lon="3.43123">
        <ele>1162</ele>
        <time>2017-03-06T01:26:05Z</time>
      </trkpt>
      <trkpt lat="44.09289" lon="3.43124">
        <ele>1163</ele>
        <time>2017-03-06T01:28:05Z</time>
      </trkpt>
      <trkpt lat="44.09288" lon="3.43124">
        <ele>1163</ele>
        <time>2017-03-06T01:30:05Z</time>
      </trkpt>
      <trkpt lat="44.09286" lon="3.43123">
        <ele>1164</ele>
        <time>2017-03-06T01:32:05Z</time>
      </trkpt>
      <trkpt lat="44.09283" lon="3.4312">
        <ele>1165</ele>
        <time>2017-03-06T01:34:05Z</time>
      </trkpt>
      <trkpt lat="44.09278" lon="3.43113">
        <ele>1166</ele>
        <time>2017-03-06T01:36:05Z</time>
      </trkpt>
      <trkpt lat="44.09273" lon="3.43107">
        <ele>1168</ele>
        <time>2017-03-06T01:38:05Z</time>
      </trkpt>
      <trkpt lat="44.09269" lon="3.43103">
        <ele>1169</ele>
        <time>2017-03-06T01:40:05Z</time>
      </trkpt>
      <trkpt lat="44.09266" lon="3.43099">
        <ele>1170</ele>
        <time>2017-03-06T01:42:05Z</time>
      </trkpt>
      <trkpt lat="44.0926" lon="3.43094">
        <ele>1172</ele>
        <time>2017-03-06T01:44:05Z</time>
      </trkpt>
      <trkpt lat="44.09264" lon="3.43078">
        <ele>1169</ele>
        <time>2017-03-06T01:46:05Z</time>
      </trkpt>
      <trkpt lat="44.09241" lon="3.4309">
        <ele>1175</ele>
        <time>2017-03-06T01:48:05Z</time>
      </trkpt>
      <trkpt lat="44.09241" lon="3.43089">
        <ele>1175</ele>
        <time>2017-03-06T01:50:05Z</time>
      </trkpt>
      <trkpt lat="44.09223" lon="3.43108">
        <ele>1177</ele>
        <time>2017-03-06T01:52:05Z</time>
      </trkpt>
      <trkpt lat="44.09215" lon="3.43116">
        <ele>1179</ele>
        <time>2017-03-06T01:54:05Z</time>
      </trkpt>
      <trkpt lat="44.09206" lon="3.43125">
        <ele>1181</ele>
        <time>2017-03-06T01:56:05Z</time>
      </trkpt>
      <trkpt lat="44.09199" lon="3.4313">
        <ele>1182</ele>
        <time>2017-03-06T01:58:05Z</time>
      </trkpt>
      <trkpt lat="44.09187" lon="3.43138">
        <ele>1185</ele>
        <time>2017-03-06T02:00:05Z</time>
      </trkpt>
      <trkpt lat="44.0918" lon="3.43142">
        <ele>1186</ele>
        <time>2017-03-06T02:02:05Z</time>
      </trkpt>
      <trkpt lat="44.09174" lon="3.43148">
        <ele>1188</ele>
        <time>2017-03-06T02:04:05Z</time>
      </trkpt>
      <trkpt lat="44.0917" lon="3.43154">
        <ele>1190</ele>
        <time>2017-03-06T02:06:05Z</time>
      </trkpt>
      <trkpt lat="44.09165" lon="3.43162">
        <ele>1192</ele>
        <time>2017-03-06T02:08:05Z</time>
      </trkpt>
      <trkpt lat="44.09157" lon="3.43174">
        <ele>1195</ele>
        <time>2017-03-06T02:10:05Z</time>
      </trkpt>
      <trkpt lat="44.09146" lon="3.43185">
        <ele>1197</ele>
        <time>2017-03-06T02:12:05Z</time>
      </trkpt>
      <trkpt lat="44.09141" lon="3.43193">
        <ele>1198</ele>
        <time>2017-03-06T02:14:05Z</time>
      </trkpt>
      <trkpt lat="44.09137" lon="3.43202">
        <ele>1199</ele>
        <time>2017-03-06T02:16:05Z</time>
      </trkpt>
      <trkpt lat="44.09131" lon="3.43212">
        <ele>1201</ele>
        <time>2017-03-06T02:18:05Z</time>
      </trkpt>
      <trkpt lat="44.09124" lon="3.43222">
        <ele>1203</ele>
        <time>2017-03-06T02:20:05Z</time>
      </trkpt>
      <trkpt lat="44.09114" lon="3.43235">
        <ele>1205</ele>
        <time>2017-03-06T02:22:05Z</time>
      </trkpt>
      <trkpt lat="44.09109" lon="3.43244">
        <ele>1206</ele>
        <time>2017-03-06T02:24:05Z</time>
      </trkpt>
      <trkpt lat="44.09105" lon="3.43254">
        <ele>1208</ele>
        <time>2017-03-06T02:26:05Z</time>
      </trkpt>
      <trkpt lat="44.09104" lon="3.43263">
        <ele>1208</ele>
        <time>2017-03-06T02:28:05Z</time>
      </trkpt>
      <trkpt lat="44.09102" lon="3.43274">
        <ele>1209</ele>
        <time>2017-03-06T02:30:05Z</time>
      </trkpt>
      <trkpt lat="44.091" lon="3.4329">
        <ele>1210</ele>
        <time>2017-03-06T02:32:05Z</time>
      </trkpt>
      <trkpt lat="44.09098" lon="3.43303">
        <ele>1211</ele>
        <time>2017-03-06T02:34:05Z</time>
      </trkpt>
      <trkpt lat="44.09097" lon="3.4331">
        <ele>1212</ele>
        <time>2017-03-06T02:36:05Z</time>
      </trkpt>
      <trkpt lat="44.09094" lon="3.43318">
        <ele>1213</ele>
        <time>2017-03-06T02:38:05Z</time>
      </trkpt>
      <trkpt lat="44.09093" lon="3.4332">
        <ele>1213</ele>
        <time>2017-03-06T02:40:05Z</time>
      </trkpt>
      <trkpt lat="44.09092" lon="3.43322">
        <ele>1213</ele>
        <time>2017-03-06T02:42:05Z</time>
      </trkpt>
      <trkpt lat="44.0909" lon="3.43324">
        <ele>1214</ele>
        <time>2017-03-06T02:44:05Z</time>
      </trkpt>
      <trkpt lat="44.09088" lon="3.43325">
        <ele>1214</ele>
        <time>2017-03-06T02:46:05Z</time>
      </trkpt>
      <trkpt lat="44.09084" lon="3.43329">
        <ele>1215</ele>
        <time>2017-03-06T02:48:05Z</time>
      </trkpt>
      <trkpt lat="44.09071" lon="3.43337">
        <ele>1216</ele>
        <time>2017-03-06T02:50:05Z</time>
      </trkpt>
      <trkpt lat="44.09049" lon="3.43354">
        <ele>1219</ele>
        <time>2017-03-06T02:52:05Z</time>
      </trkpt>
      <trkpt lat="44.09029" lon="3.43375">
        <ele>1223</ele>
        <time>2017-03-06T02:54:05Z</time>
      </trkpt>
      <trkpt lat="44.09001" lon="3.43404">
        <ele>1227</ele>
        <time>2017-03-06T02:56:05Z</time>
      </trkpt>
      <trkpt lat="44.08971" lon="3.43428">
        <ele>1231</ele>
        <time>2017-03-06T02:58:05Z</time>
      </trkpt>
      <trkpt lat="44.08928" lon="3.4348">
        <ele>1238</ele>
        <time>2017-03-06T03:00:05Z</time>
      </trkpt>
      <trkpt lat="44.08881" lon="3.43526">
        <ele>1244</ele>
        <time>2017-03-06T03:02:05Z</time>
      </trkpt>
      <trkpt lat="44.0884" lon="3.43578">
        <ele>1250</ele>
        <time>2017-03-06T03:04:05Z</time>
      </trkpt>
      <trkpt lat="44.08797" lon="3.43635">
        <ele>1251</ele>
        <time>2017-03-06T03:06:05Z</time>
      </trkpt>
      <trkpt lat="44.08797" lon="3.43635">
        <ele>1251</ele>
        <time>2017-03-06T03:08:05Z</time>
      </trkpt>
      <trkpt lat="44.08778" lon="3.43661">
        <ele>1251</ele>
        <time>2017-03-06T03:10:05Z</time>
      </trkpt>
      <trkpt lat="44.0871" lon="3.43714">
        <ele>1252</ele>
        <time>2017-03-06T03:12:05Z</time>
      </trkpt>
      <trkpt lat="44.08702" lon="3.43713">
        <ele>1253</ele>
        <time>2017-03-06T03:14:05Z</time>
      </trkpt>
      <trkpt lat="44.08695" lon="3.43713">
        <ele>1253</ele>
        <time>2017-03-06T03:16:05Z</time>
      </trkpt>
      <trkpt lat="44.08689" lon="3.43713">
        <ele>1254</ele>
        <time>2017-03-06T03:18:05Z</time>
      </trkpt>
      <trkpt lat="44.08682" lon="3.43715">
        <ele>1254</ele>
        <time>2017-03-06T03:20:05Z</time>
      </trkpt>
      <trkpt lat="44.08675" lon="3.43719">
        <ele>1254</ele>
        <time>2017-03-06T03:22:05Z</time>
      </trkpt>
      <trkpt lat="44.08651" lon="3.43737">
        <ele>1255</ele>
        <time>2017-03-06T03:24:05Z</time>
      </trkpt>
      <trkpt lat="44.08635" lon="3.43748">
        <ele>1256</ele>
        <time>2017-03-06T03:26:05Z</time>
      </trkpt>
      <trkpt lat="44.08625" lon="3.43753">
        <ele>1257</ele>
        <time>2017-03-06T03:28:05Z</time>
      </trkpt>
      <trkpt lat="44.0861" lon="3.43757">
        <ele>1258</ele>
        <time>2017-03-06T03:30:05Z</time>
      </trkpt>
      <trkpt lat="44.08601" lon="3.4376">
        <ele>1259</ele>
        <time>2017-03-06T03:32:05Z</time>
      </trkpt>
      <trkpt lat="44.08593" lon="3.43762">
        <ele>1260</ele>
        <time>2017-03-06T03:34:05Z</time>
      </trkpt>
      <trkpt lat="44.08583" lon="3.43767">
        <ele>1261</ele>
        <time>2017-03-06T03:36:05Z</time>
      </trkpt>
      <trkpt lat="44.08576" lon="3.4377">
        <ele>1261</ele>
        <time>2017-03-06T03:38:05Z</time>
      </trkpt>
      <trkpt lat="44.0857" lon="3.43772">
        <ele>1262</ele>
        <time>2017-03-06T03:40:05Z</time>
      </trkpt>
      <trkpt lat="44.08562" lon="3.43773">
        <ele>1264</ele>
        <time>2017-03-06T03:42:05Z</time>
      </trkpt>
      <trkpt lat="44.0855" lon="3.43776">
        <ele>1265</ele>
        <time>2017-03-06T03:44:05Z</time>
      </trkpt>
      <trkpt lat="44.0853" lon="3.43782">
        <ele>1268</ele>
        <time>2017-03-06T03:46:05Z</time>
      </trkpt>
      <trkpt lat="44.08513" lon="3.43792">
        <ele>1270</ele>
        <time>2017-03-06T03:48:05Z</time>
      </trkpt>
      <trkpt lat="44.08508" lon="3.43795">
        <ele>1271</ele>
        <time>2017-03-06T03:50:05Z</time>
      </trkpt>
      <trkpt lat="44.08503" lon="3.438">
        <ele>1272</ele>
        <time>2017-03-06T03:52:05Z</time>
      </trkpt>
      <trkpt lat="44.08495" lon="3.43808">
        <ele>1272</ele>
        <time>2017-03-06T03:54:05Z</time>
      </trkpt>
      <trkpt lat="44.08484" lon="3.4382">
        <ele>1273</ele>
        <time>2017-03-06T03:56:05Z</time>
      </trkpt>
      <trkpt lat="44.08474" lon="3.43832">
        <ele>1273</ele>
        <time>2017-03-06T03:58:05Z</time>
      </trkpt>
      <trkpt lat="44.08453" lon="3.43861">
        <ele>1274</ele>
        <time>2017-03-06T04:00:05Z</time>
      </trkpt>
      <trkpt lat="44.0844" lon="3.43884">
        <ele>1275</ele>
        <time>2017-03-06T04:02:05Z</time>
      </trkpt>
      <trkpt lat="44.08432" lon="3.43898">
        <ele>1275</ele>
        <time>2017-03-06T04:04:05Z</time>
      </trkpt>
      <trkpt lat="44.08431" lon="3.43902">
        <ele>1275</ele>
        <time>2017-03-06T04:06:05Z</time>
      </trkpt>
      <trkpt lat="44.0843" lon="3.43905">
        <ele>1275</ele>
        <time>2017-03-06T04:08:05Z</time>
      </trkpt>
      <trkpt lat="44.08429" lon="3.43908">
        <ele>1275</ele>
        <time>2017-03-06T04:10:05Z</time>
      </trkpt>
      <trkpt lat="44.08429" lon="3.43916">
        <ele>1275</ele>
        <time>2017-03-06T04:12:05Z</time>
      </trkpt>
      <trkpt lat="44.08428" lon="3.4392">
        <ele>1275</ele>
        <time>2017-03-06T04:14:05Z</time>
      </trkpt>
      <trkpt lat="44.08428" lon="3.43923">
        <ele>1275</ele>
        <time>2017-03-06T04:16:05Z</time>
      </trkpt>
      <trkpt lat="44.08427" lon="3.43926">
        <ele>1275</ele>
        <time>2017-03-06T04:18:05Z</time>
      </trkpt>
      <trkpt lat="44.08426" lon="3.4393">
        <ele>1276</ele>
        <time>2017-03-06T04:20:05Z</time>
      </trkpt>
      <trkpt lat="44.08425" lon="3.43936">
        <ele>1276</ele>
        <time>2017-03-06T04:22:05Z</time>
      </trkpt>
      <trkpt lat="44.08423" lon="3.43943">
        <ele>1276</ele>
        <time>2017-03-06T04:24:05Z</time>
      </trkpt>
      <trkpt lat="44.08421" lon="3.43948">
        <ele>1277</ele>
        <time>2017-03-06T04:26:05Z</time>
      </trkpt>
      <trkpt lat="44.0842" lon="3.43952">
        <ele>1277</ele>
        <time>2017-03-06T04:28:05Z</time>
      </trkpt>
      <trkpt lat="44.08413" lon="3.43966">
        <ele>1278</ele>
        <time>2017-03-06T04:30:05Z</time>
      </trkpt>
      <trkpt lat="44.08399" lon="3.43998">
        <ele>1279</ele>
        <time>2017-03-06T04:32:05Z</time>
      </trkpt>
      <trkpt lat="44.08391" lon="3.44012">
        <ele>1280</ele>
        <time>2017-03-06T04:34:05Z</time>
      </trkpt>
      <trkpt lat="44.08387" lon="3.44022">
        <ele>1281</ele>
        <time>2017-03-06T04:36:05Z</time>
      </trkpt>
      <trkpt lat="44.08384" lon="3.44028">
        <ele>1281</ele>
        <time>2017-03-06T04:38:05Z</time>
      </trkpt>
      <trkpt lat="44.08383" lon="3.44035">
        <ele>1281</ele>
        <time>2017-03-06T04:40:05Z</time>
      </trkpt>
      <trkpt lat="44.08383" lon="3.44035">
        <ele>1281</ele>
        <time>2017-03-06T04:42:05Z</time>
      </trkpt>
      <trkpt lat="44.08378" lon="3.44036">
        <ele>1282</ele>
        <time>2017-03-06T04:44:05Z</time>
      </trkpt>
      <trkpt lat="44.08362" lon="3.44038">
        <ele>1282</ele>
        <time>2017-03-06T04:46:05Z</time>
      </trkpt>
      <trkpt lat="44.08355" lon="3.44039">
        <ele>1283</ele>
        <time>2017-03-06T04:48:05Z</time>
      </trkpt>
      <trkpt lat="44.08349" lon="3.44041">
        <ele>1283</ele>
        <time>2017-03-06T04:50:05Z</time>
      </trkpt>
      <trkpt lat="44.08341" lon="3.44045">
        <ele>1283</ele>
        <time>2017-03-06T04:52:05Z</time>
      </trkpt>
      <trkpt lat="44.08334" lon="3.44048">
        <ele>1284</ele>
        <time>2017-03-06T04:54:05Z</time>
      </trkpt>
      <trkpt lat="44.0833" lon="3.4405">
        <ele>1284</ele>
        <time>2017-03-06T04:56:05Z</time>
      </trkpt>
      <trkpt lat="44.08323" lon="3.44053">
        <ele>1284</ele>
        <time>2017-03-06T04:58:05Z</time>
      </trkpt>
      <trkpt lat="44.08315" lon="3.44057">
        <ele>1284</ele>
        <time>2017-03-06T05:00:05Z</time>
      </trkpt>
      <trkpt lat="44.08307" lon="3.44062">
        <ele>1284</ele>
        <time>2017-03-06T05:02:05Z</time>
      </trkpt>
      <trkpt lat="44.08299" lon="3.44066">
        <ele>1284</ele>
        <time>2017-03-06T05:04:05Z</time>
      </trkpt>
      <trkpt lat="44.08292" lon="3.4407">
        <ele>1284</ele>
        <time>2017-03-06T05:06:05Z</time>
      </trkpt>
      <trkpt lat="44.08288" lon="3.44074">
        <ele>1283</ele>
        <time>2017-03-06T05:08:05Z</time>
      </trkpt>
      <trkpt lat="44.08284" lon="3.44077">
        <ele>1283</ele>
        <time>2017-03-06T05:10:05Z</time>
      </trkpt>
      <trkpt lat="44.0828" lon="3.44082">
        <ele>1283</ele>
        <time>2017-03-06T05:12:05Z</time>
      </trkpt>
      <trkpt lat="44.08269" lon="3.44099">
        <ele>1282</ele>
        <time>2017-03-06T05:14:05Z</time>
      </trkpt>
      <trkpt lat="44.08257" lon="3.44112">
        <ele>1281</ele>
        <time>2017-03-06T05:16:05Z</time>
      </trkpt>
      <trkpt lat="44.08238" lon="3.44136">
        <ele>1277</ele>
        <time>2017-03-06T05:18:05Z</time>
      </trkpt>
      <trkpt lat="44.08232" lon="3.44142">
        <ele>1276</ele>
        <time>2017-03-06T05:20:05Z</time>
      </trkpt>
      <trkpt lat="44.08231" lon="3.44145">
        <ele>1276</ele>
        <time>2017-03-06T05:22:05Z</time>
      </trkpt>
      <trkpt lat="44.0823" lon="3.44148">
        <ele>1275</ele>
        <time>2017-03-06T05:24:05Z</time>
      </trkpt>
      <trkpt lat="44.08229" lon="3.44152">
        <ele>1275</ele>
        <time>2017-03-06T05:26:05Z</time>
      </trkpt>
      <trkpt lat="44.08229" lon="3.4416">
        <ele>1274</ele>
        <time>2017-03-06T05:28:05Z</time>
      </trkpt>
      <trkpt lat="44.08228" lon="3.44166">
        <ele>1273</ele>
        <time>2017-03-06T05:30:05Z</time>
      </trkpt>
      <trkpt lat="44.08229" lon="3.44172">
        <ele>1273</ele>
        <time>2017-03-06T05:32:05Z</time>
      </trkpt>
      <trkpt lat="44.08233" lon="3.44204">
        <ele>1270</ele>
        <time>2017-03-06T05:34:05Z</time>
      </trkpt>
      <trkpt lat="44.08238" lon="3.44229">
        <ele>1268</ele>
        <time>2017-03-06T05:36:05Z</time>
      </trkpt>
      <trkpt lat="44.08238" lon="3.44231">
        <ele>1268</ele>
        <time>2017-03-06T05:38:05Z</time>
      </trkpt>
      <trkpt lat="44.08239" lon="3.44234">
        <ele>1268</ele>
        <time>2017-03-06T05:40:05Z</time>
      </trkpt>
      <trkpt lat="44.08239" lon="3.44236">
        <ele>1268</ele>
        <time>2017-03-06T05:42:05Z</time>
      </trkpt>
      <trkpt lat="44.08239" lon="3.44238">
        <ele>1268</ele>
        <time>2017-03-06T05:44:05Z</time>
      </trkpt>
      <trkpt lat="44.08239" lon="3.44239">
        <ele>1267</ele>
        <time>2017-03-06T05:46:05Z</time>
      </trkpt>
      <trkpt lat="44.08238" lon="3.4424">
        <ele>1267</ele>
        <time>2017-03-06T05:48:05Z</time>
      </trkpt>
      <trkpt lat="44.08238" lon="3.44242">
        <ele>1267</ele>
        <time>2017-03-06T05:50:05Z</time>
      </trkpt>
      <trkpt lat="44.08237" lon="3.44242">
        <ele>1266</ele>
        <time>2017-03-06T05:52:05Z</time>
      </trkpt>
      <trkpt lat="44.08236" lon="3.44243">
        <ele>1266</ele>
        <time>2017-03-06T05:54:05Z</time>
      </trkpt>
      <trkpt lat="44.08235" lon="3.44243">
        <ele>1266</ele>
        <time>2017-03-06T05:56:05Z</time>
      </trkpt>
      <trkpt lat="44.08234" lon="3.44243">
        <ele>1265</ele>
        <time>2017-03-06T05:58:05Z</time>
      </trkpt>
      <trkpt lat="44.08233" lon="3.44242">
        <ele>1265</ele>
        <time>2017-03-06T06:00:05Z</time>
      </trkpt>
      <trkpt lat="44.08227" lon="3.44235">
        <ele>1264</ele>
        <time>2017-03-06T06:02:05Z</time>
      </trkpt>
      <trkpt lat="44.08202" lon="3.44208">
        <ele>1262</ele>
        <time>2017-03-06T06:04:05Z</time>
      </trkpt>
      <trkpt lat="44.08199" lon="3.44207">
        <ele>1262</ele>
        <time>2017-03-06T06:06:05Z</time>
      </trkpt>
      <trkpt lat="44.08198" lon="3.44208">
        <ele>1261</ele>
        <time>2017-03-06T06:08:05Z</time>
      </trkpt>
      <trkpt lat="44.08198" lon="3.44213">
        <ele>1260</ele>
        <time>2017-03-06T06:10:05Z</time>
      </trkpt>
      <trkpt lat="44.08199" lon="3.44218">
        <ele>1259</ele>
        <time>2017-03-06T06:12:05Z</time>
      </trkpt>
      <trkpt lat="44.08201" lon="3.44233">
        <ele>1257</ele>
        <time>2017-03-06T06:14:05Z</time>
      </trkpt>
      <trkpt lat="44.08207" lon="3.44274">
        <ele>1252</ele>
        <time>2017-03-06T06:16:05Z</time>
      </trkpt>
      <trkpt lat="44.08211" lon="3.443">
        <ele>1249</ele>
        <time>2017-03-06T06:18:05Z</time>
      </trkpt>
      <trkpt lat="44.08211" lon="3.44313">
        <ele>1247</ele>
        <time>2017-03-06T06:20:05Z</time>
      </trkpt>
      <trkpt lat="44.0821" lon="3.44329">
        <ele>1244</ele>
        <time>2017-03-06T06:22:05Z</time>
      </trkpt>
      <trkpt lat="44.08205" lon="3.44363">
        <ele>1240</ele>
        <time>2017-03-06T06:24:05Z</time>
      </trkpt>
      <trkpt lat="44.08202" lon="3.44384">
        <ele>1238</ele>
        <time>2017-03-06T06:26:05Z</time>
      </trkpt>
      <trkpt lat="44.08198" lon="3.44412">
        <ele>1234</ele>
        <time>2017-03-06T06:28:05Z</time>
      </trkpt>
      <trkpt lat="44.08196" lon="3.44415">
        <ele>1233</ele>
        <time>2017-03-06T06:30:05Z</time>
      </trkpt>
      <trkpt lat="44.08192" lon="3.44413">
        <ele>1231</ele>
        <time>2017-03-06T06:32:05Z</time>
      </trkpt>
      <trkpt lat="44.08189" lon="3.44407">
        <ele>1230</ele>
        <time>2017-03-06T06:34:05Z</time>
      </trkpt>
      <trkpt lat="44.08174" lon="3.44362">
        <ele>1225</ele>
        <time>2017-03-06T06:36:05Z</time>
      </trkpt>
      <trkpt lat="44.08171" lon="3.44354">
        <ele>1224</ele>
        <time>2017-03-06T06:38:05Z</time>
      </trkpt>
      <trkpt lat="44.08169" lon="3.44354">
        <ele>1223</ele>
        <time>2017-03-06T06:40:05Z</time>
      </trkpt>
      <trkpt lat="44.08167" lon="3.44357">
        <ele>1221</ele>
        <time>2017-03-06T06:42:05Z</time>
      </trkpt>
      <trkpt lat="44.08166" lon="3.44366">
        <ele>1220</ele>
        <time>2017-03-06T06:44:05Z</time>
      </trkpt>
      <trkpt lat="44.08163" lon="3.44391">
        <ele>1217</ele>
        <time>2017-03-06T06:46:05Z</time>
      </trkpt>
      <trkpt lat="44.08161" lon="3.44396">
        <ele>1216</ele>
        <time>2017-03-06T06:48:05Z</time>
      </trkpt>
      <trkpt lat="44.08158" lon="3.44396">
        <ele>1215</ele>
        <time>2017-03-06T06:50:05Z</time>
      </trkpt>
      <trkpt lat="44.08155" lon="3.44394">
        <ele>1213</ele>
        <time>2017-03-06T06:52:05Z</time>
      </trkpt>
      <trkpt lat="44.0815" lon="3.44381">
        <ele>1213</ele>
        <time>2017-03-06T06:54:05Z</time>
      </trkpt>
      <trkpt lat="44.08144" lon="3.44369">
        <ele>1211</ele>
        <time>2017-03-06T06:56:05Z</time>
      </trkpt>
      <trkpt lat="44.08137" lon="3.44355">
        <ele>1210</ele>
        <time>2017-03-06T06:58:05Z</time>
      </trkpt>
      <trkpt lat="44.08132" lon="3.44343">
        <ele>1210</ele>
        <time>2017-03-06T07:00:05Z</time>
      </trkpt>
      <trkpt lat="44.08126" lon="3.44335">
        <ele>1209</ele>
        <time>2017-03-06T07:02:05Z</time>
      </trkpt>
      <trkpt lat="44.08119" lon="3.44328">
        <ele>1208</ele>
        <time>2017-03-06T07:04:05Z</time>
      </trkpt>
      <trkpt lat="44.08114" lon="3.44325">
        <ele>1207</ele>
        <time>2017-03-06T07:06:05Z</time>
      </trkpt>
      <trkpt lat="44.08108" lon="3.44322">
        <ele>1206</ele>
        <time>2017-03-06T07:08:05Z</time>
      </trkpt>
      <trkpt lat="44.08104" lon="3.44323">
        <ele>1204</ele>
        <time>2017-03-06T07:10:05Z</time>
      </trkpt>
      <trkpt lat="44.08099" lon="3.44327">
        <ele>1201</ele>
        <time>2017-03-06T07:12:05Z</time>
      </trkpt>
      <trkpt lat="44.08091" lon="3.44331">
        <ele>1197</ele>
        <time>2017-03-06T07:14:05Z</time>
      </trkpt>
      <trkpt lat="44.08076" lon="3.44336">
        <ele>1192</ele>
        <time>2017-03-06T07:16:05Z</time>
      </trkpt>
      <trkpt lat="44.08072" lon="3.44337">
        <ele>1191</ele>
        <time>2017-03-06T07:18:05Z</time>
      </trkpt>
      <trkpt lat="44.08066" lon="3.44338">
        <ele>1190</ele>
        <time>2017-03-06T07:20:05Z</time>
      </trkpt>
      <trkpt lat="44.0806" lon="3.44339">
        <ele>1188</ele>
        <time>2017-03-06T07:22:05Z</time>
      </trkpt>
      <trkpt lat="44.08051" lon="3.44338">
        <ele>1187</ele>
        <time>2017-03-06T07:24:05Z</time>
      </trkpt>
      <trkpt lat="44.08047" lon="3.44338">
        <ele>1186</ele>
        <time>2017-03-06T07:26:05Z</time>
      </trkpt>
      <trkpt lat="44.08045" lon="3.44336">
        <ele>1186</ele>
        <time>2017-03-06T07:28:05Z</time>
      </trkpt>
      <trkpt lat="44.08043" lon="3.44335">
        <ele>1186</ele>
        <time>2017-03-06T07:30:05Z</time>
      </trkpt>
      <trkpt lat="44.08041" lon="3.44334">
        <ele>1186</ele>
        <time>2017-03-06T07:32:05Z</time>
      </trkpt>
      <trkpt lat="44.08039" lon="3.44334">
        <ele>1185</ele>
        <time>2017-03-06T07:34:05Z</time>
      </trkpt>
      <trkpt lat="44.08038" lon="3.44335">
        <ele>1185</ele>
        <time>2017-03-06T07:36:05Z</time>
      </trkpt>
      <trkpt lat="44.08038" lon="3.44336">
        <ele>1185</ele>
        <time>2017-03-06T07:38:05Z</time>
      </trkpt>
      <trkpt lat="44.08037" lon="3.44337">
        <ele>1184</ele>
        <time>2017-03-06T07:40:05Z</time>
      </trkpt>
      <trkpt lat="44.08038" lon="3.44339">
        <ele>1184</ele>
        <time>2017-03-06T07:42:05Z</time>
      </trkpt>
      <trkpt lat="44.08038" lon="3.4434">
        <ele>1184</ele>
        <time>2017-03-06T07:44:05Z</time>
      </trkpt>
      <trkpt lat="44.0804" lon="3.44342">
        <ele>1183</ele>
        <time>2017-03-06T07:46:05Z</time>
      </trkpt>
      <trkpt lat="44.08042" lon="3.44344">
        <ele>1183</ele>
        <time>2017-03-06T07:48:05Z</time>
      </trkpt>
      <trkpt lat="44.08054" lon="3.44355">
        <ele>1183</ele>
        <time>2017-03-06T07:50:05Z</time>
      </trkpt>
      <trkpt lat="44.08055" lon="3.44357">
        <ele>1183</ele>
        <time>2017-03-06T07:52:05Z</time>
      </trkpt>
      <trkpt lat="44.08056" lon="3.44358">
        <ele>1183</ele>
        <time>2017-03-06T07:54:05Z</time>
      </trkpt>
      <trkpt lat="44.08057" lon="3.4436">
        <ele>1183</ele>
        <time>2017-03-06T07:56:05Z</time>
      </trkpt>
      <trkpt lat="44.08057" lon="3.44362">
        <ele>1182</ele>
        <time>2017-03-06T07:58:05Z</time>
      </trkpt>
      <trkpt lat="44.08056" lon="3.44363">
        <ele>1182</ele>
        <time>2017-03-06T08:00:05Z</time>
      </trkpt>
      <trkpt lat="44.08056" lon="3.44364">
        <ele>1181</ele>
        <time>2017-03-06T08:02:05Z</time>
      </trkpt>
      <trkpt lat="44.08055" lon="3.44364">
        <ele>1181</ele>
        <time>2017-03-06T08:04:05Z</time>
      </trkpt>
      <trkpt lat="44.08053" lon="3.44364">
        <ele>1181</ele>
        <time>2017-03-06T08:06:05Z</time>
      </trkpt>
      <trkpt lat="44.08051" lon="3.44364">
        <ele>1180</ele>
        <time>2017-03-06T08:08:05Z</time>
      </trkpt>
      <trkpt lat="44.08049" lon="3.44364">
        <ele>1180</ele>
        <time>2017-03-06T08:10:05Z</time>
      </trkpt>
      <trkpt lat="44.08044" lon="3.44365">
        <ele>1178</ele>
        <time>2017-03-06T08:12:05Z</time>
      </trkpt>
      <trkpt lat="44.08039" lon="3.44366">
        <ele>1177</ele>
        <time>2017-03-06T08:14:05Z</time>
      </trkpt>
      <trkpt lat="44.08038" lon="3.44366">
        <ele>1177</ele>
        <time>2017-03-06T08:16:05Z</time>
      </trkpt>
      <trkpt lat="44.08037" lon="3.44367">
        <ele>1176</ele>
        <time>2017-03-06T08:18:05Z</time>
      </trkpt>
      <trkpt lat="44.08036" lon="3.44368">
        <ele>1176</ele>
        <time>2017-03-06T08:20:05Z</time>
      </trkpt>
      <trkpt lat="44.08035" lon="3.44369">
        <ele>1175</ele>
        <time>2017-03-06T08:22:05Z</time>
      </trkpt>
      <trkpt lat="44.08035" lon="3.44371">
        <ele>1175</ele>
        <time>2017-03-06T08:24:05Z</time>
      </trkpt>
      <trkpt lat="44.08036" lon="3.44372">
        <ele>1175</ele>
        <time>2017-03-06T08:26:05Z</time>
      </trkpt>
      <trkpt lat="44.08037" lon="3.44374">
        <ele>1174</ele>
        <time>2017-03-06T08:28:05Z</time>
      </trkpt>
      <trkpt lat="44.08039" lon="3.44377">
        <ele>1174</ele>
        <time>2017-03-06T08:30:05Z</time>
      </trkpt>
      <trkpt lat="44.08043" lon="3.4438">
        <ele>1174</ele>
        <time>2017-03-06T08:32:05Z</time>
      </trkpt>
      <trkpt lat="44.08045" lon="3.44384">
        <ele>1174</ele>
        <time>2017-03-06T08:34:05Z</time>
      </trkpt>
      <trkpt lat="44.08048" lon="3.4439">
        <ele>1173</ele>
        <time>2017-03-06T08:36:05Z</time>
      </trkpt>
      <trkpt lat="44.08048" lon="3.44393">
        <ele>1172</ele>
        <time>2017-03-06T08:38:05Z</time>
      </trkpt>
      <trkpt lat="44.08049" lon="3.44398">
        <ele>1171</ele>
        <time>2017-03-06T08:40:05Z</time>
      </trkpt>
      <trkpt lat="44.0805" lon="3.44401">
        <ele>1171</ele>
        <time>2017-03-06T08:42:05Z</time>
      </trkpt>
      <trkpt lat="44.0805" lon="3.44403">
        <ele>1170</ele>
        <time>2017-03-06T08:44:05Z</time>
      </trkpt>
      <trkpt lat="44.08049" lon="3.44404">
        <ele>1170</ele>
        <time>2017-03-06T08:46:05Z</time>
      </trkpt>
      <trkpt lat="44.08048" lon="3.44404">
        <ele>1170</ele>
        <time>2017-03-06T08:48:05Z</time>
      </trkpt>
      <trkpt lat="44.08047" lon="3.44405">
        <ele>1169</ele>
        <time>2017-03-06T08:50:05Z</time>
      </trkpt>
      <trkpt lat="44.08046" lon="3.44404">
        <ele>1169</ele>
        <time>2017-03-06T08:52:05Z</time>
      </trkpt>
      <trkpt lat="44.08043" lon="3.44402">
        <ele>1169</ele>
        <time>2017-03-06T08:54:05Z</time>
      </trkpt>
      <trkpt lat="44.0804" lon="3.444">
        <ele>1168</ele>
        <time>2017-03-06T08:56:05Z</time>
      </trkpt>
      <trkpt lat="44.08037" lon="3.44399">
        <ele>1168</ele>
        <time>2017-03-06T08:58:05Z</time>
      </trkpt>
      <trkpt lat="44.08033" lon="3.44397">
        <ele>1167</ele>
        <time>2017-03-06T09:00:05Z</time>
      </trkpt>
      <trkpt lat="44.08028" lon="3.44395">
        <ele>1166</ele>
        <time>2017-03-06T09:02:05Z</time>
      </trkpt>
      <trkpt lat="44.08025" lon="3.44394">
        <ele>1166</ele>
        <time>2017-03-06T09:04:05Z</time>
      </trkpt>
      <trkpt lat="44.08022" lon="3.44394">
        <ele>1165</ele>
        <time>2017-03-06T09:06:05Z</time>
      </trkpt>
      <trkpt lat="44.08018" lon="3.44395">
        <ele>1164</ele>
        <time>2017-03-06T09:08:05Z</time>
      </trkpt>
      <trkpt lat="44.08011" lon="3.44392">
        <ele>1163</ele>
        <time>2017-03-06T09:10:05Z</time>
      </trkpt>
      <trkpt lat="44.08007" lon="3.44391">
        <ele>1162</ele>
        <time>2017-03-06T09:12:05Z</time>
      </trkpt>
      <trkpt lat="44.07999" lon="3.44393">
        <ele>1159</ele>
        <time>2017-03-06T09:14:05Z</time>
      </trkpt>
      <trkpt lat="44.0798" lon="3.44402">
        <ele>1152</ele>
        <time>2017-03-06T09:16:05Z</time>
      </trkpt>
      <trkpt lat="44.07969" lon="3.44414">
        <ele>1145</ele>
        <time>2017-03-06T09:18:05Z</time>
      </trkpt>
      <trkpt lat="44.07965" lon="3.44421">
        <ele>1142</ele>
        <time>2017-03-06T09:20:05Z</time>
      </trkpt>
      <trkpt lat="44.07961" lon="3.44422">
        <ele>1141</ele>
        <time>2017-03-06T09:22:05Z</time>
      </trkpt>
      <trkpt lat="44.07958" lon="3.4442">
        <ele>1141</ele>
        <time>2017-03-06T09:24:05Z</time>
      </trkpt>
      <trkpt lat="44.07954" lon="3.44416">
        <ele>1141</ele>
        <time>2017-03-06T09:26:05Z</time>
      </trkpt>
      <trkpt lat="44.0795" lon="3.44406">
        <ele>1143</ele>
        <time>2017-03-06T09:28:05Z</time>
      </trkpt>
      <trkpt lat="44.07949" lon="3.44402">
        <ele>1144</ele>
        <time>2017-03-06T09:30:05Z</time>
      </trkpt>
      <trkpt lat="44.07945" lon="3.44401">
        <ele>1143</ele>
        <time>2017-03-06T09:32:05Z</time>
      </trkpt>
      <trkpt lat="44.07939" lon="3.44398">
        <ele>1143</ele>
        <time>2017-03-06T09:34:05Z</time>
      </trkpt>
      <trkpt lat="44.07931" lon="3.44395">
        <ele>1142</ele>
        <time>2017-03-06T09:36:05Z</time>
      </trkpt>
      <trkpt lat="44.07921" lon="3.44393">
        <ele>1140</ele>
        <time>2017-03-06T09:38:05Z</time>
      </trkpt>
      <trkpt lat="44.07912" lon="3.44393">
        <ele>1138</ele>
        <time>2017-03-06T09:40:05Z</time>
      </trkpt>
      <trkpt lat="44.07899" lon="3.44393">
        <ele>1136</ele>
        <time>2017-03-06T09:42:05Z</time>
      </trkpt>
      <trkpt lat="44.07892" lon="3.44393">
        <ele>1135</ele>
        <time>2017-03-06T09:44:05Z</time>
      </trkpt>
      <trkpt lat="44.0788" lon="3.44391">
        <ele>1134</ele>
        <time>2017-03-06T09:46:05Z</time>
      </trkpt>
      <trkpt lat="44.07856" lon="3.44384">
        <ele>1132</ele>
        <time>2017-03-06T09:48:05Z</time>
      </trkpt>
      <trkpt lat="44.07851" lon="3.44384">
        <ele>1131</ele>
        <time>2017-03-06T09:50:05Z</time>
      </trkpt>
      <trkpt lat="44.07847" lon="3.44383">
        <ele>1130</ele>
        <time>2017-03-06T09:52:05Z</time>
      </trkpt>
      <trkpt lat="44.07842" lon="3.44385">
        <ele>1129</ele>
        <time>2017-03-06T09:54:05Z</time>
      </trkpt>
      <trkpt lat="44.07833" lon="3.44385">
        <ele>1127</ele>
        <time>2017-03-06T09:56:05Z</time>
      </trkpt>
      <trkpt lat="44.07828" lon="3.44385">
        <ele>1127</ele>
        <time>2017-03-06T09:58:05Z</time>
      </trkpt>
      <trkpt lat="44.07813" lon="3.44386">
        <ele>1124</ele>
        <time>2017-03-06T10:00:05Z</time>
      </trkpt>
      <trkpt lat="44.07797" lon="3.44386">
        <ele>1122</ele>
        <time>2017-03-06T10:02:05Z</time>
      </trkpt>
      <trkpt lat="44.0779" lon="3.44385">
        <ele>1122</ele>
        <time>2017-03-06T10:04:05Z</time>
      </trkpt>
      <trkpt lat="44.07784" lon="3.44381">
        <ele>1122</ele>
        <time>2017-03-06T10:06:05Z</time>
      </trkpt>
      <trkpt lat="44.07781" lon="3.44376">
        <ele>1123</ele>
        <time>2017-03-06T10:08:05Z</time>
      </trkpt>
      <trkpt lat="44.07778" lon="3.44374">
        <ele>1123</ele>
        <time>2017-03-06T10:10:05Z</time>
      </trkpt>
      <trkpt lat="44.07769" lon="3.44373">
        <ele>1122</ele>
        <time>2017-03-06T10:12:05Z</time>
      </trkpt>
      <trkpt lat="44.07756" lon="3.44375">
        <ele>1119</ele>
        <time>2017-03-06T10:14:05Z</time>
      </trkpt>
      <trkpt lat="44.07739" lon="3.44379">
        <ele>1115</ele>
        <time>2017-03-06T10:16:05Z</time>
      </trkpt>
      <trkpt lat="44.07734" lon="3.44378">
        <ele>1115</ele>
        <time>2017-03-06T10:18:05Z</time>
      </trkpt>
      <trkpt lat="44.07729" lon="3.44375">
        <ele>1114</ele>
        <time>2017-03-06T10:20:05Z</time>
      </trkpt>
      <trkpt lat="44.07726" lon="3.44375">
        <ele>1114</ele>
        <time>2017-03-06T10:22:05Z</time>
      </trkpt>
      <trkpt lat="44.07721" lon="3.44377">
        <ele>1112</ele>
        <time>2017-03-06T10:24:05Z</time>
      </trkpt>
      <trkpt lat="44.07717" lon="3.44376">
        <ele>1112</ele>
        <time>2017-03-06T10:26:05Z</time>
      </trkpt>
      <trkpt lat="44.07715" lon="3.44373">
        <ele>1112</ele>
        <time>2017-03-06T10:28:05Z</time>
      </trkpt>
      <trkpt lat="44.07706" lon="3.44369">
        <ele>1111</ele>
        <time>2017-03-06T10:30:05Z</time>
      </trkpt>
      <trkpt lat="44.07698" lon="3.44369">
        <ele>1109</ele>
        <time>2017-03-06T10:32:05Z</time>
      </trkpt>
      <trkpt lat="44.07695" lon="3.44369">
        <ele>1108</ele>
        <time>2017-03-06T10:34:05Z</time>
      </trkpt>
      <trkpt lat="44.07692" lon="3.44365">
        <ele>1109</ele>
        <time>2017-03-06T10:36:05Z</time>
      </trkpt>
      <trkpt lat="44.0769" lon="3.44358">
        <ele>1109</ele>
        <time>2017-03-06T10:38:05Z</time>
      </trkpt>
      <trkpt lat="44.07689" lon="3.44353">
        <ele>1110</ele>
        <time>2017-03-06T10:40:05Z</time>
      </trkpt>
      <trkpt lat="44.07682" lon="3.44343">
        <ele>1111</ele>
        <time>2017-03-06T10:42:05Z</time>
      </trkpt>
      <trkpt lat="44.07679" lon="3.44339">
        <ele>1111</ele>
        <time>2017-03-06T10:44:05Z</time>
      </trkpt>
      <trkpt lat="44.07675" lon="3.44335">
        <ele>1110</ele>
        <time>2017-03-06T10:46:05Z</time>
      </trkpt>
      <trkpt lat="44.07671" lon="3.44334">
        <ele>1110</ele>
        <time>2017-03-06T10:48:05Z</time>
      </trkpt>
      <trkpt lat="44.07666" lon="3.44334">
        <ele>1109</ele>
        <time>2017-03-06T10:50:05Z</time>
      </trkpt>
      <trkpt lat="44.07662" lon="3.44335">
        <ele>1108</ele>
        <time>2017-03-06T10:52:05Z</time>
      </trkpt>
      <trkpt lat="44.07657" lon="3.44334">
        <ele>1107</ele>
        <time>2017-03-06T10:54:05Z</time>
      </trkpt>
      <trkpt lat="44.07653" lon="3.44335">
        <ele>1107</ele>
        <time>2017-03-06T10:56:05Z</time>
      </trkpt>
      <trkpt lat="44.07648" lon="3.44338">
        <ele>1106</ele>
        <time>2017-03-06T10:58:05Z</time>
      </trkpt>
      <trkpt lat="44.07638" lon="3.44344">
        <ele>1103</ele>
        <time>2017-03-06T11:00:05Z</time>
      </trkpt>
      <trkpt lat="44.07632" lon="3.4435">
        <ele>1102</ele>
        <time>2017-03-06T11:02:05Z</time>
      </trkpt>
      <trkpt lat="44.07626" lon="3.44354">
        <ele>1100</ele>
        <time>2017-03-06T11:04:05Z</time>
      </trkpt>
      <trkpt lat="44.07616" lon="3.44357">
        <ele>1099</ele>
        <time>2017-03-06T11:06:05Z</time>
      </trkpt>
      <trkpt lat="44.07611" lon="3.44357">
        <ele>1098</ele>
        <time>2017-03-06T11:08:05Z</time>
      </trkpt>
      <trkpt lat="44.07608" lon="3.44359">
        <ele>1098</ele>
        <time>2017-03-06T11:10:05Z</time>
      </trkpt>
      <trkpt lat="44.07604" lon="3.44362">
        <ele>1097</ele>
        <time>2017-03-06T11:12:05Z</time>
      </trkpt>
      <trkpt lat="44.07598" lon="3.44365">
        <ele>1096</ele>
        <time>2017-03-06T11:14:05Z</time>
      </trkpt>
      <trkpt lat="44.07584" lon="3.44368">
        <ele>1094</ele>
        <time>2017-03-06T11:16:05Z</time>
      </trkpt>
      <trkpt lat="44.07563" lon="3.44369">
        <ele>1091</ele>
        <time>2017-03-06T11:18:05Z</time>
      </trkpt>
      <trkpt lat="44.07546" lon="3.44368">
        <ele>1089</ele>
        <time>2017-03-06T11:20:05Z</time>
      </trkpt>
      <trkpt lat="44.07542" lon="3.44368">
        <ele>1088</ele>
        <time>2017-03-06T11:22:05Z</time>
      </trkpt>
      <trkpt lat="44.07517" lon="3.44374">
        <ele>1084</ele>
        <time>2017-03-06T11:24:05Z</time>
      </trkpt>
      <trkpt lat="44.07514" lon="3.44376">
        <ele>1084</ele>
        <time>2017-03-06T11:26:05Z</time>
      </trkpt>
      <trkpt lat="44.07511" lon="3.44382">
        <ele>1083</ele>
        <time>2017-03-06T11:28:05Z</time>
      </trkpt>
      <trkpt lat="44.07505" lon="3.44387">
        <ele>1082</ele>
        <time>2017-03-06T11:30:05Z</time>
      </trkpt>
      <trkpt lat="44.075" lon="3.44388">
        <ele>1081</ele>
        <time>2017-03-06T11:32:05Z</time>
      </trkpt>
      <trkpt lat="44.07496" lon="3.44389">
        <ele>1081</ele>
        <time>2017-03-06T11:34:05Z</time>
      </trkpt>
      <trkpt lat="44.07493" lon="3.44393">
        <ele>1080</ele>
        <time>2017-03-06T11:36:05Z</time>
      </trkpt>
      <trkpt lat="44.07487" lon="3.44394">
        <ele>1079</ele>
        <time>2017-03-06T11:38:05Z</time>
      </trkpt>
      <trkpt lat="44.07473" lon="3.444">
        <ele>1077</ele>
        <time>2017-03-06T11:40:05Z</time>
      </trkpt>
      <trkpt lat="44.07469" lon="3.444">
        <ele>1076</ele>
        <time>2017-03-06T11:42:05Z</time>
      </trkpt>
      <trkpt lat="44.07465" lon="3.44402">
        <ele>1076</ele>
        <time>2017-03-06T11:44:05Z</time>
      </trkpt>
      <trkpt lat="44.07461" lon="3.44407">
        <ele>1075</ele>
        <time>2017-03-06T11:46:05Z</time>
      </trkpt>
      <trkpt lat="44.07455" lon="3.44409">
        <ele>1074</ele>
        <time>2017-03-06T11:48:05Z</time>
      </trkpt>
      <trkpt lat="44.07445" lon="3.44407">
        <ele>1073</ele>
        <time>2017-03-06T11:50:05Z</time>
      </trkpt>
      <trkpt lat="44.07442" lon="3.44406">
        <ele>1073</ele>
        <time>2017-03-06T11:52:05Z</time>
      </trkpt>
      <trkpt lat="44.07439" lon="3.44408">
        <ele>1072</ele>
        <time>2017-03-06T11:54:05Z</time>
      </trkpt>
      <trkpt lat="44.07438" lon="3.44414">
        <ele>1072</ele>
        <time>2017-03-06T11:56:05Z</time>
      </trkpt>
      <trkpt lat="44.07438" lon="3.4442">
        <ele>1071</ele>
        <time>2017-03-06T11:58:05Z</time>
      </trkpt>
      <trkpt lat="44.0744" lon="3.44427">
        <ele>1070</ele>
        <time>2017-03-06T12:00:05Z</time>
      </trkpt>
      <trkpt lat="44.07444" lon="3.44431">
        <ele>1069</ele>
        <time>2017-03-06T12:02:05Z</time>
      </trkpt>
      <trkpt lat="44.07444" lon="3.44437">
        <ele>1068</ele>
        <time>2017-03-06T12:04:05Z</time>
      </trkpt>
      <trkpt lat="44.07444" lon="3.4444">
        <ele>1067</ele>
        <time>2017-03-06T12:06:05Z</time>
      </trkpt>
      <trkpt lat="44.07441" lon="3.44441">
        <ele>1067</ele>
        <time>2017-03-06T12:08:05Z</time>
      </trkpt>
      <trkpt lat="44.07438" lon="3.44441">
        <ele>1066</ele>
        <time>2017-03-06T12:10:05Z</time>
      </trkpt>
      <trkpt lat="44.0743" lon="3.4444">
        <ele>1066</ele>
        <time>2017-03-06T12:12:05Z</time>
      </trkpt>
      <trkpt lat="44.07419" lon="3.44436">
        <ele>1065</ele>
        <time>2017-03-06T12:14:05Z</time>
      </trkpt>
      <trkpt lat="44.07415" lon="3.44431">
        <ele>1065</ele>
        <time>2017-03-06T12:16:05Z</time>
      </trkpt>
      <trkpt lat="44.07408" lon="3.44426">
        <ele>1065</ele>
        <time>2017-03-06T12:18:05Z</time>
      </trkpt>
      <trkpt lat="44.07403" lon="3.44422">
        <ele>1064</ele>
        <time>2017-03-06T12:20:05Z</time>
      </trkpt>
      <trkpt lat="44.07399" lon="3.4442">
        <ele>1064</ele>
        <time>2017-03-06T12:22:05Z</time>
      </trkpt>
      <trkpt lat="44.07395" lon="3.44419">
        <ele>1063</ele>
        <time>2017-03-06T12:24:05Z</time>
      </trkpt>
      <trkpt lat="44.0739" lon="3.44414">
        <ele>1063</ele>
        <time>2017-03-06T12:26:05Z</time>
      </trkpt>
      <trkpt lat="44.07385" lon="3.44407">
        <ele>1062</ele>
        <time>2017-03-06T12:28:05Z</time>
      </trkpt>
      <trkpt lat="44.07372" lon="3.44397">
        <ele>1059</ele>
        <time>2017-03-06T12:30:05Z</time>
      </trkpt>
      <trkpt lat="44.07353" lon="3.44386">
        <ele>1054</ele>
        <time>2017-03-06T12:32:05Z</time>
      </trkpt>
      <trkpt lat="44.07341" lon="3.44379">
        <ele>1052</ele>
        <time>2017-03-06T12:34:05Z</time>
      </trkpt>
      <trkpt lat="44.07325" lon="3.44373">
        <ele>1049</ele>
        <time>2017-03-06T12:36:05Z</time>
      </trkpt>
      <trkpt lat="44.07321" lon="3.44372">
        <ele>1048</ele>
        <time>2017-03-06T12:38:05Z</time>
      </trkpt>
      <trkpt lat="44.07316" lon="3.44373">
        <ele>1048</ele>
        <time>2017-03-06T12:40:05Z</time>
      </trkpt>
      <trkpt lat="44.07309" lon="3.44376">
        <ele>1047</ele>
        <time>2017-03-06T12:42:05Z</time>
      </trkpt>
      <trkpt lat="44.07299" lon="3.44381">
        <ele>1045</ele>
        <time>2017-03-06T12:44:05Z</time>
      </trkpt>
      <trkpt lat="44.07295" lon="3.4438">
        <ele>1045</ele>
        <time>2017-03-06T12:46:05Z</time>
      </trkpt>
      <trkpt lat="44.07293" lon="3.44384">
        <ele>1044</ele>
        <time>2017-03-06T12:48:05Z</time>
      </trkpt>
      <trkpt lat="44.0729" lon="3.44383">
        <ele>1044</ele>
        <time>2017-03-06T12:50:05Z</time>
      </trkpt>
      <trkpt lat="44.07287" lon="3.44382">
        <ele>1043</ele>
        <time>2017-03-06T12:52:05Z</time>
      </trkpt>
      <trkpt lat="44.07283" lon="3.44382">
        <ele>1043</ele>
        <time>2017-03-06T12:54:05Z</time>
      </trkpt>
      <trkpt lat="44.07276" lon="3.44387">
        <ele>1042</ele>
        <time>2017-03-06T12:56:05Z</time>
      </trkpt>
      <trkpt lat="44.0727" lon="3.4439">
        <ele>1041</ele>
        <time>2017-03-06T12:58:05Z</time>
      </trkpt>
      <trkpt lat="44.07263" lon="3.44392">
        <ele>1040</ele>
        <time>2017-03-06T13:00:05Z</time>
      </trkpt>
      <trkpt lat="44.07252" lon="3.44394">
        <ele>1039</ele>
        <time>2017-03-06T13:02:05Z</time>
      </trkpt>
      <trkpt lat="44.0724" lon="3.44394">
        <ele>1036</ele>
        <time>2017-03-06T13:04:05Z</time>
      </trkpt>
      <trkpt lat="44.07235" lon="3.44393">
        <ele>1035</ele>
        <time>2017-03-06T13:06:05Z</time>
      </trkpt>
      <trkpt lat="44.07223" lon="3.44387">
        <ele>1032</ele>
        <time>2017-03-06T13:08:05Z</time>
      </trkpt>
      <trkpt lat="44.0722" lon="3.44386">
        <ele>1032</ele>
        <time>2017-03-06T13:10:05Z</time>
      </trkpt>
      <trkpt lat="44.07217" lon="3.44386">
        <ele>1031</ele>
        <time>2017-03-06T13:12:05Z</time>
      </trkpt>
      <trkpt lat="44.07215" lon="3.44387">
        <ele>1031</ele>
        <time>2017-03-06T13:14:05Z</time>
      </trkpt>
      <trkpt lat="44.07213" lon="3.44387">
        <ele>1030</ele>
        <time>2017-03-06T13:16:05Z</time>
      </trkpt>
      <trkpt lat="44.07211" lon="3.44388">
        <ele>1030</ele>
        <time>2017-03-06T13:18:05Z</time>
      </trkpt>
      <trkpt lat="44.0721" lon="3.4439">
        <ele>1029</ele>
        <time>2017-03-06T13:20:05Z</time>
      </trkpt>
      <trkpt lat="44.0721" lon="3.44392">
        <ele>1029</ele>
        <time>2017-03-06T13:22:05Z</time>
      </trkpt>
      <trkpt lat="44.0721" lon="3.44394">
        <ele>1029</ele>
        <time>2017-03-06T13:24:05Z</time>
      </trkpt>
      <trkpt lat="44.07211" lon="3.44395">
        <ele>1029</ele>
        <time>2017-03-06T13:26:05Z</time>
      </trkpt>
      <trkpt lat="44.07212" lon="3.44397">
        <ele>1030</ele>
        <time>2017-03-06T13:28:05Z</time>
      </trkpt>
      <trkpt lat="44.07213" lon="3.44398">
        <ele>1030</ele>
        <time>2017-03-06T13:30:05Z</time>
      </trkpt>
      <trkpt lat="44.07214" lon="3.444">
        <ele>1030</ele>
        <time>2017-03-06T13:32:05Z</time>
      </trkpt>
      <trkpt lat="44.07214" lon="3.44402">
        <ele>1030</ele>
        <time>2017-03-06T13:34:05Z</time>
      </trkpt>
      <trkpt lat="44.07215" lon="3.44406">
        <ele>1030</ele>
        <time>2017-03-06T13:36:05Z</time>
      </trkpt>
      <trkpt lat="44.07215" lon="3.44408">
        <ele>1030</ele>
        <time>2017-03-06T13:38:05Z</time>
      </trkpt>
      <trkpt lat="44.07217" lon="3.44413">
        <ele>1031</ele>
        <time>2017-03-06T13:40:05Z</time>
      </trkpt>
      <trkpt lat="44.07217" lon="3.44417">
        <ele>1030</ele>
        <time>2017-03-06T13:42:05Z</time>
      </trkpt>
      <trkpt lat="44.07217" lon="3.4442">
        <ele>1029</ele>
        <time>2017-03-06T13:44:05Z</time>
      </trkpt>
      <trkpt lat="44.07217" lon="3.44421">
        <ele>1029</ele>
        <time>2017-03-06T13:46:05Z</time>
      </trkpt>
      <trkpt lat="44.07216" lon="3.44423">
        <ele>1028</ele>
        <time>2017-03-06T13:48:05Z</time>
      </trkpt>
      <trkpt lat="44.07215" lon="3.44424">
        <ele>1028</ele>
        <time>2017-03-06T13:50:05Z</time>
      </trkpt>
      <trkpt lat="44.07214" lon="3.44424">
        <ele>1028</ele>
        <time>2017-03-06T13:52:05Z</time>
      </trkpt>
      <trkpt lat="44.07212" lon="3.44423">
        <ele>1027</ele>
        <time>2017-03-06T13:54:05Z</time>
      </trkpt>
      <trkpt lat="44.07211" lon="3.44421">
        <ele>1028</ele>
        <time>2017-03-06T13:56:05Z</time>
      </trkpt>
      <trkpt lat="44.07203" lon="3.44415">
        <ele>1027</ele>
        <time>2017-03-06T13:58:05Z</time>
      </trkpt>
      <trkpt lat="44.07202" lon="3.44414">
        <ele>1027</ele>
        <time>2017-03-06T14:00:05Z</time>
      </trkpt>
      <trkpt lat="44.07201" lon="3.44414">
        <ele>1027</ele>
        <time>2017-03-06T14:02:05Z</time>
      </trkpt>
      <trkpt lat="44.072" lon="3.44415">
        <ele>1027</ele>
        <time>2017-03-06T14:04:05Z</time>
      </trkpt>
      <trkpt lat="44.07199" lon="3.44417">
        <ele>1026</ele>
        <time>2017-03-06T14:06:05Z</time>
      </trkpt>
      <trkpt lat="44.07199" lon="3.44419">
        <ele>1026</ele>
        <time>2017-03-06T14:08:05Z</time>
      </trkpt>
      <trkpt lat="44.07199" lon="3.44422">
        <ele>1025</ele>
        <time>2017-03-06T14:10:05Z</time>
      </trkpt>
      <trkpt lat="44.07199" lon="3.44424">
        <ele>1024</ele>
        <time>2017-03-06T14:12:05Z</time>
      </trkpt>
      <trkpt lat="44.07199" lon="3.44426">
        <ele>1024</ele>
        <time>2017-03-06T14:14:05Z</time>
      </trkpt>
      <trkpt lat="44.07199" lon="3.44427">
        <ele>1023</ele>
        <time>2017-03-06T14:16:05Z</time>
      </trkpt>
      <trkpt lat="44.07199" lon="3.44428">
        <ele>1023</ele>
        <time>2017-03-06T14:18:05Z</time>
      </trkpt>
      <trkpt lat="44.07198" lon="3.44429">
        <ele>1022</ele>
        <time>2017-03-06T14:20:05Z</time>
      </trkpt>
      <trkpt lat="44.07196" lon="3.44428">
        <ele>1022</ele>
        <time>2017-03-06T14:22:05Z</time>
      </trkpt>
      <trkpt lat="44.07194" lon="3.44426">
        <ele>1022</ele>
        <time>2017-03-06T14:24:05Z</time>
      </trkpt>
      <trkpt lat="44.07192" lon="3.44424">
        <ele>1023</ele>
        <time>2017-03-06T14:26:05Z</time>
      </trkpt>
      <trkpt lat="44.07189" lon="3.44423">
        <ele>1022</ele>
        <time>2017-03-06T14:28:05Z</time>
      </trkpt>
      <trkpt lat="44.07182" lon="3.44419">
        <ele>1022</ele>
        <time>2017-03-06T14:30:05Z</time>
      </trkpt>
      <trkpt lat="44.07177" lon="3.44417">
        <ele>1021</ele>
        <time>2017-03-06T14:32:05Z</time>
      </trkpt>
      <trkpt lat="44.07175" lon="3.44416">
        <ele>1021</ele>
        <time>2017-03-06T14:34:05Z</time>
      </trkpt>
      <trkpt lat="44.07172" lon="3.44415">
        <ele>1020</ele>
        <time>2017-03-06T14:36:05Z</time>
      </trkpt>
      <trkpt lat="44.0717" lon="3.44415">
        <ele>1020</ele>
        <time>2017-03-06T14:38:05Z</time>
      </trkpt>
      <trkpt lat="44.07168" lon="3.44415">
        <ele>1019</ele>
        <time>2017-03-06T14:40:05Z</time>
      </trkpt>
      <trkpt lat="44.07165" lon="3.44414">
        <ele>1019</ele>
        <time>2017-03-06T14:42:05Z</time>
      </trkpt>
      <trkpt lat="44.07163" lon="3.44413">
        <ele>1018</ele>
        <time>2017-03-06T14:44:05Z</time>
      </trkpt>
      <trkpt lat="44.07161" lon="3.44411">
        <ele>1018</ele>
        <time>2017-03-06T14:46:05Z</time>
      </trkpt>
      <trkpt lat="44.07159" lon="3.4441">
        <ele>1017</ele>
        <time>2017-03-06T14:48:05Z</time>
      </trkpt>
      <trkpt lat="44.07158" lon="3.4441">
        <ele>1017</ele>
        <time>2017-03-06T14:50:05Z</time>
      </trkpt>
      <trkpt lat="44.07156" lon="3.4441">
        <ele>1016</ele>
        <time>2017-03-06T14:52:05Z</time>
      </trkpt>
      <trkpt lat="44.07154" lon="3.44411">
        <ele>1016</ele>
        <time>2017-03-06T14:54:05Z</time>
      </trkpt>
      <trkpt lat="44.07153" lon="3.44411">
        <ele>1015</ele>
        <time>2017-03-06T14:56:05Z</time>
      </trkpt>
      <trkpt lat="44.07152" lon="3.44412">
        <ele>1015</ele>
        <time>2017-03-06T14:58:05Z</time>
      </trkpt>
      <trkpt lat="44.0715" lon="3.44413">
        <ele>1015</ele>
        <time>2017-03-06T15:00:05Z</time>
      </trkpt>
      <trkpt lat="44.07148" lon="3.44412">
        <ele>1014</ele>
        <time>2017-03-06T15:02:05Z</time>
      </trkpt>
      <trkpt lat="44.07146" lon="3.44411">
        <ele>1013</ele>
        <time>2017-03-06T15:04:05Z</time>
      </trkpt>
      <trkpt lat="44.07144" lon="3.4441">
        <ele>1013</ele>
        <time>2017-03-06T15:06:05Z</time>
      </trkpt>
      <trkpt lat="44.07135" lon="3.44408">
        <ele>1011</ele>
        <time>2017-03-06T15:08:05Z</time>
      </trkpt>
      <trkpt lat="44.07125" lon="3.44406">
        <ele>1008</ele>
        <time>2017-03-06T15:10:05Z</time>
      </trkpt>
      <trkpt lat="44.0712" lon="3.44406">
        <ele>1007</ele>
        <time>2017-03-06T15:12:05Z</time>
      </trkpt>
      <trkpt lat="44.07119" lon="3.44406">
        <ele>1006</ele>
        <time>2017-03-06T15:14:05Z</time>
      </trkpt>
      <trkpt lat="44.07118" lon="3.44405">
        <ele>1006</ele>
        <time>2017-03-06T15:16:05Z</time>
      </trkpt>
      <trkpt lat="44.07117" lon="3.44404">
        <ele>1006</ele>
        <time>2017-03-06T15:18:05Z</time>
      </trkpt>
      <trkpt lat="44.07115" lon="3.44402">
        <ele>1005</ele>
        <time>2017-03-06T15:20:05Z</time>
      </trkpt>
      <trkpt lat="44.07112" lon="3.44398">
        <ele>1005</ele>
        <time>2017-03-06T15:22:05Z</time>
      </trkpt>
      <trkpt lat="44.07108" lon="3.44394">
        <ele>1004</ele>
        <time>2017-03-06T15:24:05Z</time>
      </trkpt>
      <trkpt lat="44.07105" lon="3.44393">
        <ele>1003</ele>
        <time>2017-03-06T15:26:05Z</time>
      </trkpt>
      <trkpt lat="44.07102" lon="3.44392">
        <ele>1002</ele>
        <time>2017-03-06T15:28:05Z</time>
      </trkpt>
      <trkpt lat="44.07099" lon="3.44392">
        <ele>1002</ele>
        <time>2017-03-06T15:30:05Z</time>
      </trkpt>
      <trkpt lat="44.07094" lon="3.44393">
        <ele>1000</ele>
        <time>2017-03-06T15:32:05Z</time>
      </trkpt>
      <trkpt lat="44.07087" lon="3.44394">
        <ele>998</ele>
        <time>2017-03-06T15:34:05Z</time>
      </trkpt>
      <trkpt lat="44.07084" lon="3.44394">
        <ele>998</ele>
        <time>2017-03-06T15:36:05Z</time>
      </trkpt>
      <trkpt lat="44.07082" lon="3.44393">
        <ele>997</ele>
        <time>2017-03-06T15:38:05Z</time>
      </trkpt>
      <trkpt lat="44.07079" lon="3.44392">
        <ele>997</ele>
        <time>2017-03-06T15:40:05Z</time>
      </trkpt>
      <trkpt lat="44.07077" lon="3.44391">
        <ele>996</ele>
        <time>2017-03-06T15:42:05Z</time>
      </trkpt>
      <trkpt lat="44.07076" lon="3.4439">
        <ele>996</ele>
        <time>2017-03-06T15:44:05Z</time>
      </trkpt>
      <trkpt lat="44.07074" lon="3.4439">
        <ele>996</ele>
        <time>2017-03-06T15:46:05Z</time>
      </trkpt>
      <trkpt lat="44.07059" lon="3.44392">
        <ele>993</ele>
        <time>2017-03-06T15:48:05Z</time>
      </trkpt>
      <trkpt lat="44.07056" lon="3.44392">
        <ele>993</ele>
        <time>2017-03-06T15:50:05Z</time>
      </trkpt>
      <trkpt lat="44.07053" lon="3.44393">
        <ele>992</ele>
        <time>2017-03-06T15:52:05Z</time>
      </trkpt>
      <trkpt lat="44.07047" lon="3.44398">
        <ele>991</ele>
        <time>2017-03-06T15:54:05Z</time>
      </trkpt>
      <trkpt lat="44.0704" lon="3.44402">
        <ele>989</ele>
        <time>2017-03-06T15:56:05Z</time>
      </trkpt>
      <trkpt lat="44.07036" lon="3.44404">
        <ele>989</ele>
        <time>2017-03-06T15:58:05Z</time>
      </trkpt>
      <trkpt lat="44.07031" lon="3.44404">
        <ele>988</ele>
        <time>2017-03-06T16:00:05Z</time>
      </trkpt>
      <trkpt lat="44.07025" lon="3.44404">
        <ele>987</ele>
        <time>2017-03-06T16:02:05Z</time>
      </trkpt>
      <trkpt lat="44.07014" lon="3.44403">
        <ele>985</ele>
        <time>2017-03-06T16:04:05Z</time>
      </trkpt>
      <trkpt lat="44.07008" lon="3.44402">
        <ele>984</ele>
        <time>2017-03-06T16:06:05Z</time>
      </trkpt>
      <trkpt lat="44.07003" lon="3.44401">
        <ele>983</ele>
        <time>2017-03-06T16:08:05Z</time>
      </trkpt>
      <trkpt lat="44.06999" lon="3.44399">
        <ele>982</ele>
        <time>2017-03-06T16:10:05Z</time>
      </trkpt>
      <trkpt lat="44.06997" lon="3.44398">
        <ele>982</ele>
        <time>2017-03-06T16:12:05Z</time>
      </trkpt>
      <trkpt lat="44.06995" lon="3.44398">
        <ele>981</ele>
        <time>2017-03-06T16:14:05Z</time>
      </trkpt>
      <trkpt lat="44.06992" lon="3.44397">
        <ele>981</ele>
        <time>2017-03-06T16:16:05Z</time>
      </trkpt>
      <trkpt lat="44.06989" lon="3.44396">
        <ele>980</ele>
        <time>2017-03-06T16:18:05Z</time>
      </trkpt>
      <trkpt lat="44.06986" lon="3.44396">
        <ele>979</ele>
        <time>2017-03-06T16:20:05Z</time>
      </trkpt>
      <trkpt lat="44.06982" lon="3.44397">
        <ele>978</ele>
        <time>2017-03-06T16:22:05Z</time>
      </trkpt>
      <trkpt lat="44.06976" lon="3.44399">
        <ele>976</ele>
        <time>2017-03-06T16:24:05Z</time>
      </trkpt>
      <trkpt lat="44.06974" lon="3.444">
        <ele>975</ele>
        <time>2017-03-06T16:26:05Z</time>
      </trkpt>
      <trkpt lat="44.06971" lon="3.44399">
        <ele>975</ele>
        <time>2017-03-06T16:28:05Z</time>
      </trkpt>
      <trkpt lat="44.06968" lon="3.44399">
        <ele>974</ele>
        <time>2017-03-06T16:30:05Z</time>
      </trkpt>
      <trkpt lat="44.06964" lon="3.44399">
        <ele>973</ele>
        <time>2017-03-06T16:32:05Z</time>
      </trkpt>
      <trkpt lat="44.06959" lon="3.444">
        <ele>971</ele>
        <time>2017-03-06T16:34:05Z</time>
      </trkpt>
      <trkpt lat="44.06956" lon="3.44399">
        <ele>971</ele>
        <time>2017-03-06T16:36:05Z</time>
      </trkpt>
      <trkpt lat="44.06952" lon="3.44399">
        <ele>969</ele>
        <time>2017-03-06T16:38:05Z</time>
      </trkpt>
      <trkpt lat="44.06949" lon="3.44398">
        <ele>969</ele>
        <time>2017-03-06T16:40:05Z</time>
      </trkpt>
      <trkpt lat="44.06945" lon="3.44395">
        <ele>968</ele>
        <time>2017-03-06T16:42:05Z</time>
      </trkpt>
      <trkpt lat="44.06942" lon="3.44392">
        <ele>967</ele>
        <time>2017-03-06T16:44:05Z</time>
      </trkpt>
      <trkpt lat="44.0694" lon="3.44389">
        <ele>966</ele>
        <time>2017-03-06T16:46:05Z</time>
      </trkpt>
      <trkpt lat="44.06939" lon="3.44386">
        <ele>966</ele>
        <time>2017-03-06T16:48:05Z</time>
      </trkpt>
      <trkpt lat="44.06936" lon="3.44381">
        <ele>965</ele>
        <time>2017-03-06T16:50:05Z</time>
      </trkpt>
      <trkpt lat="44.06935" lon="3.44379">
        <ele>965</ele>
        <time>2017-03-06T16:52:05Z</time>
      </trkpt>
      <trkpt lat="44.06934" lon="3.44378">
        <ele>964</ele>
        <time>2017-03-06T16:54:05Z</time>
      </trkpt>
      <trkpt lat="44.06933" lon="3.44378">
        <ele>964</ele>
        <time>2017-03-06T16:56:05Z</time>
      </trkpt>
      <trkpt lat="44.06931" lon="3.44378">
        <ele>964</ele>
        <time>2017-03-06T16:58:05Z</time>
      </trkpt>
      <trkpt lat="44.0693" lon="3.44378">
        <ele>963</ele>
        <time>2017-03-06T17:00:05Z</time>
      </trkpt>
      <trkpt lat="44.06929" lon="3.44378">
        <ele>963</ele>
        <time>2017-03-06T17:02:05Z</time>
      </trkpt>
      <trkpt lat="44.06929" lon="3.44379">
        <ele>963</ele>
        <time>2017-03-06T17:04:05Z</time>
      </trkpt>
      <trkpt lat="44.06928" lon="3.44388">
        <ele>963</ele>
        <time>2017-03-06T17:06:05Z</time>
      </trkpt>
      <trkpt lat="44.06928" lon="3.4439">
        <ele>963</ele>
        <time>2017-03-06T17:08:05Z</time>
      </trkpt>
      <trkpt lat="44.06928" lon="3.44391">
        <ele>963</ele>
        <time>2017-03-06T17:10:05Z</time>
      </trkpt>
      <trkpt lat="44.06927" lon="3.44392">
        <ele>963</ele>
        <time>2017-03-06T17:12:05Z</time>
      </trkpt>
      <trkpt lat="44.06926" lon="3.44392">
        <ele>962</ele>
        <time>2017-03-06T17:14:05Z</time>
      </trkpt>
      <trkpt lat="44.06925" lon="3.44393">
        <ele>962</ele>
        <time>2017-03-06T17:16:05Z</time>
      </trkpt>
      <trkpt lat="44.06924" lon="3.44393">
        <ele>962</ele>
        <time>2017-03-06T17:18:05Z</time>
      </trkpt>
      <trkpt lat="44.06922" lon="3.44393">
        <ele>961</ele>
        <time>2017-03-06T17:20:05Z</time>
      </trkpt>
      <trkpt lat="44.06921" lon="3.44393">
        <ele>961</ele>
        <time>2017-03-06T17:22:05Z</time>
      </trkpt>
      <trkpt lat="44.0692" lon="3.44393">
        <ele>961</ele>
        <time>2017-03-06T17:24:05Z</time>
      </trkpt>
      <trkpt lat="44.06918" lon="3.44393">
        <ele>960</ele>
        <time>2017-03-06T17:26:05Z</time>
      </trkpt>
      <trkpt lat="44.06917" lon="3.44392">
        <ele>960</ele>
        <time>2017-03-06T17:28:05Z</time>
      </trkpt>
      <trkpt lat="44.06916" lon="3.44392">
        <ele>960</ele>
        <time>2017-03-06T17:30:05Z</time>
      </trkpt>
      <trkpt lat="44.06915" lon="3.44393">
        <ele>959</ele>
        <time>2017-03-06T17:32:05Z</time>
      </trkpt>
      <trkpt lat="44.06914" lon="3.44394">
        <ele>959</ele>
        <time>2017-03-06T17:34:05Z</time>
      </trkpt>
      <trkpt lat="44.06913" lon="3.44395">
        <ele>959</ele>
        <time>2017-03-06T17:36:05Z</time>
      </trkpt>
      <trkpt lat="44.06912" lon="3.44395">
        <ele>959</ele>
        <time>2017-03-06T17:38:05Z</time>
      </trkpt>
      <trkpt lat="44.06911" lon="3.44395">
        <ele>959</ele>
        <time>2017-03-06T17:40:05Z</time>
      </trkpt>
      <trkpt lat="44.06908" lon="3.44395">
        <ele>958</ele>
        <time>2017-03-06T17:42:05Z</time>
      </trkpt>
      <trkpt lat="44.06902" lon="3.44396">
        <ele>957</ele>
        <time>2017-03-06T17:44:05Z</time>
      </trkpt>
      <trkpt lat="44.06896" lon="3.44398">
        <ele>956</ele>
        <time>2017-03-06T17:46:05Z</time>
      </trkpt>
      <trkpt lat="44.0689" lon="3.444">
        <ele>955</ele>
        <time>2017-03-06T17:48:05Z</time>
      </trkpt>
      <trkpt lat="44.06877" lon="3.44407">
        <ele>953</ele>
        <time>2017-03-06T17:50:05Z</time>
      </trkpt>
      <trkpt lat="44.06867" lon="3.44414">
        <ele>952</ele>
        <time>2017-03-06T17:52:05Z</time>
      </trkpt>
      <trkpt lat="44.06854" lon="3.4442">
        <ele>950</ele>
        <time>2017-03-06T17:54:05Z</time>
      </trkpt>
      <trkpt lat="44.06833" lon="3.44425">
        <ele>946</ele>
        <time>2017-03-06T17:56:05Z</time>
      </trkpt>
      <trkpt lat="44.06823" lon="3.44429">
        <ele>943</ele>
        <time>2017-03-06T17:58:05Z</time>
      </trkpt>
      <trkpt lat="44.06818" lon="3.44433">
        <ele>941</ele>
        <time>2017-03-06T18:00:05Z</time>
      </trkpt>
      <trkpt lat="44.06814" lon="3.44438">
        <ele>939</ele>
        <time>2017-03-06T18:02:05Z</time>
      </trkpt>
      <trkpt lat="44.06812" lon="3.44444">
        <ele>938</ele>
        <time>2017-03-06T18:04:05Z</time>
      </trkpt>
      <trkpt lat="44.06812" lon="3.44452">
        <ele>937</ele>
        <time>2017-03-06T18:06:05Z</time>
      </trkpt>
      <trkpt lat="44.06813" lon="3.44461">
        <ele>937</ele>
        <time>2017-03-06T18:08:05Z</time>
      </trkpt>
      <trkpt lat="44.06814" lon="3.44471">
        <ele>936</ele>
        <time>2017-03-06T18:10:05Z</time>
      </trkpt>
      <trkpt lat="44.0682" lon="3.44496">
        <ele>934</ele>
        <time>2017-03-06T18:12:05Z</time>
      </trkpt>
      <trkpt lat="44.06822" lon="3.44506">
        <ele>934</ele>
        <time>2017-03-06T18:14:05Z</time>
      </trkpt>
      <trkpt lat="44.06822" lon="3.4451">
        <ele>934</ele>
        <time>2017-03-06T18:16:05Z</time>
      </trkpt>
      <trkpt lat="44.06821" lon="3.44513">
        <ele>933</ele>
        <time>2017-03-06T18:18:05Z</time>
      </trkpt>
      <trkpt lat="44.06816" lon="3.44516">
        <ele>932</ele>
        <time>2017-03-06T18:20:05Z</time>
      </trkpt>
      <trkpt lat="44.0681" lon="3.4452">
        <ele>930</ele>
        <time>2017-03-06T18:22:05Z</time>
      </trkpt>
      <trkpt lat="44.06796" lon="3.44527">
        <ele>927</ele>
        <time>2017-03-06T18:24:05Z</time>
      </trkpt>
      <trkpt lat="44.06786" lon="3.4453">
        <ele>924</ele>
        <time>2017-03-06T18:26:05Z</time>
      </trkpt>
      <trkpt lat="44.06782" lon="3.44533">
        <ele>923</ele>
        <time>2017-03-06T18:28:05Z</time>
      </trkpt>
      <trkpt lat="44.06774" lon="3.44538">
        <ele>921</ele>
        <time>2017-03-06T18:30:05Z</time>
      </trkpt>
      <trkpt lat="44.06766" lon="3.44541">
        <ele>920</ele>
        <time>2017-03-06T18:32:05Z</time>
      </trkpt>
      <trkpt lat="44.06759" lon="3.44544">
        <ele>918</ele>
        <time>2017-03-06T18:34:05Z</time>
      </trkpt>
      <trkpt lat="44.06752" lon="3.44544">
        <ele>917</ele>
        <time>2017-03-06T18:36:05Z</time>
      </trkpt>
      <trkpt lat="44.06752" lon="3.44544">
        <ele>917</ele>
        <time>2017-03-06T18:38:05Z</time>
      </trkpt>
      <trkpt lat="44.0675" lon="3.44539">
        <ele>917</ele>
        <time>2017-03-06T18:40:05Z</time>
      </trkpt>
      <trkpt lat="44.06748" lon="3.44532">
        <ele>917</ele>
        <time>2017-03-06T18:42:05Z</time>
      </trkpt>
      <trkpt lat="44.06746" lon="3.44517">
        <ele>917</ele>
        <time>2017-03-06T18:44:05Z</time>
      </trkpt>
      <trkpt lat="44.06742" lon="3.44496">
        <ele>917</ele>
        <time>2017-03-06T18:46:05Z</time>
      </trkpt>
      <trkpt lat="44.06738" lon="3.44473">
        <ele>918</ele>
        <time>2017-03-06T18:48:05Z</time>
      </trkpt>
      <trkpt lat="44.06736" lon="3.44461">
        <ele>918</ele>
        <time>2017-03-06T18:50:05Z</time>
      </trkpt>
      <trkpt lat="44.06734" lon="3.44456">
        <ele>918</ele>
        <time>2017-03-06T18:52:05Z</time>
      </trkpt>
      <trkpt lat="44.0673" lon="3.4445">
        <ele>918</ele>
        <time>2017-03-06T18:54:05Z</time>
      </trkpt>
      <trkpt lat="44.06724" lon="3.44442">
        <ele>917</ele>
        <time>2017-03-06T18:56:05Z</time>
      </trkpt>
      <trkpt lat="44.06715" lon="3.44431">
        <ele>916</ele>
        <time>2017-03-06T18:58:05Z</time>
      </trkpt>
      <trkpt lat="44.06708" lon="3.4442">
        <ele>915</ele>
        <time>2017-03-06T19:00:05Z</time>
      </trkpt>
      <trkpt lat="44.06702" lon="3.44409">
        <ele>914</ele>
        <time>2017-03-06T19:02:05Z</time>
      </trkpt>
      <trkpt lat="44.06702" lon="3.44409">
        <ele>914</ele>
        <time>2017-03-06T19:04:05Z</time>
      </trkpt>
      <trkpt lat="44.06697" lon="3.4442">
        <ele>912</ele>
        <time>2017-03-06T19:06:05Z</time>
      </trkpt>
      <trkpt lat="44.0669" lon="3.44434">
        <ele>911</ele>
        <time>2017-03-06T19:08:05Z</time>
      </trkpt>
      <trkpt lat="44.0668" lon="3.44458">
        <ele>908</ele>
        <time>2017-03-06T19:10:05Z</time>
      </trkpt>
      <trkpt lat="44.06672" lon="3.44478">
        <ele>906</ele>
        <time>2017-03-06T19:12:05Z</time>
      </trkpt>
      <trkpt lat="44.06666" lon="3.44488">
        <ele>905</ele>
        <time>2017-03-06T19:14:05Z</time>
      </trkpt>
      <trkpt lat="44.06662" lon="3.44494">
        <ele>904</ele>
        <time>2017-03-06T19:16:05Z</time>
      </trkpt>
      <trkpt lat="44.06655" lon="3.44501">
        <ele>903</ele>
        <time>2017-03-06T19:18:05Z</time>
      </trkpt>
      <trkpt lat="44.06645" lon="3.44509">
        <ele>902</ele>
        <time>2017-03-06T19:20:05Z</time>
      </trkpt>
      <trkpt lat="44.06639" lon="3.44515">
        <ele>902</ele>
        <time>2017-03-06T19:22:05Z</time>
      </trkpt>
      <trkpt lat="44.0663" lon="3.44525">
        <ele>901</ele>
        <time>2017-03-06T19:24:05Z</time>
      </trkpt>
      <trkpt lat="44.06607" lon="3.44555">
        <ele>899</ele>
        <time>2017-03-06T19:26:05Z</time>
      </trkpt>
      <trkpt lat="44.06595" lon="3.44573">
        <ele>899</ele>
        <time>2017-03-06T19:28:05Z</time>
      </trkpt>
      <trkpt lat="44.06594" lon="3.44574">
        <ele>899</ele>
        <time>2017-03-06T19:30:05Z</time>
      </trkpt>
      <trkpt lat="44.06589" lon="3.44584">
        <ele>899</ele>
        <time>2017-03-06T19:32:05Z</time>
      </trkpt>
      <trkpt lat="44.06586" lon="3.44594">
        <ele>898</ele>
        <time>2017-03-06T19:34:05Z</time>
      </trkpt>
      <trkpt lat="44.06585" lon="3.44599">
        <ele>898</ele>
        <time>2017-03-06T19:36:05Z</time>
      </trkpt>
      <trkpt lat="44.06584" lon="3.44605">
        <ele>897</ele>
        <time>2017-03-06T19:38:05Z</time>
      </trkpt>
      <trkpt lat="44.06584" lon="3.44606">
        <ele>897</ele>
        <time>2017-03-06T19:40:05Z</time>
      </trkpt>
      <trkpt lat="44.06584" lon="3.44606">
        <ele>897</ele>
        <time>2017-03-06T19:42:05Z</time>
      </trkpt>
      <trkpt lat="44.06581" lon="3.4461">
        <ele>897</ele>
        <time>2017-03-06T19:44:05Z</time>
      </trkpt>
      <trkpt lat="44.06578" lon="3.44613">
        <ele>897</ele>
        <time>2017-03-06T19:46:05Z</time>
      </trkpt>
      <trkpt lat="44.06573" lon="3.44617">
        <ele>897</ele>
        <time>2017-03-06T19:48:05Z</time>
      </trkpt>
      <trkpt lat="44.06556" lon="3.4463">
        <ele>896</ele>
        <time>2017-03-06T19:50:05Z</time>
      </trkpt>
      <trkpt lat="44.06544" lon="3.44635">
        <ele>896</ele>
        <time>2017-03-06T19:52:05Z</time>
      </trkpt>
      <trkpt lat="44.06531" lon="3.44638">
        <ele>896</ele>
        <time>2017-03-06T19:54:05Z</time>
      </trkpt>
      <trkpt lat="44.06522" lon="3.44636">
        <ele>896</ele>
        <time>2017-03-06T19:56:05Z</time>
      </trkpt>
      <trkpt lat="44.06514" lon="3.44633">
        <ele>896</ele>
        <time>2017-03-06T19:58:05Z</time>
      </trkpt>
      <trkpt lat="44.06507" lon="3.44629">
        <ele>896</ele>
        <time>2017-03-06T20:00:05Z</time>
      </trkpt>
      <trkpt lat="44.06502" lon="3.44627">
        <ele>896</ele>
        <time>2017-03-06T20:02:05Z</time>
      </trkpt>
      <trkpt lat="44.06502" lon="3.44626">
        <ele>896</ele>
        <time>2017-03-06T20:04:05Z</time>
      </trkpt>
      <trkpt lat="44.06502" lon="3.44626">
        <ele>896</ele>
        <time>2017-03-06T20:06:05Z</time>
      </trkpt>
      <trkpt lat="44.065" lon="3.4463">
        <ele>896</ele>
        <time>2017-03-06T20:08:05Z</time>
      </trkpt>
      <trkpt lat="44.06498" lon="3.44633">
        <ele>895</ele>
        <time>2017-03-06T20:10:05Z</time>
      </trkpt>
      <trkpt lat="44.06495" lon="3.44636">
        <ele>895</ele>
        <time>2017-03-06T20:12:05Z</time>
      </trkpt>
    </trkseg>
  </trk>
</gpx>